<?xml version="1.0" encoding="UTF-8" standalone="no" ?>
<gpx xmlns="http://www.topografix.com/GPX/1/1" xmlns:xsi="http://www.w3.org/2001/XMLSchema-instance" xsi:schemaLocation="http://www.topografix.com/GPX/1/1 http://www.topografix.com/GPX/1/1/gpx.xsd" version="1.1" creator="VisuGPX - https://www.visugpx.com">
  <metadata>
    <name>De Tagant à Aiounet</name>
    <desc><![CDATA[Départ de la piste Vieuchange à partir de Tagant, près de Bouizakarne]]></desc>
  </metadata>
  <trk>
    <name><![CDATA[Tagant-Fort Espagnol]]></name>
    <desc><![CDATA[De Bouizakarne au Fort Espagnol après Msied. A Tagant, démarrage de la piste ]]></desc>
    <trkseg>
      <trkpt lat="29.13006" lon="-9.77741">
        <ele>540.2</ele>
        <time>2012-05-10T11:35:38Z</time>
      </trkpt>
      <trkpt lat="29.13" lon="-9.77763">
        <ele>540.6</ele>
        <time>2012-05-10T11:35:43Z</time>
      </trkpt>
      <trkpt lat="29.12999" lon="-9.77785">
        <ele>540.8</ele>
        <time>2012-05-10T11:35:48Z</time>
      </trkpt>
      <trkpt lat="29.12994" lon="-9.77795">
        <ele>540.8</ele>
        <time>2012-05-10T11:35:53Z</time>
      </trkpt>
      <trkpt lat="29.12993" lon="-9.77793">
        <ele>536.3</ele>
        <time>2012-05-10T11:35:58Z</time>
      </trkpt>
      <trkpt lat="29.12993" lon="-9.77793">
        <ele>537.7</ele>
        <time>2012-05-10T11:36:03Z</time>
      </trkpt>
      <trkpt lat="29.12993" lon="-9.77794">
        <ele>542.5</ele>
        <time>2012-05-10T11:36:08Z</time>
      </trkpt>
      <trkpt lat="29.12993" lon="-9.77794">
        <ele>542.9</ele>
        <time>2012-05-10T11:36:13Z</time>
      </trkpt>
      <trkpt lat="29.12991" lon="-9.77798">
        <ele>536.8</ele>
        <time>2012-05-10T11:36:18Z</time>
      </trkpt>
      <trkpt lat="29.12992" lon="-9.77804">
        <ele>529.8</ele>
        <time>2012-05-10T11:36:23Z</time>
      </trkpt>
      <trkpt lat="29.1299" lon="-9.77807">
        <ele>536.5</ele>
        <time>2012-05-10T11:36:28Z</time>
      </trkpt>
      <trkpt lat="29.12986" lon="-9.77809">
        <ele>542.6</ele>
        <time>2012-05-10T11:36:33Z</time>
      </trkpt>
      <trkpt lat="29.12984" lon="-9.77811">
        <ele>542.8</ele>
        <time>2012-05-10T11:36:38Z</time>
      </trkpt>
      <trkpt lat="29.12984" lon="-9.77812">
        <ele>542.6</ele>
        <time>2012-05-10T11:36:43Z</time>
      </trkpt>
      <trkpt lat="29.12985" lon="-9.77812">
        <ele>538.7</ele>
        <time>2012-05-10T11:36:48Z</time>
      </trkpt>
      <trkpt lat="29.12986" lon="-9.7781">
        <ele>536.4</ele>
        <time>2012-05-10T11:36:53Z</time>
      </trkpt>
      <trkpt lat="29.12984" lon="-9.77807">
        <ele>542.5</ele>
        <time>2012-05-10T11:36:58Z</time>
      </trkpt>
      <trkpt lat="29.12986" lon="-9.77807">
        <ele>540</ele>
        <time>2012-05-10T11:37:03Z</time>
      </trkpt>
      <trkpt lat="29.12984" lon="-9.77807">
        <ele>541.9</ele>
        <time>2012-05-10T11:37:08Z</time>
      </trkpt>
      <trkpt lat="29.12985" lon="-9.77808">
        <ele>536.9</ele>
        <time>2012-05-10T11:37:13Z</time>
      </trkpt>
      <trkpt lat="29.12986" lon="-9.77807">
        <ele>535.2</ele>
        <time>2012-05-10T11:37:18Z</time>
      </trkpt>
      <trkpt lat="29.12985" lon="-9.7781">
        <ele>534.6</ele>
        <time>2012-05-10T11:37:23Z</time>
      </trkpt>
      <trkpt lat="29.12986" lon="-9.77811">
        <ele>544</ele>
        <time>2012-05-10T11:37:28Z</time>
      </trkpt>
      <trkpt lat="29.12989" lon="-9.77812">
        <ele>546.2</ele>
        <time>2012-05-10T11:37:33Z</time>
      </trkpt>
      <trkpt lat="29.12991" lon="-9.7781">
        <ele>545.2</ele>
        <time>2012-05-10T11:37:38Z</time>
      </trkpt>
      <trkpt lat="29.12992" lon="-9.77809">
        <ele>542.3</ele>
        <time>2012-05-10T11:37:43Z</time>
      </trkpt>
      <trkpt lat="29.1299" lon="-9.77807">
        <ele>544.6</ele>
        <time>2012-05-10T11:37:48Z</time>
      </trkpt>
      <trkpt lat="29.12993" lon="-9.77806">
        <ele>540.1</ele>
        <time>2012-05-10T11:37:53Z</time>
      </trkpt>
      <trkpt lat="29.1299" lon="-9.77806">
        <ele>545.6</ele>
        <time>2012-05-10T11:37:58Z</time>
      </trkpt>
      <trkpt lat="29.12991" lon="-9.77809">
        <ele>546</ele>
        <time>2012-05-10T11:38:03Z</time>
      </trkpt>
      <trkpt lat="29.12992" lon="-9.7781">
        <ele>549</ele>
        <time>2012-05-10T11:38:08Z</time>
      </trkpt>
      <trkpt lat="29.12993" lon="-9.77808">
        <ele>547.6</ele>
        <time>2012-05-10T11:38:13Z</time>
      </trkpt>
      <trkpt lat="29.12994" lon="-9.77809">
        <ele>542.8</ele>
        <time>2012-05-10T11:38:18Z</time>
      </trkpt>
      <trkpt lat="29.12993" lon="-9.7781">
        <ele>541.6</ele>
        <time>2012-05-10T11:38:23Z</time>
      </trkpt>
      <trkpt lat="29.12994" lon="-9.7781">
        <ele>536.4</ele>
        <time>2012-05-10T11:38:28Z</time>
      </trkpt>
      <trkpt lat="29.12993" lon="-9.77809">
        <ele>536.8</ele>
        <time>2012-05-10T11:38:33Z</time>
      </trkpt>
      <trkpt lat="29.12993" lon="-9.77808">
        <ele>534</ele>
        <time>2012-05-10T11:38:38Z</time>
      </trkpt>
      <trkpt lat="29.12979" lon="-9.77815">
        <ele>537.3</ele>
        <time>2012-05-10T11:38:43Z</time>
      </trkpt>
      <trkpt lat="29.12966" lon="-9.77831">
        <ele>537.9</ele>
        <time>2012-05-10T11:38:48Z</time>
      </trkpt>
      <trkpt lat="29.12951" lon="-9.77852">
        <ele>539.7</ele>
        <time>2012-05-10T11:38:53Z</time>
      </trkpt>
      <trkpt lat="29.12947" lon="-9.77858">
        <ele>542.9</ele>
        <time>2012-05-10T11:38:58Z</time>
      </trkpt>
      <trkpt lat="29.12946" lon="-9.77858">
        <ele>545.8</ele>
        <time>2012-05-10T11:39:03Z</time>
      </trkpt>
      <trkpt lat="29.12946" lon="-9.77858">
        <ele>548.2</ele>
        <time>2012-05-10T11:39:08Z</time>
      </trkpt>
      <trkpt lat="29.12945" lon="-9.77858">
        <ele>550.4</ele>
        <time>2012-05-10T11:39:13Z</time>
      </trkpt>
      <trkpt lat="29.12945" lon="-9.77857">
        <ele>552.3</ele>
        <time>2012-05-10T11:39:18Z</time>
      </trkpt>
      <trkpt lat="29.12947" lon="-9.77856">
        <ele>545.5</ele>
        <time>2012-05-10T11:39:23Z</time>
      </trkpt>
      <trkpt lat="29.12946" lon="-9.77857">
        <ele>550</ele>
        <time>2012-05-10T11:39:28Z</time>
      </trkpt>
      <trkpt lat="29.12945" lon="-9.77858">
        <ele>555.5</ele>
        <time>2012-05-10T11:39:33Z</time>
      </trkpt>
      <trkpt lat="29.12946" lon="-9.77857">
        <ele>545.7</ele>
        <time>2012-05-10T11:39:38Z</time>
      </trkpt>
      <trkpt lat="29.12946" lon="-9.77856">
        <ele>538.9</ele>
        <time>2012-05-10T11:39:43Z</time>
      </trkpt>
      <trkpt lat="29.12947" lon="-9.77858">
        <ele>541.7</ele>
        <time>2012-05-10T11:39:48Z</time>
      </trkpt>
      <trkpt lat="29.12946" lon="-9.77858">
        <ele>545.1</ele>
        <time>2012-05-10T11:39:53Z</time>
      </trkpt>
      <trkpt lat="29.12943" lon="-9.77858">
        <ele>549.8</ele>
        <time>2012-05-10T11:39:58Z</time>
      </trkpt>
      <trkpt lat="29.12944" lon="-9.77857">
        <ele>546.9</ele>
        <time>2012-05-10T11:40:03Z</time>
      </trkpt>
      <trkpt lat="29.12946" lon="-9.77858">
        <ele>543.9</ele>
        <time>2012-05-10T11:40:08Z</time>
      </trkpt>
      <trkpt lat="29.12945" lon="-9.77859">
        <ele>548.5</ele>
        <time>2012-05-10T11:40:13Z</time>
      </trkpt>
      <trkpt lat="29.12945" lon="-9.77859">
        <ele>553.9</ele>
        <time>2012-05-10T11:40:18Z</time>
      </trkpt>
      <trkpt lat="29.12945" lon="-9.77859">
        <ele>553.2</ele>
        <time>2012-05-10T11:40:23Z</time>
      </trkpt>
      <trkpt lat="29.12945" lon="-9.77859">
        <ele>549.1</ele>
        <time>2012-05-10T11:40:28Z</time>
      </trkpt>
      <trkpt lat="29.12945" lon="-9.77859">
        <ele>554</ele>
        <time>2012-05-10T11:40:33Z</time>
      </trkpt>
      <trkpt lat="29.12945" lon="-9.77859">
        <ele>556.4</ele>
        <time>2012-05-10T11:40:38Z</time>
      </trkpt>
      <trkpt lat="29.12946" lon="-9.77859">
        <ele>551.1</ele>
        <time>2012-05-10T11:40:43Z</time>
      </trkpt>
      <trkpt lat="29.12946" lon="-9.77858">
        <ele>546.9</ele>
        <time>2012-05-10T11:40:48Z</time>
      </trkpt>
      <trkpt lat="29.12945" lon="-9.77858">
        <ele>551</ele>
        <time>2012-05-10T11:40:53Z</time>
      </trkpt>
      <trkpt lat="29.12946" lon="-9.77857">
        <ele>549.5</ele>
        <time>2012-05-10T11:40:58Z</time>
      </trkpt>
      <trkpt lat="29.12947" lon="-9.77857">
        <ele>546.3</ele>
        <time>2012-05-10T11:41:03Z</time>
      </trkpt>
      <trkpt lat="29.12946" lon="-9.77856">
        <ele>546.8</ele>
        <time>2012-05-10T11:41:08Z</time>
      </trkpt>
      <trkpt lat="29.12947" lon="-9.77856">
        <ele>549.4</ele>
        <time>2012-05-10T11:41:13Z</time>
      </trkpt>
      <trkpt lat="29.12946" lon="-9.77856">
        <ele>548.1</ele>
        <time>2012-05-10T11:41:18Z</time>
      </trkpt>
      <trkpt lat="29.12945" lon="-9.77856">
        <ele>549.9</ele>
        <time>2012-05-10T11:41:23Z</time>
      </trkpt>
      <trkpt lat="29.12944" lon="-9.77857">
        <ele>554.1</ele>
        <time>2012-05-10T11:41:28Z</time>
      </trkpt>
      <trkpt lat="29.12944" lon="-9.77857">
        <ele>554.8</ele>
        <time>2012-05-10T11:41:33Z</time>
      </trkpt>
      <trkpt lat="29.12943" lon="-9.77856">
        <ele>552.4</ele>
        <time>2012-05-10T11:41:38Z</time>
      </trkpt>
      <trkpt lat="29.12944" lon="-9.77858">
        <ele>552.4</ele>
        <time>2012-05-10T11:41:43Z</time>
      </trkpt>
      <trkpt lat="29.12944" lon="-9.77856">
        <ele>551</ele>
        <time>2012-05-10T11:41:48Z</time>
      </trkpt>
      <trkpt lat="29.12931" lon="-9.77876">
        <ele>551.5</ele>
        <time>2012-05-10T11:41:53Z</time>
      </trkpt>
      <trkpt lat="29.12911" lon="-9.77908">
        <ele>551.9</ele>
        <time>2012-05-10T11:41:58Z</time>
      </trkpt>
      <trkpt lat="29.12826" lon="-9.78055">
        <ele>552.2</ele>
        <time>2012-05-10T11:42:03Z</time>
      </trkpt>
      <trkpt lat="29.127" lon="-9.78285">
        <ele>549.6</ele>
        <time>2012-05-10T11:42:08Z</time>
      </trkpt>
      <trkpt lat="29.1259" lon="-9.78488">
        <ele>546.8</ele>
        <time>2012-05-10T11:42:13Z</time>
      </trkpt>
      <trkpt lat="29.12486" lon="-9.78679">
        <ele>547.1</ele>
        <time>2012-05-10T11:42:18Z</time>
      </trkpt>
      <trkpt lat="29.12423" lon="-9.78795">
        <ele>545.8</ele>
        <time>2012-05-10T11:42:23Z</time>
      </trkpt>
      <trkpt lat="29.12405" lon="-9.78832">
        <ele>545.2</ele>
        <time>2012-05-10T11:42:28Z</time>
      </trkpt>
      <trkpt lat="29.12391" lon="-9.78849">
        <ele>544.4</ele>
        <time>2012-05-10T11:42:33Z</time>
      </trkpt>
      <trkpt lat="29.12373" lon="-9.78859">
        <ele>543.1</ele>
        <time>2012-05-10T11:42:38Z</time>
      </trkpt>
      <trkpt lat="29.12349" lon="-9.78866">
        <ele>542.2</ele>
        <time>2012-05-10T11:42:43Z</time>
      </trkpt>
      <trkpt lat="29.12332" lon="-9.78871">
        <ele>541.4</ele>
        <time>2012-05-10T11:42:48Z</time>
      </trkpt>
      <trkpt lat="29.12229" lon="-9.78897">
        <ele>539.3</ele>
        <time>2012-05-10T11:42:53Z</time>
      </trkpt>
      <trkpt lat="29.12196" lon="-9.78905">
        <ele>538.4</ele>
        <time>2012-05-10T11:42:58Z</time>
      </trkpt>
      <trkpt lat="29.1211" lon="-9.78929">
        <ele>537.2</ele>
        <time>2012-05-10T11:43:03Z</time>
      </trkpt>
      <trkpt lat="29.1209" lon="-9.78936">
        <ele>536.6</ele>
        <time>2012-05-10T11:43:08Z</time>
      </trkpt>
      <trkpt lat="29.12071" lon="-9.78941">
        <ele>536.8</ele>
        <time>2012-05-10T11:43:13Z</time>
      </trkpt>
      <trkpt lat="29.11932" lon="-9.78979">
        <ele>534.6</ele>
        <time>2012-05-10T11:43:18Z</time>
      </trkpt>
      <trkpt lat="29.11889" lon="-9.7899">
        <ele>533.3</ele>
        <time>2012-05-10T11:43:23Z</time>
      </trkpt>
      <trkpt lat="29.11851" lon="-9.78999">
        <ele>532.8</ele>
        <time>2012-05-10T11:43:28Z</time>
      </trkpt>
      <trkpt lat="29.11788" lon="-9.79017">
        <ele>532.9</ele>
        <time>2012-05-10T11:43:33Z</time>
      </trkpt>
      <trkpt lat="29.1174" lon="-9.79031">
        <ele>532.9</ele>
        <time>2012-05-10T11:43:38Z</time>
      </trkpt>
      <trkpt lat="29.11715" lon="-9.79036">
        <ele>532.7</ele>
        <time>2012-05-10T11:43:43Z</time>
      </trkpt>
      <trkpt lat="29.11691" lon="-9.79043">
        <ele>533</ele>
        <time>2012-05-10T11:43:48Z</time>
      </trkpt>
      <trkpt lat="29.11667" lon="-9.7905">
        <ele>532.3</ele>
        <time>2012-05-10T11:43:53Z</time>
      </trkpt>
      <trkpt lat="29.11598" lon="-9.79067">
        <ele>532.4</ele>
        <time>2012-05-10T11:43:58Z</time>
      </trkpt>
      <trkpt lat="29.11578" lon="-9.79073">
        <ele>532.1</ele>
        <time>2012-05-10T11:44:03Z</time>
      </trkpt>
      <trkpt lat="29.11556" lon="-9.79079">
        <ele>532</ele>
        <time>2012-05-10T11:44:08Z</time>
      </trkpt>
      <trkpt lat="29.11525" lon="-9.79088">
        <ele>531.6</ele>
        <time>2012-05-10T11:44:13Z</time>
      </trkpt>
      <trkpt lat="29.11494" lon="-9.79097">
        <ele>531.2</ele>
        <time>2012-05-10T11:44:18Z</time>
      </trkpt>
      <trkpt lat="29.1147" lon="-9.79101">
        <ele>530.7</ele>
        <time>2012-05-10T11:44:23Z</time>
      </trkpt>
      <trkpt lat="29.11448" lon="-9.79107">
        <ele>530.7</ele>
        <time>2012-05-10T11:44:28Z</time>
      </trkpt>
      <trkpt lat="29.11411" lon="-9.79119">
        <ele>530.7</ele>
        <time>2012-05-10T11:44:33Z</time>
      </trkpt>
      <trkpt lat="29.11389" lon="-9.79124">
        <ele>530.6</ele>
        <time>2012-05-10T11:44:38Z</time>
      </trkpt>
      <trkpt lat="29.11364" lon="-9.79129">
        <ele>530.7</ele>
        <time>2012-05-10T11:44:43Z</time>
      </trkpt>
      <trkpt lat="29.11275" lon="-9.79155">
        <ele>529.3</ele>
        <time>2012-05-10T11:44:48Z</time>
      </trkpt>
      <trkpt lat="29.11251" lon="-9.79165">
        <ele>529.4</ele>
        <time>2012-05-10T11:44:53Z</time>
      </trkpt>
      <trkpt lat="29.11228" lon="-9.79171">
        <ele>528.3</ele>
        <time>2012-05-10T11:44:58Z</time>
      </trkpt>
      <trkpt lat="29.11207" lon="-9.79177">
        <ele>528.3</ele>
        <time>2012-05-10T11:45:03Z</time>
      </trkpt>
      <trkpt lat="29.11189" lon="-9.79182">
        <ele>528.1</ele>
        <time>2012-05-10T11:45:08Z</time>
      </trkpt>
      <trkpt lat="29.1117" lon="-9.79187">
        <ele>528.2</ele>
        <time>2012-05-10T11:45:13Z</time>
      </trkpt>
      <trkpt lat="29.11131" lon="-9.79199">
        <ele>527.9</ele>
        <time>2012-05-10T11:45:18Z</time>
      </trkpt>
      <trkpt lat="29.11087" lon="-9.7921">
        <ele>527.6</ele>
        <time>2012-05-10T11:45:23Z</time>
      </trkpt>
      <trkpt lat="29.11066" lon="-9.79219">
        <ele>527.1</ele>
        <time>2012-05-10T11:45:28Z</time>
      </trkpt>
      <trkpt lat="29.1104" lon="-9.79228">
        <ele>526.8</ele>
        <time>2012-05-10T11:45:33Z</time>
      </trkpt>
      <trkpt lat="29.11014" lon="-9.79234">
        <ele>526.5</ele>
        <time>2012-05-10T11:45:38Z</time>
      </trkpt>
      <trkpt lat="29.10976" lon="-9.7924">
        <ele>525.8</ele>
        <time>2012-05-10T11:45:43Z</time>
      </trkpt>
      <trkpt lat="29.10945" lon="-9.79241">
        <ele>525.3</ele>
        <time>2012-05-10T11:45:48Z</time>
      </trkpt>
      <trkpt lat="29.10924" lon="-9.79234">
        <ele>525.4</ele>
        <time>2012-05-10T11:45:53Z</time>
      </trkpt>
      <trkpt lat="29.10904" lon="-9.79227">
        <ele>525.5</ele>
        <time>2012-05-10T11:45:58Z</time>
      </trkpt>
      <trkpt lat="29.10878" lon="-9.79224">
        <ele>526</ele>
        <time>2012-05-10T11:46:03Z</time>
      </trkpt>
      <trkpt lat="29.10851" lon="-9.7922">
        <ele>526.1</ele>
        <time>2012-05-10T11:46:08Z</time>
      </trkpt>
      <trkpt lat="29.10817" lon="-9.79216">
        <ele>526.5</ele>
        <time>2012-05-10T11:46:13Z</time>
      </trkpt>
      <trkpt lat="29.10792" lon="-9.79218">
        <ele>526.4</ele>
        <time>2012-05-10T11:46:18Z</time>
      </trkpt>
      <trkpt lat="29.10768" lon="-9.79225">
        <ele>525.9</ele>
        <time>2012-05-10T11:46:23Z</time>
      </trkpt>
      <trkpt lat="29.10753" lon="-9.79237">
        <ele>525.6</ele>
        <time>2012-05-10T11:46:28Z</time>
      </trkpt>
      <trkpt lat="29.10741" lon="-9.79254">
        <ele>525.8</ele>
        <time>2012-05-10T11:46:33Z</time>
      </trkpt>
      <trkpt lat="29.10719" lon="-9.79263">
        <ele>525.7</ele>
        <time>2012-05-10T11:46:38Z</time>
      </trkpt>
      <trkpt lat="29.107" lon="-9.79272">
        <ele>525.8</ele>
        <time>2012-05-10T11:46:43Z</time>
      </trkpt>
      <trkpt lat="29.10684" lon="-9.79288">
        <ele>525.3</ele>
        <time>2012-05-10T11:46:48Z</time>
      </trkpt>
      <trkpt lat="29.1067" lon="-9.7931">
        <ele>525.6</ele>
        <time>2012-05-10T11:46:53Z</time>
      </trkpt>
      <trkpt lat="29.10654" lon="-9.79325">
        <ele>525.5</ele>
        <time>2012-05-10T11:46:58Z</time>
      </trkpt>
      <trkpt lat="29.10632" lon="-9.79333">
        <ele>525.4</ele>
        <time>2012-05-10T11:47:03Z</time>
      </trkpt>
      <trkpt lat="29.10604" lon="-9.79339">
        <ele>525.2</ele>
        <time>2012-05-10T11:47:08Z</time>
      </trkpt>
      <trkpt lat="29.10586" lon="-9.79345">
        <ele>524.8</ele>
        <time>2012-05-10T11:47:13Z</time>
      </trkpt>
      <trkpt lat="29.10564" lon="-9.79347">
        <ele>524.9</ele>
        <time>2012-05-10T11:47:18Z</time>
      </trkpt>
      <trkpt lat="29.10541" lon="-9.79352">
        <ele>524.7</ele>
        <time>2012-05-10T11:47:23Z</time>
      </trkpt>
      <trkpt lat="29.10524" lon="-9.79364">
        <ele>524.4</ele>
        <time>2012-05-10T11:47:28Z</time>
      </trkpt>
      <trkpt lat="29.10503" lon="-9.79373">
        <ele>524.5</ele>
        <time>2012-05-10T11:47:33Z</time>
      </trkpt>
      <trkpt lat="29.10479" lon="-9.79378">
        <ele>524.6</ele>
        <time>2012-05-10T11:47:38Z</time>
      </trkpt>
      <trkpt lat="29.10455" lon="-9.79382">
        <ele>524.7</ele>
        <time>2012-05-10T11:47:43Z</time>
      </trkpt>
      <trkpt lat="29.10426" lon="-9.79388">
        <ele>524.7</ele>
        <time>2012-05-10T11:47:48Z</time>
      </trkpt>
      <trkpt lat="29.10405" lon="-9.79401">
        <ele>524.3</ele>
        <time>2012-05-10T11:47:53Z</time>
      </trkpt>
      <trkpt lat="29.10385" lon="-9.7942">
        <ele>523.1</ele>
        <time>2012-05-10T11:47:58Z</time>
      </trkpt>
      <trkpt lat="29.10368" lon="-9.79427">
        <ele>522.9</ele>
        <time>2012-05-10T11:48:03Z</time>
      </trkpt>
      <trkpt lat="29.10348" lon="-9.79429">
        <ele>522.8</ele>
        <time>2012-05-10T11:48:08Z</time>
      </trkpt>
      <trkpt lat="29.10301" lon="-9.79432">
        <ele>522.9</ele>
        <time>2012-05-10T11:48:13Z</time>
      </trkpt>
      <trkpt lat="29.10278" lon="-9.79437">
        <ele>522.9</ele>
        <time>2012-05-10T11:48:18Z</time>
      </trkpt>
      <trkpt lat="29.10243" lon="-9.79445">
        <ele>523</ele>
        <time>2012-05-10T11:48:23Z</time>
      </trkpt>
      <trkpt lat="29.1022" lon="-9.7945">
        <ele>523</ele>
        <time>2012-05-10T11:48:28Z</time>
      </trkpt>
      <trkpt lat="29.10198" lon="-9.79452">
        <ele>522.9</ele>
        <time>2012-05-10T11:48:33Z</time>
      </trkpt>
      <trkpt lat="29.10176" lon="-9.79457">
        <ele>522.7</ele>
        <time>2012-05-10T11:48:38Z</time>
      </trkpt>
      <trkpt lat="29.10145" lon="-9.79465">
        <ele>522.5</ele>
        <time>2012-05-10T11:48:43Z</time>
      </trkpt>
      <trkpt lat="29.10126" lon="-9.79474">
        <ele>522.5</ele>
        <time>2012-05-10T11:48:48Z</time>
      </trkpt>
      <trkpt lat="29.10108" lon="-9.79482">
        <ele>522.4</ele>
        <time>2012-05-10T11:48:53Z</time>
      </trkpt>
      <trkpt lat="29.10089" lon="-9.7949">
        <ele>522.1</ele>
        <time>2012-05-10T11:48:58Z</time>
      </trkpt>
      <trkpt lat="29.10069" lon="-9.79497">
        <ele>521.9</ele>
        <time>2012-05-10T11:49:03Z</time>
      </trkpt>
      <trkpt lat="29.10041" lon="-9.79507">
        <ele>522</ele>
        <time>2012-05-10T11:49:08Z</time>
      </trkpt>
      <trkpt lat="29.10018" lon="-9.79513">
        <ele>521.9</ele>
        <time>2012-05-10T11:49:13Z</time>
      </trkpt>
      <trkpt lat="29.09999" lon="-9.79513">
        <ele>522.7</ele>
        <time>2012-05-10T11:49:18Z</time>
      </trkpt>
      <trkpt lat="29.09978" lon="-9.79519">
        <ele>522.8</ele>
        <time>2012-05-10T11:49:23Z</time>
      </trkpt>
      <trkpt lat="29.09961" lon="-9.79526">
        <ele>522.9</ele>
        <time>2012-05-10T11:49:28Z</time>
      </trkpt>
      <trkpt lat="29.09938" lon="-9.79534">
        <ele>523</ele>
        <time>2012-05-10T11:49:33Z</time>
      </trkpt>
      <trkpt lat="29.09906" lon="-9.79544">
        <ele>522.7</ele>
        <time>2012-05-10T11:49:38Z</time>
      </trkpt>
      <trkpt lat="29.0988" lon="-9.7955">
        <ele>522.5</ele>
        <time>2012-05-10T11:49:43Z</time>
      </trkpt>
      <trkpt lat="29.09855" lon="-9.79556">
        <ele>522.5</ele>
        <time>2012-05-10T11:49:48Z</time>
      </trkpt>
      <trkpt lat="29.09829" lon="-9.79558">
        <ele>522.4</ele>
        <time>2012-05-10T11:49:53Z</time>
      </trkpt>
      <trkpt lat="29.09805" lon="-9.79561">
        <ele>522.4</ele>
        <time>2012-05-10T11:49:58Z</time>
      </trkpt>
      <trkpt lat="29.09771" lon="-9.79569">
        <ele>522.4</ele>
        <time>2012-05-10T11:50:03Z</time>
      </trkpt>
      <trkpt lat="29.09745" lon="-9.79577">
        <ele>522.2</ele>
        <time>2012-05-10T11:50:08Z</time>
      </trkpt>
      <trkpt lat="29.09721" lon="-9.79586">
        <ele>521.9</ele>
        <time>2012-05-10T11:50:13Z</time>
      </trkpt>
      <trkpt lat="29.09696" lon="-9.79592">
        <ele>521.7</ele>
        <time>2012-05-10T11:50:18Z</time>
      </trkpt>
      <trkpt lat="29.09675" lon="-9.79599">
        <ele>521.7</ele>
        <time>2012-05-10T11:50:23Z</time>
      </trkpt>
      <trkpt lat="29.09656" lon="-9.79614">
        <ele>521.5</ele>
        <time>2012-05-10T11:50:28Z</time>
      </trkpt>
      <trkpt lat="29.09646" lon="-9.79636">
        <ele>521.9</ele>
        <time>2012-05-10T11:50:33Z</time>
      </trkpt>
      <trkpt lat="29.09635" lon="-9.79653">
        <ele>522.3</ele>
        <time>2012-05-10T11:50:38Z</time>
      </trkpt>
      <trkpt lat="29.09615" lon="-9.79662">
        <ele>522.2</ele>
        <time>2012-05-10T11:50:43Z</time>
      </trkpt>
      <trkpt lat="29.09593" lon="-9.79668">
        <ele>521.9</ele>
        <time>2012-05-10T11:50:48Z</time>
      </trkpt>
      <trkpt lat="29.09561" lon="-9.79675">
        <ele>521.8</ele>
        <time>2012-05-10T11:50:53Z</time>
      </trkpt>
      <trkpt lat="29.09537" lon="-9.79685">
        <ele>521.5</ele>
        <time>2012-05-10T11:50:58Z</time>
      </trkpt>
      <trkpt lat="29.09518" lon="-9.79699">
        <ele>521</ele>
        <time>2012-05-10T11:51:03Z</time>
      </trkpt>
      <trkpt lat="29.09498" lon="-9.79706">
        <ele>520.7</ele>
        <time>2012-05-10T11:51:08Z</time>
      </trkpt>
      <trkpt lat="29.09483" lon="-9.79723">
        <ele>520</ele>
        <time>2012-05-10T11:51:13Z</time>
      </trkpt>
      <trkpt lat="29.09469" lon="-9.79747">
        <ele>520.2</ele>
        <time>2012-05-10T11:51:18Z</time>
      </trkpt>
      <trkpt lat="29.09451" lon="-9.79766">
        <ele>520.2</ele>
        <time>2012-05-10T11:51:23Z</time>
      </trkpt>
      <trkpt lat="29.09434" lon="-9.7978">
        <ele>519.5</ele>
        <time>2012-05-10T11:51:28Z</time>
      </trkpt>
      <trkpt lat="29.09416" lon="-9.79781">
        <ele>518.8</ele>
        <time>2012-05-10T11:51:33Z</time>
      </trkpt>
      <trkpt lat="29.09391" lon="-9.79772">
        <ele>517.1</ele>
        <time>2012-05-10T11:51:38Z</time>
      </trkpt>
      <trkpt lat="29.09373" lon="-9.79766">
        <ele>517.8</ele>
        <time>2012-05-10T11:51:43Z</time>
      </trkpt>
      <trkpt lat="29.09355" lon="-9.79755">
        <ele>518.6</ele>
        <time>2012-05-10T11:51:48Z</time>
      </trkpt>
      <trkpt lat="29.09337" lon="-9.79746">
        <ele>519.1</ele>
        <time>2012-05-10T11:51:53Z</time>
      </trkpt>
      <trkpt lat="29.09315" lon="-9.79743">
        <ele>519.3</ele>
        <time>2012-05-10T11:51:58Z</time>
      </trkpt>
      <trkpt lat="29.09296" lon="-9.79744">
        <ele>519.3</ele>
        <time>2012-05-10T11:52:03Z</time>
      </trkpt>
      <trkpt lat="29.09252" lon="-9.79747">
        <ele>519.6</ele>
        <time>2012-05-10T11:52:08Z</time>
      </trkpt>
      <trkpt lat="29.0923" lon="-9.79748">
        <ele>519.8</ele>
        <time>2012-05-10T11:52:13Z</time>
      </trkpt>
      <trkpt lat="29.09208" lon="-9.79755">
        <ele>519.8</ele>
        <time>2012-05-10T11:52:18Z</time>
      </trkpt>
      <trkpt lat="29.09187" lon="-9.79763">
        <ele>519.8</ele>
        <time>2012-05-10T11:52:23Z</time>
      </trkpt>
      <trkpt lat="29.09164" lon="-9.79765">
        <ele>520</ele>
        <time>2012-05-10T11:52:28Z</time>
      </trkpt>
      <trkpt lat="29.09141" lon="-9.79768">
        <ele>520</ele>
        <time>2012-05-10T11:52:33Z</time>
      </trkpt>
      <trkpt lat="29.09122" lon="-9.79767">
        <ele>520.3</ele>
        <time>2012-05-10T11:52:38Z</time>
      </trkpt>
      <trkpt lat="29.09077" lon="-9.79763">
        <ele>520.5</ele>
        <time>2012-05-10T11:52:43Z</time>
      </trkpt>
      <trkpt lat="29.09058" lon="-9.79762">
        <ele>520.5</ele>
        <time>2012-05-10T11:52:48Z</time>
      </trkpt>
      <trkpt lat="29.09038" lon="-9.79762">
        <ele>520.5</ele>
        <time>2012-05-10T11:52:53Z</time>
      </trkpt>
      <trkpt lat="29.09018" lon="-9.79763">
        <ele>520.5</ele>
        <time>2012-05-10T11:52:58Z</time>
      </trkpt>
      <trkpt lat="29.0898" lon="-9.79766">
        <ele>520.6</ele>
        <time>2012-05-10T11:53:03Z</time>
      </trkpt>
      <trkpt lat="29.08945" lon="-9.79765">
        <ele>520.7</ele>
        <time>2012-05-10T11:53:08Z</time>
      </trkpt>
      <trkpt lat="29.08919" lon="-9.79771">
        <ele>520.6</ele>
        <time>2012-05-10T11:53:13Z</time>
      </trkpt>
      <trkpt lat="29.08868" lon="-9.7978">
        <ele>520.7</ele>
        <time>2012-05-10T11:53:18Z</time>
      </trkpt>
      <trkpt lat="29.08843" lon="-9.79789">
        <ele>520.4</ele>
        <time>2012-05-10T11:53:23Z</time>
      </trkpt>
      <trkpt lat="29.08818" lon="-9.79797">
        <ele>520.3</ele>
        <time>2012-05-10T11:53:28Z</time>
      </trkpt>
      <trkpt lat="29.08793" lon="-9.79802">
        <ele>520.2</ele>
        <time>2012-05-10T11:53:33Z</time>
      </trkpt>
      <trkpt lat="29.08765" lon="-9.79809">
        <ele>520.1</ele>
        <time>2012-05-10T11:53:38Z</time>
      </trkpt>
      <trkpt lat="29.08757" lon="-9.79811">
        <ele>519.8</ele>
        <time>2012-05-10T11:53:43Z</time>
      </trkpt>
      <trkpt lat="29.08757" lon="-9.79812">
        <ele>519.8</ele>
        <time>2012-05-10T11:53:48Z</time>
      </trkpt>
      <trkpt lat="29.08757" lon="-9.79812">
        <ele>519.3</ele>
        <time>2012-05-10T11:53:53Z</time>
      </trkpt>
      <trkpt lat="29.08757" lon="-9.79812">
        <ele>519.1</ele>
        <time>2012-05-10T11:53:58Z</time>
      </trkpt>
      <trkpt lat="29.08757" lon="-9.79812">
        <ele>518.5</ele>
        <time>2012-05-10T11:54:03Z</time>
      </trkpt>
      <trkpt lat="29.08732" lon="-9.79817">
        <ele>518.9</ele>
        <time>2012-05-10T11:54:08Z</time>
      </trkpt>
      <trkpt lat="29.087" lon="-9.79824">
        <ele>518.9</ele>
        <time>2012-05-10T11:54:13Z</time>
      </trkpt>
      <trkpt lat="29.0868" lon="-9.79827">
        <ele>518.8</ele>
        <time>2012-05-10T11:54:18Z</time>
      </trkpt>
      <trkpt lat="29.08656" lon="-9.79829">
        <ele>518.9</ele>
        <time>2012-05-10T11:54:23Z</time>
      </trkpt>
      <trkpt lat="29.08632" lon="-9.79833">
        <ele>519</ele>
        <time>2012-05-10T11:54:28Z</time>
      </trkpt>
      <trkpt lat="29.08611" lon="-9.79837">
        <ele>518.8</ele>
        <time>2012-05-10T11:54:33Z</time>
      </trkpt>
      <trkpt lat="29.08588" lon="-9.79841">
        <ele>519</ele>
        <time>2012-05-10T11:54:38Z</time>
      </trkpt>
      <trkpt lat="29.08566" lon="-9.7985">
        <ele>518.7</ele>
        <time>2012-05-10T11:54:43Z</time>
      </trkpt>
      <trkpt lat="29.08545" lon="-9.79866">
        <ele>518.8</ele>
        <time>2012-05-10T11:54:48Z</time>
      </trkpt>
      <trkpt lat="29.08523" lon="-9.79882">
        <ele>518.4</ele>
        <time>2012-05-10T11:54:53Z</time>
      </trkpt>
      <trkpt lat="29.08503" lon="-9.79896">
        <ele>517.8</ele>
        <time>2012-05-10T11:54:58Z</time>
      </trkpt>
      <trkpt lat="29.08482" lon="-9.79904">
        <ele>517.8</ele>
        <time>2012-05-10T11:55:03Z</time>
      </trkpt>
      <trkpt lat="29.08462" lon="-9.79905">
        <ele>517.6</ele>
        <time>2012-05-10T11:55:08Z</time>
      </trkpt>
      <trkpt lat="29.08443" lon="-9.79905">
        <ele>518</ele>
        <time>2012-05-10T11:55:13Z</time>
      </trkpt>
      <trkpt lat="29.08423" lon="-9.79915">
        <ele>517.6</ele>
        <time>2012-05-10T11:55:18Z</time>
      </trkpt>
      <trkpt lat="29.0839" lon="-9.79934">
        <ele>516.7</ele>
        <time>2012-05-10T11:55:23Z</time>
      </trkpt>
      <trkpt lat="29.08372" lon="-9.79945">
        <ele>515.8</ele>
        <time>2012-05-10T11:55:28Z</time>
      </trkpt>
      <trkpt lat="29.08335" lon="-9.79965">
        <ele>516.1</ele>
        <time>2012-05-10T11:55:33Z</time>
      </trkpt>
      <trkpt lat="29.08317" lon="-9.79971">
        <ele>516.1</ele>
        <time>2012-05-10T11:55:38Z</time>
      </trkpt>
      <trkpt lat="29.08299" lon="-9.79978">
        <ele>516.4</ele>
        <time>2012-05-10T11:55:43Z</time>
      </trkpt>
      <trkpt lat="29.0828" lon="-9.79979">
        <ele>516.8</ele>
        <time>2012-05-10T11:55:48Z</time>
      </trkpt>
      <trkpt lat="29.08256" lon="-9.79978">
        <ele>517.1</ele>
        <time>2012-05-10T11:55:53Z</time>
      </trkpt>
      <trkpt lat="29.0823" lon="-9.79983">
        <ele>517.3</ele>
        <time>2012-05-10T11:55:58Z</time>
      </trkpt>
      <trkpt lat="29.08188" lon="-9.79993">
        <ele>517.5</ele>
        <time>2012-05-10T11:56:03Z</time>
      </trkpt>
      <trkpt lat="29.08164" lon="-9.79992">
        <ele>517.7</ele>
        <time>2012-05-10T11:56:08Z</time>
      </trkpt>
      <trkpt lat="29.08142" lon="-9.79987">
        <ele>518</ele>
        <time>2012-05-10T11:56:13Z</time>
      </trkpt>
      <trkpt lat="29.08119" lon="-9.79984">
        <ele>518.2</ele>
        <time>2012-05-10T11:56:18Z</time>
      </trkpt>
      <trkpt lat="29.08097" lon="-9.79979">
        <ele>518</ele>
        <time>2012-05-10T11:56:23Z</time>
      </trkpt>
      <trkpt lat="29.08074" lon="-9.79974">
        <ele>518.2</ele>
        <time>2012-05-10T11:56:28Z</time>
      </trkpt>
      <trkpt lat="29.08051" lon="-9.7998">
        <ele>517.9</ele>
        <time>2012-05-10T11:56:33Z</time>
      </trkpt>
      <trkpt lat="29.08014" lon="-9.79996">
        <ele>517.8</ele>
        <time>2012-05-10T11:56:38Z</time>
      </trkpt>
      <trkpt lat="29.07995" lon="-9.80006">
        <ele>517.5</ele>
        <time>2012-05-10T11:56:43Z</time>
      </trkpt>
      <trkpt lat="29.07974" lon="-9.80005">
        <ele>517.5</ele>
        <time>2012-05-10T11:56:48Z</time>
      </trkpt>
      <trkpt lat="29.07953" lon="-9.79995">
        <ele>517.3</ele>
        <time>2012-05-10T11:56:53Z</time>
      </trkpt>
      <trkpt lat="29.07935" lon="-9.79978">
        <ele>517.3</ele>
        <time>2012-05-10T11:56:58Z</time>
      </trkpt>
      <trkpt lat="29.07921" lon="-9.79964">
        <ele>517.3</ele>
        <time>2012-05-10T11:57:03Z</time>
      </trkpt>
      <trkpt lat="29.07904" lon="-9.7997">
        <ele>516.8</ele>
        <time>2012-05-10T11:57:08Z</time>
      </trkpt>
      <trkpt lat="29.07894" lon="-9.79989">
        <ele>516.8</ele>
        <time>2012-05-10T11:57:13Z</time>
      </trkpt>
      <trkpt lat="29.07887" lon="-9.80012">
        <ele>516.6</ele>
        <time>2012-05-10T11:57:18Z</time>
      </trkpt>
      <trkpt lat="29.07881" lon="-9.80035">
        <ele>516.6</ele>
        <time>2012-05-10T11:57:23Z</time>
      </trkpt>
      <trkpt lat="29.07877" lon="-9.80058">
        <ele>516.5</ele>
        <time>2012-05-10T11:57:28Z</time>
      </trkpt>
      <trkpt lat="29.07866" lon="-9.80085">
        <ele>516.5</ele>
        <time>2012-05-10T11:57:33Z</time>
      </trkpt>
      <trkpt lat="29.07848" lon="-9.80104">
        <ele>516.8</ele>
        <time>2012-05-10T11:57:38Z</time>
      </trkpt>
      <trkpt lat="29.0783" lon="-9.80123">
        <ele>516.4</ele>
        <time>2012-05-10T11:57:43Z</time>
      </trkpt>
      <trkpt lat="29.07805" lon="-9.80152">
        <ele>516.5</ele>
        <time>2012-05-10T11:57:48Z</time>
      </trkpt>
      <trkpt lat="29.07784" lon="-9.80171">
        <ele>516.2</ele>
        <time>2012-05-10T11:57:53Z</time>
      </trkpt>
      <trkpt lat="29.0776" lon="-9.80185">
        <ele>516.3</ele>
        <time>2012-05-10T11:57:58Z</time>
      </trkpt>
      <trkpt lat="29.07743" lon="-9.80194">
        <ele>516.5</ele>
        <time>2012-05-10T11:58:03Z</time>
      </trkpt>
      <trkpt lat="29.07726" lon="-9.80204">
        <ele>516.4</ele>
        <time>2012-05-10T11:58:08Z</time>
      </trkpt>
      <trkpt lat="29.07708" lon="-9.80212">
        <ele>516.4</ele>
        <time>2012-05-10T11:58:13Z</time>
      </trkpt>
      <trkpt lat="29.07645" lon="-9.8024">
        <ele>516.3</ele>
        <time>2012-05-10T11:58:18Z</time>
      </trkpt>
      <trkpt lat="29.07579" lon="-9.80262">
        <ele>516.5</ele>
        <time>2012-05-10T11:58:23Z</time>
      </trkpt>
      <trkpt lat="29.07555" lon="-9.80264">
        <ele>516.7</ele>
        <time>2012-05-10T11:58:28Z</time>
      </trkpt>
      <trkpt lat="29.0753" lon="-9.80268">
        <ele>516.7</ele>
        <time>2012-05-10T11:58:33Z</time>
      </trkpt>
      <trkpt lat="29.07507" lon="-9.80273">
        <ele>516.2</ele>
        <time>2012-05-10T11:58:38Z</time>
      </trkpt>
      <trkpt lat="29.07485" lon="-9.80281">
        <ele>515.8</ele>
        <time>2012-05-10T11:58:43Z</time>
      </trkpt>
      <trkpt lat="29.07461" lon="-9.80286">
        <ele>515.6</ele>
        <time>2012-05-10T11:58:48Z</time>
      </trkpt>
      <trkpt lat="29.07438" lon="-9.80287">
        <ele>515.5</ele>
        <time>2012-05-10T11:58:53Z</time>
      </trkpt>
      <trkpt lat="29.07416" lon="-9.80291">
        <ele>515.3</ele>
        <time>2012-05-10T11:58:58Z</time>
      </trkpt>
      <trkpt lat="29.07393" lon="-9.80295">
        <ele>515.2</ele>
        <time>2012-05-10T11:59:03Z</time>
      </trkpt>
      <trkpt lat="29.07363" lon="-9.80299">
        <ele>515</ele>
        <time>2012-05-10T11:59:08Z</time>
      </trkpt>
      <trkpt lat="29.0734" lon="-9.80297">
        <ele>514.6</ele>
        <time>2012-05-10T11:59:13Z</time>
      </trkpt>
      <trkpt lat="29.07318" lon="-9.80298">
        <ele>514.9</ele>
        <time>2012-05-10T11:59:18Z</time>
      </trkpt>
      <trkpt lat="29.07298" lon="-9.8031">
        <ele>515</ele>
        <time>2012-05-10T11:59:23Z</time>
      </trkpt>
      <trkpt lat="29.07279" lon="-9.80326">
        <ele>515</ele>
        <time>2012-05-10T11:59:28Z</time>
      </trkpt>
      <trkpt lat="29.07259" lon="-9.80338">
        <ele>515.4</ele>
        <time>2012-05-10T11:59:33Z</time>
      </trkpt>
      <trkpt lat="29.07237" lon="-9.80346">
        <ele>515</ele>
        <time>2012-05-10T11:59:38Z</time>
      </trkpt>
      <trkpt lat="29.07214" lon="-9.80355">
        <ele>514.6</ele>
        <time>2012-05-10T11:59:43Z</time>
      </trkpt>
      <trkpt lat="29.07194" lon="-9.80367">
        <ele>514.5</ele>
        <time>2012-05-10T11:59:48Z</time>
      </trkpt>
      <trkpt lat="29.07177" lon="-9.80384">
        <ele>514.3</ele>
        <time>2012-05-10T11:59:53Z</time>
      </trkpt>
      <trkpt lat="29.07156" lon="-9.80394">
        <ele>513.9</ele>
        <time>2012-05-10T11:59:58Z</time>
      </trkpt>
      <trkpt lat="29.07133" lon="-9.80401">
        <ele>513.3</ele>
        <time>2012-05-10T12:00:03Z</time>
      </trkpt>
      <trkpt lat="29.07112" lon="-9.80413">
        <ele>513.1</ele>
        <time>2012-05-10T12:00:08Z</time>
      </trkpt>
      <trkpt lat="29.07094" lon="-9.80429">
        <ele>512.6</ele>
        <time>2012-05-10T12:00:13Z</time>
      </trkpt>
      <trkpt lat="29.07076" lon="-9.80438">
        <ele>512.6</ele>
        <time>2012-05-10T12:00:18Z</time>
      </trkpt>
      <trkpt lat="29.07057" lon="-9.80445">
        <ele>512.9</ele>
        <time>2012-05-10T12:00:23Z</time>
      </trkpt>
      <trkpt lat="29.07043" lon="-9.80461">
        <ele>513.1</ele>
        <time>2012-05-10T12:00:28Z</time>
      </trkpt>
      <trkpt lat="29.07022" lon="-9.80474">
        <ele>512.4</ele>
        <time>2012-05-10T12:00:33Z</time>
      </trkpt>
      <trkpt lat="29.07008" lon="-9.8049">
        <ele>511.8</ele>
        <time>2012-05-10T12:00:38Z</time>
      </trkpt>
      <trkpt lat="29.06993" lon="-9.80507">
        <ele>511.1</ele>
        <time>2012-05-10T12:00:43Z</time>
      </trkpt>
      <trkpt lat="29.06973" lon="-9.80512">
        <ele>511.2</ele>
        <time>2012-05-10T12:00:48Z</time>
      </trkpt>
      <trkpt lat="29.06949" lon="-9.80522">
        <ele>511.4</ele>
        <time>2012-05-10T12:00:53Z</time>
      </trkpt>
      <trkpt lat="29.06923" lon="-9.8053">
        <ele>511.7</ele>
        <time>2012-05-10T12:00:58Z</time>
      </trkpt>
      <trkpt lat="29.06874" lon="-9.80544">
        <ele>511.9</ele>
        <time>2012-05-10T12:01:03Z</time>
      </trkpt>
      <trkpt lat="29.06768" lon="-9.80581">
        <ele>512.4</ele>
        <time>2012-05-10T12:01:08Z</time>
      </trkpt>
      <trkpt lat="29.06745" lon="-9.80589">
        <ele>512.5</ele>
        <time>2012-05-10T12:01:13Z</time>
      </trkpt>
      <trkpt lat="29.06701" lon="-9.80605">
        <ele>512.6</ele>
        <time>2012-05-10T12:01:18Z</time>
      </trkpt>
      <trkpt lat="29.0668" lon="-9.80615">
        <ele>512.7</ele>
        <time>2012-05-10T12:01:23Z</time>
      </trkpt>
      <trkpt lat="29.06648" lon="-9.80629">
        <ele>513</ele>
        <time>2012-05-10T12:01:28Z</time>
      </trkpt>
      <trkpt lat="29.06587" lon="-9.80657">
        <ele>513</ele>
        <time>2012-05-10T12:01:33Z</time>
      </trkpt>
      <trkpt lat="29.06569" lon="-9.80667">
        <ele>513</ele>
        <time>2012-05-10T12:01:38Z</time>
      </trkpt>
      <trkpt lat="29.06553" lon="-9.80676">
        <ele>512.9</ele>
        <time>2012-05-10T12:01:43Z</time>
      </trkpt>
      <trkpt lat="29.06528" lon="-9.80686">
        <ele>512.6</ele>
        <time>2012-05-10T12:01:48Z</time>
      </trkpt>
      <trkpt lat="29.06506" lon="-9.80692">
        <ele>512.5</ele>
        <time>2012-05-10T12:01:53Z</time>
      </trkpt>
      <trkpt lat="29.06487" lon="-9.80693">
        <ele>512.2</ele>
        <time>2012-05-10T12:01:58Z</time>
      </trkpt>
      <trkpt lat="29.06468" lon="-9.80684">
        <ele>511.9</ele>
        <time>2012-05-10T12:02:03Z</time>
      </trkpt>
      <trkpt lat="29.06448" lon="-9.80678">
        <ele>511.2</ele>
        <time>2012-05-10T12:02:08Z</time>
      </trkpt>
      <trkpt lat="29.06426" lon="-9.80674">
        <ele>511.2</ele>
        <time>2012-05-10T12:02:13Z</time>
      </trkpt>
      <trkpt lat="29.06404" lon="-9.80672">
        <ele>510.9</ele>
        <time>2012-05-10T12:02:18Z</time>
      </trkpt>
      <trkpt lat="29.06381" lon="-9.80668">
        <ele>510.5</ele>
        <time>2012-05-10T12:02:23Z</time>
      </trkpt>
      <trkpt lat="29.06358" lon="-9.80655">
        <ele>510.5</ele>
        <time>2012-05-10T12:02:28Z</time>
      </trkpt>
      <trkpt lat="29.0634" lon="-9.8065">
        <ele>510.5</ele>
        <time>2012-05-10T12:02:33Z</time>
      </trkpt>
      <trkpt lat="29.06293" lon="-9.80642">
        <ele>511</ele>
        <time>2012-05-10T12:02:38Z</time>
      </trkpt>
      <trkpt lat="29.06275" lon="-9.80639">
        <ele>511.5</ele>
        <time>2012-05-10T12:02:43Z</time>
      </trkpt>
      <trkpt lat="29.06251" lon="-9.80631">
        <ele>511.6</ele>
        <time>2012-05-10T12:02:48Z</time>
      </trkpt>
      <trkpt lat="29.06227" lon="-9.80623">
        <ele>511.3</ele>
        <time>2012-05-10T12:02:53Z</time>
      </trkpt>
      <trkpt lat="29.06205" lon="-9.80606">
        <ele>511.1</ele>
        <time>2012-05-10T12:02:58Z</time>
      </trkpt>
      <trkpt lat="29.06185" lon="-9.80587">
        <ele>510.5</ele>
        <time>2012-05-10T12:03:03Z</time>
      </trkpt>
      <trkpt lat="29.0616" lon="-9.80574">
        <ele>509.8</ele>
        <time>2012-05-10T12:03:08Z</time>
      </trkpt>
      <trkpt lat="29.06142" lon="-9.80569">
        <ele>509.8</ele>
        <time>2012-05-10T12:03:13Z</time>
      </trkpt>
      <trkpt lat="29.06115" lon="-9.80563">
        <ele>509.8</ele>
        <time>2012-05-10T12:03:18Z</time>
      </trkpt>
      <trkpt lat="29.06089" lon="-9.80562">
        <ele>509.5</ele>
        <time>2012-05-10T12:03:23Z</time>
      </trkpt>
      <trkpt lat="29.06064" lon="-9.80572">
        <ele>509.7</ele>
        <time>2012-05-10T12:03:28Z</time>
      </trkpt>
      <trkpt lat="29.06042" lon="-9.80581">
        <ele>509.7</ele>
        <time>2012-05-10T12:03:33Z</time>
      </trkpt>
      <trkpt lat="29.06016" lon="-9.8058">
        <ele>509.7</ele>
        <time>2012-05-10T12:03:38Z</time>
      </trkpt>
      <trkpt lat="29.05971" lon="-9.80574">
        <ele>510.2</ele>
        <time>2012-05-10T12:03:43Z</time>
      </trkpt>
      <trkpt lat="29.05938" lon="-9.80567">
        <ele>510.3</ele>
        <time>2012-05-10T12:03:48Z</time>
      </trkpt>
      <trkpt lat="29.05915" lon="-9.80564">
        <ele>510</ele>
        <time>2012-05-10T12:03:53Z</time>
      </trkpt>
      <trkpt lat="29.05896" lon="-9.80555">
        <ele>509.2</ele>
        <time>2012-05-10T12:03:58Z</time>
      </trkpt>
      <trkpt lat="29.05876" lon="-9.80552">
        <ele>508.7</ele>
        <time>2012-05-10T12:04:03Z</time>
      </trkpt>
      <trkpt lat="29.05836" lon="-9.80554">
        <ele>508.3</ele>
        <time>2012-05-10T12:04:08Z</time>
      </trkpt>
      <trkpt lat="29.05812" lon="-9.80546">
        <ele>507.9</ele>
        <time>2012-05-10T12:04:13Z</time>
      </trkpt>
      <trkpt lat="29.05781" lon="-9.80533">
        <ele>507.4</ele>
        <time>2012-05-10T12:04:18Z</time>
      </trkpt>
      <trkpt lat="29.05758" lon="-9.80524">
        <ele>506.9</ele>
        <time>2012-05-10T12:04:23Z</time>
      </trkpt>
      <trkpt lat="29.05736" lon="-9.80515">
        <ele>506.2</ele>
        <time>2012-05-10T12:04:28Z</time>
      </trkpt>
      <trkpt lat="29.05712" lon="-9.8051">
        <ele>506.3</ele>
        <time>2012-05-10T12:04:33Z</time>
      </trkpt>
      <trkpt lat="29.05687" lon="-9.80512">
        <ele>506.4</ele>
        <time>2012-05-10T12:04:38Z</time>
      </trkpt>
      <trkpt lat="29.05664" lon="-9.80518">
        <ele>506.5</ele>
        <time>2012-05-10T12:04:43Z</time>
      </trkpt>
      <trkpt lat="29.05642" lon="-9.80527">
        <ele>506.6</ele>
        <time>2012-05-10T12:04:48Z</time>
      </trkpt>
      <trkpt lat="29.05619" lon="-9.80534">
        <ele>506.5</ele>
        <time>2012-05-10T12:04:53Z</time>
      </trkpt>
      <trkpt lat="29.05596" lon="-9.80537">
        <ele>505.9</ele>
        <time>2012-05-10T12:04:58Z</time>
      </trkpt>
      <trkpt lat="29.05574" lon="-9.80544">
        <ele>506.1</ele>
        <time>2012-05-10T12:05:03Z</time>
      </trkpt>
      <trkpt lat="29.05552" lon="-9.80552">
        <ele>505.9</ele>
        <time>2012-05-10T12:05:08Z</time>
      </trkpt>
      <trkpt lat="29.05521" lon="-9.80566">
        <ele>505.8</ele>
        <time>2012-05-10T12:05:13Z</time>
      </trkpt>
      <trkpt lat="29.05499" lon="-9.80576">
        <ele>505.7</ele>
        <time>2012-05-10T12:05:18Z</time>
      </trkpt>
      <trkpt lat="29.05478" lon="-9.80585">
        <ele>505.7</ele>
        <time>2012-05-10T12:05:23Z</time>
      </trkpt>
      <trkpt lat="29.05456" lon="-9.80593">
        <ele>505.6</ele>
        <time>2012-05-10T12:05:28Z</time>
      </trkpt>
      <trkpt lat="29.05434" lon="-9.80607">
        <ele>505.5</ele>
        <time>2012-05-10T12:05:33Z</time>
      </trkpt>
      <trkpt lat="29.05411" lon="-9.80622">
        <ele>505.5</ele>
        <time>2012-05-10T12:05:38Z</time>
      </trkpt>
      <trkpt lat="29.05386" lon="-9.80632">
        <ele>505.9</ele>
        <time>2012-05-10T12:05:43Z</time>
      </trkpt>
      <trkpt lat="29.05354" lon="-9.80642">
        <ele>505.5</ele>
        <time>2012-05-10T12:05:48Z</time>
      </trkpt>
      <trkpt lat="29.05333" lon="-9.80652">
        <ele>505.4</ele>
        <time>2012-05-10T12:05:53Z</time>
      </trkpt>
      <trkpt lat="29.05312" lon="-9.80653">
        <ele>505.1</ele>
        <time>2012-05-10T12:05:58Z</time>
      </trkpt>
      <trkpt lat="29.05292" lon="-9.80647">
        <ele>504.7</ele>
        <time>2012-05-10T12:06:03Z</time>
      </trkpt>
      <trkpt lat="29.05274" lon="-9.80631">
        <ele>503.7</ele>
        <time>2012-05-10T12:06:08Z</time>
      </trkpt>
      <trkpt lat="29.05269" lon="-9.80612">
        <ele>502.8</ele>
        <time>2012-05-10T12:06:13Z</time>
      </trkpt>
      <trkpt lat="29.05262" lon="-9.80589">
        <ele>503.1</ele>
        <time>2012-05-10T12:06:18Z</time>
      </trkpt>
      <trkpt lat="29.05248" lon="-9.8057">
        <ele>503.6</ele>
        <time>2012-05-10T12:06:23Z</time>
      </trkpt>
      <trkpt lat="29.05238" lon="-9.80548">
        <ele>504.1</ele>
        <time>2012-05-10T12:06:28Z</time>
      </trkpt>
      <trkpt lat="29.05224" lon="-9.80535">
        <ele>503.7</ele>
        <time>2012-05-10T12:06:33Z</time>
      </trkpt>
      <trkpt lat="29.05204" lon="-9.80534">
        <ele>503.5</ele>
        <time>2012-05-10T12:06:38Z</time>
      </trkpt>
      <trkpt lat="29.0518" lon="-9.80535">
        <ele>503.3</ele>
        <time>2012-05-10T12:06:43Z</time>
      </trkpt>
      <trkpt lat="29.05162" lon="-9.80541">
        <ele>503.1</ele>
        <time>2012-05-10T12:06:48Z</time>
      </trkpt>
      <trkpt lat="29.05137" lon="-9.80551">
        <ele>503.1</ele>
        <time>2012-05-10T12:06:53Z</time>
      </trkpt>
      <trkpt lat="29.05117" lon="-9.80557">
        <ele>503.9</ele>
        <time>2012-05-10T12:06:58Z</time>
      </trkpt>
      <trkpt lat="29.05095" lon="-9.80562">
        <ele>503.9</ele>
        <time>2012-05-10T12:07:03Z</time>
      </trkpt>
      <trkpt lat="29.05067" lon="-9.8057">
        <ele>504.1</ele>
        <time>2012-05-10T12:07:08Z</time>
      </trkpt>
      <trkpt lat="29.0501" lon="-9.80592">
        <ele>504.2</ele>
        <time>2012-05-10T12:07:13Z</time>
      </trkpt>
      <trkpt lat="29.04989" lon="-9.80601">
        <ele>503.8</ele>
        <time>2012-05-10T12:07:18Z</time>
      </trkpt>
      <trkpt lat="29.04964" lon="-9.80608">
        <ele>503.7</ele>
        <time>2012-05-10T12:07:23Z</time>
      </trkpt>
      <trkpt lat="29.04941" lon="-9.80614">
        <ele>503.7</ele>
        <time>2012-05-10T12:07:28Z</time>
      </trkpt>
      <trkpt lat="29.0491" lon="-9.80621">
        <ele>503.8</ele>
        <time>2012-05-10T12:07:33Z</time>
      </trkpt>
      <trkpt lat="29.04887" lon="-9.8063">
        <ele>503.7</ele>
        <time>2012-05-10T12:07:38Z</time>
      </trkpt>
      <trkpt lat="29.04863" lon="-9.80636">
        <ele>503.5</ele>
        <time>2012-05-10T12:07:43Z</time>
      </trkpt>
      <trkpt lat="29.0484" lon="-9.80644">
        <ele>503.3</ele>
        <time>2012-05-10T12:07:48Z</time>
      </trkpt>
      <trkpt lat="29.04819" lon="-9.80657">
        <ele>503.8</ele>
        <time>2012-05-10T12:07:53Z</time>
      </trkpt>
      <trkpt lat="29.04796" lon="-9.80666">
        <ele>503.6</ele>
        <time>2012-05-10T12:07:58Z</time>
      </trkpt>
      <trkpt lat="29.04772" lon="-9.80671">
        <ele>503.4</ele>
        <time>2012-05-10T12:08:03Z</time>
      </trkpt>
      <trkpt lat="29.04748" lon="-9.80684">
        <ele>503.3</ele>
        <time>2012-05-10T12:08:08Z</time>
      </trkpt>
      <trkpt lat="29.04723" lon="-9.80695">
        <ele>503.1</ele>
        <time>2012-05-10T12:08:13Z</time>
      </trkpt>
      <trkpt lat="29.047" lon="-9.80707">
        <ele>503</ele>
        <time>2012-05-10T12:08:18Z</time>
      </trkpt>
      <trkpt lat="29.04676" lon="-9.80718">
        <ele>502.7</ele>
        <time>2012-05-10T12:08:23Z</time>
      </trkpt>
      <trkpt lat="29.04655" lon="-9.80731">
        <ele>502.4</ele>
        <time>2012-05-10T12:08:28Z</time>
      </trkpt>
      <trkpt lat="29.04635" lon="-9.80744">
        <ele>502.1</ele>
        <time>2012-05-10T12:08:33Z</time>
      </trkpt>
      <trkpt lat="29.04614" lon="-9.80749">
        <ele>502.1</ele>
        <time>2012-05-10T12:08:38Z</time>
      </trkpt>
      <trkpt lat="29.04595" lon="-9.80757">
        <ele>501.8</ele>
        <time>2012-05-10T12:08:43Z</time>
      </trkpt>
      <trkpt lat="29.04575" lon="-9.80763">
        <ele>501.6</ele>
        <time>2012-05-10T12:08:48Z</time>
      </trkpt>
      <trkpt lat="29.04555" lon="-9.80768">
        <ele>501.5</ele>
        <time>2012-05-10T12:08:53Z</time>
      </trkpt>
      <trkpt lat="29.04535" lon="-9.8078">
        <ele>501</ele>
        <time>2012-05-10T12:08:58Z</time>
      </trkpt>
      <trkpt lat="29.04516" lon="-9.80793">
        <ele>500.8</ele>
        <time>2012-05-10T12:09:03Z</time>
      </trkpt>
      <trkpt lat="29.04474" lon="-9.80827">
        <ele>500.6</ele>
        <time>2012-05-10T12:09:08Z</time>
      </trkpt>
      <trkpt lat="29.04458" lon="-9.80841">
        <ele>500.2</ele>
        <time>2012-05-10T12:09:13Z</time>
      </trkpt>
      <trkpt lat="29.04438" lon="-9.80849">
        <ele>500</ele>
        <time>2012-05-10T12:09:18Z</time>
      </trkpt>
      <trkpt lat="29.04415" lon="-9.80858">
        <ele>500</ele>
        <time>2012-05-10T12:09:23Z</time>
      </trkpt>
      <trkpt lat="29.04393" lon="-9.80854">
        <ele>499.7</ele>
        <time>2012-05-10T12:09:28Z</time>
      </trkpt>
      <trkpt lat="29.04372" lon="-9.80846">
        <ele>499.2</ele>
        <time>2012-05-10T12:09:33Z</time>
      </trkpt>
      <trkpt lat="29.04352" lon="-9.80851">
        <ele>499.3</ele>
        <time>2012-05-10T12:09:38Z</time>
      </trkpt>
      <trkpt lat="29.04338" lon="-9.80865">
        <ele>499.2</ele>
        <time>2012-05-10T12:09:43Z</time>
      </trkpt>
      <trkpt lat="29.04321" lon="-9.80877">
        <ele>498.9</ele>
        <time>2012-05-10T12:09:48Z</time>
      </trkpt>
      <trkpt lat="29.04297" lon="-9.80884">
        <ele>499.1</ele>
        <time>2012-05-10T12:09:53Z</time>
      </trkpt>
      <trkpt lat="29.04261" lon="-9.80896">
        <ele>500.5</ele>
        <time>2012-05-10T12:09:58Z</time>
      </trkpt>
      <trkpt lat="29.04243" lon="-9.80902">
        <ele>501</ele>
        <time>2012-05-10T12:10:03Z</time>
      </trkpt>
      <trkpt lat="29.04224" lon="-9.80898">
        <ele>501.7</ele>
        <time>2012-05-10T12:10:08Z</time>
      </trkpt>
      <trkpt lat="29.04202" lon="-9.80904">
        <ele>501.8</ele>
        <time>2012-05-10T12:10:13Z</time>
      </trkpt>
      <trkpt lat="29.04179" lon="-9.80918">
        <ele>502.6</ele>
        <time>2012-05-10T12:10:18Z</time>
      </trkpt>
      <trkpt lat="29.04163" lon="-9.80931">
        <ele>502.6</ele>
        <time>2012-05-10T12:10:23Z</time>
      </trkpt>
      <trkpt lat="29.04131" lon="-9.8096">
        <ele>502.5</ele>
        <time>2012-05-10T12:10:28Z</time>
      </trkpt>
      <trkpt lat="29.04117" lon="-9.80976">
        <ele>502.3</ele>
        <time>2012-05-10T12:10:33Z</time>
      </trkpt>
      <trkpt lat="29.04086" lon="-9.81011">
        <ele>502.2</ele>
        <time>2012-05-10T12:10:38Z</time>
      </trkpt>
      <trkpt lat="29.04071" lon="-9.81027">
        <ele>502.4</ele>
        <time>2012-05-10T12:10:43Z</time>
      </trkpt>
      <trkpt lat="29.0406" lon="-9.81044">
        <ele>502.5</ele>
        <time>2012-05-10T12:10:48Z</time>
      </trkpt>
      <trkpt lat="29.04051" lon="-9.81063">
        <ele>502.2</ele>
        <time>2012-05-10T12:10:53Z</time>
      </trkpt>
      <trkpt lat="29.04044" lon="-9.81084">
        <ele>501.9</ele>
        <time>2012-05-10T12:10:58Z</time>
      </trkpt>
      <trkpt lat="29.04036" lon="-9.81104">
        <ele>501.6</ele>
        <time>2012-05-10T12:11:03Z</time>
      </trkpt>
      <trkpt lat="29.04028" lon="-9.81124">
        <ele>501.4</ele>
        <time>2012-05-10T12:11:08Z</time>
      </trkpt>
      <trkpt lat="29.04014" lon="-9.81153">
        <ele>501</ele>
        <time>2012-05-10T12:11:13Z</time>
      </trkpt>
      <trkpt lat="29.04003" lon="-9.8117">
        <ele>500.7</ele>
        <time>2012-05-10T12:11:18Z</time>
      </trkpt>
      <trkpt lat="29.03989" lon="-9.81187">
        <ele>500.5</ele>
        <time>2012-05-10T12:11:23Z</time>
      </trkpt>
      <trkpt lat="29.03972" lon="-9.81202">
        <ele>500</ele>
        <time>2012-05-10T12:11:28Z</time>
      </trkpt>
      <trkpt lat="29.03939" lon="-9.81236">
        <ele>498.7</ele>
        <time>2012-05-10T12:11:33Z</time>
      </trkpt>
      <trkpt lat="29.03923" lon="-9.81253">
        <ele>498.2</ele>
        <time>2012-05-10T12:11:38Z</time>
      </trkpt>
      <trkpt lat="29.03899" lon="-9.81279">
        <ele>497.4</ele>
        <time>2012-05-10T12:11:43Z</time>
      </trkpt>
      <trkpt lat="29.03883" lon="-9.81295">
        <ele>496.8</ele>
        <time>2012-05-10T12:11:48Z</time>
      </trkpt>
      <trkpt lat="29.03859" lon="-9.81319">
        <ele>496</ele>
        <time>2012-05-10T12:11:53Z</time>
      </trkpt>
      <trkpt lat="29.03846" lon="-9.81336">
        <ele>495.5</ele>
        <time>2012-05-10T12:11:58Z</time>
      </trkpt>
      <trkpt lat="29.03826" lon="-9.81362">
        <ele>495.1</ele>
        <time>2012-05-10T12:12:03Z</time>
      </trkpt>
      <trkpt lat="29.03806" lon="-9.81386">
        <ele>494.2</ele>
        <time>2012-05-10T12:12:08Z</time>
      </trkpt>
      <trkpt lat="29.03786" lon="-9.81409">
        <ele>493.4</ele>
        <time>2012-05-10T12:12:13Z</time>
      </trkpt>
      <trkpt lat="29.03771" lon="-9.81422">
        <ele>492.8</ele>
        <time>2012-05-10T12:12:18Z</time>
      </trkpt>
      <trkpt lat="29.03749" lon="-9.81441">
        <ele>492</ele>
        <time>2012-05-10T12:12:23Z</time>
      </trkpt>
      <trkpt lat="29.03726" lon="-9.81457">
        <ele>491</ele>
        <time>2012-05-10T12:12:28Z</time>
      </trkpt>
      <trkpt lat="29.03702" lon="-9.81472">
        <ele>490.3</ele>
        <time>2012-05-10T12:12:33Z</time>
      </trkpt>
      <trkpt lat="29.03679" lon="-9.81486">
        <ele>489.1</ele>
        <time>2012-05-10T12:12:38Z</time>
      </trkpt>
      <trkpt lat="29.03653" lon="-9.81495">
        <ele>488.1</ele>
        <time>2012-05-10T12:12:43Z</time>
      </trkpt>
      <trkpt lat="29.03629" lon="-9.81504">
        <ele>487.7</ele>
        <time>2012-05-10T12:12:48Z</time>
      </trkpt>
      <trkpt lat="29.03607" lon="-9.81516">
        <ele>486.8</ele>
        <time>2012-05-10T12:12:53Z</time>
      </trkpt>
      <trkpt lat="29.03586" lon="-9.8153">
        <ele>485.8</ele>
        <time>2012-05-10T12:12:58Z</time>
      </trkpt>
      <trkpt lat="29.03564" lon="-9.81542">
        <ele>484.7</ele>
        <time>2012-05-10T12:13:03Z</time>
      </trkpt>
      <trkpt lat="29.0354" lon="-9.81549">
        <ele>483.3</ele>
        <time>2012-05-10T12:13:08Z</time>
      </trkpt>
      <trkpt lat="29.03515" lon="-9.81547">
        <ele>482.5</ele>
        <time>2012-05-10T12:13:13Z</time>
      </trkpt>
      <trkpt lat="29.03491" lon="-9.81547">
        <ele>482.5</ele>
        <time>2012-05-10T12:13:18Z</time>
      </trkpt>
      <trkpt lat="29.0347" lon="-9.81546">
        <ele>482.7</ele>
        <time>2012-05-10T12:13:23Z</time>
      </trkpt>
      <trkpt lat="29.0345" lon="-9.81542">
        <ele>482.9</ele>
        <time>2012-05-10T12:13:28Z</time>
      </trkpt>
      <trkpt lat="29.03428" lon="-9.81546">
        <ele>483</ele>
        <time>2012-05-10T12:13:33Z</time>
      </trkpt>
      <trkpt lat="29.03409" lon="-9.81552">
        <ele>482.9</ele>
        <time>2012-05-10T12:13:38Z</time>
      </trkpt>
      <trkpt lat="29.03389" lon="-9.81557">
        <ele>482.8</ele>
        <time>2012-05-10T12:13:43Z</time>
      </trkpt>
      <trkpt lat="29.03368" lon="-9.81557">
        <ele>481.7</ele>
        <time>2012-05-10T12:13:48Z</time>
      </trkpt>
      <trkpt lat="29.03349" lon="-9.8156">
        <ele>480.2</ele>
        <time>2012-05-10T12:13:53Z</time>
      </trkpt>
      <trkpt lat="29.0333" lon="-9.81566">
        <ele>478.6</ele>
        <time>2012-05-10T12:13:58Z</time>
      </trkpt>
      <trkpt lat="29.0331" lon="-9.8156">
        <ele>477.3</ele>
        <time>2012-05-10T12:14:03Z</time>
      </trkpt>
      <trkpt lat="29.03289" lon="-9.8155">
        <ele>477.1</ele>
        <time>2012-05-10T12:14:08Z</time>
      </trkpt>
      <trkpt lat="29.03247" lon="-9.8153">
        <ele>474.6</ele>
        <time>2012-05-10T12:14:13Z</time>
      </trkpt>
      <trkpt lat="29.03226" lon="-9.81521">
        <ele>473.2</ele>
        <time>2012-05-10T12:14:18Z</time>
      </trkpt>
      <trkpt lat="29.03193" lon="-9.81504">
        <ele>471.2</ele>
        <time>2012-05-10T12:14:23Z</time>
      </trkpt>
      <trkpt lat="29.03176" lon="-9.81497">
        <ele>468.8</ele>
        <time>2012-05-10T12:14:28Z</time>
      </trkpt>
      <trkpt lat="29.03166" lon="-9.81477">
        <ele>468.2</ele>
        <time>2012-05-10T12:14:33Z</time>
      </trkpt>
      <trkpt lat="29.03152" lon="-9.81453">
        <ele>467.7</ele>
        <time>2012-05-10T12:14:38Z</time>
      </trkpt>
      <trkpt lat="29.03142" lon="-9.81433">
        <ele>468.1</ele>
        <time>2012-05-10T12:14:43Z</time>
      </trkpt>
      <trkpt lat="29.03136" lon="-9.8141">
        <ele>468</ele>
        <time>2012-05-10T12:14:48Z</time>
      </trkpt>
      <trkpt lat="29.03133" lon="-9.81388">
        <ele>468.1</ele>
        <time>2012-05-10T12:14:53Z</time>
      </trkpt>
      <trkpt lat="29.03127" lon="-9.81368">
        <ele>468.2</ele>
        <time>2012-05-10T12:14:58Z</time>
      </trkpt>
      <trkpt lat="29.03115" lon="-9.8135">
        <ele>468.1</ele>
        <time>2012-05-10T12:15:03Z</time>
      </trkpt>
      <trkpt lat="29.03098" lon="-9.81336">
        <ele>467.8</ele>
        <time>2012-05-10T12:15:08Z</time>
      </trkpt>
      <trkpt lat="29.03077" lon="-9.81317">
        <ele>467.2</ele>
        <time>2012-05-10T12:15:13Z</time>
      </trkpt>
      <trkpt lat="29.03061" lon="-9.81306">
        <ele>466.8</ele>
        <time>2012-05-10T12:15:18Z</time>
      </trkpt>
      <trkpt lat="29.03051" lon="-9.81287">
        <ele>466.8</ele>
        <time>2012-05-10T12:15:23Z</time>
      </trkpt>
      <trkpt lat="29.03052" lon="-9.81266">
        <ele>466</ele>
        <time>2012-05-10T12:15:28Z</time>
      </trkpt>
      <trkpt lat="29.03059" lon="-9.81229">
        <ele>464.6</ele>
        <time>2012-05-10T12:15:33Z</time>
      </trkpt>
      <trkpt lat="29.03069" lon="-9.81206">
        <ele>462.2</ele>
        <time>2012-05-10T12:15:38Z</time>
      </trkpt>
      <trkpt lat="29.03078" lon="-9.81184">
        <ele>459.5</ele>
        <time>2012-05-10T12:15:43Z</time>
      </trkpt>
      <trkpt lat="29.03079" lon="-9.8116">
        <ele>456.9</ele>
        <time>2012-05-10T12:15:48Z</time>
      </trkpt>
      <trkpt lat="29.03075" lon="-9.81139">
        <ele>454.2</ele>
        <time>2012-05-10T12:15:53Z</time>
      </trkpt>
      <trkpt lat="29.03071" lon="-9.81117">
        <ele>452.3</ele>
        <time>2012-05-10T12:15:58Z</time>
      </trkpt>
      <trkpt lat="29.03063" lon="-9.81098">
        <ele>451</ele>
        <time>2012-05-10T12:16:03Z</time>
      </trkpt>
      <trkpt lat="29.03047" lon="-9.81084">
        <ele>450</ele>
        <time>2012-05-10T12:16:08Z</time>
      </trkpt>
      <trkpt lat="29.03043" lon="-9.81064">
        <ele>449.7</ele>
        <time>2012-05-10T12:16:13Z</time>
      </trkpt>
      <trkpt lat="29.03048" lon="-9.81041">
        <ele>448.8</ele>
        <time>2012-05-10T12:16:18Z</time>
      </trkpt>
      <trkpt lat="29.03054" lon="-9.81019">
        <ele>447.4</ele>
        <time>2012-05-10T12:16:23Z</time>
      </trkpt>
      <trkpt lat="29.03049" lon="-9.80998">
        <ele>448.4</ele>
        <time>2012-05-10T12:16:28Z</time>
      </trkpt>
      <trkpt lat="29.03044" lon="-9.80971">
        <ele>448</ele>
        <time>2012-05-10T12:16:33Z</time>
      </trkpt>
      <trkpt lat="29.03047" lon="-9.8095">
        <ele>446.9</ele>
        <time>2012-05-10T12:16:38Z</time>
      </trkpt>
      <trkpt lat="29.03051" lon="-9.80929">
        <ele>445.1</ele>
        <time>2012-05-10T12:16:43Z</time>
      </trkpt>
      <trkpt lat="29.03042" lon="-9.80906">
        <ele>444.2</ele>
        <time>2012-05-10T12:16:48Z</time>
      </trkpt>
      <trkpt lat="29.03029" lon="-9.80874">
        <ele>442.2</ele>
        <time>2012-05-10T12:16:53Z</time>
      </trkpt>
      <trkpt lat="29.03015" lon="-9.8086">
        <ele>442.6</ele>
        <time>2012-05-10T12:16:58Z</time>
      </trkpt>
      <trkpt lat="29.02997" lon="-9.80847">
        <ele>441.9</ele>
        <time>2012-05-10T12:17:03Z</time>
      </trkpt>
      <trkpt lat="29.02984" lon="-9.8083">
        <ele>439.9</ele>
        <time>2012-05-10T12:17:08Z</time>
      </trkpt>
      <trkpt lat="29.02975" lon="-9.80807">
        <ele>439.7</ele>
        <time>2012-05-10T12:17:13Z</time>
      </trkpt>
      <trkpt lat="29.02962" lon="-9.80785">
        <ele>438.1</ele>
        <time>2012-05-10T12:17:18Z</time>
      </trkpt>
      <trkpt lat="29.02946" lon="-9.80769">
        <ele>436.9</ele>
        <time>2012-05-10T12:17:23Z</time>
      </trkpt>
      <trkpt lat="29.02931" lon="-9.80756">
        <ele>436.3</ele>
        <time>2012-05-10T12:17:28Z</time>
      </trkpt>
      <trkpt lat="29.02911" lon="-9.80749">
        <ele>436.3</ele>
        <time>2012-05-10T12:17:33Z</time>
      </trkpt>
      <trkpt lat="29.02889" lon="-9.80743">
        <ele>434.8</ele>
        <time>2012-05-10T12:17:38Z</time>
      </trkpt>
      <trkpt lat="29.02869" lon="-9.80738">
        <ele>433.8</ele>
        <time>2012-05-10T12:17:43Z</time>
      </trkpt>
      <trkpt lat="29.02846" lon="-9.80744">
        <ele>433.9</ele>
        <time>2012-05-10T12:17:48Z</time>
      </trkpt>
      <trkpt lat="29.02823" lon="-9.8075">
        <ele>433.8</ele>
        <time>2012-05-10T12:17:53Z</time>
      </trkpt>
      <trkpt lat="29.02804" lon="-9.80746">
        <ele>433.7</ele>
        <time>2012-05-10T12:17:58Z</time>
      </trkpt>
      <trkpt lat="29.02782" lon="-9.80741">
        <ele>433.3</ele>
        <time>2012-05-10T12:18:03Z</time>
      </trkpt>
      <trkpt lat="29.02744" lon="-9.80732">
        <ele>431.7</ele>
        <time>2012-05-10T12:18:08Z</time>
      </trkpt>
      <trkpt lat="29.0272" lon="-9.80729">
        <ele>431.4</ele>
        <time>2012-05-10T12:18:13Z</time>
      </trkpt>
      <trkpt lat="29.02695" lon="-9.80727">
        <ele>431.2</ele>
        <time>2012-05-10T12:18:18Z</time>
      </trkpt>
      <trkpt lat="29.02674" lon="-9.80732">
        <ele>430.6</ele>
        <time>2012-05-10T12:18:23Z</time>
      </trkpt>
      <trkpt lat="29.02655" lon="-9.80746">
        <ele>430.4</ele>
        <time>2012-05-10T12:18:28Z</time>
      </trkpt>
      <trkpt lat="29.02633" lon="-9.80757">
        <ele>429.9</ele>
        <time>2012-05-10T12:18:33Z</time>
      </trkpt>
      <trkpt lat="29.02604" lon="-9.8077">
        <ele>429</ele>
        <time>2012-05-10T12:18:38Z</time>
      </trkpt>
      <trkpt lat="29.02585" lon="-9.80783">
        <ele>428.6</ele>
        <time>2012-05-10T12:18:43Z</time>
      </trkpt>
      <trkpt lat="29.02567" lon="-9.80796">
        <ele>428.2</ele>
        <time>2012-05-10T12:18:48Z</time>
      </trkpt>
      <trkpt lat="29.02551" lon="-9.80808">
        <ele>428</ele>
        <time>2012-05-10T12:18:53Z</time>
      </trkpt>
      <trkpt lat="29.02536" lon="-9.80822">
        <ele>427.1</ele>
        <time>2012-05-10T12:18:58Z</time>
      </trkpt>
      <trkpt lat="29.02519" lon="-9.80833">
        <ele>426.2</ele>
        <time>2012-05-10T12:19:03Z</time>
      </trkpt>
      <trkpt lat="29.02502" lon="-9.80844">
        <ele>426</ele>
        <time>2012-05-10T12:19:08Z</time>
      </trkpt>
      <trkpt lat="29.02484" lon="-9.80857">
        <ele>425</ele>
        <time>2012-05-10T12:19:13Z</time>
      </trkpt>
      <trkpt lat="29.02464" lon="-9.80868">
        <ele>424.3</ele>
        <time>2012-05-10T12:19:18Z</time>
      </trkpt>
      <trkpt lat="29.02444" lon="-9.80882">
        <ele>423.8</ele>
        <time>2012-05-10T12:19:23Z</time>
      </trkpt>
      <trkpt lat="29.02419" lon="-9.80903">
        <ele>423.2</ele>
        <time>2012-05-10T12:19:28Z</time>
      </trkpt>
      <trkpt lat="29.02396" lon="-9.80915">
        <ele>422.3</ele>
        <time>2012-05-10T12:19:33Z</time>
      </trkpt>
      <trkpt lat="29.02356" lon="-9.80932">
        <ele>421.1</ele>
        <time>2012-05-10T12:19:38Z</time>
      </trkpt>
      <trkpt lat="29.02331" lon="-9.80944">
        <ele>420.1</ele>
        <time>2012-05-10T12:19:43Z</time>
      </trkpt>
      <trkpt lat="29.02306" lon="-9.80954">
        <ele>419.7</ele>
        <time>2012-05-10T12:19:48Z</time>
      </trkpt>
      <trkpt lat="29.02282" lon="-9.80965">
        <ele>419.1</ele>
        <time>2012-05-10T12:19:53Z</time>
      </trkpt>
      <trkpt lat="29.0223" lon="-9.80987">
        <ele>418.3</ele>
        <time>2012-05-10T12:19:58Z</time>
      </trkpt>
      <trkpt lat="29.02194" lon="-9.81003">
        <ele>417.4</ele>
        <time>2012-05-10T12:20:03Z</time>
      </trkpt>
      <trkpt lat="29.02157" lon="-9.8102">
        <ele>416.3</ele>
        <time>2012-05-10T12:20:08Z</time>
      </trkpt>
      <trkpt lat="29.02057" lon="-9.81061">
        <ele>413.6</ele>
        <time>2012-05-10T12:20:13Z</time>
      </trkpt>
      <trkpt lat="29.02032" lon="-9.81071">
        <ele>413.1</ele>
        <time>2012-05-10T12:20:18Z</time>
      </trkpt>
      <trkpt lat="29.02013" lon="-9.81075">
        <ele>412.9</ele>
        <time>2012-05-10T12:20:23Z</time>
      </trkpt>
      <trkpt lat="29.01958" lon="-9.81088">
        <ele>411.1</ele>
        <time>2012-05-10T12:20:28Z</time>
      </trkpt>
      <trkpt lat="29.0193" lon="-9.81097">
        <ele>410.5</ele>
        <time>2012-05-10T12:20:33Z</time>
      </trkpt>
      <trkpt lat="29.01912" lon="-9.81105">
        <ele>410.1</ele>
        <time>2012-05-10T12:20:38Z</time>
      </trkpt>
      <trkpt lat="29.01894" lon="-9.81111">
        <ele>409.5</ele>
        <time>2012-05-10T12:20:43Z</time>
      </trkpt>
      <trkpt lat="29.01867" lon="-9.81121">
        <ele>409.1</ele>
        <time>2012-05-10T12:20:48Z</time>
      </trkpt>
      <trkpt lat="29.0185" lon="-9.81129">
        <ele>408.6</ele>
        <time>2012-05-10T12:20:53Z</time>
      </trkpt>
      <trkpt lat="29.01833" lon="-9.81138">
        <ele>408.1</ele>
        <time>2012-05-10T12:20:58Z</time>
      </trkpt>
      <trkpt lat="29.01808" lon="-9.81152">
        <ele>407.1</ele>
        <time>2012-05-10T12:21:03Z</time>
      </trkpt>
      <trkpt lat="29.01774" lon="-9.81173">
        <ele>405.8</ele>
        <time>2012-05-10T12:21:08Z</time>
      </trkpt>
      <trkpt lat="29.01756" lon="-9.81181">
        <ele>405.4</ele>
        <time>2012-05-10T12:21:13Z</time>
      </trkpt>
      <trkpt lat="29.0174" lon="-9.81192">
        <ele>404.7</ele>
        <time>2012-05-10T12:21:18Z</time>
      </trkpt>
      <trkpt lat="29.01723" lon="-9.81203">
        <ele>404.2</ele>
        <time>2012-05-10T12:21:23Z</time>
      </trkpt>
      <trkpt lat="29.01682" lon="-9.81227">
        <ele>403.4</ele>
        <time>2012-05-10T12:21:28Z</time>
      </trkpt>
      <trkpt lat="29.01655" lon="-9.81232">
        <ele>402.1</ele>
        <time>2012-05-10T12:21:33Z</time>
      </trkpt>
      <trkpt lat="29.01636" lon="-9.81236">
        <ele>401.4</ele>
        <time>2012-05-10T12:21:38Z</time>
      </trkpt>
      <trkpt lat="29.01616" lon="-9.81238">
        <ele>400.5</ele>
        <time>2012-05-10T12:21:43Z</time>
      </trkpt>
      <trkpt lat="29.01586" lon="-9.81238">
        <ele>399.9</ele>
        <time>2012-05-10T12:21:48Z</time>
      </trkpt>
      <trkpt lat="29.01567" lon="-9.81237">
        <ele>399.6</ele>
        <time>2012-05-10T12:21:53Z</time>
      </trkpt>
      <trkpt lat="29.01544" lon="-9.8124">
        <ele>399.2</ele>
        <time>2012-05-10T12:21:58Z</time>
      </trkpt>
      <trkpt lat="29.01527" lon="-9.81251">
        <ele>398.8</ele>
        <time>2012-05-10T12:22:03Z</time>
      </trkpt>
      <trkpt lat="29.01511" lon="-9.81272">
        <ele>398.2</ele>
        <time>2012-05-10T12:22:08Z</time>
      </trkpt>
      <trkpt lat="29.01496" lon="-9.81284">
        <ele>397.7</ele>
        <time>2012-05-10T12:22:13Z</time>
      </trkpt>
      <trkpt lat="29.01481" lon="-9.81299">
        <ele>397.1</ele>
        <time>2012-05-10T12:22:18Z</time>
      </trkpt>
      <trkpt lat="29.01464" lon="-9.81312">
        <ele>396.4</ele>
        <time>2012-05-10T12:22:23Z</time>
      </trkpt>
      <trkpt lat="29.01448" lon="-9.81327">
        <ele>395.7</ele>
        <time>2012-05-10T12:22:28Z</time>
      </trkpt>
      <trkpt lat="29.01434" lon="-9.81342">
        <ele>395.2</ele>
        <time>2012-05-10T12:22:33Z</time>
      </trkpt>
      <trkpt lat="29.01418" lon="-9.81358">
        <ele>393.8</ele>
        <time>2012-05-10T12:22:38Z</time>
      </trkpt>
      <trkpt lat="29.01399" lon="-9.81369">
        <ele>393.3</ele>
        <time>2012-05-10T12:22:43Z</time>
      </trkpt>
      <trkpt lat="29.01377" lon="-9.81378">
        <ele>394.2</ele>
        <time>2012-05-10T12:22:48Z</time>
      </trkpt>
      <trkpt lat="29.01358" lon="-9.81386">
        <ele>395.1</ele>
        <time>2012-05-10T12:22:53Z</time>
      </trkpt>
      <trkpt lat="29.01319" lon="-9.81404">
        <ele>395.1</ele>
        <time>2012-05-10T12:22:58Z</time>
      </trkpt>
      <trkpt lat="29.01293" lon="-9.81419">
        <ele>394.8</ele>
        <time>2012-05-10T12:23:03Z</time>
      </trkpt>
      <trkpt lat="29.01274" lon="-9.8143">
        <ele>394.6</ele>
        <time>2012-05-10T12:23:08Z</time>
      </trkpt>
      <trkpt lat="29.01257" lon="-9.81445">
        <ele>394.5</ele>
        <time>2012-05-10T12:23:13Z</time>
      </trkpt>
      <trkpt lat="29.01239" lon="-9.81458">
        <ele>394.3</ele>
        <time>2012-05-10T12:23:18Z</time>
      </trkpt>
      <trkpt lat="29.01216" lon="-9.81464">
        <ele>394</ele>
        <time>2012-05-10T12:23:23Z</time>
      </trkpt>
      <trkpt lat="29.01194" lon="-9.81463">
        <ele>393.4</ele>
        <time>2012-05-10T12:23:28Z</time>
      </trkpt>
      <trkpt lat="29.01174" lon="-9.81459">
        <ele>392.8</ele>
        <time>2012-05-10T12:23:33Z</time>
      </trkpt>
      <trkpt lat="29.01154" lon="-9.81467">
        <ele>392.7</ele>
        <time>2012-05-10T12:23:38Z</time>
      </trkpt>
      <trkpt lat="29.01136" lon="-9.81476">
        <ele>392.6</ele>
        <time>2012-05-10T12:23:43Z</time>
      </trkpt>
      <trkpt lat="29.01115" lon="-9.81475">
        <ele>392.1</ele>
        <time>2012-05-10T12:23:48Z</time>
      </trkpt>
      <trkpt lat="29.01095" lon="-9.81471">
        <ele>391.8</ele>
        <time>2012-05-10T12:23:53Z</time>
      </trkpt>
      <trkpt lat="29.01076" lon="-9.8148">
        <ele>391.4</ele>
        <time>2012-05-10T12:23:58Z</time>
      </trkpt>
      <trkpt lat="29.01053" lon="-9.81485">
        <ele>391.3</ele>
        <time>2012-05-10T12:24:03Z</time>
      </trkpt>
      <trkpt lat="29.0102" lon="-9.81491">
        <ele>390.9</ele>
        <time>2012-05-10T12:24:08Z</time>
      </trkpt>
      <trkpt lat="29.00985" lon="-9.81494">
        <ele>390.4</ele>
        <time>2012-05-10T12:24:13Z</time>
      </trkpt>
      <trkpt lat="29.00967" lon="-9.81498">
        <ele>390.3</ele>
        <time>2012-05-10T12:24:18Z</time>
      </trkpt>
      <trkpt lat="29.00948" lon="-9.81503">
        <ele>390.3</ele>
        <time>2012-05-10T12:24:23Z</time>
      </trkpt>
      <trkpt lat="29.0093" lon="-9.81509">
        <ele>390</ele>
        <time>2012-05-10T12:24:28Z</time>
      </trkpt>
      <trkpt lat="29.00887" lon="-9.81528">
        <ele>389.4</ele>
        <time>2012-05-10T12:24:33Z</time>
      </trkpt>
      <trkpt lat="29.00865" lon="-9.8154">
        <ele>389.2</ele>
        <time>2012-05-10T12:24:38Z</time>
      </trkpt>
      <trkpt lat="29.00845" lon="-9.81553">
        <ele>388.9</ele>
        <time>2012-05-10T12:24:43Z</time>
      </trkpt>
      <trkpt lat="29.00823" lon="-9.81556">
        <ele>388.6</ele>
        <time>2012-05-10T12:24:48Z</time>
      </trkpt>
      <trkpt lat="29.00803" lon="-9.81566">
        <ele>388.7</ele>
        <time>2012-05-10T12:24:53Z</time>
      </trkpt>
      <trkpt lat="29.00781" lon="-9.81574">
        <ele>388.6</ele>
        <time>2012-05-10T12:24:58Z</time>
      </trkpt>
      <trkpt lat="29.00759" lon="-9.81577">
        <ele>388.3</ele>
        <time>2012-05-10T12:25:03Z</time>
      </trkpt>
      <trkpt lat="29.0074" lon="-9.81589">
        <ele>387.8</ele>
        <time>2012-05-10T12:25:08Z</time>
      </trkpt>
      <trkpt lat="29.00717" lon="-9.81594">
        <ele>387.4</ele>
        <time>2012-05-10T12:25:13Z</time>
      </trkpt>
      <trkpt lat="29.00693" lon="-9.81605">
        <ele>386.9</ele>
        <time>2012-05-10T12:25:18Z</time>
      </trkpt>
      <trkpt lat="29.0067" lon="-9.81616">
        <ele>386.6</ele>
        <time>2012-05-10T12:25:23Z</time>
      </trkpt>
      <trkpt lat="29.00646" lon="-9.81624">
        <ele>385.9</ele>
        <time>2012-05-10T12:25:28Z</time>
      </trkpt>
      <trkpt lat="29.00624" lon="-9.81633">
        <ele>385.4</ele>
        <time>2012-05-10T12:25:33Z</time>
      </trkpt>
      <trkpt lat="29.00606" lon="-9.81645">
        <ele>385.2</ele>
        <time>2012-05-10T12:25:38Z</time>
      </trkpt>
      <trkpt lat="29.00586" lon="-9.81652">
        <ele>385.1</ele>
        <time>2012-05-10T12:25:43Z</time>
      </trkpt>
      <trkpt lat="29.00572" lon="-9.81665">
        <ele>384.8</ele>
        <time>2012-05-10T12:25:48Z</time>
      </trkpt>
      <trkpt lat="29.00563" lon="-9.81685">
        <ele>384.2</ele>
        <time>2012-05-10T12:25:53Z</time>
      </trkpt>
      <trkpt lat="29.00552" lon="-9.8171">
        <ele>383.2</ele>
        <time>2012-05-10T12:25:58Z</time>
      </trkpt>
      <trkpt lat="29.00536" lon="-9.81743">
        <ele>380.7</ele>
        <time>2012-05-10T12:26:03Z</time>
      </trkpt>
      <trkpt lat="29.00523" lon="-9.81761">
        <ele>379.2</ele>
        <time>2012-05-10T12:26:08Z</time>
      </trkpt>
      <trkpt lat="29.00507" lon="-9.81781">
        <ele>377.4</ele>
        <time>2012-05-10T12:26:13Z</time>
      </trkpt>
      <trkpt lat="29.0049" lon="-9.81794">
        <ele>376.3</ele>
        <time>2012-05-10T12:26:18Z</time>
      </trkpt>
      <trkpt lat="29.0047" lon="-9.81803">
        <ele>376</ele>
        <time>2012-05-10T12:26:23Z</time>
      </trkpt>
      <trkpt lat="29.00453" lon="-9.81813">
        <ele>376.1</ele>
        <time>2012-05-10T12:26:28Z</time>
      </trkpt>
      <trkpt lat="29.00436" lon="-9.81823">
        <ele>375.2</ele>
        <time>2012-05-10T12:26:33Z</time>
      </trkpt>
      <trkpt lat="29.0038" lon="-9.8185">
        <ele>374.5</ele>
        <time>2012-05-10T12:26:38Z</time>
      </trkpt>
      <trkpt lat="29.00357" lon="-9.81863">
        <ele>374.1</ele>
        <time>2012-05-10T12:26:43Z</time>
      </trkpt>
      <trkpt lat="29.00336" lon="-9.81878">
        <ele>374</ele>
        <time>2012-05-10T12:26:48Z</time>
      </trkpt>
      <trkpt lat="29.00317" lon="-9.81894">
        <ele>374</ele>
        <time>2012-05-10T12:26:53Z</time>
      </trkpt>
      <trkpt lat="29.00292" lon="-9.81917">
        <ele>373.6</ele>
        <time>2012-05-10T12:26:58Z</time>
      </trkpt>
      <trkpt lat="29.00272" lon="-9.81932">
        <ele>373.5</ele>
        <time>2012-05-10T12:27:03Z</time>
      </trkpt>
      <trkpt lat="29.00251" lon="-9.81945">
        <ele>374.4</ele>
        <time>2012-05-10T12:27:08Z</time>
      </trkpt>
      <trkpt lat="29.00234" lon="-9.81954">
        <ele>375.1</ele>
        <time>2012-05-10T12:27:13Z</time>
      </trkpt>
      <trkpt lat="29.00213" lon="-9.81962">
        <ele>375.4</ele>
        <time>2012-05-10T12:27:18Z</time>
      </trkpt>
      <trkpt lat="29.00194" lon="-9.81966">
        <ele>375.3</ele>
        <time>2012-05-10T12:27:23Z</time>
      </trkpt>
      <trkpt lat="29.00176" lon="-9.81981">
        <ele>374.9</ele>
        <time>2012-05-10T12:27:28Z</time>
      </trkpt>
      <trkpt lat="29.00164" lon="-9.81997">
        <ele>374.5</ele>
        <time>2012-05-10T12:27:33Z</time>
      </trkpt>
      <trkpt lat="29.00152" lon="-9.82015">
        <ele>373.9</ele>
        <time>2012-05-10T12:27:38Z</time>
      </trkpt>
      <trkpt lat="29.0014" lon="-9.8204">
        <ele>373.4</ele>
        <time>2012-05-10T12:27:43Z</time>
      </trkpt>
      <trkpt lat="29.00131" lon="-9.82064">
        <ele>372.6</ele>
        <time>2012-05-10T12:27:48Z</time>
      </trkpt>
      <trkpt lat="29.00125" lon="-9.82088">
        <ele>371.4</ele>
        <time>2012-05-10T12:27:53Z</time>
      </trkpt>
      <trkpt lat="29.00111" lon="-9.82107">
        <ele>370.4</ele>
        <time>2012-05-10T12:27:58Z</time>
      </trkpt>
      <trkpt lat="29.00092" lon="-9.82132">
        <ele>369.5</ele>
        <time>2012-05-10T12:28:03Z</time>
      </trkpt>
      <trkpt lat="29.00076" lon="-9.82149">
        <ele>369.1</ele>
        <time>2012-05-10T12:28:08Z</time>
      </trkpt>
      <trkpt lat="29.00059" lon="-9.82162">
        <ele>368.9</ele>
        <time>2012-05-10T12:28:13Z</time>
      </trkpt>
      <trkpt lat="29.00046" lon="-9.82182">
        <ele>368.1</ele>
        <time>2012-05-10T12:28:18Z</time>
      </trkpt>
      <trkpt lat="29.00031" lon="-9.82203">
        <ele>367.7</ele>
        <time>2012-05-10T12:28:23Z</time>
      </trkpt>
      <trkpt lat="29.00017" lon="-9.82224">
        <ele>367.3</ele>
        <time>2012-05-10T12:28:28Z</time>
      </trkpt>
      <trkpt lat="29.00006" lon="-9.8225">
        <ele>366.4</ele>
        <time>2012-05-10T12:28:33Z</time>
      </trkpt>
      <trkpt lat="28.99993" lon="-9.82278">
        <ele>365.9</ele>
        <time>2012-05-10T12:28:38Z</time>
      </trkpt>
      <trkpt lat="28.99983" lon="-9.82296">
        <ele>365.8</ele>
        <time>2012-05-10T12:28:43Z</time>
      </trkpt>
      <trkpt lat="28.99962" lon="-9.82331">
        <ele>365.5</ele>
        <time>2012-05-10T12:28:48Z</time>
      </trkpt>
      <trkpt lat="28.99953" lon="-9.82348">
        <ele>365.5</ele>
        <time>2012-05-10T12:28:53Z</time>
      </trkpt>
      <trkpt lat="28.99942" lon="-9.82365">
        <ele>365.3</ele>
        <time>2012-05-10T12:28:58Z</time>
      </trkpt>
      <trkpt lat="28.9993" lon="-9.82381">
        <ele>364.8</ele>
        <time>2012-05-10T12:29:03Z</time>
      </trkpt>
      <trkpt lat="28.99917" lon="-9.82397">
        <ele>364.4</ele>
        <time>2012-05-10T12:29:08Z</time>
      </trkpt>
      <trkpt lat="28.99881" lon="-9.82436">
        <ele>363.5</ele>
        <time>2012-05-10T12:29:13Z</time>
      </trkpt>
      <trkpt lat="28.99865" lon="-9.8245">
        <ele>362.9</ele>
        <time>2012-05-10T12:29:18Z</time>
      </trkpt>
      <trkpt lat="28.99848" lon="-9.82463">
        <ele>362.5</ele>
        <time>2012-05-10T12:29:23Z</time>
      </trkpt>
      <trkpt lat="28.99832" lon="-9.82477">
        <ele>362.3</ele>
        <time>2012-05-10T12:29:28Z</time>
      </trkpt>
      <trkpt lat="28.99817" lon="-9.82492">
        <ele>362</ele>
        <time>2012-05-10T12:29:33Z</time>
      </trkpt>
      <trkpt lat="28.99805" lon="-9.82509">
        <ele>361.6</ele>
        <time>2012-05-10T12:29:38Z</time>
      </trkpt>
      <trkpt lat="28.99791" lon="-9.82525">
        <ele>361.5</ele>
        <time>2012-05-10T12:29:43Z</time>
      </trkpt>
      <trkpt lat="28.99775" lon="-9.82539">
        <ele>361.3</ele>
        <time>2012-05-10T12:29:48Z</time>
      </trkpt>
      <trkpt lat="28.9976" lon="-9.82553">
        <ele>361.2</ele>
        <time>2012-05-10T12:29:53Z</time>
      </trkpt>
      <trkpt lat="28.99746" lon="-9.82568">
        <ele>360.8</ele>
        <time>2012-05-10T12:29:58Z</time>
      </trkpt>
      <trkpt lat="28.99726" lon="-9.82591">
        <ele>360.4</ele>
        <time>2012-05-10T12:30:03Z</time>
      </trkpt>
      <trkpt lat="28.99701" lon="-9.82622">
        <ele>360.1</ele>
        <time>2012-05-10T12:30:08Z</time>
      </trkpt>
      <trkpt lat="28.99684" lon="-9.82643">
        <ele>359.6</ele>
        <time>2012-05-10T12:30:13Z</time>
      </trkpt>
      <trkpt lat="28.99666" lon="-9.82661">
        <ele>359.3</ele>
        <time>2012-05-10T12:30:18Z</time>
      </trkpt>
      <trkpt lat="28.9964" lon="-9.82687">
        <ele>358.6</ele>
        <time>2012-05-10T12:30:23Z</time>
      </trkpt>
      <trkpt lat="28.99615" lon="-9.82714">
        <ele>358.2</ele>
        <time>2012-05-10T12:30:28Z</time>
      </trkpt>
      <trkpt lat="28.99594" lon="-9.82731">
        <ele>358</ele>
        <time>2012-05-10T12:30:33Z</time>
      </trkpt>
      <trkpt lat="28.99577" lon="-9.82748">
        <ele>357.9</ele>
        <time>2012-05-10T12:30:38Z</time>
      </trkpt>
      <trkpt lat="28.99562" lon="-9.82764">
        <ele>357.4</ele>
        <time>2012-05-10T12:30:43Z</time>
      </trkpt>
      <trkpt lat="28.99541" lon="-9.82775">
        <ele>357.3</ele>
        <time>2012-05-10T12:30:48Z</time>
      </trkpt>
      <trkpt lat="28.99521" lon="-9.82788">
        <ele>357.2</ele>
        <time>2012-05-10T12:30:53Z</time>
      </trkpt>
      <trkpt lat="28.99507" lon="-9.82808">
        <ele>357.1</ele>
        <time>2012-05-10T12:30:58Z</time>
      </trkpt>
      <trkpt lat="28.99492" lon="-9.8283">
        <ele>357.1</ele>
        <time>2012-05-10T12:31:03Z</time>
      </trkpt>
      <trkpt lat="28.99476" lon="-9.82853">
        <ele>357</ele>
        <time>2012-05-10T12:31:08Z</time>
      </trkpt>
      <trkpt lat="28.99459" lon="-9.82873">
        <ele>356.7</ele>
        <time>2012-05-10T12:31:13Z</time>
      </trkpt>
      <trkpt lat="28.99445" lon="-9.82895">
        <ele>356.3</ele>
        <time>2012-05-10T12:31:18Z</time>
      </trkpt>
      <trkpt lat="28.99431" lon="-9.82916">
        <ele>355.9</ele>
        <time>2012-05-10T12:31:23Z</time>
      </trkpt>
      <trkpt lat="28.99412" lon="-9.82944">
        <ele>355.8</ele>
        <time>2012-05-10T12:31:28Z</time>
      </trkpt>
      <trkpt lat="28.994" lon="-9.82963">
        <ele>355.7</ele>
        <time>2012-05-10T12:31:33Z</time>
      </trkpt>
      <trkpt lat="28.99388" lon="-9.82978">
        <ele>355.4</ele>
        <time>2012-05-10T12:31:38Z</time>
      </trkpt>
      <trkpt lat="28.99374" lon="-9.82992">
        <ele>356.8</ele>
        <time>2012-05-10T12:31:43Z</time>
      </trkpt>
      <trkpt lat="28.99353" lon="-9.8299">
        <ele>355.3</ele>
        <time>2012-05-10T12:31:48Z</time>
      </trkpt>
      <trkpt lat="28.99332" lon="-9.82977">
        <ele>354.1</ele>
        <time>2012-05-10T12:31:53Z</time>
      </trkpt>
      <trkpt lat="28.9924" lon="-9.82921">
        <ele>350.5</ele>
        <time>2012-05-10T12:31:58Z</time>
      </trkpt>
      <trkpt lat="28.99202" lon="-9.82893">
        <ele>349.1</ele>
        <time>2012-05-10T12:32:03Z</time>
      </trkpt>
      <trkpt lat="28.98942" lon="-9.82705">
        <ele>346.5</ele>
        <time>2012-05-10T12:32:08Z</time>
      </trkpt>
      <trkpt lat="28.9884" lon="-9.82632">
        <ele>345.5</ele>
        <time>2012-05-10T12:32:13Z</time>
      </trkpt>
      <trkpt lat="28.98818" lon="-9.82628">
        <ele>345.7</ele>
        <time>2012-05-10T12:32:18Z</time>
      </trkpt>
      <trkpt lat="28.988" lon="-9.82634">
        <ele>345.8</ele>
        <time>2012-05-10T12:32:23Z</time>
      </trkpt>
      <trkpt lat="28.98779" lon="-9.82642">
        <ele>345.9</ele>
        <time>2012-05-10T12:32:28Z</time>
      </trkpt>
      <trkpt lat="28.98633" lon="-9.82703">
        <ele>345.3</ele>
        <time>2012-05-10T12:32:33Z</time>
      </trkpt>
      <trkpt lat="28.98527" lon="-9.82737">
        <ele>345.2</ele>
        <time>2012-05-10T12:32:38Z</time>
      </trkpt>
      <trkpt lat="28.98509" lon="-9.82741">
        <ele>345.8</ele>
        <time>2012-05-10T12:32:43Z</time>
      </trkpt>
      <trkpt lat="28.98505" lon="-9.8274">
        <ele>350.1</ele>
        <time>2012-05-10T12:32:48Z</time>
      </trkpt>
      <trkpt lat="28.98499" lon="-9.82718">
        <ele>349.9</ele>
        <time>2012-05-10T12:32:53Z</time>
      </trkpt>
      <trkpt lat="28.98502" lon="-9.82691">
        <ele>349.8</ele>
        <time>2012-05-10T12:32:58Z</time>
      </trkpt>
      <trkpt lat="28.98505" lon="-9.8265">
        <ele>349.4</ele>
        <time>2012-05-10T12:33:03Z</time>
      </trkpt>
      <trkpt lat="28.98507" lon="-9.82609">
        <ele>349</ele>
        <time>2012-05-10T12:33:08Z</time>
      </trkpt>
      <trkpt lat="28.98507" lon="-9.82579">
        <ele>348.7</ele>
        <time>2012-05-10T12:33:13Z</time>
      </trkpt>
      <trkpt lat="28.98504" lon="-9.82545">
        <ele>348.4</ele>
        <time>2012-05-10T12:33:18Z</time>
      </trkpt>
      <trkpt lat="28.98499" lon="-9.8251">
        <ele>348.1</ele>
        <time>2012-05-10T12:33:23Z</time>
      </trkpt>
      <trkpt lat="28.98491" lon="-9.82473">
        <ele>347.8</ele>
        <time>2012-05-10T12:33:28Z</time>
      </trkpt>
      <trkpt lat="28.98481" lon="-9.82434">
        <ele>348</ele>
        <time>2012-05-10T12:33:33Z</time>
      </trkpt>
      <trkpt lat="28.98355" lon="-9.8195">
        <ele>346.7</ele>
        <time>2012-05-10T12:33:38Z</time>
      </trkpt>
      <trkpt lat="28.9825" lon="-9.81547">
        <ele>346.7</ele>
        <time>2012-05-10T12:33:43Z</time>
      </trkpt>
      <trkpt lat="28.98236" lon="-9.81502">
        <ele>346.7</ele>
        <time>2012-05-10T12:33:48Z</time>
      </trkpt>
      <trkpt lat="28.98228" lon="-9.8148">
        <ele>346.6</ele>
        <time>2012-05-10T12:33:53Z</time>
      </trkpt>
      <trkpt lat="28.9822" lon="-9.8146">
        <ele>346.7</ele>
        <time>2012-05-10T12:33:58Z</time>
      </trkpt>
      <trkpt lat="28.9821" lon="-9.81439">
        <ele>346.7</ele>
        <time>2012-05-10T12:34:03Z</time>
      </trkpt>
      <trkpt lat="28.982" lon="-9.81419">
        <ele>346.7</ele>
        <time>2012-05-10T12:34:08Z</time>
      </trkpt>
      <trkpt lat="28.98189" lon="-9.814">
        <ele>346.7</ele>
        <time>2012-05-10T12:34:13Z</time>
      </trkpt>
      <trkpt lat="28.98178" lon="-9.81381">
        <ele>346.7</ele>
        <time>2012-05-10T12:34:18Z</time>
      </trkpt>
      <trkpt lat="28.98165" lon="-9.81363">
        <ele>346.6</ele>
        <time>2012-05-10T12:34:23Z</time>
      </trkpt>
      <trkpt lat="28.98152" lon="-9.81346">
        <ele>346.5</ele>
        <time>2012-05-10T12:34:28Z</time>
      </trkpt>
      <trkpt lat="28.98139" lon="-9.8133">
        <ele>346.4</ele>
        <time>2012-05-10T12:34:33Z</time>
      </trkpt>
      <trkpt lat="28.98124" lon="-9.81315">
        <ele>346.1</ele>
        <time>2012-05-10T12:34:38Z</time>
      </trkpt>
      <trkpt lat="28.9811" lon="-9.81301">
        <ele>345.6</ele>
        <time>2012-05-10T12:34:43Z</time>
      </trkpt>
      <trkpt lat="28.98078" lon="-9.81273">
        <ele>345.9</ele>
        <time>2012-05-10T12:34:48Z</time>
      </trkpt>
      <trkpt lat="28.98061" lon="-9.8126">
        <ele>345.8</ele>
        <time>2012-05-10T12:34:53Z</time>
      </trkpt>
      <trkpt lat="28.98044" lon="-9.81248">
        <ele>345.7</ele>
        <time>2012-05-10T12:34:58Z</time>
      </trkpt>
      <trkpt lat="28.98026" lon="-9.81237">
        <ele>345.5</ele>
        <time>2012-05-10T12:35:03Z</time>
      </trkpt>
      <trkpt lat="28.98008" lon="-9.81226">
        <ele>345.1</ele>
        <time>2012-05-10T12:35:08Z</time>
      </trkpt>
      <trkpt lat="28.97988" lon="-9.81217">
        <ele>344.4</ele>
        <time>2012-05-10T12:35:13Z</time>
      </trkpt>
      <trkpt lat="28.97948" lon="-9.81199">
        <ele>343.9</ele>
        <time>2012-05-10T12:35:18Z</time>
      </trkpt>
      <trkpt lat="28.97682" lon="-9.81102">
        <ele>340.4</ele>
        <time>2012-05-10T12:35:23Z</time>
      </trkpt>
      <trkpt lat="28.9721" lon="-9.8093">
        <ele>343.3</ele>
        <time>2012-05-10T12:35:28Z</time>
      </trkpt>
      <trkpt lat="28.96973" lon="-9.8084">
        <ele>343.3</ele>
        <time>2012-05-10T12:35:33Z</time>
      </trkpt>
      <trkpt lat="28.96954" lon="-9.80829">
        <ele>343.3</ele>
        <time>2012-05-10T12:35:38Z</time>
      </trkpt>
      <trkpt lat="28.96935" lon="-9.80817">
        <ele>343.3</ele>
        <time>2012-05-10T12:35:43Z</time>
      </trkpt>
      <trkpt lat="28.96898" lon="-9.80791">
        <ele>343.5</ele>
        <time>2012-05-10T12:35:48Z</time>
      </trkpt>
      <trkpt lat="28.9688" lon="-9.80777">
        <ele>343.6</ele>
        <time>2012-05-10T12:35:53Z</time>
      </trkpt>
      <trkpt lat="28.96863" lon="-9.80761">
        <ele>343.7</ele>
        <time>2012-05-10T12:35:58Z</time>
      </trkpt>
      <trkpt lat="28.96847" lon="-9.80745">
        <ele>343.5</ele>
        <time>2012-05-10T12:36:03Z</time>
      </trkpt>
      <trkpt lat="28.96831" lon="-9.80728">
        <ele>343.6</ele>
        <time>2012-05-10T12:36:08Z</time>
      </trkpt>
      <trkpt lat="28.96817" lon="-9.8071">
        <ele>343.8</ele>
        <time>2012-05-10T12:36:13Z</time>
      </trkpt>
      <trkpt lat="28.96803" lon="-9.80692">
        <ele>344.1</ele>
        <time>2012-05-10T12:36:18Z</time>
      </trkpt>
      <trkpt lat="28.96778" lon="-9.80653">
        <ele>344.8</ele>
        <time>2012-05-10T12:36:23Z</time>
      </trkpt>
      <trkpt lat="28.96767" lon="-9.80632">
        <ele>345</ele>
        <time>2012-05-10T12:36:28Z</time>
      </trkpt>
      <trkpt lat="28.96756" lon="-9.80609">
        <ele>345.2</ele>
        <time>2012-05-10T12:36:33Z</time>
      </trkpt>
      <trkpt lat="28.96746" lon="-9.80587">
        <ele>345.5</ele>
        <time>2012-05-10T12:36:38Z</time>
      </trkpt>
      <trkpt lat="28.96729" lon="-9.8054">
        <ele>346.1</ele>
        <time>2012-05-10T12:36:43Z</time>
      </trkpt>
      <trkpt lat="28.96713" lon="-9.80492">
        <ele>346.5</ele>
        <time>2012-05-10T12:36:48Z</time>
      </trkpt>
      <trkpt lat="28.96558" lon="-9.80004">
        <ele>350.7</ele>
        <time>2012-05-10T12:36:53Z</time>
      </trkpt>
      <trkpt lat="28.96403" lon="-9.79519">
        <ele>353.9</ele>
        <time>2012-05-10T12:36:58Z</time>
      </trkpt>
      <trkpt lat="28.96232" lon="-9.78978">
        <ele>356.6</ele>
        <time>2012-05-10T12:37:03Z</time>
      </trkpt>
      <trkpt lat="28.96163" lon="-9.78767">
        <ele>358.2</ele>
        <time>2012-05-10T12:37:08Z</time>
      </trkpt>
      <trkpt lat="28.96154" lon="-9.78745">
        <ele>358.5</ele>
        <time>2012-05-10T12:37:13Z</time>
      </trkpt>
      <trkpt lat="28.96144" lon="-9.78724">
        <ele>358.6</ele>
        <time>2012-05-10T12:37:18Z</time>
      </trkpt>
      <trkpt lat="28.96133" lon="-9.78704">
        <ele>358.8</ele>
        <time>2012-05-10T12:37:23Z</time>
      </trkpt>
      <trkpt lat="28.96109" lon="-9.78665">
        <ele>359</ele>
        <time>2012-05-10T12:37:28Z</time>
      </trkpt>
      <trkpt lat="28.96096" lon="-9.78646">
        <ele>359.1</ele>
        <time>2012-05-10T12:37:33Z</time>
      </trkpt>
      <trkpt lat="28.96081" lon="-9.78629">
        <ele>359</ele>
        <time>2012-05-10T12:37:38Z</time>
      </trkpt>
      <trkpt lat="28.96051" lon="-9.78595">
        <ele>358.8</ele>
        <time>2012-05-10T12:37:43Z</time>
      </trkpt>
      <trkpt lat="28.96035" lon="-9.7858">
        <ele>358.7</ele>
        <time>2012-05-10T12:37:48Z</time>
      </trkpt>
      <trkpt lat="28.96017" lon="-9.78565">
        <ele>358.7</ele>
        <time>2012-05-10T12:37:53Z</time>
      </trkpt>
      <trkpt lat="28.96" lon="-9.78551">
        <ele>358.8</ele>
        <time>2012-05-10T12:37:58Z</time>
      </trkpt>
      <trkpt lat="28.95981" lon="-9.78538">
        <ele>358.8</ele>
        <time>2012-05-10T12:38:03Z</time>
      </trkpt>
      <trkpt lat="28.95963" lon="-9.78526">
        <ele>358.8</ele>
        <time>2012-05-10T12:38:08Z</time>
      </trkpt>
      <trkpt lat="28.95943" lon="-9.78515">
        <ele>358.8</ele>
        <time>2012-05-10T12:38:13Z</time>
      </trkpt>
      <trkpt lat="28.95924" lon="-9.78506">
        <ele>358.9</ele>
        <time>2012-05-10T12:38:18Z</time>
      </trkpt>
      <trkpt lat="28.95883" lon="-9.78489">
        <ele>359</ele>
        <time>2012-05-10T12:38:23Z</time>
      </trkpt>
      <trkpt lat="28.95841" lon="-9.78474">
        <ele>359</ele>
        <time>2012-05-10T12:38:28Z</time>
      </trkpt>
      <trkpt lat="28.95404" lon="-9.7832">
        <ele>359.6</ele>
        <time>2012-05-10T12:38:33Z</time>
      </trkpt>
      <trkpt lat="28.94983" lon="-9.78172">
        <ele>357.8</ele>
        <time>2012-05-10T12:38:38Z</time>
      </trkpt>
      <trkpt lat="28.94965" lon="-9.78164">
        <ele>357.9</ele>
        <time>2012-05-10T12:38:43Z</time>
      </trkpt>
      <trkpt lat="28.94892" lon="-9.7813">
        <ele>358</ele>
        <time>2012-05-10T12:38:48Z</time>
      </trkpt>
      <trkpt lat="28.94856" lon="-9.7811">
        <ele>357.7</ele>
        <time>2012-05-10T12:38:53Z</time>
      </trkpt>
      <trkpt lat="28.94784" lon="-9.78065">
        <ele>357.4</ele>
        <time>2012-05-10T12:38:58Z</time>
      </trkpt>
      <trkpt lat="28.94572" lon="-9.77922">
        <ele>358.2</ele>
        <time>2012-05-10T12:39:03Z</time>
      </trkpt>
      <trkpt lat="28.9452" lon="-9.77887">
        <ele>358.4</ele>
        <time>2012-05-10T12:39:08Z</time>
      </trkpt>
      <trkpt lat="28.94484" lon="-9.77866">
        <ele>358.4</ele>
        <time>2012-05-10T12:39:13Z</time>
      </trkpt>
      <trkpt lat="28.94466" lon="-9.77857">
        <ele>358.4</ele>
        <time>2012-05-10T12:39:18Z</time>
      </trkpt>
      <trkpt lat="28.94446" lon="-9.77849">
        <ele>358.4</ele>
        <time>2012-05-10T12:39:23Z</time>
      </trkpt>
      <trkpt lat="28.94408" lon="-9.77836">
        <ele>358.5</ele>
        <time>2012-05-10T12:39:28Z</time>
      </trkpt>
      <trkpt lat="28.94389" lon="-9.77831">
        <ele>358.6</ele>
        <time>2012-05-10T12:39:33Z</time>
      </trkpt>
      <trkpt lat="28.9437" lon="-9.77826">
        <ele>358.6</ele>
        <time>2012-05-10T12:39:38Z</time>
      </trkpt>
      <trkpt lat="28.94351" lon="-9.77823">
        <ele>358.5</ele>
        <time>2012-05-10T12:39:43Z</time>
      </trkpt>
      <trkpt lat="28.94314" lon="-9.7782">
        <ele>358.6</ele>
        <time>2012-05-10T12:39:48Z</time>
      </trkpt>
      <trkpt lat="28.94279" lon="-9.77819">
        <ele>358.7</ele>
        <time>2012-05-10T12:39:53Z</time>
      </trkpt>
      <trkpt lat="28.94244" lon="-9.77823">
        <ele>359</ele>
        <time>2012-05-10T12:39:58Z</time>
      </trkpt>
      <trkpt lat="28.9421" lon="-9.7783">
        <ele>359.2</ele>
        <time>2012-05-10T12:40:03Z</time>
      </trkpt>
      <trkpt lat="28.94173" lon="-9.7784">
        <ele>359.6</ele>
        <time>2012-05-10T12:40:08Z</time>
      </trkpt>
      <trkpt lat="28.94155" lon="-9.77846">
        <ele>360.2</ele>
        <time>2012-05-10T12:40:13Z</time>
      </trkpt>
      <trkpt lat="28.94136" lon="-9.77854">
        <ele>360.8</ele>
        <time>2012-05-10T12:40:18Z</time>
      </trkpt>
      <trkpt lat="28.94117" lon="-9.77862">
        <ele>361.3</ele>
        <time>2012-05-10T12:40:23Z</time>
      </trkpt>
      <trkpt lat="28.94002" lon="-9.77918">
        <ele>362.1</ele>
        <time>2012-05-10T12:40:28Z</time>
      </trkpt>
      <trkpt lat="28.93609" lon="-9.78111">
        <ele>364.4</ele>
        <time>2012-05-10T12:40:33Z</time>
      </trkpt>
      <trkpt lat="28.93345" lon="-9.78239">
        <ele>362.1</ele>
        <time>2012-05-10T12:40:38Z</time>
      </trkpt>
      <trkpt lat="28.93307" lon="-9.78253">
        <ele>361.8</ele>
        <time>2012-05-10T12:40:43Z</time>
      </trkpt>
      <trkpt lat="28.93288" lon="-9.78258">
        <ele>361.7</ele>
        <time>2012-05-10T12:40:48Z</time>
      </trkpt>
      <trkpt lat="28.9325" lon="-9.78267">
        <ele>361.7</ele>
        <time>2012-05-10T12:40:53Z</time>
      </trkpt>
      <trkpt lat="28.93211" lon="-9.78275">
        <ele>361.6</ele>
        <time>2012-05-10T12:40:58Z</time>
      </trkpt>
      <trkpt lat="28.93171" lon="-9.7828">
        <ele>361.7</ele>
        <time>2012-05-10T12:41:03Z</time>
      </trkpt>
      <trkpt lat="28.93129" lon="-9.78281">
        <ele>361.8</ele>
        <time>2012-05-10T12:41:08Z</time>
      </trkpt>
      <trkpt lat="28.93108" lon="-9.78281">
        <ele>362</ele>
        <time>2012-05-10T12:41:13Z</time>
      </trkpt>
      <trkpt lat="28.93065" lon="-9.78279">
        <ele>362.5</ele>
        <time>2012-05-10T12:41:18Z</time>
      </trkpt>
      <trkpt lat="28.92635" lon="-9.78245">
        <ele>373.7</ele>
        <time>2012-05-10T12:41:23Z</time>
      </trkpt>
      <trkpt lat="28.92589" lon="-9.78247">
        <ele>374.2</ele>
        <time>2012-05-10T12:41:28Z</time>
      </trkpt>
      <trkpt lat="28.92566" lon="-9.7825">
        <ele>374.1</ele>
        <time>2012-05-10T12:41:33Z</time>
      </trkpt>
      <trkpt lat="28.92543" lon="-9.78254">
        <ele>374</ele>
        <time>2012-05-10T12:41:38Z</time>
      </trkpt>
      <trkpt lat="28.92497" lon="-9.78263">
        <ele>373.9</ele>
        <time>2012-05-10T12:41:43Z</time>
      </trkpt>
      <trkpt lat="28.92474" lon="-9.78269">
        <ele>374.1</ele>
        <time>2012-05-10T12:41:48Z</time>
      </trkpt>
      <trkpt lat="28.92451" lon="-9.78277">
        <ele>374.2</ele>
        <time>2012-05-10T12:41:53Z</time>
      </trkpt>
      <trkpt lat="28.92405" lon="-9.78294">
        <ele>375</ele>
        <time>2012-05-10T12:41:58Z</time>
      </trkpt>
      <trkpt lat="28.91945" lon="-9.78479">
        <ele>392.7</ele>
        <time>2012-05-10T12:42:03Z</time>
      </trkpt>
      <trkpt lat="28.91488" lon="-9.78665">
        <ele>404.2</ele>
        <time>2012-05-10T12:42:08Z</time>
      </trkpt>
      <trkpt lat="28.91065" lon="-9.78836">
        <ele>409.5</ele>
        <time>2012-05-10T12:42:13Z</time>
      </trkpt>
      <trkpt lat="28.90958" lon="-9.78877">
        <ele>407.4</ele>
        <time>2012-05-10T12:42:18Z</time>
      </trkpt>
      <trkpt lat="28.90937" lon="-9.78883">
        <ele>407</ele>
        <time>2012-05-10T12:42:23Z</time>
      </trkpt>
      <trkpt lat="28.90915" lon="-9.78888">
        <ele>406.5</ele>
        <time>2012-05-10T12:42:28Z</time>
      </trkpt>
      <trkpt lat="28.90871" lon="-9.78896">
        <ele>405.1</ele>
        <time>2012-05-10T12:42:33Z</time>
      </trkpt>
      <trkpt lat="28.90826" lon="-9.78899">
        <ele>404</ele>
        <time>2012-05-10T12:42:38Z</time>
      </trkpt>
      <trkpt lat="28.90804" lon="-9.789">
        <ele>403.5</ele>
        <time>2012-05-10T12:42:43Z</time>
      </trkpt>
      <trkpt lat="28.90783" lon="-9.78899">
        <ele>402.9</ele>
        <time>2012-05-10T12:42:48Z</time>
      </trkpt>
      <trkpt lat="28.90761" lon="-9.78897">
        <ele>402.5</ele>
        <time>2012-05-10T12:42:53Z</time>
      </trkpt>
      <trkpt lat="28.90718" lon="-9.78891">
        <ele>401.4</ele>
        <time>2012-05-10T12:42:58Z</time>
      </trkpt>
      <trkpt lat="28.90697" lon="-9.78886">
        <ele>400.8</ele>
        <time>2012-05-10T12:43:03Z</time>
      </trkpt>
      <trkpt lat="28.90677" lon="-9.78881">
        <ele>400.3</ele>
        <time>2012-05-10T12:43:08Z</time>
      </trkpt>
      <trkpt lat="28.90656" lon="-9.78875">
        <ele>399.9</ele>
        <time>2012-05-10T12:43:13Z</time>
      </trkpt>
      <trkpt lat="28.90636" lon="-9.78867">
        <ele>399.5</ele>
        <time>2012-05-10T12:43:18Z</time>
      </trkpt>
      <trkpt lat="28.90616" lon="-9.78859">
        <ele>399</ele>
        <time>2012-05-10T12:43:23Z</time>
      </trkpt>
      <trkpt lat="28.90577" lon="-9.7884">
        <ele>398</ele>
        <time>2012-05-10T12:43:28Z</time>
      </trkpt>
      <trkpt lat="28.90558" lon="-9.78829">
        <ele>397.5</ele>
        <time>2012-05-10T12:43:33Z</time>
      </trkpt>
      <trkpt lat="28.90539" lon="-9.78817">
        <ele>396.9</ele>
        <time>2012-05-10T12:43:38Z</time>
      </trkpt>
      <trkpt lat="28.9052" lon="-9.78804">
        <ele>396.4</ele>
        <time>2012-05-10T12:43:43Z</time>
      </trkpt>
      <trkpt lat="28.90265" lon="-9.78615">
        <ele>391.3</ele>
        <time>2012-05-10T12:43:48Z</time>
      </trkpt>
      <trkpt lat="28.90094" lon="-9.78487">
        <ele>387.7</ele>
        <time>2012-05-10T12:43:53Z</time>
      </trkpt>
      <trkpt lat="28.89881" lon="-9.78331">
        <ele>385.2</ele>
        <time>2012-05-10T12:43:58Z</time>
      </trkpt>
      <trkpt lat="28.89442" lon="-9.78007">
        <ele>385</ele>
        <time>2012-05-10T12:44:03Z</time>
      </trkpt>
      <trkpt lat="28.89228" lon="-9.77852">
        <ele>384.9</ele>
        <time>2012-05-10T12:44:08Z</time>
      </trkpt>
      <trkpt lat="28.89185" lon="-9.77826">
        <ele>384.9</ele>
        <time>2012-05-10T12:44:13Z</time>
      </trkpt>
      <trkpt lat="28.89141" lon="-9.77802">
        <ele>384.9</ele>
        <time>2012-05-10T12:44:18Z</time>
      </trkpt>
      <trkpt lat="28.89096" lon="-9.77781">
        <ele>384.8</ele>
        <time>2012-05-10T12:44:23Z</time>
      </trkpt>
      <trkpt lat="28.89051" lon="-9.77764">
        <ele>384.7</ele>
        <time>2012-05-10T12:44:28Z</time>
      </trkpt>
      <trkpt lat="28.89005" lon="-9.77749">
        <ele>384.5</ele>
        <time>2012-05-10T12:44:33Z</time>
      </trkpt>
      <trkpt lat="28.88936" lon="-9.77731">
        <ele>384</ele>
        <time>2012-05-10T12:44:38Z</time>
      </trkpt>
      <trkpt lat="28.88467" lon="-9.77616">
        <ele>381.9</ele>
        <time>2012-05-10T12:44:43Z</time>
      </trkpt>
      <trkpt lat="28.88403" lon="-9.77598">
        <ele>382.3</ele>
        <time>2012-05-10T12:44:48Z</time>
      </trkpt>
      <trkpt lat="28.88363" lon="-9.77582">
        <ele>382.6</ele>
        <time>2012-05-10T12:44:53Z</time>
      </trkpt>
      <trkpt lat="28.88343" lon="-9.77572">
        <ele>382.7</ele>
        <time>2012-05-10T12:44:58Z</time>
      </trkpt>
      <trkpt lat="28.88323" lon="-9.77561">
        <ele>382.7</ele>
        <time>2012-05-10T12:45:03Z</time>
      </trkpt>
      <trkpt lat="28.88304" lon="-9.7755">
        <ele>382.5</ele>
        <time>2012-05-10T12:45:08Z</time>
      </trkpt>
      <trkpt lat="28.88285" lon="-9.77536">
        <ele>382.6</ele>
        <time>2012-05-10T12:45:13Z</time>
      </trkpt>
      <trkpt lat="28.88267" lon="-9.77522">
        <ele>382.7</ele>
        <time>2012-05-10T12:45:18Z</time>
      </trkpt>
      <trkpt lat="28.88231" lon="-9.77491">
        <ele>382.5</ele>
        <time>2012-05-10T12:45:23Z</time>
      </trkpt>
      <trkpt lat="28.88214" lon="-9.77474">
        <ele>382.4</ele>
        <time>2012-05-10T12:45:28Z</time>
      </trkpt>
      <trkpt lat="28.88197" lon="-9.77456">
        <ele>382.3</ele>
        <time>2012-05-10T12:45:33Z</time>
      </trkpt>
      <trkpt lat="28.8818" lon="-9.77436">
        <ele>382.4</ele>
        <time>2012-05-10T12:45:38Z</time>
      </trkpt>
      <trkpt lat="28.88164" lon="-9.77416">
        <ele>382.7</ele>
        <time>2012-05-10T12:45:43Z</time>
      </trkpt>
      <trkpt lat="28.88134" lon="-9.77373">
        <ele>383.4</ele>
        <time>2012-05-10T12:45:48Z</time>
      </trkpt>
      <trkpt lat="28.87829" lon="-9.76938">
        <ele>391.1</ele>
        <time>2012-05-10T12:45:53Z</time>
      </trkpt>
      <trkpt lat="28.87737" lon="-9.7681">
        <ele>392.9</ele>
        <time>2012-05-10T12:45:58Z</time>
      </trkpt>
      <trkpt lat="28.87704" lon="-9.76769">
        <ele>393.6</ele>
        <time>2012-05-10T12:46:03Z</time>
      </trkpt>
      <trkpt lat="28.87669" lon="-9.7673">
        <ele>394.2</ele>
        <time>2012-05-10T12:46:08Z</time>
      </trkpt>
      <trkpt lat="28.87631" lon="-9.76693">
        <ele>394.8</ele>
        <time>2012-05-10T12:46:13Z</time>
      </trkpt>
      <trkpt lat="28.87591" lon="-9.76656">
        <ele>395.4</ele>
        <time>2012-05-10T12:46:18Z</time>
      </trkpt>
      <trkpt lat="28.87157" lon="-9.76283">
        <ele>402.7</ele>
        <time>2012-05-10T12:46:23Z</time>
      </trkpt>
      <trkpt lat="28.86753" lon="-9.75933">
        <ele>413.8</ele>
        <time>2012-05-10T12:46:28Z</time>
      </trkpt>
      <trkpt lat="28.86377" lon="-9.75611">
        <ele>418.3</ele>
        <time>2012-05-10T12:46:33Z</time>
      </trkpt>
      <trkpt lat="28.86058" lon="-9.75335">
        <ele>426</ele>
        <time>2012-05-10T12:46:38Z</time>
      </trkpt>
      <trkpt lat="28.86027" lon="-9.75303">
        <ele>426.4</ele>
        <time>2012-05-10T12:46:43Z</time>
      </trkpt>
      <trkpt lat="28.85998" lon="-9.75268">
        <ele>427.1</ele>
        <time>2012-05-10T12:46:48Z</time>
      </trkpt>
      <trkpt lat="28.85983" lon="-9.7525">
        <ele>427.5</ele>
        <time>2012-05-10T12:46:53Z</time>
      </trkpt>
      <trkpt lat="28.85956" lon="-9.75212">
        <ele>428.4</ele>
        <time>2012-05-10T12:46:58Z</time>
      </trkpt>
      <trkpt lat="28.85931" lon="-9.75172">
        <ele>429.3</ele>
        <time>2012-05-10T12:47:03Z</time>
      </trkpt>
      <trkpt lat="28.85909" lon="-9.7513">
        <ele>430.3</ele>
        <time>2012-05-10T12:47:08Z</time>
      </trkpt>
      <trkpt lat="28.85888" lon="-9.75086">
        <ele>431.2</ele>
        <time>2012-05-10T12:47:13Z</time>
      </trkpt>
      <trkpt lat="28.85879" lon="-9.75063">
        <ele>431.7</ele>
        <time>2012-05-10T12:47:18Z</time>
      </trkpt>
      <trkpt lat="28.85862" lon="-9.75016">
        <ele>432.8</ele>
        <time>2012-05-10T12:47:23Z</time>
      </trkpt>
      <trkpt lat="28.85842" lon="-9.74947">
        <ele>433.7</ele>
        <time>2012-05-10T12:47:28Z</time>
      </trkpt>
      <trkpt lat="28.85836" lon="-9.74924">
        <ele>434.1</ele>
        <time>2012-05-10T12:47:33Z</time>
      </trkpt>
      <trkpt lat="28.85723" lon="-9.74454">
        <ele>441.2</ele>
        <time>2012-05-10T12:47:38Z</time>
      </trkpt>
      <trkpt lat="28.85588" lon="-9.73907">
        <ele>448</ele>
        <time>2012-05-10T12:47:43Z</time>
      </trkpt>
      <trkpt lat="28.85464" lon="-9.73405">
        <ele>450.6</ele>
        <time>2012-05-10T12:47:48Z</time>
      </trkpt>
      <trkpt lat="28.8545" lon="-9.73361">
        <ele>451.2</ele>
        <time>2012-05-10T12:47:53Z</time>
      </trkpt>
      <trkpt lat="28.85434" lon="-9.73317">
        <ele>451.7</ele>
        <time>2012-05-10T12:47:58Z</time>
      </trkpt>
      <trkpt lat="28.85415" lon="-9.73274">
        <ele>452.2</ele>
        <time>2012-05-10T12:48:03Z</time>
      </trkpt>
      <trkpt lat="28.85405" lon="-9.73253">
        <ele>452.4</ele>
        <time>2012-05-10T12:48:08Z</time>
      </trkpt>
      <trkpt lat="28.85394" lon="-9.73232">
        <ele>452.6</ele>
        <time>2012-05-10T12:48:13Z</time>
      </trkpt>
      <trkpt lat="28.8537" lon="-9.73193">
        <ele>453.1</ele>
        <time>2012-05-10T12:48:18Z</time>
      </trkpt>
      <trkpt lat="28.85346" lon="-9.73157">
        <ele>453.5</ele>
        <time>2012-05-10T12:48:23Z</time>
      </trkpt>
      <trkpt lat="28.85321" lon="-9.73124">
        <ele>453.7</ele>
        <time>2012-05-10T12:48:28Z</time>
      </trkpt>
      <trkpt lat="28.85295" lon="-9.73093">
        <ele>453.9</ele>
        <time>2012-05-10T12:48:33Z</time>
      </trkpt>
      <trkpt lat="28.85268" lon="-9.73065">
        <ele>453.7</ele>
        <time>2012-05-10T12:48:38Z</time>
      </trkpt>
      <trkpt lat="28.8524" lon="-9.73039">
        <ele>453.5</ele>
        <time>2012-05-10T12:48:43Z</time>
      </trkpt>
      <trkpt lat="28.85212" lon="-9.73016">
        <ele>453.4</ele>
        <time>2012-05-10T12:48:48Z</time>
      </trkpt>
      <trkpt lat="28.85183" lon="-9.72993">
        <ele>453.4</ele>
        <time>2012-05-10T12:48:53Z</time>
      </trkpt>
      <trkpt lat="28.85167" lon="-9.72982">
        <ele>453.4</ele>
        <time>2012-05-10T12:48:58Z</time>
      </trkpt>
      <trkpt lat="28.85134" lon="-9.72961">
        <ele>453.7</ele>
        <time>2012-05-10T12:49:03Z</time>
      </trkpt>
      <trkpt lat="28.85099" lon="-9.72942">
        <ele>453.5</ele>
        <time>2012-05-10T12:49:08Z</time>
      </trkpt>
      <trkpt lat="28.85063" lon="-9.72925">
        <ele>453.1</ele>
        <time>2012-05-10T12:49:13Z</time>
      </trkpt>
      <trkpt lat="28.85026" lon="-9.7291">
        <ele>452.5</ele>
        <time>2012-05-10T12:49:18Z</time>
      </trkpt>
      <trkpt lat="28.8461" lon="-9.72758">
        <ele>441</ele>
        <time>2012-05-10T12:49:23Z</time>
      </trkpt>
      <trkpt lat="28.84526" lon="-9.72725">
        <ele>438.2</ele>
        <time>2012-05-10T12:49:28Z</time>
      </trkpt>
      <trkpt lat="28.84485" lon="-9.72704">
        <ele>436.5</ele>
        <time>2012-05-10T12:49:33Z</time>
      </trkpt>
      <trkpt lat="28.84425" lon="-9.72669">
        <ele>434.1</ele>
        <time>2012-05-10T12:49:38Z</time>
      </trkpt>
      <trkpt lat="28.84387" lon="-9.72643">
        <ele>432.7</ele>
        <time>2012-05-10T12:49:43Z</time>
      </trkpt>
      <trkpt lat="28.8433" lon="-9.726">
        <ele>429.8</ele>
        <time>2012-05-10T12:49:48Z</time>
      </trkpt>
      <trkpt lat="28.84312" lon="-9.72584">
        <ele>428.8</ele>
        <time>2012-05-10T12:49:53Z</time>
      </trkpt>
      <trkpt lat="28.84256" lon="-9.72532">
        <ele>426.1</ele>
        <time>2012-05-10T12:49:58Z</time>
      </trkpt>
      <trkpt lat="28.83936" lon="-9.72235">
        <ele>428.2</ele>
        <time>2012-05-10T12:50:03Z</time>
      </trkpt>
      <trkpt lat="28.83917" lon="-9.72238">
        <ele>428.4</ele>
        <time>2012-05-10T12:50:08Z</time>
      </trkpt>
      <trkpt lat="28.83896" lon="-9.72253">
        <ele>428.2</ele>
        <time>2012-05-10T12:50:13Z</time>
      </trkpt>
      <trkpt lat="28.83858" lon="-9.72282">
        <ele>427.5</ele>
        <time>2012-05-10T12:50:18Z</time>
      </trkpt>
      <trkpt lat="28.83832" lon="-9.72297">
        <ele>427.1</ele>
        <time>2012-05-10T12:50:23Z</time>
      </trkpt>
      <trkpt lat="28.83789" lon="-9.72321">
        <ele>426.3</ele>
        <time>2012-05-10T12:50:28Z</time>
      </trkpt>
      <trkpt lat="28.83724" lon="-9.72354">
        <ele>424.1</ele>
        <time>2012-05-10T12:50:33Z</time>
      </trkpt>
      <trkpt lat="28.83688" lon="-9.7237">
        <ele>424.2</ele>
        <time>2012-05-10T12:50:38Z</time>
      </trkpt>
      <trkpt lat="28.83527" lon="-9.72439">
        <ele>425.5</ele>
        <time>2012-05-10T12:50:43Z</time>
      </trkpt>
      <trkpt lat="28.83498" lon="-9.72457">
        <ele>424.4</ele>
        <time>2012-05-10T12:50:48Z</time>
      </trkpt>
      <trkpt lat="28.83473" lon="-9.72483">
        <ele>423.9</ele>
        <time>2012-05-10T12:50:53Z</time>
      </trkpt>
      <trkpt lat="28.83451" lon="-9.72517">
        <ele>423.2</ele>
        <time>2012-05-10T12:50:58Z</time>
      </trkpt>
      <trkpt lat="28.83441" lon="-9.72535">
        <ele>422.8</ele>
        <time>2012-05-10T12:51:03Z</time>
      </trkpt>
      <trkpt lat="28.83393" lon="-9.72626">
        <ele>420.5</ele>
        <time>2012-05-10T12:51:08Z</time>
      </trkpt>
      <trkpt lat="28.83381" lon="-9.72642">
        <ele>420.2</ele>
        <time>2012-05-10T12:51:13Z</time>
      </trkpt>
      <trkpt lat="28.83367" lon="-9.72658">
        <ele>419.8</ele>
        <time>2012-05-10T12:51:18Z</time>
      </trkpt>
      <trkpt lat="28.83352" lon="-9.72674">
        <ele>419.4</ele>
        <time>2012-05-10T12:51:23Z</time>
      </trkpt>
      <trkpt lat="28.83335" lon="-9.72688">
        <ele>418.9</ele>
        <time>2012-05-10T12:51:28Z</time>
      </trkpt>
      <trkpt lat="28.833" lon="-9.72718">
        <ele>418</ele>
        <time>2012-05-10T12:51:33Z</time>
      </trkpt>
      <trkpt lat="28.83223" lon="-9.72776">
        <ele>416.5</ele>
        <time>2012-05-10T12:51:38Z</time>
      </trkpt>
      <trkpt lat="28.83182" lon="-9.72803">
        <ele>415.8</ele>
        <time>2012-05-10T12:51:43Z</time>
      </trkpt>
      <trkpt lat="28.83137" lon="-9.72828">
        <ele>415.2</ele>
        <time>2012-05-10T12:51:48Z</time>
      </trkpt>
      <trkpt lat="28.82614" lon="-9.73122">
        <ele>413.6</ele>
        <time>2012-05-10T12:51:53Z</time>
      </trkpt>
      <trkpt lat="28.82119" lon="-9.734">
        <ele>411.7</ele>
        <time>2012-05-10T12:51:58Z</time>
      </trkpt>
      <trkpt lat="28.81693" lon="-9.73644">
        <ele>415</ele>
        <time>2012-05-10T12:52:03Z</time>
      </trkpt>
      <trkpt lat="28.81673" lon="-9.73659">
        <ele>414.7</ele>
        <time>2012-05-10T12:52:08Z</time>
      </trkpt>
      <trkpt lat="28.81414" lon="-9.73853">
        <ele>413.1</ele>
        <time>2012-05-10T12:52:13Z</time>
      </trkpt>
      <trkpt lat="28.81395" lon="-9.73862">
        <ele>412.4</ele>
        <time>2012-05-10T12:52:18Z</time>
      </trkpt>
      <trkpt lat="28.81375" lon="-9.73869">
        <ele>411.9</ele>
        <time>2012-05-10T12:52:23Z</time>
      </trkpt>
      <trkpt lat="28.81355" lon="-9.73876">
        <ele>411.1</ele>
        <time>2012-05-10T12:52:28Z</time>
      </trkpt>
      <trkpt lat="28.81333" lon="-9.73881">
        <ele>410.1</ele>
        <time>2012-05-10T12:52:33Z</time>
      </trkpt>
      <trkpt lat="28.80834" lon="-9.73988">
        <ele>398.5</ele>
        <time>2012-05-10T12:52:38Z</time>
      </trkpt>
      <trkpt lat="28.80348" lon="-9.74091">
        <ele>393.7</ele>
        <time>2012-05-10T12:52:43Z</time>
      </trkpt>
      <trkpt lat="28.8033" lon="-9.74097">
        <ele>393</ele>
        <time>2012-05-10T12:52:48Z</time>
      </trkpt>
      <trkpt lat="28.80312" lon="-9.74106">
        <ele>392.4</ele>
        <time>2012-05-10T12:52:53Z</time>
      </trkpt>
      <trkpt lat="28.80296" lon="-9.74117">
        <ele>391.9</ele>
        <time>2012-05-10T12:52:58Z</time>
      </trkpt>
      <trkpt lat="28.8028" lon="-9.7413">
        <ele>391.7</ele>
        <time>2012-05-10T12:53:03Z</time>
      </trkpt>
      <trkpt lat="28.80264" lon="-9.74144">
        <ele>391.6</ele>
        <time>2012-05-10T12:53:08Z</time>
      </trkpt>
      <trkpt lat="28.79925" lon="-9.74461">
        <ele>390.1</ele>
        <time>2012-05-10T12:53:13Z</time>
      </trkpt>
      <trkpt lat="28.7991" lon="-9.74473">
        <ele>390.2</ele>
        <time>2012-05-10T12:53:18Z</time>
      </trkpt>
      <trkpt lat="28.79878" lon="-9.74489">
        <ele>390</ele>
        <time>2012-05-10T12:53:23Z</time>
      </trkpt>
      <trkpt lat="28.79844" lon="-9.74498">
        <ele>390</ele>
        <time>2012-05-10T12:53:28Z</time>
      </trkpt>
      <trkpt lat="28.79728" lon="-9.74518">
        <ele>388.8</ele>
        <time>2012-05-10T12:53:33Z</time>
      </trkpt>
      <trkpt lat="28.79295" lon="-9.74591">
        <ele>388.7</ele>
        <time>2012-05-10T12:53:38Z</time>
      </trkpt>
      <trkpt lat="28.79255" lon="-9.74602">
        <ele>388.8</ele>
        <time>2012-05-10T12:53:43Z</time>
      </trkpt>
      <trkpt lat="28.79217" lon="-9.74615">
        <ele>389</ele>
        <time>2012-05-10T12:53:48Z</time>
      </trkpt>
      <trkpt lat="28.79093" lon="-9.74661">
        <ele>388.7</ele>
        <time>2012-05-10T12:53:53Z</time>
      </trkpt>
      <trkpt lat="28.79061" lon="-9.74681">
        <ele>388.4</ele>
        <time>2012-05-10T12:53:58Z</time>
      </trkpt>
      <trkpt lat="28.79047" lon="-9.74694">
        <ele>388.2</ele>
        <time>2012-05-10T12:54:03Z</time>
      </trkpt>
      <trkpt lat="28.79033" lon="-9.74709">
        <ele>388.1</ele>
        <time>2012-05-10T12:54:08Z</time>
      </trkpt>
      <trkpt lat="28.7902" lon="-9.74726">
        <ele>388.1</ele>
        <time>2012-05-10T12:54:13Z</time>
      </trkpt>
      <trkpt lat="28.79008" lon="-9.74745">
        <ele>388.1</ele>
        <time>2012-05-10T12:54:18Z</time>
      </trkpt>
      <trkpt lat="28.78996" lon="-9.74764">
        <ele>388</ele>
        <time>2012-05-10T12:54:23Z</time>
      </trkpt>
      <trkpt lat="28.78899" lon="-9.74934">
        <ele>388.5</ele>
        <time>2012-05-10T12:54:28Z</time>
      </trkpt>
      <trkpt lat="28.78849" lon="-9.75019">
        <ele>389.3</ele>
        <time>2012-05-10T12:54:33Z</time>
      </trkpt>
      <trkpt lat="28.78822" lon="-9.75061">
        <ele>389.5</ele>
        <time>2012-05-10T12:54:38Z</time>
      </trkpt>
      <trkpt lat="28.7871" lon="-9.75219">
        <ele>389.4</ele>
        <time>2012-05-10T12:54:43Z</time>
      </trkpt>
      <trkpt lat="28.78681" lon="-9.75257">
        <ele>389.1</ele>
        <time>2012-05-10T12:54:48Z</time>
      </trkpt>
      <trkpt lat="28.78588" lon="-9.75366">
        <ele>387.7</ele>
        <time>2012-05-10T12:54:53Z</time>
      </trkpt>
      <trkpt lat="28.78524" lon="-9.75436">
        <ele>387.2</ele>
        <time>2012-05-10T12:54:58Z</time>
      </trkpt>
      <trkpt lat="28.78507" lon="-9.75453">
        <ele>387.1</ele>
        <time>2012-05-10T12:55:03Z</time>
      </trkpt>
      <trkpt lat="28.78489" lon="-9.7547">
        <ele>386.9</ele>
        <time>2012-05-10T12:55:08Z</time>
      </trkpt>
      <trkpt lat="28.78451" lon="-9.75501">
        <ele>386.5</ele>
        <time>2012-05-10T12:55:13Z</time>
      </trkpt>
      <trkpt lat="28.78252" lon="-9.75655">
        <ele>385</ele>
        <time>2012-05-10T12:55:18Z</time>
      </trkpt>
      <trkpt lat="28.78169" lon="-9.75713">
        <ele>384.8</ele>
        <time>2012-05-10T12:55:23Z</time>
      </trkpt>
      <trkpt lat="28.77987" lon="-9.75839">
        <ele>383.8</ele>
        <time>2012-05-10T12:55:28Z</time>
      </trkpt>
      <trkpt lat="28.77949" lon="-9.75869">
        <ele>383.5</ele>
        <time>2012-05-10T12:55:33Z</time>
      </trkpt>
      <trkpt lat="28.77874" lon="-9.75933">
        <ele>383.1</ele>
        <time>2012-05-10T12:55:38Z</time>
      </trkpt>
      <trkpt lat="28.7762" lon="-9.76146">
        <ele>382.9</ele>
        <time>2012-05-10T12:55:43Z</time>
      </trkpt>
      <trkpt lat="28.77583" lon="-9.76173">
        <ele>383.2</ele>
        <time>2012-05-10T12:55:48Z</time>
      </trkpt>
      <trkpt lat="28.77544" lon="-9.76198">
        <ele>383.1</ele>
        <time>2012-05-10T12:55:53Z</time>
      </trkpt>
      <trkpt lat="28.77436" lon="-9.76266">
        <ele>383.4</ele>
        <time>2012-05-10T12:55:58Z</time>
      </trkpt>
      <trkpt lat="28.77419" lon="-9.76275">
        <ele>383.4</ele>
        <time>2012-05-10T12:56:03Z</time>
      </trkpt>
      <trkpt lat="28.77401" lon="-9.76281">
        <ele>383.7</ele>
        <time>2012-05-10T12:56:08Z</time>
      </trkpt>
      <trkpt lat="28.77382" lon="-9.76285">
        <ele>384.3</ele>
        <time>2012-05-10T12:56:13Z</time>
      </trkpt>
      <trkpt lat="28.77363" lon="-9.76288">
        <ele>384.6</ele>
        <time>2012-05-10T12:56:18Z</time>
      </trkpt>
      <trkpt lat="28.77198" lon="-9.76313">
        <ele>385</ele>
        <time>2012-05-10T12:56:23Z</time>
      </trkpt>
      <trkpt lat="28.76846" lon="-9.76395">
        <ele>382.6</ele>
        <time>2012-05-10T12:56:28Z</time>
      </trkpt>
      <trkpt lat="28.76827" lon="-9.76402">
        <ele>382.7</ele>
        <time>2012-05-10T12:56:33Z</time>
      </trkpt>
      <trkpt lat="28.76808" lon="-9.7641">
        <ele>382.8</ele>
        <time>2012-05-10T12:56:38Z</time>
      </trkpt>
      <trkpt lat="28.7679" lon="-9.76419">
        <ele>382.9</ele>
        <time>2012-05-10T12:56:43Z</time>
      </trkpt>
      <trkpt lat="28.76574" lon="-9.76519">
        <ele>384.6</ele>
        <time>2012-05-10T12:56:48Z</time>
      </trkpt>
      <trkpt lat="28.76541" lon="-9.76526">
        <ele>384.8</ele>
        <time>2012-05-10T12:56:53Z</time>
      </trkpt>
      <trkpt lat="28.76507" lon="-9.76526">
        <ele>384.7</ele>
        <time>2012-05-10T12:56:58Z</time>
      </trkpt>
      <trkpt lat="28.76471" lon="-9.76523">
        <ele>384.7</ele>
        <time>2012-05-10T12:57:03Z</time>
      </trkpt>
      <trkpt lat="28.76215" lon="-9.765">
        <ele>384.6</ele>
        <time>2012-05-10T12:57:08Z</time>
      </trkpt>
      <trkpt lat="28.76175" lon="-9.76493">
        <ele>384.7</ele>
        <time>2012-05-10T12:57:13Z</time>
      </trkpt>
      <trkpt lat="28.76135" lon="-9.76484">
        <ele>384.7</ele>
        <time>2012-05-10T12:57:18Z</time>
      </trkpt>
      <trkpt lat="28.7596" lon="-9.76442">
        <ele>384.9</ele>
        <time>2012-05-10T12:57:23Z</time>
      </trkpt>
      <trkpt lat="28.75932" lon="-9.76432">
        <ele>385.2</ele>
        <time>2012-05-10T12:57:28Z</time>
      </trkpt>
      <trkpt lat="28.75905" lon="-9.76424">
        <ele>385.5</ele>
        <time>2012-05-10T12:57:33Z</time>
      </trkpt>
      <trkpt lat="28.7588" lon="-9.76417">
        <ele>385.4</ele>
        <time>2012-05-10T12:57:38Z</time>
      </trkpt>
      <trkpt lat="28.75843" lon="-9.7641">
        <ele>385.3</ele>
        <time>2012-05-10T12:57:43Z</time>
      </trkpt>
      <trkpt lat="28.75625" lon="-9.76363">
        <ele>383.9</ele>
        <time>2012-05-10T12:57:48Z</time>
      </trkpt>
      <trkpt lat="28.75469" lon="-9.76327">
        <ele>383.1</ele>
        <time>2012-05-10T12:57:53Z</time>
      </trkpt>
      <trkpt lat="28.75448" lon="-9.76325">
        <ele>383.2</ele>
        <time>2012-05-10T12:57:58Z</time>
      </trkpt>
      <trkpt lat="28.75426" lon="-9.76325">
        <ele>383.5</ele>
        <time>2012-05-10T12:58:03Z</time>
      </trkpt>
      <trkpt lat="28.75404" lon="-9.76327">
        <ele>384</ele>
        <time>2012-05-10T12:58:08Z</time>
      </trkpt>
      <trkpt lat="28.75381" lon="-9.7633">
        <ele>384.2</ele>
        <time>2012-05-10T12:58:13Z</time>
      </trkpt>
      <trkpt lat="28.75333" lon="-9.76337">
        <ele>384.4</ele>
        <time>2012-05-10T12:58:18Z</time>
      </trkpt>
      <trkpt lat="28.75298" lon="-9.76341">
        <ele>384.4</ele>
        <time>2012-05-10T12:58:23Z</time>
      </trkpt>
      <trkpt lat="28.75275" lon="-9.76347">
        <ele>384.2</ele>
        <time>2012-05-10T12:58:28Z</time>
      </trkpt>
      <trkpt lat="28.75256" lon="-9.76358">
        <ele>384.8</ele>
        <time>2012-05-10T12:58:33Z</time>
      </trkpt>
      <trkpt lat="28.75239" lon="-9.76372">
        <ele>385.6</ele>
        <time>2012-05-10T12:58:38Z</time>
      </trkpt>
      <trkpt lat="28.75225" lon="-9.76388">
        <ele>385.9</ele>
        <time>2012-05-10T12:58:43Z</time>
      </trkpt>
      <trkpt lat="28.75212" lon="-9.76403">
        <ele>385.8</ele>
        <time>2012-05-10T12:58:48Z</time>
      </trkpt>
      <trkpt lat="28.752" lon="-9.7642">
        <ele>385.4</ele>
        <time>2012-05-10T12:58:53Z</time>
      </trkpt>
      <trkpt lat="28.75185" lon="-9.76445">
        <ele>384.9</ele>
        <time>2012-05-10T12:58:58Z</time>
      </trkpt>
      <trkpt lat="28.75161" lon="-9.76487">
        <ele>384.5</ele>
        <time>2012-05-10T12:59:03Z</time>
      </trkpt>
      <trkpt lat="28.75141" lon="-9.76508">
        <ele>384.7</ele>
        <time>2012-05-10T12:59:08Z</time>
      </trkpt>
      <trkpt lat="28.75128" lon="-9.76522">
        <ele>384.8</ele>
        <time>2012-05-10T12:59:13Z</time>
      </trkpt>
      <trkpt lat="28.7511" lon="-9.76541">
        <ele>385</ele>
        <time>2012-05-10T12:59:18Z</time>
      </trkpt>
      <trkpt lat="28.7509" lon="-9.76553">
        <ele>385.4</ele>
        <time>2012-05-10T12:59:23Z</time>
      </trkpt>
      <trkpt lat="28.75061" lon="-9.76569">
        <ele>386.3</ele>
        <time>2012-05-10T12:59:28Z</time>
      </trkpt>
      <trkpt lat="28.75043" lon="-9.7658">
        <ele>386.3</ele>
        <time>2012-05-10T12:59:33Z</time>
      </trkpt>
      <trkpt lat="28.75023" lon="-9.76587">
        <ele>386.4</ele>
        <time>2012-05-10T12:59:38Z</time>
      </trkpt>
      <trkpt lat="28.75002" lon="-9.76595">
        <ele>386.5</ele>
        <time>2012-05-10T12:59:43Z</time>
      </trkpt>
      <trkpt lat="28.74978" lon="-9.76589">
        <ele>386.5</ele>
        <time>2012-05-10T12:59:48Z</time>
      </trkpt>
      <trkpt lat="28.74955" lon="-9.7659">
        <ele>386.6</ele>
        <time>2012-05-10T12:59:53Z</time>
      </trkpt>
      <trkpt lat="28.7491" lon="-9.76589">
        <ele>386.5</ele>
        <time>2012-05-10T12:59:58Z</time>
      </trkpt>
      <trkpt lat="28.74884" lon="-9.76586">
        <ele>386.5</ele>
        <time>2012-05-10T13:00:03Z</time>
      </trkpt>
      <trkpt lat="28.74836" lon="-9.76579">
        <ele>386.4</ele>
        <time>2012-05-10T13:00:08Z</time>
      </trkpt>
      <trkpt lat="28.74817" lon="-9.76577">
        <ele>386.8</ele>
        <time>2012-05-10T13:00:13Z</time>
      </trkpt>
      <trkpt lat="28.74792" lon="-9.76575">
        <ele>386.6</ele>
        <time>2012-05-10T13:00:18Z</time>
      </trkpt>
      <trkpt lat="28.74772" lon="-9.7657">
        <ele>386.6</ele>
        <time>2012-05-10T13:00:23Z</time>
      </trkpt>
      <trkpt lat="28.7475" lon="-9.76567">
        <ele>386.8</ele>
        <time>2012-05-10T13:00:28Z</time>
      </trkpt>
      <trkpt lat="28.7473" lon="-9.76562">
        <ele>386.8</ele>
        <time>2012-05-10T13:00:33Z</time>
      </trkpt>
      <trkpt lat="28.7471" lon="-9.76558">
        <ele>386.9</ele>
        <time>2012-05-10T13:00:38Z</time>
      </trkpt>
      <trkpt lat="28.7469" lon="-9.76559">
        <ele>387</ele>
        <time>2012-05-10T13:00:43Z</time>
      </trkpt>
      <trkpt lat="28.74671" lon="-9.76564">
        <ele>387</ele>
        <time>2012-05-10T13:00:48Z</time>
      </trkpt>
      <trkpt lat="28.74652" lon="-9.76568">
        <ele>387.1</ele>
        <time>2012-05-10T13:00:53Z</time>
      </trkpt>
      <trkpt lat="28.74633" lon="-9.76574">
        <ele>387.3</ele>
        <time>2012-05-10T13:00:58Z</time>
      </trkpt>
      <trkpt lat="28.74614" lon="-9.76579">
        <ele>387.5</ele>
        <time>2012-05-10T13:01:03Z</time>
      </trkpt>
      <trkpt lat="28.74593" lon="-9.76581">
        <ele>387.8</ele>
        <time>2012-05-10T13:01:08Z</time>
      </trkpt>
      <trkpt lat="28.74574" lon="-9.76581">
        <ele>387.8</ele>
        <time>2012-05-10T13:01:13Z</time>
      </trkpt>
      <trkpt lat="28.74553" lon="-9.76583">
        <ele>387.8</ele>
        <time>2012-05-10T13:01:18Z</time>
      </trkpt>
      <trkpt lat="28.74536" lon="-9.76592">
        <ele>387.2</ele>
        <time>2012-05-10T13:01:23Z</time>
      </trkpt>
      <trkpt lat="28.74517" lon="-9.766">
        <ele>387.1</ele>
        <time>2012-05-10T13:01:28Z</time>
      </trkpt>
      <trkpt lat="28.74498" lon="-9.76612">
        <ele>389</ele>
        <time>2012-05-10T13:01:33Z</time>
      </trkpt>
      <trkpt lat="28.74475" lon="-9.76625">
        <ele>389.3</ele>
        <time>2012-05-10T13:01:38Z</time>
      </trkpt>
      <trkpt lat="28.74455" lon="-9.76628">
        <ele>389.3</ele>
        <time>2012-05-10T13:01:43Z</time>
      </trkpt>
      <trkpt lat="28.74438" lon="-9.76635">
        <ele>389.7</ele>
        <time>2012-05-10T13:01:48Z</time>
      </trkpt>
      <trkpt lat="28.74415" lon="-9.76646">
        <ele>390.1</ele>
        <time>2012-05-10T13:01:53Z</time>
      </trkpt>
      <trkpt lat="28.74398" lon="-9.76654">
        <ele>390.2</ele>
        <time>2012-05-10T13:01:58Z</time>
      </trkpt>
      <trkpt lat="28.74383" lon="-9.76667">
        <ele>390.1</ele>
        <time>2012-05-10T13:02:03Z</time>
      </trkpt>
      <trkpt lat="28.74366" lon="-9.76679">
        <ele>390.3</ele>
        <time>2012-05-10T13:02:08Z</time>
      </trkpt>
      <trkpt lat="28.74349" lon="-9.76695">
        <ele>390.4</ele>
        <time>2012-05-10T13:02:13Z</time>
      </trkpt>
      <trkpt lat="28.74337" lon="-9.76703">
        <ele>390.8</ele>
        <time>2012-05-10T13:02:18Z</time>
      </trkpt>
      <trkpt lat="28.74337" lon="-9.76703">
        <ele>391.1</ele>
        <time>2012-05-10T13:02:23Z</time>
      </trkpt>
      <trkpt lat="28.74337" lon="-9.76703">
        <ele>392.1</ele>
        <time>2012-05-10T13:02:28Z</time>
      </trkpt>
      <trkpt lat="28.74338" lon="-9.76702">
        <ele>394.7</ele>
        <time>2012-05-10T13:02:33Z</time>
      </trkpt>
      <trkpt lat="28.74338" lon="-9.76702">
        <ele>394</ele>
        <time>2012-05-10T13:02:38Z</time>
      </trkpt>
      <trkpt lat="28.74338" lon="-9.76702">
        <ele>393.7</ele>
        <time>2012-05-10T13:02:43Z</time>
      </trkpt>
      <trkpt lat="28.74338" lon="-9.76701">
        <ele>393</ele>
        <time>2012-05-10T13:02:48Z</time>
      </trkpt>
      <trkpt lat="28.74339" lon="-9.76701">
        <ele>394.4</ele>
        <time>2012-05-10T13:02:53Z</time>
      </trkpt>
      <trkpt lat="28.74339" lon="-9.76701">
        <ele>396.1</ele>
        <time>2012-05-10T13:02:58Z</time>
      </trkpt>
      <trkpt lat="28.7434" lon="-9.76701">
        <ele>396.8</ele>
        <time>2012-05-10T13:03:03Z</time>
      </trkpt>
      <trkpt lat="28.74337" lon="-9.76702">
        <ele>380.4</ele>
        <time>2012-05-10T13:03:08Z</time>
      </trkpt>
      <trkpt lat="28.74337" lon="-9.76702">
        <ele>380.6</ele>
        <time>2012-05-10T13:03:13Z</time>
      </trkpt>
      <trkpt lat="28.74338" lon="-9.76702">
        <ele>380.8</ele>
        <time>2012-05-10T13:03:18Z</time>
      </trkpt>
      <trkpt lat="28.74337" lon="-9.76702">
        <ele>381.4</ele>
        <time>2012-05-10T13:03:23Z</time>
      </trkpt>
      <trkpt lat="28.74337" lon="-9.76701">
        <ele>382.1</ele>
        <time>2012-05-10T13:03:28Z</time>
      </trkpt>
      <trkpt lat="28.74337" lon="-9.76701">
        <ele>383.4</ele>
        <time>2012-05-10T13:03:33Z</time>
      </trkpt>
      <trkpt lat="28.74337" lon="-9.767">
        <ele>383.6</ele>
        <time>2012-05-10T13:03:38Z</time>
      </trkpt>
      <trkpt lat="28.74336" lon="-9.76701">
        <ele>384.4</ele>
        <time>2012-05-10T13:03:43Z</time>
      </trkpt>
      <trkpt lat="28.74336" lon="-9.767">
        <ele>384.2</ele>
        <time>2012-05-10T13:03:48Z</time>
      </trkpt>
      <trkpt lat="28.74336" lon="-9.767">
        <ele>384.1</ele>
        <time>2012-05-10T13:03:53Z</time>
      </trkpt>
      <trkpt lat="28.74336" lon="-9.767">
        <ele>384.6</ele>
        <time>2012-05-10T13:03:58Z</time>
      </trkpt>
      <trkpt lat="28.74336" lon="-9.767">
        <ele>385.2</ele>
        <time>2012-05-10T13:04:03Z</time>
      </trkpt>
      <trkpt lat="28.74337" lon="-9.76699">
        <ele>384.9</ele>
        <time>2012-05-10T13:04:08Z</time>
      </trkpt>
      <trkpt lat="28.74337" lon="-9.76699">
        <ele>384.8</ele>
        <time>2012-05-10T13:04:13Z</time>
      </trkpt>
      <trkpt lat="28.74337" lon="-9.76699">
        <ele>384.8</ele>
        <time>2012-05-10T13:04:18Z</time>
      </trkpt>
      <trkpt lat="28.74337" lon="-9.76699">
        <ele>385</ele>
        <time>2012-05-10T13:04:23Z</time>
      </trkpt>
      <trkpt lat="28.74337" lon="-9.76699">
        <ele>385.6</ele>
        <time>2012-05-10T13:04:28Z</time>
      </trkpt>
      <trkpt lat="28.74337" lon="-9.76699">
        <ele>386.5</ele>
        <time>2012-05-10T13:04:33Z</time>
      </trkpt>
      <trkpt lat="28.74338" lon="-9.76699">
        <ele>386.8</ele>
        <time>2012-05-10T13:04:38Z</time>
      </trkpt>
      <trkpt lat="28.74338" lon="-9.76699">
        <ele>386.4</ele>
        <time>2012-05-10T13:04:43Z</time>
      </trkpt>
      <trkpt lat="28.74338" lon="-9.76699">
        <ele>386.4</ele>
        <time>2012-05-10T13:04:48Z</time>
      </trkpt>
      <trkpt lat="28.74328" lon="-9.76704">
        <ele>386.4</ele>
        <time>2012-05-10T13:04:53Z</time>
      </trkpt>
      <trkpt lat="28.74336" lon="-9.76686">
        <ele>387.2</ele>
        <time>2012-05-10T13:04:58Z</time>
      </trkpt>
      <trkpt lat="28.74357" lon="-9.76682">
        <ele>386.8</ele>
        <time>2012-05-10T13:05:03Z</time>
      </trkpt>
      <trkpt lat="28.74384" lon="-9.76672">
        <ele>386.4</ele>
        <time>2012-05-10T13:05:08Z</time>
      </trkpt>
      <trkpt lat="28.74401" lon="-9.7666">
        <ele>386.4</ele>
        <time>2012-05-10T13:05:13Z</time>
      </trkpt>
      <trkpt lat="28.74414" lon="-9.76644">
        <ele>387</ele>
        <time>2012-05-10T13:05:18Z</time>
      </trkpt>
      <trkpt lat="28.74435" lon="-9.76637">
        <ele>387.5</ele>
        <time>2012-05-10T13:05:23Z</time>
      </trkpt>
      <trkpt lat="28.74454" lon="-9.76635">
        <ele>387.1</ele>
        <time>2012-05-10T13:05:28Z</time>
      </trkpt>
      <trkpt lat="28.74481" lon="-9.76631">
        <ele>386.8</ele>
        <time>2012-05-10T13:05:33Z</time>
      </trkpt>
      <trkpt lat="28.745" lon="-9.76631">
        <ele>386.9</ele>
        <time>2012-05-10T13:05:38Z</time>
      </trkpt>
      <trkpt lat="28.74516" lon="-9.76622">
        <ele>386.7</ele>
        <time>2012-05-10T13:05:43Z</time>
      </trkpt>
      <trkpt lat="28.74516" lon="-9.766">
        <ele>386.1</ele>
        <time>2012-05-10T13:05:48Z</time>
      </trkpt>
      <trkpt lat="28.74533" lon="-9.76592">
        <ele>385.6</ele>
        <time>2012-05-10T13:05:53Z</time>
      </trkpt>
      <trkpt lat="28.7455" lon="-9.76583">
        <ele>386.8</ele>
        <time>2012-05-10T13:05:58Z</time>
      </trkpt>
      <trkpt lat="28.74571" lon="-9.7658">
        <ele>387.2</ele>
        <time>2012-05-10T13:06:03Z</time>
      </trkpt>
      <trkpt lat="28.74599" lon="-9.76578">
        <ele>386.9</ele>
        <time>2012-05-10T13:06:08Z</time>
      </trkpt>
      <trkpt lat="28.7463" lon="-9.76576">
        <ele>386.2</ele>
        <time>2012-05-10T13:06:13Z</time>
      </trkpt>
      <trkpt lat="28.74653" lon="-9.76583">
        <ele>385.8</ele>
        <time>2012-05-10T13:06:18Z</time>
      </trkpt>
      <trkpt lat="28.7469" lon="-9.76597">
        <ele>386</ele>
        <time>2012-05-10T13:06:23Z</time>
      </trkpt>
      <trkpt lat="28.74717" lon="-9.76607">
        <ele>386.2</ele>
        <time>2012-05-10T13:06:28Z</time>
      </trkpt>
      <trkpt lat="28.74737" lon="-9.76615">
        <ele>386.2</ele>
        <time>2012-05-10T13:06:33Z</time>
      </trkpt>
      <trkpt lat="28.74767" lon="-9.76629">
        <ele>386.3</ele>
        <time>2012-05-10T13:06:38Z</time>
      </trkpt>
      <trkpt lat="28.74793" lon="-9.76636">
        <ele>386.2</ele>
        <time>2012-05-10T13:06:43Z</time>
      </trkpt>
      <trkpt lat="28.74818" lon="-9.76642">
        <ele>386.2</ele>
        <time>2012-05-10T13:06:48Z</time>
      </trkpt>
      <trkpt lat="28.74841" lon="-9.7664">
        <ele>385.7</ele>
        <time>2012-05-10T13:06:53Z</time>
      </trkpt>
      <trkpt lat="28.74866" lon="-9.76638">
        <ele>385.5</ele>
        <time>2012-05-10T13:06:58Z</time>
      </trkpt>
      <trkpt lat="28.74921" lon="-9.76634">
        <ele>385.1</ele>
        <time>2012-05-10T13:07:03Z</time>
      </trkpt>
      <trkpt lat="28.74955" lon="-9.76634">
        <ele>384.8</ele>
        <time>2012-05-10T13:07:08Z</time>
      </trkpt>
      <trkpt lat="28.74979" lon="-9.76631">
        <ele>384.9</ele>
        <time>2012-05-10T13:07:13Z</time>
      </trkpt>
      <trkpt lat="28.75002" lon="-9.76629">
        <ele>384.8</ele>
        <time>2012-05-10T13:07:18Z</time>
      </trkpt>
      <trkpt lat="28.75023" lon="-9.76629">
        <ele>384.7</ele>
        <time>2012-05-10T13:07:23Z</time>
      </trkpt>
      <trkpt lat="28.75043" lon="-9.76641">
        <ele>384.6</ele>
        <time>2012-05-10T13:07:28Z</time>
      </trkpt>
      <trkpt lat="28.75066" lon="-9.76652">
        <ele>384.8</ele>
        <time>2012-05-10T13:07:33Z</time>
      </trkpt>
      <trkpt lat="28.75088" lon="-9.76665">
        <ele>384.9</ele>
        <time>2012-05-10T13:07:38Z</time>
      </trkpt>
      <trkpt lat="28.75104" lon="-9.76678">
        <ele>384.8</ele>
        <time>2012-05-10T13:07:43Z</time>
      </trkpt>
      <trkpt lat="28.75108" lon="-9.767">
        <ele>384.6</ele>
        <time>2012-05-10T13:07:48Z</time>
      </trkpt>
      <trkpt lat="28.75099" lon="-9.76723">
        <ele>383.8</ele>
        <time>2012-05-10T13:07:53Z</time>
      </trkpt>
      <trkpt lat="28.75091" lon="-9.76744">
        <ele>383.6</ele>
        <time>2012-05-10T13:07:58Z</time>
      </trkpt>
      <trkpt lat="28.75078" lon="-9.76769">
        <ele>384.5</ele>
        <time>2012-05-10T13:08:03Z</time>
      </trkpt>
      <trkpt lat="28.75065" lon="-9.76789">
        <ele>384.9</ele>
        <time>2012-05-10T13:08:08Z</time>
      </trkpt>
      <trkpt lat="28.75051" lon="-9.7681">
        <ele>384.8</ele>
        <time>2012-05-10T13:08:13Z</time>
      </trkpt>
      <trkpt lat="28.75024" lon="-9.76854">
        <ele>385.1</ele>
        <time>2012-05-10T13:08:18Z</time>
      </trkpt>
      <trkpt lat="28.75012" lon="-9.76877">
        <ele>385.4</ele>
        <time>2012-05-10T13:08:23Z</time>
      </trkpt>
      <trkpt lat="28.75001" lon="-9.76901">
        <ele>385.8</ele>
        <time>2012-05-10T13:08:28Z</time>
      </trkpt>
      <trkpt lat="28.74974" lon="-9.76963">
        <ele>386.7</ele>
        <time>2012-05-10T13:08:33Z</time>
      </trkpt>
      <trkpt lat="28.74901" lon="-9.77141">
        <ele>387.9</ele>
        <time>2012-05-10T13:08:38Z</time>
      </trkpt>
      <trkpt lat="28.74882" lon="-9.77178">
        <ele>388.2</ele>
        <time>2012-05-10T13:08:43Z</time>
      </trkpt>
      <trkpt lat="28.74855" lon="-9.77229">
        <ele>388.1</ele>
        <time>2012-05-10T13:08:48Z</time>
      </trkpt>
      <trkpt lat="28.74816" lon="-9.77295">
        <ele>388.1</ele>
        <time>2012-05-10T13:08:53Z</time>
      </trkpt>
      <trkpt lat="28.74659" lon="-9.7755">
        <ele>389.6</ele>
        <time>2012-05-10T13:08:58Z</time>
      </trkpt>
      <trkpt lat="28.74556" lon="-9.77712">
        <ele>391.3</ele>
        <time>2012-05-10T13:09:03Z</time>
      </trkpt>
      <trkpt lat="28.74481" lon="-9.77822">
        <ele>391.8</ele>
        <time>2012-05-10T13:09:08Z</time>
      </trkpt>
      <trkpt lat="28.74461" lon="-9.77847">
        <ele>392.2</ele>
        <time>2012-05-10T13:09:13Z</time>
      </trkpt>
      <trkpt lat="28.74426" lon="-9.77889">
        <ele>392.8</ele>
        <time>2012-05-10T13:09:18Z</time>
      </trkpt>
      <trkpt lat="28.74389" lon="-9.77929">
        <ele>393.3</ele>
        <time>2012-05-10T13:09:23Z</time>
      </trkpt>
      <trkpt lat="28.74349" lon="-9.77971">
        <ele>393.8</ele>
        <time>2012-05-10T13:09:28Z</time>
      </trkpt>
      <trkpt lat="28.74304" lon="-9.78012">
        <ele>394.6</ele>
        <time>2012-05-10T13:09:33Z</time>
      </trkpt>
      <trkpt lat="28.74013" lon="-9.78265">
        <ele>396.4</ele>
        <time>2012-05-10T13:09:38Z</time>
      </trkpt>
      <trkpt lat="28.7373" lon="-9.78497">
        <ele>399.6</ele>
        <time>2012-05-10T13:09:43Z</time>
      </trkpt>
      <trkpt lat="28.73642" lon="-9.7856">
        <ele>401.3</ele>
        <time>2012-05-10T13:09:48Z</time>
      </trkpt>
      <trkpt lat="28.73611" lon="-9.78577">
        <ele>402</ele>
        <time>2012-05-10T13:09:53Z</time>
      </trkpt>
      <trkpt lat="28.73489" lon="-9.78647">
        <ele>404.1</ele>
        <time>2012-05-10T13:09:58Z</time>
      </trkpt>
      <trkpt lat="28.73443" lon="-9.78673">
        <ele>404.1</ele>
        <time>2012-05-10T13:10:03Z</time>
      </trkpt>
      <trkpt lat="28.73367" lon="-9.78716">
        <ele>404.5</ele>
        <time>2012-05-10T13:10:08Z</time>
      </trkpt>
      <trkpt lat="28.73217" lon="-9.78814">
        <ele>406.7</ele>
        <time>2012-05-10T13:10:13Z</time>
      </trkpt>
      <trkpt lat="28.7316" lon="-9.78857">
        <ele>406.5</ele>
        <time>2012-05-10T13:10:18Z</time>
      </trkpt>
      <trkpt lat="28.72856" lon="-9.79088">
        <ele>408.6</ele>
        <time>2012-05-10T13:10:23Z</time>
      </trkpt>
      <trkpt lat="28.72541" lon="-9.7933">
        <ele>413.5</ele>
        <time>2012-05-10T13:10:28Z</time>
      </trkpt>
      <trkpt lat="28.72216" lon="-9.79577">
        <ele>416.5</ele>
        <time>2012-05-10T13:10:33Z</time>
      </trkpt>
      <trkpt lat="28.71919" lon="-9.79807">
        <ele>418.2</ele>
        <time>2012-05-10T13:10:38Z</time>
      </trkpt>
      <trkpt lat="28.71891" lon="-9.79832">
        <ele>418.4</ele>
        <time>2012-05-10T13:10:43Z</time>
      </trkpt>
      <trkpt lat="28.71864" lon="-9.7986">
        <ele>418.6</ele>
        <time>2012-05-10T13:10:48Z</time>
      </trkpt>
      <trkpt lat="28.71587" lon="-9.80141">
        <ele>422</ele>
        <time>2012-05-10T13:10:53Z</time>
      </trkpt>
      <trkpt lat="28.713" lon="-9.80437">
        <ele>424.5</ele>
        <time>2012-05-10T13:10:58Z</time>
      </trkpt>
      <trkpt lat="28.71037" lon="-9.80709">
        <ele>422.8</ele>
        <time>2012-05-10T13:11:03Z</time>
      </trkpt>
      <trkpt lat="28.70843" lon="-9.80912">
        <ele>423.2</ele>
        <time>2012-05-10T13:11:08Z</time>
      </trkpt>
      <trkpt lat="28.70819" lon="-9.80941">
        <ele>423.7</ele>
        <time>2012-05-10T13:11:13Z</time>
      </trkpt>
      <trkpt lat="28.70728" lon="-9.81061">
        <ele>423.6</ele>
        <time>2012-05-10T13:11:18Z</time>
      </trkpt>
      <trkpt lat="28.70508" lon="-9.81353">
        <ele>425.6</ele>
        <time>2012-05-10T13:11:23Z</time>
      </trkpt>
      <trkpt lat="28.70275" lon="-9.81663">
        <ele>428.4</ele>
        <time>2012-05-10T13:11:28Z</time>
      </trkpt>
      <trkpt lat="28.70045" lon="-9.81972">
        <ele>429.6</ele>
        <time>2012-05-10T13:11:33Z</time>
      </trkpt>
      <trkpt lat="28.69924" lon="-9.82132">
        <ele>427.3</ele>
        <time>2012-05-10T13:11:38Z</time>
      </trkpt>
      <trkpt lat="28.69901" lon="-9.82159">
        <ele>426.7</ele>
        <time>2012-05-10T13:11:43Z</time>
      </trkpt>
      <trkpt lat="28.69841" lon="-9.82225">
        <ele>426.8</ele>
        <time>2012-05-10T13:11:48Z</time>
      </trkpt>
      <trkpt lat="28.69814" lon="-9.82247">
        <ele>426.6</ele>
        <time>2012-05-10T13:11:53Z</time>
      </trkpt>
      <trkpt lat="28.69785" lon="-9.82265">
        <ele>426.6</ele>
        <time>2012-05-10T13:11:58Z</time>
      </trkpt>
      <trkpt lat="28.69704" lon="-9.82315">
        <ele>423.3</ele>
        <time>2012-05-10T13:12:03Z</time>
      </trkpt>
      <trkpt lat="28.69668" lon="-9.82335">
        <ele>421.8</ele>
        <time>2012-05-10T13:12:08Z</time>
      </trkpt>
      <trkpt lat="28.69644" lon="-9.82348">
        <ele>422.1</ele>
        <time>2012-05-10T13:12:13Z</time>
      </trkpt>
      <trkpt lat="28.6962" lon="-9.82362">
        <ele>422.1</ele>
        <time>2012-05-10T13:12:18Z</time>
      </trkpt>
      <trkpt lat="28.69596" lon="-9.82379">
        <ele>422.1</ele>
        <time>2012-05-10T13:12:23Z</time>
      </trkpt>
      <trkpt lat="28.69575" lon="-9.82397">
        <ele>422.1</ele>
        <time>2012-05-10T13:12:28Z</time>
      </trkpt>
      <trkpt lat="28.69558" lon="-9.82418">
        <ele>422.3</ele>
        <time>2012-05-10T13:12:33Z</time>
      </trkpt>
      <trkpt lat="28.69543" lon="-9.82442">
        <ele>422.2</ele>
        <time>2012-05-10T13:12:38Z</time>
      </trkpt>
      <trkpt lat="28.69528" lon="-9.82467">
        <ele>422.1</ele>
        <time>2012-05-10T13:12:43Z</time>
      </trkpt>
      <trkpt lat="28.69451" lon="-9.82592">
        <ele>421.9</ele>
        <time>2012-05-10T13:12:48Z</time>
      </trkpt>
      <trkpt lat="28.69438" lon="-9.82618">
        <ele>421.8</ele>
        <time>2012-05-10T13:12:53Z</time>
      </trkpt>
      <trkpt lat="28.6942" lon="-9.82657">
        <ele>421.3</ele>
        <time>2012-05-10T13:12:58Z</time>
      </trkpt>
      <trkpt lat="28.69401" lon="-9.82694">
        <ele>421</ele>
        <time>2012-05-10T13:13:03Z</time>
      </trkpt>
      <trkpt lat="28.69382" lon="-9.82733">
        <ele>420.7</ele>
        <time>2012-05-10T13:13:08Z</time>
      </trkpt>
      <trkpt lat="28.69365" lon="-9.82758">
        <ele>420.4</ele>
        <time>2012-05-10T13:13:13Z</time>
      </trkpt>
      <trkpt lat="28.69329" lon="-9.8281">
        <ele>421.4</ele>
        <time>2012-05-10T13:13:18Z</time>
      </trkpt>
      <trkpt lat="28.69312" lon="-9.82836">
        <ele>421.3</ele>
        <time>2012-05-10T13:13:23Z</time>
      </trkpt>
      <trkpt lat="28.69269" lon="-9.82901">
        <ele>421</ele>
        <time>2012-05-10T13:13:28Z</time>
      </trkpt>
      <trkpt lat="28.69251" lon="-9.82928">
        <ele>421.3</ele>
        <time>2012-05-10T13:13:33Z</time>
      </trkpt>
      <trkpt lat="28.69226" lon="-9.82966">
        <ele>421.6</ele>
        <time>2012-05-10T13:13:38Z</time>
      </trkpt>
      <trkpt lat="28.69143" lon="-9.83095">
        <ele>420.4</ele>
        <time>2012-05-10T13:13:43Z</time>
      </trkpt>
      <trkpt lat="28.68993" lon="-9.83353">
        <ele>420.8</ele>
        <time>2012-05-10T13:13:48Z</time>
      </trkpt>
      <trkpt lat="28.68907" lon="-9.83491">
        <ele>420.8</ele>
        <time>2012-05-10T13:13:53Z</time>
      </trkpt>
      <trkpt lat="28.68903" lon="-9.83495">
        <ele>418.6</ele>
        <time>2012-05-10T13:13:58Z</time>
      </trkpt>
      <trkpt lat="28.68904" lon="-9.83495">
        <ele>418</ele>
        <time>2012-05-10T13:14:03Z</time>
      </trkpt>
      <trkpt lat="28.68903" lon="-9.83494">
        <ele>418.5</ele>
        <time>2012-05-10T13:14:08Z</time>
      </trkpt>
      <trkpt lat="28.68903" lon="-9.83495">
        <ele>418.5</ele>
        <time>2012-05-10T13:14:13Z</time>
      </trkpt>
      <trkpt lat="28.68903" lon="-9.83495">
        <ele>418.4</ele>
        <time>2012-05-10T13:14:18Z</time>
      </trkpt>
      <trkpt lat="28.68902" lon="-9.83494">
        <ele>419</ele>
        <time>2012-05-10T13:14:23Z</time>
      </trkpt>
      <trkpt lat="28.68903" lon="-9.83495">
        <ele>418.2</ele>
        <time>2012-05-10T13:14:28Z</time>
      </trkpt>
      <trkpt lat="28.68903" lon="-9.83495">
        <ele>417.7</ele>
        <time>2012-05-10T13:14:33Z</time>
      </trkpt>
      <trkpt lat="28.68903" lon="-9.83495">
        <ele>417.2</ele>
        <time>2012-05-10T13:14:38Z</time>
      </trkpt>
      <trkpt lat="28.68903" lon="-9.83495">
        <ele>416.8</ele>
        <time>2012-05-10T13:14:43Z</time>
      </trkpt>
      <trkpt lat="28.68903" lon="-9.83495">
        <ele>416.5</ele>
        <time>2012-05-10T13:14:48Z</time>
      </trkpt>
      <trkpt lat="28.68903" lon="-9.83496">
        <ele>416.6</ele>
        <time>2012-05-10T13:14:53Z</time>
      </trkpt>
      <trkpt lat="28.68903" lon="-9.83495">
        <ele>416.3</ele>
        <time>2012-05-10T13:14:58Z</time>
      </trkpt>
      <trkpt lat="28.68903" lon="-9.83494">
        <ele>416.4</ele>
        <time>2012-05-10T13:15:03Z</time>
      </trkpt>
      <trkpt lat="28.68904" lon="-9.83493">
        <ele>416.8</ele>
        <time>2012-05-10T13:15:08Z</time>
      </trkpt>
      <trkpt lat="28.68903" lon="-9.83493">
        <ele>417.6</ele>
        <time>2012-05-10T13:15:13Z</time>
      </trkpt>
      <trkpt lat="28.68904" lon="-9.83492">
        <ele>418.3</ele>
        <time>2012-05-10T13:15:18Z</time>
      </trkpt>
      <trkpt lat="28.68903" lon="-9.83492">
        <ele>419.8</ele>
        <time>2012-05-10T13:15:23Z</time>
      </trkpt>
      <trkpt lat="28.68903" lon="-9.83492">
        <ele>419.4</ele>
        <time>2012-05-10T13:15:28Z</time>
      </trkpt>
      <trkpt lat="28.68903" lon="-9.83492">
        <ele>420.4</ele>
        <time>2012-05-10T13:15:33Z</time>
      </trkpt>
      <trkpt lat="28.68903" lon="-9.83493">
        <ele>421</ele>
        <time>2012-05-10T13:15:38Z</time>
      </trkpt>
      <trkpt lat="28.68903" lon="-9.83492">
        <ele>421.5</ele>
        <time>2012-05-10T13:15:43Z</time>
      </trkpt>
      <trkpt lat="28.68903" lon="-9.83492">
        <ele>420.9</ele>
        <time>2012-05-10T13:15:48Z</time>
      </trkpt>
      <trkpt lat="28.68903" lon="-9.83493">
        <ele>420.2</ele>
        <time>2012-05-10T13:15:53Z</time>
      </trkpt>
      <trkpt lat="28.68903" lon="-9.83494">
        <ele>420</ele>
        <time>2012-05-10T13:15:58Z</time>
      </trkpt>
      <trkpt lat="28.68903" lon="-9.83494">
        <ele>419.9</ele>
        <time>2012-05-10T13:16:03Z</time>
      </trkpt>
      <trkpt lat="28.68903" lon="-9.83494">
        <ele>419.1</ele>
        <time>2012-05-10T13:16:08Z</time>
      </trkpt>
      <trkpt lat="28.68903" lon="-9.83494">
        <ele>418.9</ele>
        <time>2012-05-10T13:16:13Z</time>
      </trkpt>
      <trkpt lat="28.68903" lon="-9.83495">
        <ele>418.7</ele>
        <time>2012-05-10T13:16:18Z</time>
      </trkpt>
      <trkpt lat="28.68903" lon="-9.83494">
        <ele>417.9</ele>
        <time>2012-05-10T13:16:23Z</time>
      </trkpt>
      <trkpt lat="28.68903" lon="-9.83494">
        <ele>418.7</ele>
        <time>2012-05-10T13:16:28Z</time>
      </trkpt>
      <trkpt lat="28.68903" lon="-9.83494">
        <ele>418.9</ele>
        <time>2012-05-10T13:16:33Z</time>
      </trkpt>
      <trkpt lat="28.68903" lon="-9.83494">
        <ele>418.3</ele>
        <time>2012-05-10T13:16:38Z</time>
      </trkpt>
      <trkpt lat="28.68903" lon="-9.83494">
        <ele>418.6</ele>
        <time>2012-05-10T13:16:43Z</time>
      </trkpt>
      <trkpt lat="28.68903" lon="-9.83494">
        <ele>419.8</ele>
        <time>2012-05-10T13:16:48Z</time>
      </trkpt>
      <trkpt lat="28.68903" lon="-9.83495">
        <ele>418.8</ele>
        <time>2012-05-10T13:16:53Z</time>
      </trkpt>
      <trkpt lat="28.68902" lon="-9.83495">
        <ele>418</ele>
        <time>2012-05-10T13:16:58Z</time>
      </trkpt>
      <trkpt lat="28.68902" lon="-9.83494">
        <ele>417.3</ele>
        <time>2012-05-10T13:17:03Z</time>
      </trkpt>
      <trkpt lat="28.68902" lon="-9.83495">
        <ele>416.5</ele>
        <time>2012-05-10T13:17:08Z</time>
      </trkpt>
      <trkpt lat="28.68902" lon="-9.83495">
        <ele>416.8</ele>
        <time>2012-05-10T13:17:13Z</time>
      </trkpt>
      <trkpt lat="28.68902" lon="-9.83495">
        <ele>417</ele>
        <time>2012-05-10T13:17:18Z</time>
      </trkpt>
      <trkpt lat="28.68902" lon="-9.83495">
        <ele>417.3</ele>
        <time>2012-05-10T13:17:23Z</time>
      </trkpt>
      <trkpt lat="28.68902" lon="-9.83496">
        <ele>417.3</ele>
        <time>2012-05-10T13:17:28Z</time>
      </trkpt>
      <trkpt lat="28.68902" lon="-9.83496">
        <ele>418.7</ele>
        <time>2012-05-10T13:17:33Z</time>
      </trkpt>
      <trkpt lat="28.68903" lon="-9.83496">
        <ele>418.6</ele>
        <time>2012-05-10T13:17:38Z</time>
      </trkpt>
      <trkpt lat="28.68904" lon="-9.83497">
        <ele>418.1</ele>
        <time>2012-05-10T13:17:43Z</time>
      </trkpt>
      <trkpt lat="28.68904" lon="-9.83497">
        <ele>418.7</ele>
        <time>2012-05-10T13:17:48Z</time>
      </trkpt>
      <trkpt lat="28.68904" lon="-9.83497">
        <ele>420</ele>
        <time>2012-05-10T13:17:53Z</time>
      </trkpt>
      <trkpt lat="28.68904" lon="-9.83496">
        <ele>421.4</ele>
        <time>2012-05-10T13:17:58Z</time>
      </trkpt>
      <trkpt lat="28.68903" lon="-9.83496">
        <ele>421.8</ele>
        <time>2012-05-10T13:18:03Z</time>
      </trkpt>
      <trkpt lat="28.68903" lon="-9.83495">
        <ele>420.7</ele>
        <time>2012-05-10T13:18:08Z</time>
      </trkpt>
      <trkpt lat="28.68903" lon="-9.83495">
        <ele>421.7</ele>
        <time>2012-05-10T13:18:13Z</time>
      </trkpt>
      <trkpt lat="28.68903" lon="-9.83495">
        <ele>421.5</ele>
        <time>2012-05-10T13:18:18Z</time>
      </trkpt>
      <trkpt lat="28.68903" lon="-9.83496">
        <ele>422.1</ele>
        <time>2012-05-10T13:18:23Z</time>
      </trkpt>
      <trkpt lat="28.68903" lon="-9.83495">
        <ele>421.6</ele>
        <time>2012-05-10T13:18:28Z</time>
      </trkpt>
      <trkpt lat="28.68903" lon="-9.83495">
        <ele>421.2</ele>
        <time>2012-05-10T13:18:33Z</time>
      </trkpt>
      <trkpt lat="28.68903" lon="-9.83495">
        <ele>421.5</ele>
        <time>2012-05-10T13:18:38Z</time>
      </trkpt>
      <trkpt lat="28.68904" lon="-9.83496">
        <ele>422</ele>
        <time>2012-05-10T13:18:43Z</time>
      </trkpt>
      <trkpt lat="28.68903" lon="-9.83496">
        <ele>422.1</ele>
        <time>2012-05-10T13:18:48Z</time>
      </trkpt>
      <trkpt lat="28.68903" lon="-9.83496">
        <ele>421.4</ele>
        <time>2012-05-10T13:18:53Z</time>
      </trkpt>
      <trkpt lat="28.68903" lon="-9.83495">
        <ele>420.9</ele>
        <time>2012-05-10T13:18:58Z</time>
      </trkpt>
      <trkpt lat="28.68903" lon="-9.83495">
        <ele>420.2</ele>
        <time>2012-05-10T13:19:03Z</time>
      </trkpt>
      <trkpt lat="28.68903" lon="-9.83496">
        <ele>420</ele>
        <time>2012-05-10T13:19:08Z</time>
      </trkpt>
      <trkpt lat="28.68903" lon="-9.83496">
        <ele>419.5</ele>
        <time>2012-05-10T13:19:13Z</time>
      </trkpt>
      <trkpt lat="28.68903" lon="-9.83496">
        <ele>419.8</ele>
        <time>2012-05-10T13:19:18Z</time>
      </trkpt>
      <trkpt lat="28.68903" lon="-9.83496">
        <ele>419.3</ele>
        <time>2012-05-10T13:19:23Z</time>
      </trkpt>
      <trkpt lat="28.68903" lon="-9.83496">
        <ele>418.2</ele>
        <time>2012-05-10T13:19:28Z</time>
      </trkpt>
      <trkpt lat="28.68903" lon="-9.83496">
        <ele>418.6</ele>
        <time>2012-05-10T13:19:33Z</time>
      </trkpt>
      <trkpt lat="28.68903" lon="-9.83496">
        <ele>420.1</ele>
        <time>2012-05-10T13:19:38Z</time>
      </trkpt>
      <trkpt lat="28.68904" lon="-9.83496">
        <ele>421</ele>
        <time>2012-05-10T13:19:43Z</time>
      </trkpt>
      <trkpt lat="28.68904" lon="-9.83495">
        <ele>421.5</ele>
        <time>2012-05-10T13:19:48Z</time>
      </trkpt>
      <trkpt lat="28.68904" lon="-9.83494">
        <ele>421.8</ele>
        <time>2012-05-10T13:19:53Z</time>
      </trkpt>
      <trkpt lat="28.68903" lon="-9.83494">
        <ele>420.4</ele>
        <time>2012-05-10T13:19:58Z</time>
      </trkpt>
      <trkpt lat="28.68903" lon="-9.83494">
        <ele>419.9</ele>
        <time>2012-05-10T13:20:03Z</time>
      </trkpt>
      <trkpt lat="28.68903" lon="-9.83494">
        <ele>420.2</ele>
        <time>2012-05-10T13:20:08Z</time>
      </trkpt>
      <trkpt lat="28.68902" lon="-9.83496">
        <ele>419.2</ele>
        <time>2012-05-10T13:20:13Z</time>
      </trkpt>
      <trkpt lat="28.68903" lon="-9.83496">
        <ele>420</ele>
        <time>2012-05-10T13:20:18Z</time>
      </trkpt>
      <trkpt lat="28.68903" lon="-9.83497">
        <ele>418.9</ele>
        <time>2012-05-10T13:20:23Z</time>
      </trkpt>
      <trkpt lat="28.68903" lon="-9.83497">
        <ele>418.3</ele>
        <time>2012-05-10T13:20:28Z</time>
      </trkpt>
      <trkpt lat="28.68903" lon="-9.83496">
        <ele>420.6</ele>
        <time>2012-05-10T13:20:33Z</time>
      </trkpt>
      <trkpt lat="28.68904" lon="-9.83497">
        <ele>419.2</ele>
        <time>2012-05-10T13:20:38Z</time>
      </trkpt>
      <trkpt lat="28.68903" lon="-9.83496">
        <ele>419.6</ele>
        <time>2012-05-10T13:20:43Z</time>
      </trkpt>
      <trkpt lat="28.68904" lon="-9.83496">
        <ele>420.2</ele>
        <time>2012-05-10T13:20:48Z</time>
      </trkpt>
      <trkpt lat="28.68904" lon="-9.83497">
        <ele>419.3</ele>
        <time>2012-05-10T13:20:53Z</time>
      </trkpt>
      <trkpt lat="28.68904" lon="-9.83497">
        <ele>419.5</ele>
        <time>2012-05-10T13:20:58Z</time>
      </trkpt>
      <trkpt lat="28.68904" lon="-9.83496">
        <ele>419.7</ele>
        <time>2012-05-10T13:21:03Z</time>
      </trkpt>
      <trkpt lat="28.68904" lon="-9.83496">
        <ele>419.2</ele>
        <time>2012-05-10T13:21:08Z</time>
      </trkpt>
      <trkpt lat="28.68904" lon="-9.83496">
        <ele>419.6</ele>
        <time>2012-05-10T13:21:13Z</time>
      </trkpt>
      <trkpt lat="28.68903" lon="-9.83496">
        <ele>420.6</ele>
        <time>2012-05-10T13:21:18Z</time>
      </trkpt>
      <trkpt lat="28.68903" lon="-9.83495">
        <ele>421.2</ele>
        <time>2012-05-10T13:21:23Z</time>
      </trkpt>
      <trkpt lat="28.68904" lon="-9.83496">
        <ele>421.6</ele>
        <time>2012-05-10T13:21:28Z</time>
      </trkpt>
      <trkpt lat="28.68904" lon="-9.83496">
        <ele>421.4</ele>
        <time>2012-05-10T13:21:33Z</time>
      </trkpt>
      <trkpt lat="28.68904" lon="-9.83495">
        <ele>420.9</ele>
        <time>2012-05-10T13:21:38Z</time>
      </trkpt>
      <trkpt lat="28.68904" lon="-9.83495">
        <ele>421.5</ele>
        <time>2012-05-10T13:21:43Z</time>
      </trkpt>
      <trkpt lat="28.68904" lon="-9.83496">
        <ele>420.6</ele>
        <time>2012-05-10T13:21:48Z</time>
      </trkpt>
      <trkpt lat="28.68905" lon="-9.83495">
        <ele>421.1</ele>
        <time>2012-05-10T13:21:53Z</time>
      </trkpt>
      <trkpt lat="28.68904" lon="-9.83495">
        <ele>420.9</ele>
        <time>2012-05-10T13:21:58Z</time>
      </trkpt>
      <trkpt lat="28.68903" lon="-9.83495">
        <ele>420.8</ele>
        <time>2012-05-10T13:22:03Z</time>
      </trkpt>
      <trkpt lat="28.68904" lon="-9.83495">
        <ele>419.8</ele>
        <time>2012-05-10T13:22:08Z</time>
      </trkpt>
      <trkpt lat="28.68904" lon="-9.83495">
        <ele>419.4</ele>
        <time>2012-05-10T13:22:13Z</time>
      </trkpt>
      <trkpt lat="28.68904" lon="-9.83496">
        <ele>418.7</ele>
        <time>2012-05-10T13:22:18Z</time>
      </trkpt>
      <trkpt lat="28.68892" lon="-9.83512">
        <ele>418.4</ele>
        <time>2012-05-10T13:22:23Z</time>
      </trkpt>
      <trkpt lat="28.68878" lon="-9.83526">
        <ele>418.3</ele>
        <time>2012-05-10T13:22:28Z</time>
      </trkpt>
      <trkpt lat="28.6886" lon="-9.83547">
        <ele>418.2</ele>
        <time>2012-05-10T13:22:33Z</time>
      </trkpt>
      <trkpt lat="28.68847" lon="-9.83563">
        <ele>418.6</ele>
        <time>2012-05-10T13:22:38Z</time>
      </trkpt>
      <trkpt lat="28.68826" lon="-9.8359">
        <ele>418.3</ele>
        <time>2012-05-10T13:22:43Z</time>
      </trkpt>
      <trkpt lat="28.68809" lon="-9.83608">
        <ele>418.3</ele>
        <time>2012-05-10T13:22:48Z</time>
      </trkpt>
      <trkpt lat="28.68771" lon="-9.83647">
        <ele>418.8</ele>
        <time>2012-05-10T13:22:53Z</time>
      </trkpt>
      <trkpt lat="28.68728" lon="-9.83686">
        <ele>418.7</ele>
        <time>2012-05-10T13:22:58Z</time>
      </trkpt>
      <trkpt lat="28.68662" lon="-9.83745">
        <ele>418.7</ele>
        <time>2012-05-10T13:23:03Z</time>
      </trkpt>
      <trkpt lat="28.6863" lon="-9.83779">
        <ele>419.1</ele>
        <time>2012-05-10T13:23:08Z</time>
      </trkpt>
      <trkpt lat="28.68607" lon="-9.83801">
        <ele>419.8</ele>
        <time>2012-05-10T13:23:13Z</time>
      </trkpt>
      <trkpt lat="28.68522" lon="-9.83883">
        <ele>421.1</ele>
        <time>2012-05-10T13:23:18Z</time>
      </trkpt>
      <trkpt lat="28.68294" lon="-9.84109">
        <ele>423.2</ele>
        <time>2012-05-10T13:23:23Z</time>
      </trkpt>
      <trkpt lat="28.68274" lon="-9.84135">
        <ele>423.3</ele>
        <time>2012-05-10T13:23:28Z</time>
      </trkpt>
      <trkpt lat="28.68256" lon="-9.84163">
        <ele>422.6</ele>
        <time>2012-05-10T13:23:33Z</time>
      </trkpt>
      <trkpt lat="28.68238" lon="-9.8419">
        <ele>423.1</ele>
        <time>2012-05-10T13:23:38Z</time>
      </trkpt>
      <trkpt lat="28.68221" lon="-9.84217">
        <ele>423.9</ele>
        <time>2012-05-10T13:23:43Z</time>
      </trkpt>
      <trkpt lat="28.68197" lon="-9.84259">
        <ele>423.8</ele>
        <time>2012-05-10T13:23:48Z</time>
      </trkpt>
      <trkpt lat="28.68054" lon="-9.84514">
        <ele>424.2</ele>
        <time>2012-05-10T13:23:53Z</time>
      </trkpt>
      <trkpt lat="28.68022" lon="-9.84568">
        <ele>424.4</ele>
        <time>2012-05-10T13:23:58Z</time>
      </trkpt>
      <trkpt lat="28.67999" lon="-9.84609">
        <ele>424.4</ele>
        <time>2012-05-10T13:24:03Z</time>
      </trkpt>
      <trkpt lat="28.67983" lon="-9.84635">
        <ele>424.7</ele>
        <time>2012-05-10T13:24:08Z</time>
      </trkpt>
      <trkpt lat="28.67969" lon="-9.84663">
        <ele>424.9</ele>
        <time>2012-05-10T13:24:13Z</time>
      </trkpt>
      <trkpt lat="28.67939" lon="-9.84723">
        <ele>425.7</ele>
        <time>2012-05-10T13:24:18Z</time>
      </trkpt>
      <trkpt lat="28.67791" lon="-9.84991">
        <ele>429.4</ele>
        <time>2012-05-10T13:24:23Z</time>
      </trkpt>
      <trkpt lat="28.6775" lon="-9.85056">
        <ele>430.2</ele>
        <time>2012-05-10T13:24:28Z</time>
      </trkpt>
      <trkpt lat="28.67709" lon="-9.85123">
        <ele>430.4</ele>
        <time>2012-05-10T13:24:33Z</time>
      </trkpt>
      <trkpt lat="28.6768" lon="-9.85174">
        <ele>430.7</ele>
        <time>2012-05-10T13:24:38Z</time>
      </trkpt>
      <trkpt lat="28.67642" lon="-9.85242">
        <ele>431.9</ele>
        <time>2012-05-10T13:24:43Z</time>
      </trkpt>
      <trkpt lat="28.67531" lon="-9.85431">
        <ele>438.5</ele>
        <time>2012-05-10T13:24:48Z</time>
      </trkpt>
      <trkpt lat="28.6751" lon="-9.85456">
        <ele>438.3</ele>
        <time>2012-05-10T13:24:53Z</time>
      </trkpt>
      <trkpt lat="28.67406" lon="-9.85579">
        <ele>436</ele>
        <time>2012-05-10T13:24:58Z</time>
      </trkpt>
      <trkpt lat="28.67305" lon="-9.857">
        <ele>436.1</ele>
        <time>2012-05-10T13:25:03Z</time>
      </trkpt>
      <trkpt lat="28.67282" lon="-9.85726">
        <ele>435.9</ele>
        <time>2012-05-10T13:25:08Z</time>
      </trkpt>
      <trkpt lat="28.67235" lon="-9.85779">
        <ele>436.7</ele>
        <time>2012-05-10T13:25:13Z</time>
      </trkpt>
      <trkpt lat="28.67118" lon="-9.85923">
        <ele>439.5</ele>
        <time>2012-05-10T13:25:18Z</time>
      </trkpt>
      <trkpt lat="28.67078" lon="-9.85975">
        <ele>439.6</ele>
        <time>2012-05-10T13:25:23Z</time>
      </trkpt>
      <trkpt lat="28.6705" lon="-9.86017">
        <ele>438.9</ele>
        <time>2012-05-10T13:25:28Z</time>
      </trkpt>
      <trkpt lat="28.67031" lon="-9.86044">
        <ele>438</ele>
        <time>2012-05-10T13:25:33Z</time>
      </trkpt>
      <trkpt lat="28.66984" lon="-9.86113">
        <ele>436.8</ele>
        <time>2012-05-10T13:25:38Z</time>
      </trkpt>
      <trkpt lat="28.66808" lon="-9.86397">
        <ele>440.3</ele>
        <time>2012-05-10T13:25:43Z</time>
      </trkpt>
      <trkpt lat="28.6669" lon="-9.86592">
        <ele>440.4</ele>
        <time>2012-05-10T13:25:48Z</time>
      </trkpt>
      <trkpt lat="28.66676" lon="-9.86621">
        <ele>440.2</ele>
        <time>2012-05-10T13:25:53Z</time>
      </trkpt>
      <trkpt lat="28.66664" lon="-9.86651">
        <ele>440.6</ele>
        <time>2012-05-10T13:25:58Z</time>
      </trkpt>
      <trkpt lat="28.66638" lon="-9.86713">
        <ele>439.5</ele>
        <time>2012-05-10T13:26:03Z</time>
      </trkpt>
      <trkpt lat="28.66629" lon="-9.86738">
        <ele>440</ele>
        <time>2012-05-10T13:26:08Z</time>
      </trkpt>
      <trkpt lat="28.66618" lon="-9.86764">
        <ele>440.1</ele>
        <time>2012-05-10T13:26:13Z</time>
      </trkpt>
      <trkpt lat="28.66578" lon="-9.86862">
        <ele>439.9</ele>
        <time>2012-05-10T13:26:18Z</time>
      </trkpt>
      <trkpt lat="28.66553" lon="-9.86919">
        <ele>440.5</ele>
        <time>2012-05-10T13:26:23Z</time>
      </trkpt>
      <trkpt lat="28.66542" lon="-9.86948">
        <ele>441.3</ele>
        <time>2012-05-10T13:26:28Z</time>
      </trkpt>
      <trkpt lat="28.66529" lon="-9.86977">
        <ele>442.4</ele>
        <time>2012-05-10T13:26:33Z</time>
      </trkpt>
      <trkpt lat="28.66516" lon="-9.87003">
        <ele>442.2</ele>
        <time>2012-05-10T13:26:38Z</time>
      </trkpt>
      <trkpt lat="28.66489" lon="-9.87057">
        <ele>440.3</ele>
        <time>2012-05-10T13:26:43Z</time>
      </trkpt>
      <trkpt lat="28.66438" lon="-9.87162">
        <ele>437.3</ele>
        <time>2012-05-10T13:26:48Z</time>
      </trkpt>
      <trkpt lat="28.66297" lon="-9.87446">
        <ele>433.6</ele>
        <time>2012-05-10T13:26:53Z</time>
      </trkpt>
      <trkpt lat="28.66145" lon="-9.87752">
        <ele>431.3</ele>
        <time>2012-05-10T13:26:58Z</time>
      </trkpt>
      <trkpt lat="28.66001" lon="-9.88038">
        <ele>428.7</ele>
        <time>2012-05-10T13:27:03Z</time>
      </trkpt>
      <trkpt lat="28.65967" lon="-9.88105">
        <ele>427.6</ele>
        <time>2012-05-10T13:27:08Z</time>
      </trkpt>
      <trkpt lat="28.65947" lon="-9.88142">
        <ele>427.1</ele>
        <time>2012-05-10T13:27:13Z</time>
      </trkpt>
      <trkpt lat="28.6593" lon="-9.88178">
        <ele>427</ele>
        <time>2012-05-10T13:27:18Z</time>
      </trkpt>
      <trkpt lat="28.65921" lon="-9.88202">
        <ele>427.3</ele>
        <time>2012-05-10T13:27:23Z</time>
      </trkpt>
      <trkpt lat="28.65913" lon="-9.88225">
        <ele>426.9</ele>
        <time>2012-05-10T13:27:28Z</time>
      </trkpt>
      <trkpt lat="28.65902" lon="-9.8826">
        <ele>425.8</ele>
        <time>2012-05-10T13:27:33Z</time>
      </trkpt>
      <trkpt lat="28.65894" lon="-9.88281">
        <ele>426.1</ele>
        <time>2012-05-10T13:27:38Z</time>
      </trkpt>
      <trkpt lat="28.65887" lon="-9.88301">
        <ele>426.2</ele>
        <time>2012-05-10T13:27:43Z</time>
      </trkpt>
      <trkpt lat="28.65877" lon="-9.88327">
        <ele>427.1</ele>
        <time>2012-05-10T13:27:48Z</time>
      </trkpt>
      <trkpt lat="28.65869" lon="-9.88352">
        <ele>426.9</ele>
        <time>2012-05-10T13:27:53Z</time>
      </trkpt>
      <trkpt lat="28.65858" lon="-9.88387">
        <ele>427.1</ele>
        <time>2012-05-10T13:27:58Z</time>
      </trkpt>
      <trkpt lat="28.65848" lon="-9.88413">
        <ele>427.2</ele>
        <time>2012-05-10T13:28:03Z</time>
      </trkpt>
      <trkpt lat="28.65832" lon="-9.88454">
        <ele>427.2</ele>
        <time>2012-05-10T13:28:08Z</time>
      </trkpt>
      <trkpt lat="28.6582" lon="-9.88474">
        <ele>427</ele>
        <time>2012-05-10T13:28:13Z</time>
      </trkpt>
      <trkpt lat="28.65804" lon="-9.88504">
        <ele>426.7</ele>
        <time>2012-05-10T13:28:18Z</time>
      </trkpt>
      <trkpt lat="28.6579" lon="-9.88519">
        <ele>427.2</ele>
        <time>2012-05-10T13:28:23Z</time>
      </trkpt>
      <trkpt lat="28.65786" lon="-9.8854">
        <ele>427.1</ele>
        <time>2012-05-10T13:28:28Z</time>
      </trkpt>
      <trkpt lat="28.65784" lon="-9.88564">
        <ele>426.6</ele>
        <time>2012-05-10T13:28:33Z</time>
      </trkpt>
      <trkpt lat="28.65778" lon="-9.88587">
        <ele>426.3</ele>
        <time>2012-05-10T13:28:38Z</time>
      </trkpt>
      <trkpt lat="28.65769" lon="-9.8861">
        <ele>426.6</ele>
        <time>2012-05-10T13:28:43Z</time>
      </trkpt>
      <trkpt lat="28.65761" lon="-9.88633">
        <ele>426.6</ele>
        <time>2012-05-10T13:28:48Z</time>
      </trkpt>
      <trkpt lat="28.65726" lon="-9.88736">
        <ele>425.3</ele>
        <time>2012-05-10T13:28:53Z</time>
      </trkpt>
      <trkpt lat="28.65715" lon="-9.88766">
        <ele>425.1</ele>
        <time>2012-05-10T13:28:58Z</time>
      </trkpt>
      <trkpt lat="28.65706" lon="-9.88794">
        <ele>425.2</ele>
        <time>2012-05-10T13:29:03Z</time>
      </trkpt>
      <trkpt lat="28.65696" lon="-9.88812">
        <ele>424.8</ele>
        <time>2012-05-10T13:29:08Z</time>
      </trkpt>
      <trkpt lat="28.65686" lon="-9.88831">
        <ele>424.6</ele>
        <time>2012-05-10T13:29:13Z</time>
      </trkpt>
      <trkpt lat="28.65686" lon="-9.88832">
        <ele>424.9</ele>
        <time>2012-05-10T13:29:18Z</time>
      </trkpt>
      <trkpt lat="28.65686" lon="-9.88832">
        <ele>425.9</ele>
        <time>2012-05-10T13:29:23Z</time>
      </trkpt>
      <trkpt lat="28.65686" lon="-9.88832">
        <ele>426.5</ele>
        <time>2012-05-10T13:29:28Z</time>
      </trkpt>
      <trkpt lat="28.65686" lon="-9.88832">
        <ele>426.4</ele>
        <time>2012-05-10T13:29:33Z</time>
      </trkpt>
      <trkpt lat="28.65684" lon="-9.88832">
        <ele>426</ele>
        <time>2012-05-10T13:29:38Z</time>
      </trkpt>
      <trkpt lat="28.65684" lon="-9.88831">
        <ele>425.5</ele>
        <time>2012-05-10T13:29:43Z</time>
      </trkpt>
      <trkpt lat="28.65684" lon="-9.8883">
        <ele>425.7</ele>
        <time>2012-05-10T13:29:48Z</time>
      </trkpt>
      <trkpt lat="28.65684" lon="-9.88831">
        <ele>426.6</ele>
        <time>2012-05-10T13:29:53Z</time>
      </trkpt>
      <trkpt lat="28.65685" lon="-9.88831">
        <ele>427</ele>
        <time>2012-05-10T13:29:58Z</time>
      </trkpt>
      <trkpt lat="28.65685" lon="-9.88831">
        <ele>427.5</ele>
        <time>2012-05-10T13:30:03Z</time>
      </trkpt>
      <trkpt lat="28.65685" lon="-9.88831">
        <ele>426.4</ele>
        <time>2012-05-10T13:30:08Z</time>
      </trkpt>
      <trkpt lat="28.65685" lon="-9.88831">
        <ele>426.3</ele>
        <time>2012-05-10T13:30:13Z</time>
      </trkpt>
      <trkpt lat="28.65684" lon="-9.8883">
        <ele>425.5</ele>
        <time>2012-05-10T13:30:18Z</time>
      </trkpt>
      <trkpt lat="28.65684" lon="-9.8883">
        <ele>424.6</ele>
        <time>2012-05-10T13:30:23Z</time>
      </trkpt>
      <trkpt lat="28.65685" lon="-9.8883">
        <ele>425.9</ele>
        <time>2012-05-10T13:30:28Z</time>
      </trkpt>
      <trkpt lat="28.65685" lon="-9.8883">
        <ele>426.4</ele>
        <time>2012-05-10T13:30:33Z</time>
      </trkpt>
      <trkpt lat="28.65686" lon="-9.88831">
        <ele>426.7</ele>
        <time>2012-05-10T13:30:38Z</time>
      </trkpt>
      <trkpt lat="28.65686" lon="-9.88831">
        <ele>426.6</ele>
        <time>2012-05-10T13:30:43Z</time>
      </trkpt>
      <trkpt lat="28.65686" lon="-9.88831">
        <ele>426.6</ele>
        <time>2012-05-10T13:30:48Z</time>
      </trkpt>
      <trkpt lat="28.65686" lon="-9.88831">
        <ele>426.4</ele>
        <time>2012-05-10T13:30:53Z</time>
      </trkpt>
      <trkpt lat="28.65675" lon="-9.8885">
        <ele>426.3</ele>
        <time>2012-05-10T13:30:58Z</time>
      </trkpt>
      <trkpt lat="28.6566" lon="-9.88863">
        <ele>425.8</ele>
        <time>2012-05-10T13:31:03Z</time>
      </trkpt>
      <trkpt lat="28.65645" lon="-9.88849">
        <ele>425.8</ele>
        <time>2012-05-10T13:31:08Z</time>
      </trkpt>
      <trkpt lat="28.65632" lon="-9.88833">
        <ele>426.8</ele>
        <time>2012-05-10T13:31:13Z</time>
      </trkpt>
      <trkpt lat="28.65618" lon="-9.88819">
        <ele>428</ele>
        <time>2012-05-10T13:31:18Z</time>
      </trkpt>
      <trkpt lat="28.65604" lon="-9.888">
        <ele>428.8</ele>
        <time>2012-05-10T13:31:23Z</time>
      </trkpt>
      <trkpt lat="28.65594" lon="-9.88779">
        <ele>427.5</ele>
        <time>2012-05-10T13:31:28Z</time>
      </trkpt>
      <trkpt lat="28.65587" lon="-9.88759">
        <ele>427.5</ele>
        <time>2012-05-10T13:31:33Z</time>
      </trkpt>
      <trkpt lat="28.65582" lon="-9.88736">
        <ele>427.9</ele>
        <time>2012-05-10T13:31:38Z</time>
      </trkpt>
      <trkpt lat="28.6558" lon="-9.88709">
        <ele>429.3</ele>
        <time>2012-05-10T13:31:43Z</time>
      </trkpt>
      <trkpt lat="28.65577" lon="-9.88684">
        <ele>430.8</ele>
        <time>2012-05-10T13:31:48Z</time>
      </trkpt>
      <trkpt lat="28.65567" lon="-9.88665">
        <ele>432.7</ele>
        <time>2012-05-10T13:31:53Z</time>
      </trkpt>
      <trkpt lat="28.65545" lon="-9.88661">
        <ele>434.7</ele>
        <time>2012-05-10T13:31:58Z</time>
      </trkpt>
      <trkpt lat="28.65527" lon="-9.88655">
        <ele>436.3</ele>
        <time>2012-05-10T13:32:03Z</time>
      </trkpt>
      <trkpt lat="28.65504" lon="-9.88653">
        <ele>437.6</ele>
        <time>2012-05-10T13:32:08Z</time>
      </trkpt>
      <trkpt lat="28.65479" lon="-9.88656">
        <ele>438</ele>
        <time>2012-05-10T13:32:13Z</time>
      </trkpt>
      <trkpt lat="28.65455" lon="-9.88653">
        <ele>439.3</ele>
        <time>2012-05-10T13:32:18Z</time>
      </trkpt>
      <trkpt lat="28.65437" lon="-9.88639">
        <ele>439.5</ele>
        <time>2012-05-10T13:32:23Z</time>
      </trkpt>
      <trkpt lat="28.6537" lon="-9.88571">
        <ele>435.8</ele>
        <time>2012-05-10T13:32:28Z</time>
      </trkpt>
      <trkpt lat="28.65352" lon="-9.88561">
        <ele>435.2</ele>
        <time>2012-05-10T13:32:33Z</time>
      </trkpt>
      <trkpt lat="28.6533" lon="-9.88557">
        <ele>434.8</ele>
        <time>2012-05-10T13:32:38Z</time>
      </trkpt>
      <trkpt lat="28.65295" lon="-9.8855">
        <ele>434.2</ele>
        <time>2012-05-10T13:32:43Z</time>
      </trkpt>
      <trkpt lat="28.6527" lon="-9.88542">
        <ele>435.1</ele>
        <time>2012-05-10T13:32:48Z</time>
      </trkpt>
      <trkpt lat="28.65232" lon="-9.88527">
        <ele>435.7</ele>
        <time>2012-05-10T13:32:53Z</time>
      </trkpt>
      <trkpt lat="28.65207" lon="-9.88518">
        <ele>436</ele>
        <time>2012-05-10T13:32:58Z</time>
      </trkpt>
      <trkpt lat="28.65169" lon="-9.88505">
        <ele>436.5</ele>
        <time>2012-05-10T13:33:03Z</time>
      </trkpt>
      <trkpt lat="28.65142" lon="-9.885">
        <ele>437</ele>
        <time>2012-05-10T13:33:08Z</time>
      </trkpt>
      <trkpt lat="28.65115" lon="-9.88497">
        <ele>437.4</ele>
        <time>2012-05-10T13:33:13Z</time>
      </trkpt>
      <trkpt lat="28.65075" lon="-9.88491">
        <ele>438.5</ele>
        <time>2012-05-10T13:33:18Z</time>
      </trkpt>
      <trkpt lat="28.6505" lon="-9.88483">
        <ele>439.1</ele>
        <time>2012-05-10T13:33:23Z</time>
      </trkpt>
      <trkpt lat="28.65025" lon="-9.8847">
        <ele>439.5</ele>
        <time>2012-05-10T13:33:28Z</time>
      </trkpt>
      <trkpt lat="28.65002" lon="-9.88456">
        <ele>440.1</ele>
        <time>2012-05-10T13:33:33Z</time>
      </trkpt>
      <trkpt lat="28.64981" lon="-9.8844">
        <ele>440.8</ele>
        <time>2012-05-10T13:33:38Z</time>
      </trkpt>
      <trkpt lat="28.64963" lon="-9.88424">
        <ele>441.6</ele>
        <time>2012-05-10T13:33:43Z</time>
      </trkpt>
      <trkpt lat="28.64945" lon="-9.8841">
        <ele>442.4</ele>
        <time>2012-05-10T13:33:48Z</time>
      </trkpt>
      <trkpt lat="28.64925" lon="-9.88401">
        <ele>443.3</ele>
        <time>2012-05-10T13:33:53Z</time>
      </trkpt>
      <trkpt lat="28.64903" lon="-9.88398">
        <ele>444.4</ele>
        <time>2012-05-10T13:33:58Z</time>
      </trkpt>
      <trkpt lat="28.64865" lon="-9.88395">
        <ele>446.5</ele>
        <time>2012-05-10T13:34:03Z</time>
      </trkpt>
      <trkpt lat="28.64842" lon="-9.88405">
        <ele>447.6</ele>
        <time>2012-05-10T13:34:08Z</time>
      </trkpt>
      <trkpt lat="28.64826" lon="-9.88418">
        <ele>445.8</ele>
        <time>2012-05-10T13:34:13Z</time>
      </trkpt>
      <trkpt lat="28.64767" lon="-9.88468">
        <ele>446.4</ele>
        <time>2012-05-10T13:34:18Z</time>
      </trkpt>
      <trkpt lat="28.64754" lon="-9.88485">
        <ele>448.5</ele>
        <time>2012-05-10T13:34:23Z</time>
      </trkpt>
      <trkpt lat="28.64741" lon="-9.88502">
        <ele>448.3</ele>
        <time>2012-05-10T13:34:28Z</time>
      </trkpt>
      <trkpt lat="28.64672" lon="-9.88593">
        <ele>444.7</ele>
        <time>2012-05-10T13:34:33Z</time>
      </trkpt>
      <trkpt lat="28.64646" lon="-9.8862">
        <ele>443.9</ele>
        <time>2012-05-10T13:34:38Z</time>
      </trkpt>
      <trkpt lat="28.64631" lon="-9.88639">
        <ele>443.6</ele>
        <time>2012-05-10T13:34:43Z</time>
      </trkpt>
      <trkpt lat="28.64581" lon="-9.88704">
        <ele>441.6</ele>
        <time>2012-05-10T13:34:48Z</time>
      </trkpt>
      <trkpt lat="28.64494" lon="-9.88828">
        <ele>442</ele>
        <time>2012-05-10T13:34:53Z</time>
      </trkpt>
      <trkpt lat="28.64476" lon="-9.88848">
        <ele>442.2</ele>
        <time>2012-05-10T13:34:58Z</time>
      </trkpt>
      <trkpt lat="28.64456" lon="-9.88868">
        <ele>442.5</ele>
        <time>2012-05-10T13:35:03Z</time>
      </trkpt>
      <trkpt lat="28.64415" lon="-9.88912">
        <ele>443.2</ele>
        <time>2012-05-10T13:35:08Z</time>
      </trkpt>
      <trkpt lat="28.64397" lon="-9.88936">
        <ele>443.7</ele>
        <time>2012-05-10T13:35:13Z</time>
      </trkpt>
      <trkpt lat="28.6438" lon="-9.88962">
        <ele>444.2</ele>
        <time>2012-05-10T13:35:18Z</time>
      </trkpt>
      <trkpt lat="28.64365" lon="-9.88987">
        <ele>444.7</ele>
        <time>2012-05-10T13:35:23Z</time>
      </trkpt>
      <trkpt lat="28.64351" lon="-9.8901">
        <ele>444.7</ele>
        <time>2012-05-10T13:35:28Z</time>
      </trkpt>
      <trkpt lat="28.64334" lon="-9.89031">
        <ele>445</ele>
        <time>2012-05-10T13:35:33Z</time>
      </trkpt>
      <trkpt lat="28.64315" lon="-9.89048">
        <ele>445.1</ele>
        <time>2012-05-10T13:35:38Z</time>
      </trkpt>
      <trkpt lat="28.64295" lon="-9.89065">
        <ele>445.5</ele>
        <time>2012-05-10T13:35:43Z</time>
      </trkpt>
      <trkpt lat="28.64278" lon="-9.89087">
        <ele>445.9</ele>
        <time>2012-05-10T13:35:48Z</time>
      </trkpt>
      <trkpt lat="28.64262" lon="-9.8911">
        <ele>446.2</ele>
        <time>2012-05-10T13:35:53Z</time>
      </trkpt>
      <trkpt lat="28.64239" lon="-9.89145">
        <ele>446.6</ele>
        <time>2012-05-10T13:35:58Z</time>
      </trkpt>
      <trkpt lat="28.64223" lon="-9.89169">
        <ele>446.8</ele>
        <time>2012-05-10T13:36:03Z</time>
      </trkpt>
      <trkpt lat="28.64208" lon="-9.89195">
        <ele>447.1</ele>
        <time>2012-05-10T13:36:08Z</time>
      </trkpt>
      <trkpt lat="28.64149" lon="-9.89295">
        <ele>448.8</ele>
        <time>2012-05-10T13:36:13Z</time>
      </trkpt>
      <trkpt lat="28.64134" lon="-9.89319">
        <ele>449.1</ele>
        <time>2012-05-10T13:36:18Z</time>
      </trkpt>
      <trkpt lat="28.64121" lon="-9.89345">
        <ele>449.6</ele>
        <time>2012-05-10T13:36:23Z</time>
      </trkpt>
      <trkpt lat="28.6411" lon="-9.89371">
        <ele>450.1</ele>
        <time>2012-05-10T13:36:28Z</time>
      </trkpt>
      <trkpt lat="28.64101" lon="-9.89398">
        <ele>450.3</ele>
        <time>2012-05-10T13:36:33Z</time>
      </trkpt>
      <trkpt lat="28.64094" lon="-9.89426">
        <ele>450.7</ele>
        <time>2012-05-10T13:36:38Z</time>
      </trkpt>
      <trkpt lat="28.64085" lon="-9.89452">
        <ele>450.9</ele>
        <time>2012-05-10T13:36:43Z</time>
      </trkpt>
      <trkpt lat="28.64073" lon="-9.89477">
        <ele>451.1</ele>
        <time>2012-05-10T13:36:48Z</time>
      </trkpt>
      <trkpt lat="28.64048" lon="-9.89523">
        <ele>452</ele>
        <time>2012-05-10T13:36:53Z</time>
      </trkpt>
      <trkpt lat="28.64031" lon="-9.89541">
        <ele>451.7</ele>
        <time>2012-05-10T13:36:58Z</time>
      </trkpt>
      <trkpt lat="28.64009" lon="-9.89554">
        <ele>451.4</ele>
        <time>2012-05-10T13:37:03Z</time>
      </trkpt>
      <trkpt lat="28.63974" lon="-9.89575">
        <ele>452.8</ele>
        <time>2012-05-10T13:37:08Z</time>
      </trkpt>
      <trkpt lat="28.63952" lon="-9.89591">
        <ele>453.8</ele>
        <time>2012-05-10T13:37:13Z</time>
      </trkpt>
      <trkpt lat="28.63932" lon="-9.89611">
        <ele>454.2</ele>
        <time>2012-05-10T13:37:18Z</time>
      </trkpt>
      <trkpt lat="28.63911" lon="-9.8963">
        <ele>454.7</ele>
        <time>2012-05-10T13:37:23Z</time>
      </trkpt>
      <trkpt lat="28.6389" lon="-9.89646">
        <ele>455</ele>
        <time>2012-05-10T13:37:28Z</time>
      </trkpt>
      <trkpt lat="28.63859" lon="-9.89672">
        <ele>455.1</ele>
        <time>2012-05-10T13:37:33Z</time>
      </trkpt>
      <trkpt lat="28.6384" lon="-9.89692">
        <ele>455.4</ele>
        <time>2012-05-10T13:37:38Z</time>
      </trkpt>
      <trkpt lat="28.63818" lon="-9.89709">
        <ele>456.3</ele>
        <time>2012-05-10T13:37:43Z</time>
      </trkpt>
      <trkpt lat="28.63797" lon="-9.89726">
        <ele>457.1</ele>
        <time>2012-05-10T13:37:48Z</time>
      </trkpt>
      <trkpt lat="28.63766" lon="-9.89752">
        <ele>457.9</ele>
        <time>2012-05-10T13:37:53Z</time>
      </trkpt>
      <trkpt lat="28.6366" lon="-9.89828">
        <ele>460.9</ele>
        <time>2012-05-10T13:37:58Z</time>
      </trkpt>
      <trkpt lat="28.6361" lon="-9.89864">
        <ele>461.9</ele>
        <time>2012-05-10T13:38:03Z</time>
      </trkpt>
      <trkpt lat="28.63488" lon="-9.89958">
        <ele>465.1</ele>
        <time>2012-05-10T13:38:08Z</time>
      </trkpt>
      <trkpt lat="28.63447" lon="-9.89994">
        <ele>466.1</ele>
        <time>2012-05-10T13:38:13Z</time>
      </trkpt>
      <trkpt lat="28.63429" lon="-9.90012">
        <ele>465.8</ele>
        <time>2012-05-10T13:38:18Z</time>
      </trkpt>
      <trkpt lat="28.63414" lon="-9.90032">
        <ele>464.6</ele>
        <time>2012-05-10T13:38:23Z</time>
      </trkpt>
      <trkpt lat="28.63397" lon="-9.9005">
        <ele>465.3</ele>
        <time>2012-05-10T13:38:28Z</time>
      </trkpt>
      <trkpt lat="28.63379" lon="-9.90066">
        <ele>465.9</ele>
        <time>2012-05-10T13:38:33Z</time>
      </trkpt>
      <trkpt lat="28.63359" lon="-9.90079">
        <ele>466.8</ele>
        <time>2012-05-10T13:38:38Z</time>
      </trkpt>
      <trkpt lat="28.63336" lon="-9.9009">
        <ele>466.8</ele>
        <time>2012-05-10T13:38:43Z</time>
      </trkpt>
      <trkpt lat="28.63312" lon="-9.90099">
        <ele>467.2</ele>
        <time>2012-05-10T13:38:48Z</time>
      </trkpt>
      <trkpt lat="28.63288" lon="-9.90111">
        <ele>467.6</ele>
        <time>2012-05-10T13:38:53Z</time>
      </trkpt>
      <trkpt lat="28.63263" lon="-9.90121">
        <ele>468.2</ele>
        <time>2012-05-10T13:38:58Z</time>
      </trkpt>
      <trkpt lat="28.63226" lon="-9.90137">
        <ele>468.6</ele>
        <time>2012-05-10T13:39:03Z</time>
      </trkpt>
      <trkpt lat="28.63202" lon="-9.90151">
        <ele>468.9</ele>
        <time>2012-05-10T13:39:08Z</time>
      </trkpt>
      <trkpt lat="28.63179" lon="-9.90167">
        <ele>469.2</ele>
        <time>2012-05-10T13:39:13Z</time>
      </trkpt>
      <trkpt lat="28.63117" lon="-9.90213">
        <ele>470.3</ele>
        <time>2012-05-10T13:39:18Z</time>
      </trkpt>
      <trkpt lat="28.62995" lon="-9.90305">
        <ele>474.5</ele>
        <time>2012-05-10T13:39:23Z</time>
      </trkpt>
      <trkpt lat="28.62972" lon="-9.90314">
        <ele>475.6</ele>
        <time>2012-05-10T13:39:28Z</time>
      </trkpt>
      <trkpt lat="28.6295" lon="-9.90314">
        <ele>476.8</ele>
        <time>2012-05-10T13:39:33Z</time>
      </trkpt>
      <trkpt lat="28.62927" lon="-9.9031">
        <ele>478.2</ele>
        <time>2012-05-10T13:39:38Z</time>
      </trkpt>
      <trkpt lat="28.62908" lon="-9.90303">
        <ele>480.1</ele>
        <time>2012-05-10T13:39:43Z</time>
      </trkpt>
      <trkpt lat="28.62887" lon="-9.90286">
        <ele>483.9</ele>
        <time>2012-05-10T13:39:48Z</time>
      </trkpt>
      <trkpt lat="28.6287" lon="-9.90278">
        <ele>484.1</ele>
        <time>2012-05-10T13:39:53Z</time>
      </trkpt>
      <trkpt lat="28.62846" lon="-9.90288">
        <ele>483.8</ele>
        <time>2012-05-10T13:39:58Z</time>
      </trkpt>
      <trkpt lat="28.62826" lon="-9.90299">
        <ele>484.1</ele>
        <time>2012-05-10T13:40:03Z</time>
      </trkpt>
      <trkpt lat="28.6276" lon="-9.90337">
        <ele>486.9</ele>
        <time>2012-05-10T13:40:08Z</time>
      </trkpt>
      <trkpt lat="28.62736" lon="-9.90347">
        <ele>488.1</ele>
        <time>2012-05-10T13:40:13Z</time>
      </trkpt>
      <trkpt lat="28.62715" lon="-9.90355">
        <ele>489.4</ele>
        <time>2012-05-10T13:40:18Z</time>
      </trkpt>
      <trkpt lat="28.62697" lon="-9.90363">
        <ele>490.8</ele>
        <time>2012-05-10T13:40:23Z</time>
      </trkpt>
      <trkpt lat="28.62678" lon="-9.90384">
        <ele>492.5</ele>
        <time>2012-05-10T13:40:28Z</time>
      </trkpt>
      <trkpt lat="28.62667" lon="-9.90402">
        <ele>493</ele>
        <time>2012-05-10T13:40:33Z</time>
      </trkpt>
      <trkpt lat="28.62654" lon="-9.90422">
        <ele>493</ele>
        <time>2012-05-10T13:40:38Z</time>
      </trkpt>
      <trkpt lat="28.62627" lon="-9.90463">
        <ele>493.5</ele>
        <time>2012-05-10T13:40:43Z</time>
      </trkpt>
      <trkpt lat="28.62616" lon="-9.90484">
        <ele>493.7</ele>
        <time>2012-05-10T13:40:48Z</time>
      </trkpt>
      <trkpt lat="28.62602" lon="-9.90504">
        <ele>494.3</ele>
        <time>2012-05-10T13:40:53Z</time>
      </trkpt>
      <trkpt lat="28.62569" lon="-9.90544">
        <ele>497.1</ele>
        <time>2012-05-10T13:40:58Z</time>
      </trkpt>
      <trkpt lat="28.62555" lon="-9.90564">
        <ele>497.4</ele>
        <time>2012-05-10T13:41:03Z</time>
      </trkpt>
      <trkpt lat="28.62544" lon="-9.90585">
        <ele>497.7</ele>
        <time>2012-05-10T13:41:08Z</time>
      </trkpt>
      <trkpt lat="28.62532" lon="-9.90604">
        <ele>498.1</ele>
        <time>2012-05-10T13:41:13Z</time>
      </trkpt>
      <trkpt lat="28.62509" lon="-9.90644">
        <ele>496.8</ele>
        <time>2012-05-10T13:41:18Z</time>
      </trkpt>
      <trkpt lat="28.62494" lon="-9.90663">
        <ele>497.1</ele>
        <time>2012-05-10T13:41:23Z</time>
      </trkpt>
      <trkpt lat="28.62473" lon="-9.90687">
        <ele>499.2</ele>
        <time>2012-05-10T13:41:28Z</time>
      </trkpt>
      <trkpt lat="28.62463" lon="-9.90704">
        <ele>498.7</ele>
        <time>2012-05-10T13:41:33Z</time>
      </trkpt>
      <trkpt lat="28.62447" lon="-9.90731">
        <ele>498.1</ele>
        <time>2012-05-10T13:41:38Z</time>
      </trkpt>
      <trkpt lat="28.62439" lon="-9.90751">
        <ele>497.7</ele>
        <time>2012-05-10T13:41:43Z</time>
      </trkpt>
      <trkpt lat="28.6243" lon="-9.90772">
        <ele>497.2</ele>
        <time>2012-05-10T13:41:48Z</time>
      </trkpt>
      <trkpt lat="28.62415" lon="-9.90788">
        <ele>497.8</ele>
        <time>2012-05-10T13:41:53Z</time>
      </trkpt>
      <trkpt lat="28.62402" lon="-9.90806">
        <ele>497.5</ele>
        <time>2012-05-10T13:41:58Z</time>
      </trkpt>
      <trkpt lat="28.6239" lon="-9.90827">
        <ele>497</ele>
        <time>2012-05-10T13:42:03Z</time>
      </trkpt>
      <trkpt lat="28.62375" lon="-9.90849">
        <ele>496.2</ele>
        <time>2012-05-10T13:42:08Z</time>
      </trkpt>
      <trkpt lat="28.62359" lon="-9.90871">
        <ele>496.5</ele>
        <time>2012-05-10T13:42:13Z</time>
      </trkpt>
      <trkpt lat="28.62342" lon="-9.90893">
        <ele>496.2</ele>
        <time>2012-05-10T13:42:18Z</time>
      </trkpt>
      <trkpt lat="28.62318" lon="-9.90927">
        <ele>496.2</ele>
        <time>2012-05-10T13:42:23Z</time>
      </trkpt>
      <trkpt lat="28.62295" lon="-9.90958">
        <ele>495.9</ele>
        <time>2012-05-10T13:42:28Z</time>
      </trkpt>
      <trkpt lat="28.62281" lon="-9.90981">
        <ele>495.4</ele>
        <time>2012-05-10T13:42:33Z</time>
      </trkpt>
      <trkpt lat="28.62265" lon="-9.91003">
        <ele>495.9</ele>
        <time>2012-05-10T13:42:38Z</time>
      </trkpt>
      <trkpt lat="28.62241" lon="-9.91036">
        <ele>497.6</ele>
        <time>2012-05-10T13:42:43Z</time>
      </trkpt>
      <trkpt lat="28.62204" lon="-9.91091">
        <ele>498.2</ele>
        <time>2012-05-10T13:42:48Z</time>
      </trkpt>
      <trkpt lat="28.62189" lon="-9.91114">
        <ele>498.4</ele>
        <time>2012-05-10T13:42:53Z</time>
      </trkpt>
      <trkpt lat="28.62171" lon="-9.91135">
        <ele>498.9</ele>
        <time>2012-05-10T13:42:58Z</time>
      </trkpt>
      <trkpt lat="28.62152" lon="-9.91154">
        <ele>499.5</ele>
        <time>2012-05-10T13:43:03Z</time>
      </trkpt>
      <trkpt lat="28.62134" lon="-9.91174">
        <ele>500</ele>
        <time>2012-05-10T13:43:08Z</time>
      </trkpt>
      <trkpt lat="28.62117" lon="-9.91196">
        <ele>500.4</ele>
        <time>2012-05-10T13:43:13Z</time>
      </trkpt>
      <trkpt lat="28.621" lon="-9.91219">
        <ele>500.5</ele>
        <time>2012-05-10T13:43:18Z</time>
      </trkpt>
      <trkpt lat="28.62086" lon="-9.91243">
        <ele>500.7</ele>
        <time>2012-05-10T13:43:23Z</time>
      </trkpt>
      <trkpt lat="28.62074" lon="-9.91266">
        <ele>501.6</ele>
        <time>2012-05-10T13:43:28Z</time>
      </trkpt>
      <trkpt lat="28.62061" lon="-9.91286">
        <ele>501</ele>
        <time>2012-05-10T13:43:33Z</time>
      </trkpt>
      <trkpt lat="28.62045" lon="-9.913">
        <ele>501.1</ele>
        <time>2012-05-10T13:43:38Z</time>
      </trkpt>
      <trkpt lat="28.62028" lon="-9.9131">
        <ele>502.2</ele>
        <time>2012-05-10T13:43:43Z</time>
      </trkpt>
      <trkpt lat="28.62012" lon="-9.91324">
        <ele>503.2</ele>
        <time>2012-05-10T13:43:48Z</time>
      </trkpt>
      <trkpt lat="28.61983" lon="-9.91352">
        <ele>504.9</ele>
        <time>2012-05-10T13:43:53Z</time>
      </trkpt>
      <trkpt lat="28.61969" lon="-9.91368">
        <ele>505.1</ele>
        <time>2012-05-10T13:43:58Z</time>
      </trkpt>
      <trkpt lat="28.61948" lon="-9.91391">
        <ele>505.8</ele>
        <time>2012-05-10T13:44:03Z</time>
      </trkpt>
      <trkpt lat="28.61925" lon="-9.91414">
        <ele>506</ele>
        <time>2012-05-10T13:44:08Z</time>
      </trkpt>
      <trkpt lat="28.61909" lon="-9.91431">
        <ele>506.4</ele>
        <time>2012-05-10T13:44:13Z</time>
      </trkpt>
      <trkpt lat="28.61894" lon="-9.91449">
        <ele>506.3</ele>
        <time>2012-05-10T13:44:18Z</time>
      </trkpt>
      <trkpt lat="28.61877" lon="-9.91466">
        <ele>506</ele>
        <time>2012-05-10T13:44:23Z</time>
      </trkpt>
      <trkpt lat="28.6185" lon="-9.91492">
        <ele>505.9</ele>
        <time>2012-05-10T13:44:28Z</time>
      </trkpt>
      <trkpt lat="28.61795" lon="-9.9155">
        <ele>506.9</ele>
        <time>2012-05-10T13:44:33Z</time>
      </trkpt>
      <trkpt lat="28.61747" lon="-9.91599">
        <ele>508</ele>
        <time>2012-05-10T13:44:38Z</time>
      </trkpt>
      <trkpt lat="28.61687" lon="-9.91654">
        <ele>509.4</ele>
        <time>2012-05-10T13:44:43Z</time>
      </trkpt>
      <trkpt lat="28.6167" lon="-9.91676">
        <ele>509.8</ele>
        <time>2012-05-10T13:44:48Z</time>
      </trkpt>
      <trkpt lat="28.61644" lon="-9.91708">
        <ele>510.2</ele>
        <time>2012-05-10T13:44:53Z</time>
      </trkpt>
      <trkpt lat="28.61625" lon="-9.91728">
        <ele>510.8</ele>
        <time>2012-05-10T13:44:58Z</time>
      </trkpt>
      <trkpt lat="28.61605" lon="-9.91746">
        <ele>511.5</ele>
        <time>2012-05-10T13:45:03Z</time>
      </trkpt>
      <trkpt lat="28.61575" lon="-9.91774">
        <ele>512</ele>
        <time>2012-05-10T13:45:08Z</time>
      </trkpt>
      <trkpt lat="28.61553" lon="-9.91791">
        <ele>512.7</ele>
        <time>2012-05-10T13:45:13Z</time>
      </trkpt>
      <trkpt lat="28.61533" lon="-9.91809">
        <ele>513.5</ele>
        <time>2012-05-10T13:45:18Z</time>
      </trkpt>
      <trkpt lat="28.61514" lon="-9.91829">
        <ele>514</ele>
        <time>2012-05-10T13:45:23Z</time>
      </trkpt>
      <trkpt lat="28.61479" lon="-9.9187">
        <ele>514.7</ele>
        <time>2012-05-10T13:45:28Z</time>
      </trkpt>
      <trkpt lat="28.61447" lon="-9.91913">
        <ele>516.2</ele>
        <time>2012-05-10T13:45:33Z</time>
      </trkpt>
      <trkpt lat="28.6143" lon="-9.91931">
        <ele>516.7</ele>
        <time>2012-05-10T13:45:38Z</time>
      </trkpt>
      <trkpt lat="28.61413" lon="-9.9195">
        <ele>516.9</ele>
        <time>2012-05-10T13:45:43Z</time>
      </trkpt>
      <trkpt lat="28.61357" lon="-9.92022">
        <ele>518.7</ele>
        <time>2012-05-10T13:45:48Z</time>
      </trkpt>
      <trkpt lat="28.61334" lon="-9.92054">
        <ele>519.4</ele>
        <time>2012-05-10T13:45:53Z</time>
      </trkpt>
      <trkpt lat="28.61312" lon="-9.92084">
        <ele>520.2</ele>
        <time>2012-05-10T13:45:58Z</time>
      </trkpt>
      <trkpt lat="28.613" lon="-9.92106">
        <ele>520.8</ele>
        <time>2012-05-10T13:46:03Z</time>
      </trkpt>
      <trkpt lat="28.61288" lon="-9.9213">
        <ele>521.6</ele>
        <time>2012-05-10T13:46:08Z</time>
      </trkpt>
      <trkpt lat="28.6126" lon="-9.92174">
        <ele>523.5</ele>
        <time>2012-05-10T13:46:13Z</time>
      </trkpt>
      <trkpt lat="28.61249" lon="-9.92194">
        <ele>524.8</ele>
        <time>2012-05-10T13:46:18Z</time>
      </trkpt>
      <trkpt lat="28.61239" lon="-9.92213">
        <ele>525.4</ele>
        <time>2012-05-10T13:46:23Z</time>
      </trkpt>
      <trkpt lat="28.61226" lon="-9.92231">
        <ele>526.1</ele>
        <time>2012-05-10T13:46:28Z</time>
      </trkpt>
      <trkpt lat="28.61214" lon="-9.92249">
        <ele>526.9</ele>
        <time>2012-05-10T13:46:33Z</time>
      </trkpt>
      <trkpt lat="28.61189" lon="-9.92288">
        <ele>527.7</ele>
        <time>2012-05-10T13:46:38Z</time>
      </trkpt>
      <trkpt lat="28.61175" lon="-9.92307">
        <ele>527.9</ele>
        <time>2012-05-10T13:46:43Z</time>
      </trkpt>
      <trkpt lat="28.61151" lon="-9.92337">
        <ele>527.1</ele>
        <time>2012-05-10T13:46:48Z</time>
      </trkpt>
      <trkpt lat="28.61133" lon="-9.92355">
        <ele>527.1</ele>
        <time>2012-05-10T13:46:53Z</time>
      </trkpt>
      <trkpt lat="28.61114" lon="-9.92377">
        <ele>527.2</ele>
        <time>2012-05-10T13:46:58Z</time>
      </trkpt>
      <trkpt lat="28.61094" lon="-9.92401">
        <ele>527.3</ele>
        <time>2012-05-10T13:47:03Z</time>
      </trkpt>
      <trkpt lat="28.61054" lon="-9.92454">
        <ele>527.2</ele>
        <time>2012-05-10T13:47:08Z</time>
      </trkpt>
      <trkpt lat="28.61026" lon="-9.92493">
        <ele>527.6</ele>
        <time>2012-05-10T13:47:13Z</time>
      </trkpt>
      <trkpt lat="28.60914" lon="-9.92632">
        <ele>531.7</ele>
        <time>2012-05-10T13:47:18Z</time>
      </trkpt>
      <trkpt lat="28.60896" lon="-9.92649">
        <ele>530.9</ele>
        <time>2012-05-10T13:47:23Z</time>
      </trkpt>
      <trkpt lat="28.60879" lon="-9.92669">
        <ele>531.8</ele>
        <time>2012-05-10T13:47:28Z</time>
      </trkpt>
      <trkpt lat="28.60863" lon="-9.9269">
        <ele>532.1</ele>
        <time>2012-05-10T13:47:33Z</time>
      </trkpt>
      <trkpt lat="28.60765" lon="-9.92827">
        <ele>533.4</ele>
        <time>2012-05-10T13:47:38Z</time>
      </trkpt>
      <trkpt lat="28.60732" lon="-9.92874">
        <ele>534</ele>
        <time>2012-05-10T13:47:43Z</time>
      </trkpt>
      <trkpt lat="28.60716" lon="-9.92897">
        <ele>534.1</ele>
        <time>2012-05-10T13:47:48Z</time>
      </trkpt>
      <trkpt lat="28.60679" lon="-9.92947">
        <ele>535.3</ele>
        <time>2012-05-10T13:47:53Z</time>
      </trkpt>
      <trkpt lat="28.6065" lon="-9.92982">
        <ele>536.1</ele>
        <time>2012-05-10T13:47:58Z</time>
      </trkpt>
      <trkpt lat="28.60629" lon="-9.93003">
        <ele>536.6</ele>
        <time>2012-05-10T13:48:03Z</time>
      </trkpt>
      <trkpt lat="28.60607" lon="-9.93023">
        <ele>537.2</ele>
        <time>2012-05-10T13:48:08Z</time>
      </trkpt>
      <trkpt lat="28.60585" lon="-9.93045">
        <ele>537.7</ele>
        <time>2012-05-10T13:48:13Z</time>
      </trkpt>
      <trkpt lat="28.60565" lon="-9.93069">
        <ele>538.2</ele>
        <time>2012-05-10T13:48:18Z</time>
      </trkpt>
      <trkpt lat="28.60536" lon="-9.93105">
        <ele>539.2</ele>
        <time>2012-05-10T13:48:23Z</time>
      </trkpt>
      <trkpt lat="28.60518" lon="-9.93131">
        <ele>540.2</ele>
        <time>2012-05-10T13:48:28Z</time>
      </trkpt>
      <trkpt lat="28.60499" lon="-9.93156">
        <ele>541.1</ele>
        <time>2012-05-10T13:48:33Z</time>
      </trkpt>
      <trkpt lat="28.60471" lon="-9.93191">
        <ele>541.8</ele>
        <time>2012-05-10T13:48:38Z</time>
      </trkpt>
      <trkpt lat="28.60455" lon="-9.93217">
        <ele>542.5</ele>
        <time>2012-05-10T13:48:43Z</time>
      </trkpt>
      <trkpt lat="28.60424" lon="-9.93269">
        <ele>543.7</ele>
        <time>2012-05-10T13:48:48Z</time>
      </trkpt>
      <trkpt lat="28.60376" lon="-9.93346">
        <ele>543.3</ele>
        <time>2012-05-10T13:48:53Z</time>
      </trkpt>
      <trkpt lat="28.60322" lon="-9.93437">
        <ele>544</ele>
        <time>2012-05-10T13:48:58Z</time>
      </trkpt>
      <trkpt lat="28.60305" lon="-9.93461">
        <ele>544.2</ele>
        <time>2012-05-10T13:49:03Z</time>
      </trkpt>
      <trkpt lat="28.60285" lon="-9.93482">
        <ele>544.4</ele>
        <time>2012-05-10T13:49:08Z</time>
      </trkpt>
      <trkpt lat="28.60263" lon="-9.93501">
        <ele>544.8</ele>
        <time>2012-05-10T13:49:13Z</time>
      </trkpt>
      <trkpt lat="28.60241" lon="-9.93523">
        <ele>545.1</ele>
        <time>2012-05-10T13:49:18Z</time>
      </trkpt>
      <trkpt lat="28.60221" lon="-9.93547">
        <ele>545.5</ele>
        <time>2012-05-10T13:49:23Z</time>
      </trkpt>
      <trkpt lat="28.60202" lon="-9.93573">
        <ele>545.9</ele>
        <time>2012-05-10T13:49:28Z</time>
      </trkpt>
      <trkpt lat="28.60156" lon="-9.93634">
        <ele>547.1</ele>
        <time>2012-05-10T13:49:33Z</time>
      </trkpt>
      <trkpt lat="28.6011" lon="-9.93695">
        <ele>547.5</ele>
        <time>2012-05-10T13:49:38Z</time>
      </trkpt>
      <trkpt lat="28.60086" lon="-9.93733">
        <ele>547.5</ele>
        <time>2012-05-10T13:49:43Z</time>
      </trkpt>
      <trkpt lat="28.60071" lon="-9.93759">
        <ele>547.8</ele>
        <time>2012-05-10T13:49:48Z</time>
      </trkpt>
      <trkpt lat="28.60029" lon="-9.93838">
        <ele>548.2</ele>
        <time>2012-05-10T13:49:53Z</time>
      </trkpt>
      <trkpt lat="28.60017" lon="-9.93865">
        <ele>548.4</ele>
        <time>2012-05-10T13:49:58Z</time>
      </trkpt>
      <trkpt lat="28.60006" lon="-9.93895">
        <ele>548.9</ele>
        <time>2012-05-10T13:50:03Z</time>
      </trkpt>
      <trkpt lat="28.59991" lon="-9.93939">
        <ele>549.6</ele>
        <time>2012-05-10T13:50:08Z</time>
      </trkpt>
      <trkpt lat="28.59879" lon="-9.94249">
        <ele>554.6</ele>
        <time>2012-05-10T13:50:13Z</time>
      </trkpt>
      <trkpt lat="28.59868" lon="-9.94277">
        <ele>555.4</ele>
        <time>2012-05-10T13:50:18Z</time>
      </trkpt>
      <trkpt lat="28.59855" lon="-9.94305">
        <ele>556.1</ele>
        <time>2012-05-10T13:50:23Z</time>
      </trkpt>
      <trkpt lat="28.5983" lon="-9.94357">
        <ele>557.6</ele>
        <time>2012-05-10T13:50:28Z</time>
      </trkpt>
      <trkpt lat="28.59816" lon="-9.94379">
        <ele>557.9</ele>
        <time>2012-05-10T13:50:33Z</time>
      </trkpt>
      <trkpt lat="28.59804" lon="-9.94402">
        <ele>558.7</ele>
        <time>2012-05-10T13:50:38Z</time>
      </trkpt>
      <trkpt lat="28.59795" lon="-9.94427">
        <ele>559.6</ele>
        <time>2012-05-10T13:50:43Z</time>
      </trkpt>
      <trkpt lat="28.59786" lon="-9.94452">
        <ele>560.2</ele>
        <time>2012-05-10T13:50:48Z</time>
      </trkpt>
      <trkpt lat="28.59773" lon="-9.94476">
        <ele>561.2</ele>
        <time>2012-05-10T13:50:53Z</time>
      </trkpt>
      <trkpt lat="28.59757" lon="-9.94497">
        <ele>561.9</ele>
        <time>2012-05-10T13:50:58Z</time>
      </trkpt>
      <trkpt lat="28.59741" lon="-9.94519">
        <ele>562.7</ele>
        <time>2012-05-10T13:51:03Z</time>
      </trkpt>
      <trkpt lat="28.59727" lon="-9.94542">
        <ele>563</ele>
        <time>2012-05-10T13:51:08Z</time>
      </trkpt>
      <trkpt lat="28.59712" lon="-9.94566">
        <ele>562.7</ele>
        <time>2012-05-10T13:51:13Z</time>
      </trkpt>
      <trkpt lat="28.59694" lon="-9.9459">
        <ele>562.3</ele>
        <time>2012-05-10T13:51:18Z</time>
      </trkpt>
      <trkpt lat="28.59636" lon="-9.94664">
        <ele>562.1</ele>
        <time>2012-05-10T13:51:23Z</time>
      </trkpt>
      <trkpt lat="28.5957" lon="-9.94749">
        <ele>563</ele>
        <time>2012-05-10T13:51:28Z</time>
      </trkpt>
      <trkpt lat="28.59503" lon="-9.94838">
        <ele>567.4</ele>
        <time>2012-05-10T13:51:33Z</time>
      </trkpt>
      <trkpt lat="28.59487" lon="-9.94854">
        <ele>568.6</ele>
        <time>2012-05-10T13:51:38Z</time>
      </trkpt>
      <trkpt lat="28.59473" lon="-9.9487">
        <ele>569.4</ele>
        <time>2012-05-10T13:51:43Z</time>
      </trkpt>
      <trkpt lat="28.59459" lon="-9.94891">
        <ele>569.5</ele>
        <time>2012-05-10T13:51:48Z</time>
      </trkpt>
      <trkpt lat="28.59394" lon="-9.95004">
        <ele>569.3</ele>
        <time>2012-05-10T13:51:53Z</time>
      </trkpt>
      <trkpt lat="28.5935" lon="-9.95079">
        <ele>570.9</ele>
        <time>2012-05-10T13:51:58Z</time>
      </trkpt>
      <trkpt lat="28.59333" lon="-9.95102">
        <ele>571</ele>
        <time>2012-05-10T13:52:03Z</time>
      </trkpt>
      <trkpt lat="28.59294" lon="-9.95155">
        <ele>571.4</ele>
        <time>2012-05-10T13:52:08Z</time>
      </trkpt>
      <trkpt lat="28.59272" lon="-9.95185">
        <ele>572.2</ele>
        <time>2012-05-10T13:52:13Z</time>
      </trkpt>
      <trkpt lat="28.59254" lon="-9.95201">
        <ele>572.2</ele>
        <time>2012-05-10T13:52:18Z</time>
      </trkpt>
      <trkpt lat="28.59236" lon="-9.95219">
        <ele>573.1</ele>
        <time>2012-05-10T13:52:23Z</time>
      </trkpt>
      <trkpt lat="28.59219" lon="-9.95239">
        <ele>574.6</ele>
        <time>2012-05-10T13:52:28Z</time>
      </trkpt>
      <trkpt lat="28.59203" lon="-9.95256">
        <ele>575.6</ele>
        <time>2012-05-10T13:52:33Z</time>
      </trkpt>
      <trkpt lat="28.59182" lon="-9.9528">
        <ele>575.5</ele>
        <time>2012-05-10T13:52:38Z</time>
      </trkpt>
      <trkpt lat="28.59173" lon="-9.953">
        <ele>576.2</ele>
        <time>2012-05-10T13:52:43Z</time>
      </trkpt>
      <trkpt lat="28.59163" lon="-9.95329">
        <ele>577</ele>
        <time>2012-05-10T13:52:48Z</time>
      </trkpt>
      <trkpt lat="28.59153" lon="-9.95348">
        <ele>577.4</ele>
        <time>2012-05-10T13:52:53Z</time>
      </trkpt>
      <trkpt lat="28.59138" lon="-9.95379">
        <ele>578.3</ele>
        <time>2012-05-10T13:52:58Z</time>
      </trkpt>
      <trkpt lat="28.59102" lon="-9.95434">
        <ele>581.3</ele>
        <time>2012-05-10T13:53:03Z</time>
      </trkpt>
      <trkpt lat="28.59091" lon="-9.95454">
        <ele>581.7</ele>
        <time>2012-05-10T13:53:08Z</time>
      </trkpt>
      <trkpt lat="28.59083" lon="-9.95476">
        <ele>582.2</ele>
        <time>2012-05-10T13:53:13Z</time>
      </trkpt>
      <trkpt lat="28.59074" lon="-9.95498">
        <ele>582.7</ele>
        <time>2012-05-10T13:53:18Z</time>
      </trkpt>
      <trkpt lat="28.59063" lon="-9.95517">
        <ele>583.3</ele>
        <time>2012-05-10T13:53:23Z</time>
      </trkpt>
      <trkpt lat="28.59031" lon="-9.95567">
        <ele>585.9</ele>
        <time>2012-05-10T13:53:28Z</time>
      </trkpt>
      <trkpt lat="28.59019" lon="-9.95586">
        <ele>586.7</ele>
        <time>2012-05-10T13:53:33Z</time>
      </trkpt>
      <trkpt lat="28.5901" lon="-9.95609">
        <ele>588</ele>
        <time>2012-05-10T13:53:38Z</time>
      </trkpt>
      <trkpt lat="28.59" lon="-9.95631">
        <ele>588.9</ele>
        <time>2012-05-10T13:53:43Z</time>
      </trkpt>
      <trkpt lat="28.58991" lon="-9.95652">
        <ele>590.2</ele>
        <time>2012-05-10T13:53:48Z</time>
      </trkpt>
      <trkpt lat="28.58975" lon="-9.95692">
        <ele>591.8</ele>
        <time>2012-05-10T13:53:53Z</time>
      </trkpt>
      <trkpt lat="28.58967" lon="-9.95721">
        <ele>593.9</ele>
        <time>2012-05-10T13:53:58Z</time>
      </trkpt>
      <trkpt lat="28.58965" lon="-9.95749">
        <ele>596.9</ele>
        <time>2012-05-10T13:54:03Z</time>
      </trkpt>
      <trkpt lat="28.58962" lon="-9.95775">
        <ele>599.3</ele>
        <time>2012-05-10T13:54:08Z</time>
      </trkpt>
      <trkpt lat="28.58951" lon="-9.958">
        <ele>600.8</ele>
        <time>2012-05-10T13:54:13Z</time>
      </trkpt>
      <trkpt lat="28.58939" lon="-9.95827">
        <ele>600.5</ele>
        <time>2012-05-10T13:54:18Z</time>
      </trkpt>
      <trkpt lat="28.58932" lon="-9.95847">
        <ele>599.3</ele>
        <time>2012-05-10T13:54:23Z</time>
      </trkpt>
      <trkpt lat="28.58913" lon="-9.95901">
        <ele>596.3</ele>
        <time>2012-05-10T13:54:28Z</time>
      </trkpt>
      <trkpt lat="28.58881" lon="-9.9598">
        <ele>592.5</ele>
        <time>2012-05-10T13:54:33Z</time>
      </trkpt>
      <trkpt lat="28.58871" lon="-9.96002">
        <ele>591.4</ele>
        <time>2012-05-10T13:54:38Z</time>
      </trkpt>
      <trkpt lat="28.58859" lon="-9.96023">
        <ele>589.9</ele>
        <time>2012-05-10T13:54:43Z</time>
      </trkpt>
      <trkpt lat="28.58847" lon="-9.96044">
        <ele>588.8</ele>
        <time>2012-05-10T13:54:48Z</time>
      </trkpt>
      <trkpt lat="28.58836" lon="-9.96065">
        <ele>588.5</ele>
        <time>2012-05-10T13:54:53Z</time>
      </trkpt>
      <trkpt lat="28.58819" lon="-9.96109">
        <ele>587.1</ele>
        <time>2012-05-10T13:54:58Z</time>
      </trkpt>
      <trkpt lat="28.5881" lon="-9.9613">
        <ele>586.5</ele>
        <time>2012-05-10T13:55:03Z</time>
      </trkpt>
      <trkpt lat="28.58798" lon="-9.96151">
        <ele>585.6</ele>
        <time>2012-05-10T13:55:08Z</time>
      </trkpt>
      <trkpt lat="28.58787" lon="-9.96173">
        <ele>585.1</ele>
        <time>2012-05-10T13:55:13Z</time>
      </trkpt>
      <trkpt lat="28.5877" lon="-9.96206">
        <ele>584</ele>
        <time>2012-05-10T13:55:18Z</time>
      </trkpt>
      <trkpt lat="28.58747" lon="-9.9625">
        <ele>582.6</ele>
        <time>2012-05-10T13:55:23Z</time>
      </trkpt>
      <trkpt lat="28.58729" lon="-9.96294">
        <ele>581.1</ele>
        <time>2012-05-10T13:55:28Z</time>
      </trkpt>
      <trkpt lat="28.58723" lon="-9.96317">
        <ele>580.2</ele>
        <time>2012-05-10T13:55:33Z</time>
      </trkpt>
      <trkpt lat="28.58716" lon="-9.96351">
        <ele>579.5</ele>
        <time>2012-05-10T13:55:38Z</time>
      </trkpt>
      <trkpt lat="28.58712" lon="-9.96375">
        <ele>578.5</ele>
        <time>2012-05-10T13:55:43Z</time>
      </trkpt>
      <trkpt lat="28.58708" lon="-9.96399">
        <ele>578.2</ele>
        <time>2012-05-10T13:55:48Z</time>
      </trkpt>
      <trkpt lat="28.58701" lon="-9.96421">
        <ele>577.9</ele>
        <time>2012-05-10T13:55:53Z</time>
      </trkpt>
      <trkpt lat="28.5869" lon="-9.96442">
        <ele>577.1</ele>
        <time>2012-05-10T13:55:58Z</time>
      </trkpt>
      <trkpt lat="28.58674" lon="-9.96462">
        <ele>575.4</ele>
        <time>2012-05-10T13:56:03Z</time>
      </trkpt>
      <trkpt lat="28.58656" lon="-9.96481">
        <ele>574.1</ele>
        <time>2012-05-10T13:56:08Z</time>
      </trkpt>
      <trkpt lat="28.58637" lon="-9.96498">
        <ele>573.6</ele>
        <time>2012-05-10T13:56:13Z</time>
      </trkpt>
      <trkpt lat="28.58616" lon="-9.96512">
        <ele>573.2</ele>
        <time>2012-05-10T13:56:18Z</time>
      </trkpt>
      <trkpt lat="28.58596" lon="-9.96527">
        <ele>572.6</ele>
        <time>2012-05-10T13:56:23Z</time>
      </trkpt>
      <trkpt lat="28.58577" lon="-9.96544">
        <ele>572</ele>
        <time>2012-05-10T13:56:28Z</time>
      </trkpt>
      <trkpt lat="28.58512" lon="-9.966">
        <ele>569.8</ele>
        <time>2012-05-10T13:56:33Z</time>
      </trkpt>
      <trkpt lat="28.58497" lon="-9.96615">
        <ele>570.1</ele>
        <time>2012-05-10T13:56:38Z</time>
      </trkpt>
      <trkpt lat="28.58481" lon="-9.96628">
        <ele>571</ele>
        <time>2012-05-10T13:56:43Z</time>
      </trkpt>
      <trkpt lat="28.58447" lon="-9.96649">
        <ele>571.6</ele>
        <time>2012-05-10T13:56:48Z</time>
      </trkpt>
      <trkpt lat="28.5843" lon="-9.96656">
        <ele>570.7</ele>
        <time>2012-05-10T13:56:53Z</time>
      </trkpt>
      <trkpt lat="28.58411" lon="-9.96662">
        <ele>570.7</ele>
        <time>2012-05-10T13:56:58Z</time>
      </trkpt>
      <trkpt lat="28.58383" lon="-9.9667">
        <ele>572.9</ele>
        <time>2012-05-10T13:57:03Z</time>
      </trkpt>
      <trkpt lat="28.58349" lon="-9.96675">
        <ele>574</ele>
        <time>2012-05-10T13:57:08Z</time>
      </trkpt>
      <trkpt lat="28.58313" lon="-9.96684">
        <ele>575.5</ele>
        <time>2012-05-10T13:57:13Z</time>
      </trkpt>
      <trkpt lat="28.58291" lon="-9.96691">
        <ele>576.5</ele>
        <time>2012-05-10T13:57:18Z</time>
      </trkpt>
      <trkpt lat="28.58269" lon="-9.967">
        <ele>577.2</ele>
        <time>2012-05-10T13:57:23Z</time>
      </trkpt>
      <trkpt lat="28.58239" lon="-9.96712">
        <ele>578.1</ele>
        <time>2012-05-10T13:57:28Z</time>
      </trkpt>
      <trkpt lat="28.58173" lon="-9.96731">
        <ele>578.6</ele>
        <time>2012-05-10T13:57:33Z</time>
      </trkpt>
      <trkpt lat="28.58152" lon="-9.96734">
        <ele>579.3</ele>
        <time>2012-05-10T13:57:38Z</time>
      </trkpt>
      <trkpt lat="28.58134" lon="-9.9674">
        <ele>580.3</ele>
        <time>2012-05-10T13:57:43Z</time>
      </trkpt>
      <trkpt lat="28.58118" lon="-9.96751">
        <ele>581.1</ele>
        <time>2012-05-10T13:57:48Z</time>
      </trkpt>
      <trkpt lat="28.58103" lon="-9.96765">
        <ele>581.7</ele>
        <time>2012-05-10T13:57:53Z</time>
      </trkpt>
      <trkpt lat="28.58089" lon="-9.96783">
        <ele>582</ele>
        <time>2012-05-10T13:57:58Z</time>
      </trkpt>
      <trkpt lat="28.58077" lon="-9.96804">
        <ele>582.2</ele>
        <time>2012-05-10T13:58:03Z</time>
      </trkpt>
      <trkpt lat="28.58065" lon="-9.96827">
        <ele>582.6</ele>
        <time>2012-05-10T13:58:08Z</time>
      </trkpt>
      <trkpt lat="28.58042" lon="-9.96871">
        <ele>583.4</ele>
        <time>2012-05-10T13:58:13Z</time>
      </trkpt>
      <trkpt lat="28.58026" lon="-9.969">
        <ele>583.5</ele>
        <time>2012-05-10T13:58:18Z</time>
      </trkpt>
      <trkpt lat="28.58012" lon="-9.96929">
        <ele>583.9</ele>
        <time>2012-05-10T13:58:23Z</time>
      </trkpt>
      <trkpt lat="28.58" lon="-9.96946">
        <ele>584</ele>
        <time>2012-05-10T13:58:28Z</time>
      </trkpt>
      <trkpt lat="28.57991" lon="-9.96966">
        <ele>584.6</ele>
        <time>2012-05-10T13:58:33Z</time>
      </trkpt>
      <trkpt lat="28.57983" lon="-9.96986">
        <ele>585.1</ele>
        <time>2012-05-10T13:58:38Z</time>
      </trkpt>
      <trkpt lat="28.57975" lon="-9.97007">
        <ele>585.9</ele>
        <time>2012-05-10T13:58:43Z</time>
      </trkpt>
      <trkpt lat="28.57968" lon="-9.97027">
        <ele>586.9</ele>
        <time>2012-05-10T13:58:48Z</time>
      </trkpt>
      <trkpt lat="28.5796" lon="-9.97046">
        <ele>587.6</ele>
        <time>2012-05-10T13:58:53Z</time>
      </trkpt>
      <trkpt lat="28.57949" lon="-9.97062">
        <ele>588.4</ele>
        <time>2012-05-10T13:58:58Z</time>
      </trkpt>
      <trkpt lat="28.57935" lon="-9.97076">
        <ele>589.5</ele>
        <time>2012-05-10T13:59:03Z</time>
      </trkpt>
      <trkpt lat="28.57918" lon="-9.97084">
        <ele>590.8</ele>
        <time>2012-05-10T13:59:08Z</time>
      </trkpt>
      <trkpt lat="28.57891" lon="-9.9709">
        <ele>593.4</ele>
        <time>2012-05-10T13:59:13Z</time>
      </trkpt>
      <trkpt lat="28.57869" lon="-9.97101">
        <ele>596.2</ele>
        <time>2012-05-10T13:59:18Z</time>
      </trkpt>
      <trkpt lat="28.57854" lon="-9.9712">
        <ele>597.7</ele>
        <time>2012-05-10T13:59:23Z</time>
      </trkpt>
      <trkpt lat="28.57834" lon="-9.97127">
        <ele>598.9</ele>
        <time>2012-05-10T13:59:28Z</time>
      </trkpt>
      <trkpt lat="28.57813" lon="-9.97123">
        <ele>599</ele>
        <time>2012-05-10T13:59:33Z</time>
      </trkpt>
      <trkpt lat="28.57787" lon="-9.97115">
        <ele>598.4</ele>
        <time>2012-05-10T13:59:38Z</time>
      </trkpt>
      <trkpt lat="28.57767" lon="-9.97118">
        <ele>597.5</ele>
        <time>2012-05-10T13:59:43Z</time>
      </trkpt>
      <trkpt lat="28.57744" lon="-9.97119">
        <ele>595.9</ele>
        <time>2012-05-10T13:59:48Z</time>
      </trkpt>
      <trkpt lat="28.57725" lon="-9.97116">
        <ele>594.8</ele>
        <time>2012-05-10T13:59:53Z</time>
      </trkpt>
      <trkpt lat="28.57706" lon="-9.97105">
        <ele>593.8</ele>
        <time>2012-05-10T13:59:58Z</time>
      </trkpt>
      <trkpt lat="28.57685" lon="-9.97094">
        <ele>593.2</ele>
        <time>2012-05-10T14:00:03Z</time>
      </trkpt>
      <trkpt lat="28.57654" lon="-9.97078">
        <ele>592.5</ele>
        <time>2012-05-10T14:00:08Z</time>
      </trkpt>
      <trkpt lat="28.57633" lon="-9.97069">
        <ele>592.1</ele>
        <time>2012-05-10T14:00:13Z</time>
      </trkpt>
      <trkpt lat="28.57602" lon="-9.97056">
        <ele>592.4</ele>
        <time>2012-05-10T14:00:18Z</time>
      </trkpt>
      <trkpt lat="28.57583" lon="-9.97046">
        <ele>592.6</ele>
        <time>2012-05-10T14:00:23Z</time>
      </trkpt>
      <trkpt lat="28.57564" lon="-9.97037">
        <ele>592.2</ele>
        <time>2012-05-10T14:00:28Z</time>
      </trkpt>
      <trkpt lat="28.57546" lon="-9.97027">
        <ele>592.1</ele>
        <time>2012-05-10T14:00:33Z</time>
      </trkpt>
      <trkpt lat="28.57527" lon="-9.97019">
        <ele>592</ele>
        <time>2012-05-10T14:00:38Z</time>
      </trkpt>
      <trkpt lat="28.57507" lon="-9.97013">
        <ele>591.3</ele>
        <time>2012-05-10T14:00:43Z</time>
      </trkpt>
      <trkpt lat="28.57486" lon="-9.97009">
        <ele>590.3</ele>
        <time>2012-05-10T14:00:48Z</time>
      </trkpt>
      <trkpt lat="28.57466" lon="-9.97008">
        <ele>589.3</ele>
        <time>2012-05-10T14:00:53Z</time>
      </trkpt>
      <trkpt lat="28.57426" lon="-9.97003">
        <ele>587.4</ele>
        <time>2012-05-10T14:00:58Z</time>
      </trkpt>
      <trkpt lat="28.57406" lon="-9.96999">
        <ele>586.7</ele>
        <time>2012-05-10T14:01:03Z</time>
      </trkpt>
      <trkpt lat="28.5738" lon="-9.96993">
        <ele>587.3</ele>
        <time>2012-05-10T14:01:08Z</time>
      </trkpt>
      <trkpt lat="28.57354" lon="-9.96999">
        <ele>586.1</ele>
        <time>2012-05-10T14:01:13Z</time>
      </trkpt>
      <trkpt lat="28.57335" lon="-9.97002">
        <ele>586.8</ele>
        <time>2012-05-10T14:01:18Z</time>
      </trkpt>
      <trkpt lat="28.57316" lon="-9.97007">
        <ele>587.1</ele>
        <time>2012-05-10T14:01:23Z</time>
      </trkpt>
      <trkpt lat="28.57297" lon="-9.97015">
        <ele>588.1</ele>
        <time>2012-05-10T14:01:28Z</time>
      </trkpt>
      <trkpt lat="28.57279" lon="-9.97028">
        <ele>589.2</ele>
        <time>2012-05-10T14:01:33Z</time>
      </trkpt>
      <trkpt lat="28.57261" lon="-9.97043">
        <ele>590.1</ele>
        <time>2012-05-10T14:01:38Z</time>
      </trkpt>
      <trkpt lat="28.57246" lon="-9.97061">
        <ele>590.6</ele>
        <time>2012-05-10T14:01:43Z</time>
      </trkpt>
      <trkpt lat="28.5723" lon="-9.97079">
        <ele>590.6</ele>
        <time>2012-05-10T14:01:48Z</time>
      </trkpt>
      <trkpt lat="28.57205" lon="-9.97104">
        <ele>590.7</ele>
        <time>2012-05-10T14:01:53Z</time>
      </trkpt>
      <trkpt lat="28.57188" lon="-9.97116">
        <ele>591.1</ele>
        <time>2012-05-10T14:01:58Z</time>
      </trkpt>
      <trkpt lat="28.5717" lon="-9.97125">
        <ele>591.3</ele>
        <time>2012-05-10T14:02:03Z</time>
      </trkpt>
      <trkpt lat="28.57152" lon="-9.97134">
        <ele>591.2</ele>
        <time>2012-05-10T14:02:08Z</time>
      </trkpt>
      <trkpt lat="28.57135" lon="-9.97147">
        <ele>590.3</ele>
        <time>2012-05-10T14:02:13Z</time>
      </trkpt>
      <trkpt lat="28.57119" lon="-9.97161">
        <ele>589.1</ele>
        <time>2012-05-10T14:02:18Z</time>
      </trkpt>
      <trkpt lat="28.57104" lon="-9.97176">
        <ele>587.7</ele>
        <time>2012-05-10T14:02:23Z</time>
      </trkpt>
      <trkpt lat="28.5709" lon="-9.97193">
        <ele>585.8</ele>
        <time>2012-05-10T14:02:28Z</time>
      </trkpt>
      <trkpt lat="28.57069" lon="-9.97219">
        <ele>583.7</ele>
        <time>2012-05-10T14:02:33Z</time>
      </trkpt>
      <trkpt lat="28.57052" lon="-9.97233">
        <ele>582.8</ele>
        <time>2012-05-10T14:02:38Z</time>
      </trkpt>
      <trkpt lat="28.57034" lon="-9.97249">
        <ele>581.6</ele>
        <time>2012-05-10T14:02:43Z</time>
      </trkpt>
      <trkpt lat="28.57009" lon="-9.97273">
        <ele>579.9</ele>
        <time>2012-05-10T14:02:48Z</time>
      </trkpt>
      <trkpt lat="28.56994" lon="-9.9729">
        <ele>578.8</ele>
        <time>2012-05-10T14:02:53Z</time>
      </trkpt>
      <trkpt lat="28.56976" lon="-9.97306">
        <ele>578</ele>
        <time>2012-05-10T14:02:58Z</time>
      </trkpt>
      <trkpt lat="28.56959" lon="-9.97322">
        <ele>577.2</ele>
        <time>2012-05-10T14:03:03Z</time>
      </trkpt>
      <trkpt lat="28.56943" lon="-9.97339">
        <ele>576.5</ele>
        <time>2012-05-10T14:03:08Z</time>
      </trkpt>
      <trkpt lat="28.56931" lon="-9.97358">
        <ele>575.8</ele>
        <time>2012-05-10T14:03:13Z</time>
      </trkpt>
      <trkpt lat="28.56918" lon="-9.97373">
        <ele>574.9</ele>
        <time>2012-05-10T14:03:18Z</time>
      </trkpt>
      <trkpt lat="28.56887" lon="-9.97399">
        <ele>573.4</ele>
        <time>2012-05-10T14:03:23Z</time>
      </trkpt>
      <trkpt lat="28.56863" lon="-9.97417">
        <ele>572.5</ele>
        <time>2012-05-10T14:03:28Z</time>
      </trkpt>
      <trkpt lat="28.56851" lon="-9.97433">
        <ele>570.8</ele>
        <time>2012-05-10T14:03:33Z</time>
      </trkpt>
      <trkpt lat="28.56839" lon="-9.97452">
        <ele>569.4</ele>
        <time>2012-05-10T14:03:38Z</time>
      </trkpt>
      <trkpt lat="28.56825" lon="-9.9747">
        <ele>568.4</ele>
        <time>2012-05-10T14:03:43Z</time>
      </trkpt>
      <trkpt lat="28.56803" lon="-9.97495">
        <ele>567.8</ele>
        <time>2012-05-10T14:03:48Z</time>
      </trkpt>
      <trkpt lat="28.56789" lon="-9.97513">
        <ele>566.5</ele>
        <time>2012-05-10T14:03:53Z</time>
      </trkpt>
      <trkpt lat="28.56759" lon="-9.9755">
        <ele>564.2</ele>
        <time>2012-05-10T14:03:58Z</time>
      </trkpt>
      <trkpt lat="28.56745" lon="-9.9757">
        <ele>563.5</ele>
        <time>2012-05-10T14:04:03Z</time>
      </trkpt>
      <trkpt lat="28.56725" lon="-9.976">
        <ele>562.4</ele>
        <time>2012-05-10T14:04:08Z</time>
      </trkpt>
      <trkpt lat="28.56713" lon="-9.9762">
        <ele>562.1</ele>
        <time>2012-05-10T14:04:13Z</time>
      </trkpt>
      <trkpt lat="28.56697" lon="-9.97636">
        <ele>561.4</ele>
        <time>2012-05-10T14:04:18Z</time>
      </trkpt>
      <trkpt lat="28.56679" lon="-9.9765">
        <ele>561.4</ele>
        <time>2012-05-10T14:04:23Z</time>
      </trkpt>
      <trkpt lat="28.56661" lon="-9.97668">
        <ele>560.8</ele>
        <time>2012-05-10T14:04:28Z</time>
      </trkpt>
      <trkpt lat="28.56646" lon="-9.97687">
        <ele>560</ele>
        <time>2012-05-10T14:04:33Z</time>
      </trkpt>
      <trkpt lat="28.56631" lon="-9.97707">
        <ele>559</ele>
        <time>2012-05-10T14:04:38Z</time>
      </trkpt>
      <trkpt lat="28.56618" lon="-9.97727">
        <ele>558.3</ele>
        <time>2012-05-10T14:04:43Z</time>
      </trkpt>
      <trkpt lat="28.56603" lon="-9.97744">
        <ele>557.3</ele>
        <time>2012-05-10T14:04:48Z</time>
      </trkpt>
      <trkpt lat="28.56579" lon="-9.9777">
        <ele>557.4</ele>
        <time>2012-05-10T14:04:53Z</time>
      </trkpt>
      <trkpt lat="28.56566" lon="-9.97788">
        <ele>557</ele>
        <time>2012-05-10T14:04:58Z</time>
      </trkpt>
      <trkpt lat="28.56552" lon="-9.97805">
        <ele>556.1</ele>
        <time>2012-05-10T14:05:03Z</time>
      </trkpt>
      <trkpt lat="28.56537" lon="-9.97819">
        <ele>555.4</ele>
        <time>2012-05-10T14:05:08Z</time>
      </trkpt>
      <trkpt lat="28.56521" lon="-9.9783">
        <ele>554.6</ele>
        <time>2012-05-10T14:05:13Z</time>
      </trkpt>
      <trkpt lat="28.56506" lon="-9.97844">
        <ele>553.5</ele>
        <time>2012-05-10T14:05:18Z</time>
      </trkpt>
      <trkpt lat="28.56494" lon="-9.97863">
        <ele>552.4</ele>
        <time>2012-05-10T14:05:23Z</time>
      </trkpt>
      <trkpt lat="28.5648" lon="-9.97882">
        <ele>551.3</ele>
        <time>2012-05-10T14:05:28Z</time>
      </trkpt>
      <trkpt lat="28.56465" lon="-9.97899">
        <ele>550.8</ele>
        <time>2012-05-10T14:05:33Z</time>
      </trkpt>
      <trkpt lat="28.56444" lon="-9.97915">
        <ele>550.1</ele>
        <time>2012-05-10T14:05:38Z</time>
      </trkpt>
      <trkpt lat="28.56422" lon="-9.97932">
        <ele>550.8</ele>
        <time>2012-05-10T14:05:43Z</time>
      </trkpt>
      <trkpt lat="28.56408" lon="-9.97945">
        <ele>549.9</ele>
        <time>2012-05-10T14:05:48Z</time>
      </trkpt>
      <trkpt lat="28.56394" lon="-9.97961">
        <ele>549.1</ele>
        <time>2012-05-10T14:05:53Z</time>
      </trkpt>
      <trkpt lat="28.5638" lon="-9.97979">
        <ele>548.5</ele>
        <time>2012-05-10T14:05:58Z</time>
      </trkpt>
      <trkpt lat="28.56359" lon="-9.98005">
        <ele>547.9</ele>
        <time>2012-05-10T14:06:03Z</time>
      </trkpt>
      <trkpt lat="28.56345" lon="-9.98021">
        <ele>547.8</ele>
        <time>2012-05-10T14:06:08Z</time>
      </trkpt>
      <trkpt lat="28.56332" lon="-9.98038">
        <ele>547.9</ele>
        <time>2012-05-10T14:06:13Z</time>
      </trkpt>
      <trkpt lat="28.56319" lon="-9.98055">
        <ele>546.9</ele>
        <time>2012-05-10T14:06:18Z</time>
      </trkpt>
      <trkpt lat="28.56302" lon="-9.98068">
        <ele>546.2</ele>
        <time>2012-05-10T14:06:23Z</time>
      </trkpt>
      <trkpt lat="28.56285" lon="-9.98081">
        <ele>546.4</ele>
        <time>2012-05-10T14:06:28Z</time>
      </trkpt>
      <trkpt lat="28.5627" lon="-9.98098">
        <ele>546.4</ele>
        <time>2012-05-10T14:06:33Z</time>
      </trkpt>
      <trkpt lat="28.56224" lon="-9.98154">
        <ele>545.6</ele>
        <time>2012-05-10T14:06:38Z</time>
      </trkpt>
      <trkpt lat="28.5621" lon="-9.98173">
        <ele>545.6</ele>
        <time>2012-05-10T14:06:43Z</time>
      </trkpt>
      <trkpt lat="28.56189" lon="-9.98202">
        <ele>545.1</ele>
        <time>2012-05-10T14:06:48Z</time>
      </trkpt>
      <trkpt lat="28.56174" lon="-9.9822">
        <ele>544.6</ele>
        <time>2012-05-10T14:06:53Z</time>
      </trkpt>
      <trkpt lat="28.56149" lon="-9.98246">
        <ele>543.7</ele>
        <time>2012-05-10T14:06:58Z</time>
      </trkpt>
      <trkpt lat="28.56131" lon="-9.98265">
        <ele>542.8</ele>
        <time>2012-05-10T14:07:03Z</time>
      </trkpt>
      <trkpt lat="28.56074" lon="-9.98331">
        <ele>541.7</ele>
        <time>2012-05-10T14:07:08Z</time>
      </trkpt>
      <trkpt lat="28.56058" lon="-9.98349">
        <ele>541.6</ele>
        <time>2012-05-10T14:07:13Z</time>
      </trkpt>
      <trkpt lat="28.5604" lon="-9.98367">
        <ele>541.4</ele>
        <time>2012-05-10T14:07:18Z</time>
      </trkpt>
      <trkpt lat="28.55907" lon="-9.98498">
        <ele>541.1</ele>
        <time>2012-05-10T14:07:23Z</time>
      </trkpt>
      <trkpt lat="28.5589" lon="-9.9852">
        <ele>540.6</ele>
        <time>2012-05-10T14:07:28Z</time>
      </trkpt>
      <trkpt lat="28.55838" lon="-9.98586">
        <ele>538.7</ele>
        <time>2012-05-10T14:07:33Z</time>
      </trkpt>
      <trkpt lat="28.55822" lon="-9.98604">
        <ele>538.6</ele>
        <time>2012-05-10T14:07:38Z</time>
      </trkpt>
      <trkpt lat="28.55805" lon="-9.9862">
        <ele>538.3</ele>
        <time>2012-05-10T14:07:43Z</time>
      </trkpt>
      <trkpt lat="28.55788" lon="-9.98636">
        <ele>537.7</ele>
        <time>2012-05-10T14:07:48Z</time>
      </trkpt>
      <trkpt lat="28.55772" lon="-9.98655">
        <ele>537.3</ele>
        <time>2012-05-10T14:07:53Z</time>
      </trkpt>
      <trkpt lat="28.55758" lon="-9.98678">
        <ele>537.5</ele>
        <time>2012-05-10T14:07:58Z</time>
      </trkpt>
      <trkpt lat="28.55738" lon="-9.98715">
        <ele>537.3</ele>
        <time>2012-05-10T14:08:03Z</time>
      </trkpt>
      <trkpt lat="28.55726" lon="-9.98743">
        <ele>536.9</ele>
        <time>2012-05-10T14:08:08Z</time>
      </trkpt>
      <trkpt lat="28.55709" lon="-9.98782">
        <ele>536</ele>
        <time>2012-05-10T14:08:13Z</time>
      </trkpt>
      <trkpt lat="28.55692" lon="-9.9882">
        <ele>535.5</ele>
        <time>2012-05-10T14:08:18Z</time>
      </trkpt>
      <trkpt lat="28.55669" lon="-9.9887">
        <ele>534.6</ele>
        <time>2012-05-10T14:08:23Z</time>
      </trkpt>
      <trkpt lat="28.5566" lon="-9.98897">
        <ele>534.5</ele>
        <time>2012-05-10T14:08:28Z</time>
      </trkpt>
      <trkpt lat="28.5565" lon="-9.98923">
        <ele>534</ele>
        <time>2012-05-10T14:08:33Z</time>
      </trkpt>
      <trkpt lat="28.55624" lon="-9.98987">
        <ele>532.3</ele>
        <time>2012-05-10T14:08:38Z</time>
      </trkpt>
      <trkpt lat="28.55604" lon="-9.99032">
        <ele>532.3</ele>
        <time>2012-05-10T14:08:43Z</time>
      </trkpt>
      <trkpt lat="28.55554" lon="-9.99133">
        <ele>532.5</ele>
        <time>2012-05-10T14:08:48Z</time>
      </trkpt>
      <trkpt lat="28.55501" lon="-9.99233">
        <ele>531.8</ele>
        <time>2012-05-10T14:08:53Z</time>
      </trkpt>
      <trkpt lat="28.55482" lon="-9.99266">
        <ele>531.5</ele>
        <time>2012-05-10T14:08:58Z</time>
      </trkpt>
      <trkpt lat="28.55464" lon="-9.993">
        <ele>531</ele>
        <time>2012-05-10T14:09:03Z</time>
      </trkpt>
      <trkpt lat="28.55454" lon="-9.99324">
        <ele>530.5</ele>
        <time>2012-05-10T14:09:08Z</time>
      </trkpt>
      <trkpt lat="28.5544" lon="-9.99357">
        <ele>530.1</ele>
        <time>2012-05-10T14:09:13Z</time>
      </trkpt>
      <trkpt lat="28.55426" lon="-9.99376">
        <ele>529.6</ele>
        <time>2012-05-10T14:09:18Z</time>
      </trkpt>
      <trkpt lat="28.55407" lon="-9.99391">
        <ele>529.2</ele>
        <time>2012-05-10T14:09:23Z</time>
      </trkpt>
      <trkpt lat="28.55368" lon="-9.99422">
        <ele>528.8</ele>
        <time>2012-05-10T14:09:28Z</time>
      </trkpt>
      <trkpt lat="28.5535" lon="-9.99438">
        <ele>528.3</ele>
        <time>2012-05-10T14:09:33Z</time>
      </trkpt>
      <trkpt lat="28.55322" lon="-9.99465">
        <ele>528.2</ele>
        <time>2012-05-10T14:09:38Z</time>
      </trkpt>
      <trkpt lat="28.55282" lon="-9.99502">
        <ele>528.4</ele>
        <time>2012-05-10T14:09:43Z</time>
      </trkpt>
      <trkpt lat="28.55202" lon="-9.99577">
        <ele>529.4</ele>
        <time>2012-05-10T14:09:48Z</time>
      </trkpt>
      <trkpt lat="28.55184" lon="-9.99593">
        <ele>529.5</ele>
        <time>2012-05-10T14:09:53Z</time>
      </trkpt>
      <trkpt lat="28.5517" lon="-9.99612">
        <ele>529.5</ele>
        <time>2012-05-10T14:09:58Z</time>
      </trkpt>
      <trkpt lat="28.55149" lon="-9.99639">
        <ele>529</ele>
        <time>2012-05-10T14:10:03Z</time>
      </trkpt>
      <trkpt lat="28.55131" lon="-9.99656">
        <ele>529.9</ele>
        <time>2012-05-10T14:10:08Z</time>
      </trkpt>
      <trkpt lat="28.55113" lon="-9.99674">
        <ele>531.1</ele>
        <time>2012-05-10T14:10:13Z</time>
      </trkpt>
      <trkpt lat="28.55095" lon="-9.99695">
        <ele>532.5</ele>
        <time>2012-05-10T14:10:18Z</time>
      </trkpt>
      <trkpt lat="28.55069" lon="-9.99725">
        <ele>534.9</ele>
        <time>2012-05-10T14:10:23Z</time>
      </trkpt>
      <trkpt lat="28.55052" lon="-9.99743">
        <ele>536.4</ele>
        <time>2012-05-10T14:10:28Z</time>
      </trkpt>
      <trkpt lat="28.55034" lon="-9.99759">
        <ele>537.4</ele>
        <time>2012-05-10T14:10:33Z</time>
      </trkpt>
      <trkpt lat="28.55018" lon="-9.99772">
        <ele>537.9</ele>
        <time>2012-05-10T14:10:38Z</time>
      </trkpt>
      <trkpt lat="28.55006" lon="-9.9979">
        <ele>537.7</ele>
        <time>2012-05-10T14:10:43Z</time>
      </trkpt>
      <trkpt lat="28.54982" lon="-9.99832">
        <ele>536.1</ele>
        <time>2012-05-10T14:10:48Z</time>
      </trkpt>
      <trkpt lat="28.54971" lon="-9.99853">
        <ele>535.3</ele>
        <time>2012-05-10T14:10:53Z</time>
      </trkpt>
      <trkpt lat="28.5495" lon="-9.99895">
        <ele>534.1</ele>
        <time>2012-05-10T14:10:58Z</time>
      </trkpt>
      <trkpt lat="28.54941" lon="-9.99918">
        <ele>533</ele>
        <time>2012-05-10T14:11:03Z</time>
      </trkpt>
      <trkpt lat="28.5493" lon="-9.99954">
        <ele>531</ele>
        <time>2012-05-10T14:11:08Z</time>
      </trkpt>
      <trkpt lat="28.54924" lon="-9.99979">
        <ele>529.3</ele>
        <time>2012-05-10T14:11:13Z</time>
      </trkpt>
      <trkpt lat="28.54921" lon="-10.00003">
        <ele>528.2</ele>
        <time>2012-05-10T14:11:18Z</time>
      </trkpt>
      <trkpt lat="28.54922" lon="-10.00028">
        <ele>527.6</ele>
        <time>2012-05-10T14:11:23Z</time>
      </trkpt>
      <trkpt lat="28.54922" lon="-10.00063">
        <ele>527.2</ele>
        <time>2012-05-10T14:11:28Z</time>
      </trkpt>
      <trkpt lat="28.54919" lon="-10.00098">
        <ele>526.1</ele>
        <time>2012-05-10T14:11:33Z</time>
      </trkpt>
      <trkpt lat="28.54912" lon="-10.00143">
        <ele>524.6</ele>
        <time>2012-05-10T14:11:38Z</time>
      </trkpt>
      <trkpt lat="28.54898" lon="-10.00202">
        <ele>525.8</ele>
        <time>2012-05-10T14:11:43Z</time>
      </trkpt>
      <trkpt lat="28.54892" lon="-10.00224">
        <ele>525.7</ele>
        <time>2012-05-10T14:11:48Z</time>
      </trkpt>
      <trkpt lat="28.54876" lon="-10.00272">
        <ele>525.8</ele>
        <time>2012-05-10T14:11:53Z</time>
      </trkpt>
      <trkpt lat="28.54853" lon="-10.00331">
        <ele>527.5</ele>
        <time>2012-05-10T14:11:58Z</time>
      </trkpt>
      <trkpt lat="28.54843" lon="-10.00348">
        <ele>527.4</ele>
        <time>2012-05-10T14:12:03Z</time>
      </trkpt>
      <trkpt lat="28.54826" lon="-10.00372">
        <ele>526.9</ele>
        <time>2012-05-10T14:12:08Z</time>
      </trkpt>
      <trkpt lat="28.54742" lon="-10.00489">
        <ele>528.8</ele>
        <time>2012-05-10T14:12:13Z</time>
      </trkpt>
      <trkpt lat="28.54715" lon="-10.00526">
        <ele>528.8</ele>
        <time>2012-05-10T14:12:18Z</time>
      </trkpt>
      <trkpt lat="28.54649" lon="-10.00618">
        <ele>529.2</ele>
        <time>2012-05-10T14:12:23Z</time>
      </trkpt>
      <trkpt lat="28.54637" lon="-10.00634">
        <ele>529.6</ele>
        <time>2012-05-10T14:12:28Z</time>
      </trkpt>
      <trkpt lat="28.54626" lon="-10.00661">
        <ele>530.9</ele>
        <time>2012-05-10T14:12:33Z</time>
      </trkpt>
      <trkpt lat="28.54617" lon="-10.0068">
        <ele>531.7</ele>
        <time>2012-05-10T14:12:38Z</time>
      </trkpt>
      <trkpt lat="28.54606" lon="-10.00698">
        <ele>532.1</ele>
        <time>2012-05-10T14:12:43Z</time>
      </trkpt>
      <trkpt lat="28.54594" lon="-10.00715">
        <ele>532.5</ele>
        <time>2012-05-10T14:12:48Z</time>
      </trkpt>
      <trkpt lat="28.54581" lon="-10.00732">
        <ele>533.2</ele>
        <time>2012-05-10T14:12:53Z</time>
      </trkpt>
      <trkpt lat="28.54565" lon="-10.00755">
        <ele>534.3</ele>
        <time>2012-05-10T14:12:58Z</time>
      </trkpt>
      <trkpt lat="28.54549" lon="-10.00776">
        <ele>535</ele>
        <time>2012-05-10T14:13:03Z</time>
      </trkpt>
      <trkpt lat="28.54533" lon="-10.00791">
        <ele>535.4</ele>
        <time>2012-05-10T14:13:08Z</time>
      </trkpt>
      <trkpt lat="28.54517" lon="-10.00805">
        <ele>536.7</ele>
        <time>2012-05-10T14:13:13Z</time>
      </trkpt>
      <trkpt lat="28.54505" lon="-10.00823">
        <ele>537.6</ele>
        <time>2012-05-10T14:13:18Z</time>
      </trkpt>
      <trkpt lat="28.5449" lon="-10.00839">
        <ele>537.8</ele>
        <time>2012-05-10T14:13:23Z</time>
      </trkpt>
      <trkpt lat="28.54472" lon="-10.00852">
        <ele>537.1</ele>
        <time>2012-05-10T14:13:28Z</time>
      </trkpt>
      <trkpt lat="28.54455" lon="-10.00867">
        <ele>535.9</ele>
        <time>2012-05-10T14:13:33Z</time>
      </trkpt>
      <trkpt lat="28.54441" lon="-10.00885">
        <ele>534.3</ele>
        <time>2012-05-10T14:13:38Z</time>
      </trkpt>
      <trkpt lat="28.54427" lon="-10.00902">
        <ele>533.5</ele>
        <time>2012-05-10T14:13:43Z</time>
      </trkpt>
      <trkpt lat="28.54414" lon="-10.00918">
        <ele>532.7</ele>
        <time>2012-05-10T14:13:48Z</time>
      </trkpt>
      <trkpt lat="28.54398" lon="-10.00939">
        <ele>531.7</ele>
        <time>2012-05-10T14:13:53Z</time>
      </trkpt>
      <trkpt lat="28.54382" lon="-10.00959">
        <ele>530.3</ele>
        <time>2012-05-10T14:13:58Z</time>
      </trkpt>
      <trkpt lat="28.54367" lon="-10.00981">
        <ele>529.4</ele>
        <time>2012-05-10T14:14:03Z</time>
      </trkpt>
      <trkpt lat="28.54349" lon="-10.01">
        <ele>528</ele>
        <time>2012-05-10T14:14:08Z</time>
      </trkpt>
      <trkpt lat="28.54333" lon="-10.01021">
        <ele>527.2</ele>
        <time>2012-05-10T14:14:13Z</time>
      </trkpt>
      <trkpt lat="28.54318" lon="-10.01042">
        <ele>526.3</ele>
        <time>2012-05-10T14:14:18Z</time>
      </trkpt>
      <trkpt lat="28.54302" lon="-10.0106">
        <ele>525.7</ele>
        <time>2012-05-10T14:14:23Z</time>
      </trkpt>
      <trkpt lat="28.54286" lon="-10.0108">
        <ele>524.7</ele>
        <time>2012-05-10T14:14:28Z</time>
      </trkpt>
      <trkpt lat="28.54273" lon="-10.01102">
        <ele>524.2</ele>
        <time>2012-05-10T14:14:33Z</time>
      </trkpt>
      <trkpt lat="28.54263" lon="-10.01124">
        <ele>524.2</ele>
        <time>2012-05-10T14:14:38Z</time>
      </trkpt>
      <trkpt lat="28.54253" lon="-10.01142">
        <ele>523.5</ele>
        <time>2012-05-10T14:14:43Z</time>
      </trkpt>
      <trkpt lat="28.54243" lon="-10.01161">
        <ele>523.2</ele>
        <time>2012-05-10T14:14:48Z</time>
      </trkpt>
      <trkpt lat="28.54232" lon="-10.0118">
        <ele>522.8</ele>
        <time>2012-05-10T14:14:53Z</time>
      </trkpt>
      <trkpt lat="28.5422" lon="-10.01198">
        <ele>523.3</ele>
        <time>2012-05-10T14:14:58Z</time>
      </trkpt>
      <trkpt lat="28.54207" lon="-10.01218">
        <ele>524.8</ele>
        <time>2012-05-10T14:15:03Z</time>
      </trkpt>
      <trkpt lat="28.54194" lon="-10.01236">
        <ele>525.2</ele>
        <time>2012-05-10T14:15:08Z</time>
      </trkpt>
      <trkpt lat="28.54173" lon="-10.01242">
        <ele>526.3</ele>
        <time>2012-05-10T14:15:13Z</time>
      </trkpt>
      <trkpt lat="28.54154" lon="-10.01243">
        <ele>527.4</ele>
        <time>2012-05-10T14:15:18Z</time>
      </trkpt>
      <trkpt lat="28.54136" lon="-10.0125">
        <ele>528.4</ele>
        <time>2012-05-10T14:15:23Z</time>
      </trkpt>
      <trkpt lat="28.54119" lon="-10.01258">
        <ele>527.6</ele>
        <time>2012-05-10T14:15:28Z</time>
      </trkpt>
      <trkpt lat="28.54102" lon="-10.01265">
        <ele>528.1</ele>
        <time>2012-05-10T14:15:33Z</time>
      </trkpt>
      <trkpt lat="28.54098" lon="-10.01285">
        <ele>527.7</ele>
        <time>2012-05-10T14:15:38Z</time>
      </trkpt>
      <trkpt lat="28.54102" lon="-10.01306">
        <ele>526.9</ele>
        <time>2012-05-10T14:15:43Z</time>
      </trkpt>
      <trkpt lat="28.54099" lon="-10.01326">
        <ele>525.3</ele>
        <time>2012-05-10T14:15:48Z</time>
      </trkpt>
      <trkpt lat="28.54088" lon="-10.01346">
        <ele>523.8</ele>
        <time>2012-05-10T14:15:53Z</time>
      </trkpt>
      <trkpt lat="28.54082" lon="-10.0137">
        <ele>522.2</ele>
        <time>2012-05-10T14:15:58Z</time>
      </trkpt>
      <trkpt lat="28.54075" lon="-10.01398">
        <ele>520.4</ele>
        <time>2012-05-10T14:16:03Z</time>
      </trkpt>
      <trkpt lat="28.54055" lon="-10.01472">
        <ele>516.3</ele>
        <time>2012-05-10T14:16:08Z</time>
      </trkpt>
      <trkpt lat="28.54047" lon="-10.01508">
        <ele>514.8</ele>
        <time>2012-05-10T14:16:13Z</time>
      </trkpt>
      <trkpt lat="28.54032" lon="-10.01552">
        <ele>511.6</ele>
        <time>2012-05-10T14:16:18Z</time>
      </trkpt>
      <trkpt lat="28.54004" lon="-10.01627">
        <ele>507.1</ele>
        <time>2012-05-10T14:16:23Z</time>
      </trkpt>
      <trkpt lat="28.53993" lon="-10.01652">
        <ele>506.5</ele>
        <time>2012-05-10T14:16:28Z</time>
      </trkpt>
      <trkpt lat="28.53958" lon="-10.01735">
        <ele>502.1</ele>
        <time>2012-05-10T14:16:33Z</time>
      </trkpt>
      <trkpt lat="28.53934" lon="-10.01796">
        <ele>499.2</ele>
        <time>2012-05-10T14:16:38Z</time>
      </trkpt>
      <trkpt lat="28.53895" lon="-10.0189">
        <ele>498.3</ele>
        <time>2012-05-10T14:16:43Z</time>
      </trkpt>
      <trkpt lat="28.53886" lon="-10.01919">
        <ele>498.6</ele>
        <time>2012-05-10T14:16:48Z</time>
      </trkpt>
      <trkpt lat="28.53882" lon="-10.01946">
        <ele>498.4</ele>
        <time>2012-05-10T14:16:53Z</time>
      </trkpt>
      <trkpt lat="28.53883" lon="-10.01961">
        <ele>499.7</ele>
        <time>2012-05-10T14:16:58Z</time>
      </trkpt>
      <trkpt lat="28.53884" lon="-10.01939">
        <ele>500.2</ele>
        <time>2012-05-10T14:17:03Z</time>
      </trkpt>
      <trkpt lat="28.53882" lon="-10.01927">
        <ele>499.7</ele>
        <time>2012-05-10T14:17:08Z</time>
      </trkpt>
      <trkpt lat="28.5387" lon="-10.01942">
        <ele>498</ele>
        <time>2012-05-10T14:17:13Z</time>
      </trkpt>
      <trkpt lat="28.53864" lon="-10.01968">
        <ele>495.9</ele>
        <time>2012-05-10T14:17:18Z</time>
      </trkpt>
      <trkpt lat="28.53869" lon="-10.01993">
        <ele>495.2</ele>
        <time>2012-05-10T14:17:23Z</time>
      </trkpt>
      <trkpt lat="28.53874" lon="-10.02015">
        <ele>494.6</ele>
        <time>2012-05-10T14:17:28Z</time>
      </trkpt>
      <trkpt lat="28.53878" lon="-10.02035">
        <ele>495</ele>
        <time>2012-05-10T14:17:33Z</time>
      </trkpt>
      <trkpt lat="28.53881" lon="-10.02056">
        <ele>495.5</ele>
        <time>2012-05-10T14:17:38Z</time>
      </trkpt>
      <trkpt lat="28.53875" lon="-10.02077">
        <ele>495.7</ele>
        <time>2012-05-10T14:17:43Z</time>
      </trkpt>
      <trkpt lat="28.53874" lon="-10.021">
        <ele>496.2</ele>
        <time>2012-05-10T14:17:48Z</time>
      </trkpt>
      <trkpt lat="28.53883" lon="-10.02118">
        <ele>496.7</ele>
        <time>2012-05-10T14:17:53Z</time>
      </trkpt>
      <trkpt lat="28.53899" lon="-10.02137">
        <ele>498.7</ele>
        <time>2012-05-10T14:17:58Z</time>
      </trkpt>
      <trkpt lat="28.53915" lon="-10.02146">
        <ele>500.4</ele>
        <time>2012-05-10T14:18:03Z</time>
      </trkpt>
      <trkpt lat="28.53929" lon="-10.02151">
        <ele>502.9</ele>
        <time>2012-05-10T14:18:08Z</time>
      </trkpt>
      <trkpt lat="28.53946" lon="-10.02143">
        <ele>502</ele>
        <time>2012-05-10T14:18:13Z</time>
      </trkpt>
      <trkpt lat="28.53964" lon="-10.02136">
        <ele>503.5</ele>
        <time>2012-05-10T14:18:18Z</time>
      </trkpt>
      <trkpt lat="28.5398" lon="-10.02149">
        <ele>504.5</ele>
        <time>2012-05-10T14:18:23Z</time>
      </trkpt>
      <trkpt lat="28.53995" lon="-10.02163">
        <ele>505.9</ele>
        <time>2012-05-10T14:18:28Z</time>
      </trkpt>
      <trkpt lat="28.54012" lon="-10.02175">
        <ele>507.2</ele>
        <time>2012-05-10T14:18:33Z</time>
      </trkpt>
      <trkpt lat="28.54034" lon="-10.02189">
        <ele>507.9</ele>
        <time>2012-05-10T14:18:38Z</time>
      </trkpt>
      <trkpt lat="28.54051" lon="-10.02207">
        <ele>508.3</ele>
        <time>2012-05-10T14:18:43Z</time>
      </trkpt>
      <trkpt lat="28.5409" lon="-10.02247">
        <ele>510.3</ele>
        <time>2012-05-10T14:18:48Z</time>
      </trkpt>
      <trkpt lat="28.54125" lon="-10.02284">
        <ele>509</ele>
        <time>2012-05-10T14:18:53Z</time>
      </trkpt>
      <trkpt lat="28.54141" lon="-10.02306">
        <ele>507.7</ele>
        <time>2012-05-10T14:18:58Z</time>
      </trkpt>
      <trkpt lat="28.54155" lon="-10.02324">
        <ele>506</ele>
        <time>2012-05-10T14:19:03Z</time>
      </trkpt>
      <trkpt lat="28.54176" lon="-10.02348">
        <ele>505.6</ele>
        <time>2012-05-10T14:19:08Z</time>
      </trkpt>
      <trkpt lat="28.54182" lon="-10.02371">
        <ele>505.4</ele>
        <time>2012-05-10T14:19:13Z</time>
      </trkpt>
      <trkpt lat="28.5417" lon="-10.02395">
        <ele>504.9</ele>
        <time>2012-05-10T14:19:18Z</time>
      </trkpt>
      <trkpt lat="28.54156" lon="-10.02412">
        <ele>504</ele>
        <time>2012-05-10T14:19:23Z</time>
      </trkpt>
      <trkpt lat="28.54147" lon="-10.02433">
        <ele>504.8</ele>
        <time>2012-05-10T14:19:28Z</time>
      </trkpt>
      <trkpt lat="28.5413" lon="-10.02451">
        <ele>505</ele>
        <time>2012-05-10T14:19:33Z</time>
      </trkpt>
      <trkpt lat="28.54113" lon="-10.02471">
        <ele>505.4</ele>
        <time>2012-05-10T14:19:38Z</time>
      </trkpt>
      <trkpt lat="28.54101" lon="-10.02498">
        <ele>506.3</ele>
        <time>2012-05-10T14:19:43Z</time>
      </trkpt>
      <trkpt lat="28.5409" lon="-10.02529">
        <ele>506</ele>
        <time>2012-05-10T14:19:48Z</time>
      </trkpt>
      <trkpt lat="28.5406" lon="-10.02615">
        <ele>505.5</ele>
        <time>2012-05-10T14:19:53Z</time>
      </trkpt>
      <trkpt lat="28.54047" lon="-10.02657">
        <ele>505.9</ele>
        <time>2012-05-10T14:19:58Z</time>
      </trkpt>
      <trkpt lat="28.54038" lon="-10.02678">
        <ele>506.3</ele>
        <time>2012-05-10T14:20:03Z</time>
      </trkpt>
      <trkpt lat="28.54002" lon="-10.02755">
        <ele>507.7</ele>
        <time>2012-05-10T14:20:08Z</time>
      </trkpt>
      <trkpt lat="28.53969" lon="-10.02833">
        <ele>508.3</ele>
        <time>2012-05-10T14:20:13Z</time>
      </trkpt>
      <trkpt lat="28.53955" lon="-10.02872">
        <ele>507.7</ele>
        <time>2012-05-10T14:20:18Z</time>
      </trkpt>
      <trkpt lat="28.53946" lon="-10.02898">
        <ele>507.5</ele>
        <time>2012-05-10T14:20:23Z</time>
      </trkpt>
      <trkpt lat="28.5393" lon="-10.0292">
        <ele>507.4</ele>
        <time>2012-05-10T14:20:28Z</time>
      </trkpt>
      <trkpt lat="28.53918" lon="-10.02935">
        <ele>507.7</ele>
        <time>2012-05-10T14:20:33Z</time>
      </trkpt>
      <trkpt lat="28.53904" lon="-10.02948">
        <ele>508.4</ele>
        <time>2012-05-10T14:20:38Z</time>
      </trkpt>
      <trkpt lat="28.53885" lon="-10.0297">
        <ele>509</ele>
        <time>2012-05-10T14:20:43Z</time>
      </trkpt>
      <trkpt lat="28.53878" lon="-10.02991">
        <ele>509.4</ele>
        <time>2012-05-10T14:20:48Z</time>
      </trkpt>
      <trkpt lat="28.5387" lon="-10.03012">
        <ele>509.8</ele>
        <time>2012-05-10T14:20:53Z</time>
      </trkpt>
      <trkpt lat="28.53864" lon="-10.03032">
        <ele>510.3</ele>
        <time>2012-05-10T14:20:58Z</time>
      </trkpt>
      <trkpt lat="28.53859" lon="-10.03061">
        <ele>510.3</ele>
        <time>2012-05-10T14:21:03Z</time>
      </trkpt>
      <trkpt lat="28.53847" lon="-10.03129">
        <ele>511.7</ele>
        <time>2012-05-10T14:21:08Z</time>
      </trkpt>
      <trkpt lat="28.53845" lon="-10.03153">
        <ele>511.9</ele>
        <time>2012-05-10T14:21:13Z</time>
      </trkpt>
      <trkpt lat="28.53843" lon="-10.03175">
        <ele>512.5</ele>
        <time>2012-05-10T14:21:18Z</time>
      </trkpt>
      <trkpt lat="28.53831" lon="-10.03201">
        <ele>513.6</ele>
        <time>2012-05-10T14:21:23Z</time>
      </trkpt>
      <trkpt lat="28.53716" lon="-10.03439">
        <ele>520.9</ele>
        <time>2012-05-10T14:21:28Z</time>
      </trkpt>
      <trkpt lat="28.53705" lon="-10.03462">
        <ele>521.4</ele>
        <time>2012-05-10T14:21:33Z</time>
      </trkpt>
      <trkpt lat="28.53686" lon="-10.03508">
        <ele>522.6</ele>
        <time>2012-05-10T14:21:38Z</time>
      </trkpt>
      <trkpt lat="28.53651" lon="-10.03603">
        <ele>523.8</ele>
        <time>2012-05-10T14:21:43Z</time>
      </trkpt>
      <trkpt lat="28.53612" lon="-10.03714">
        <ele>522.2</ele>
        <time>2012-05-10T14:21:48Z</time>
      </trkpt>
      <trkpt lat="28.53605" lon="-10.03734">
        <ele>522.2</ele>
        <time>2012-05-10T14:21:53Z</time>
      </trkpt>
      <trkpt lat="28.53597" lon="-10.03756">
        <ele>522.1</ele>
        <time>2012-05-10T14:21:58Z</time>
      </trkpt>
      <trkpt lat="28.53581" lon="-10.03801">
        <ele>521.8</ele>
        <time>2012-05-10T14:22:03Z</time>
      </trkpt>
      <trkpt lat="28.53572" lon="-10.03821">
        <ele>521.7</ele>
        <time>2012-05-10T14:22:08Z</time>
      </trkpt>
      <trkpt lat="28.53564" lon="-10.03844">
        <ele>522</ele>
        <time>2012-05-10T14:22:13Z</time>
      </trkpt>
      <trkpt lat="28.53557" lon="-10.0387">
        <ele>522.2</ele>
        <time>2012-05-10T14:22:18Z</time>
      </trkpt>
      <trkpt lat="28.5354" lon="-10.03918">
        <ele>522</ele>
        <time>2012-05-10T14:22:23Z</time>
      </trkpt>
      <trkpt lat="28.53526" lon="-10.0396">
        <ele>522.8</ele>
        <time>2012-05-10T14:22:28Z</time>
      </trkpt>
      <trkpt lat="28.53498" lon="-10.04041">
        <ele>526.3</ele>
        <time>2012-05-10T14:22:33Z</time>
      </trkpt>
      <trkpt lat="28.53485" lon="-10.04077">
        <ele>527.5</ele>
        <time>2012-05-10T14:22:38Z</time>
      </trkpt>
      <trkpt lat="28.53475" lon="-10.04104">
        <ele>527.5</ele>
        <time>2012-05-10T14:22:43Z</time>
      </trkpt>
      <trkpt lat="28.5347" lon="-10.04124">
        <ele>527</ele>
        <time>2012-05-10T14:22:48Z</time>
      </trkpt>
      <trkpt lat="28.53459" lon="-10.0415">
        <ele>527.2</ele>
        <time>2012-05-10T14:22:53Z</time>
      </trkpt>
      <trkpt lat="28.53446" lon="-10.04186">
        <ele>527.6</ele>
        <time>2012-05-10T14:22:58Z</time>
      </trkpt>
      <trkpt lat="28.53432" lon="-10.0423">
        <ele>527.8</ele>
        <time>2012-05-10T14:23:03Z</time>
      </trkpt>
      <trkpt lat="28.53422" lon="-10.04253">
        <ele>527.9</ele>
        <time>2012-05-10T14:23:08Z</time>
      </trkpt>
      <trkpt lat="28.53413" lon="-10.04279">
        <ele>527.5</ele>
        <time>2012-05-10T14:23:13Z</time>
      </trkpt>
      <trkpt lat="28.53385" lon="-10.04363">
        <ele>522.1</ele>
        <time>2012-05-10T14:23:18Z</time>
      </trkpt>
      <trkpt lat="28.53375" lon="-10.0438">
        <ele>521.2</ele>
        <time>2012-05-10T14:23:23Z</time>
      </trkpt>
      <trkpt lat="28.53361" lon="-10.04394">
        <ele>520.7</ele>
        <time>2012-05-10T14:23:28Z</time>
      </trkpt>
      <trkpt lat="28.53353" lon="-10.04416">
        <ele>521.1</ele>
        <time>2012-05-10T14:23:33Z</time>
      </trkpt>
      <trkpt lat="28.53337" lon="-10.04458">
        <ele>519.4</ele>
        <time>2012-05-10T14:23:38Z</time>
      </trkpt>
      <trkpt lat="28.53328" lon="-10.04485">
        <ele>517.3</ele>
        <time>2012-05-10T14:23:43Z</time>
      </trkpt>
      <trkpt lat="28.53319" lon="-10.04513">
        <ele>515.7</ele>
        <time>2012-05-10T14:23:48Z</time>
      </trkpt>
      <trkpt lat="28.53305" lon="-10.04552">
        <ele>515.9</ele>
        <time>2012-05-10T14:23:53Z</time>
      </trkpt>
      <trkpt lat="28.53294" lon="-10.04578">
        <ele>515</ele>
        <time>2012-05-10T14:23:58Z</time>
      </trkpt>
      <trkpt lat="28.53288" lon="-10.04606">
        <ele>513.4</ele>
        <time>2012-05-10T14:24:03Z</time>
      </trkpt>
      <trkpt lat="28.53287" lon="-10.04628">
        <ele>511.3</ele>
        <time>2012-05-10T14:24:08Z</time>
      </trkpt>
      <trkpt lat="28.53286" lon="-10.0465">
        <ele>510</ele>
        <time>2012-05-10T14:24:13Z</time>
      </trkpt>
      <trkpt lat="28.53284" lon="-10.04673">
        <ele>508.3</ele>
        <time>2012-05-10T14:24:18Z</time>
      </trkpt>
      <trkpt lat="28.53281" lon="-10.04696">
        <ele>507</ele>
        <time>2012-05-10T14:24:23Z</time>
      </trkpt>
      <trkpt lat="28.53277" lon="-10.0473">
        <ele>504.7</ele>
        <time>2012-05-10T14:24:28Z</time>
      </trkpt>
      <trkpt lat="28.53272" lon="-10.04784">
        <ele>502.9</ele>
        <time>2012-05-10T14:24:33Z</time>
      </trkpt>
      <trkpt lat="28.53265" lon="-10.04803">
        <ele>503</ele>
        <time>2012-05-10T14:24:38Z</time>
      </trkpt>
      <trkpt lat="28.53258" lon="-10.04822">
        <ele>503.2</ele>
        <time>2012-05-10T14:24:43Z</time>
      </trkpt>
      <trkpt lat="28.53241" lon="-10.04857">
        <ele>504.1</ele>
        <time>2012-05-10T14:24:48Z</time>
      </trkpt>
      <trkpt lat="28.53236" lon="-10.04885">
        <ele>505</ele>
        <time>2012-05-10T14:24:53Z</time>
      </trkpt>
      <trkpt lat="28.53232" lon="-10.04909">
        <ele>505</ele>
        <time>2012-05-10T14:24:58Z</time>
      </trkpt>
      <trkpt lat="28.53228" lon="-10.04934">
        <ele>504.4</ele>
        <time>2012-05-10T14:25:03Z</time>
      </trkpt>
      <trkpt lat="28.5323" lon="-10.04956">
        <ele>503.4</ele>
        <time>2012-05-10T14:25:08Z</time>
      </trkpt>
      <trkpt lat="28.53228" lon="-10.04978">
        <ele>504.6</ele>
        <time>2012-05-10T14:25:13Z</time>
      </trkpt>
      <trkpt lat="28.5322" lon="-10.04999">
        <ele>505.9</ele>
        <time>2012-05-10T14:25:18Z</time>
      </trkpt>
      <trkpt lat="28.53211" lon="-10.05019">
        <ele>506.2</ele>
        <time>2012-05-10T14:25:23Z</time>
      </trkpt>
      <trkpt lat="28.53204" lon="-10.05042">
        <ele>507</ele>
        <time>2012-05-10T14:25:28Z</time>
      </trkpt>
      <trkpt lat="28.53197" lon="-10.05065">
        <ele>507.7</ele>
        <time>2012-05-10T14:25:33Z</time>
      </trkpt>
      <trkpt lat="28.53193" lon="-10.05086">
        <ele>507.5</ele>
        <time>2012-05-10T14:25:38Z</time>
      </trkpt>
      <trkpt lat="28.53181" lon="-10.05098">
        <ele>507.4</ele>
        <time>2012-05-10T14:25:43Z</time>
      </trkpt>
      <trkpt lat="28.53171" lon="-10.05082">
        <ele>506.5</ele>
        <time>2012-05-10T14:25:48Z</time>
      </trkpt>
      <trkpt lat="28.5315" lon="-10.05088">
        <ele>505.9</ele>
        <time>2012-05-10T14:25:53Z</time>
      </trkpt>
      <trkpt lat="28.53142" lon="-10.05109">
        <ele>505</ele>
        <time>2012-05-10T14:25:58Z</time>
      </trkpt>
      <trkpt lat="28.53141" lon="-10.05133">
        <ele>503.4</ele>
        <time>2012-05-10T14:26:03Z</time>
      </trkpt>
      <trkpt lat="28.5314" lon="-10.05159">
        <ele>503.6</ele>
        <time>2012-05-10T14:26:08Z</time>
      </trkpt>
      <trkpt lat="28.53135" lon="-10.05179">
        <ele>505.5</ele>
        <time>2012-05-10T14:26:13Z</time>
      </trkpt>
      <trkpt lat="28.53122" lon="-10.05196">
        <ele>506.2</ele>
        <time>2012-05-10T14:26:18Z</time>
      </trkpt>
      <trkpt lat="28.53112" lon="-10.05216">
        <ele>506.4</ele>
        <time>2012-05-10T14:26:23Z</time>
      </trkpt>
      <trkpt lat="28.53108" lon="-10.05241">
        <ele>507.2</ele>
        <time>2012-05-10T14:26:28Z</time>
      </trkpt>
      <trkpt lat="28.53103" lon="-10.05274">
        <ele>506.3</ele>
        <time>2012-05-10T14:26:33Z</time>
      </trkpt>
      <trkpt lat="28.53097" lon="-10.053">
        <ele>505</ele>
        <time>2012-05-10T14:26:38Z</time>
      </trkpt>
      <trkpt lat="28.53092" lon="-10.05324">
        <ele>503.8</ele>
        <time>2012-05-10T14:26:43Z</time>
      </trkpt>
      <trkpt lat="28.53092" lon="-10.05346">
        <ele>503.2</ele>
        <time>2012-05-10T14:26:48Z</time>
      </trkpt>
      <trkpt lat="28.53095" lon="-10.05375">
        <ele>502.6</ele>
        <time>2012-05-10T14:26:53Z</time>
      </trkpt>
      <trkpt lat="28.53102" lon="-10.05399">
        <ele>502.1</ele>
        <time>2012-05-10T14:26:58Z</time>
      </trkpt>
      <trkpt lat="28.53094" lon="-10.0542">
        <ele>503</ele>
        <time>2012-05-10T14:27:03Z</time>
      </trkpt>
      <trkpt lat="28.53087" lon="-10.05443">
        <ele>505.9</ele>
        <time>2012-05-10T14:27:08Z</time>
      </trkpt>
      <trkpt lat="28.53081" lon="-10.05469">
        <ele>508.2</ele>
        <time>2012-05-10T14:27:13Z</time>
      </trkpt>
      <trkpt lat="28.53075" lon="-10.0549">
        <ele>509.6</ele>
        <time>2012-05-10T14:27:18Z</time>
      </trkpt>
      <trkpt lat="28.53066" lon="-10.05514">
        <ele>510.9</ele>
        <time>2012-05-10T14:27:23Z</time>
      </trkpt>
      <trkpt lat="28.5306" lon="-10.05534">
        <ele>512.2</ele>
        <time>2012-05-10T14:27:28Z</time>
      </trkpt>
      <trkpt lat="28.53052" lon="-10.05556">
        <ele>513.2</ele>
        <time>2012-05-10T14:27:33Z</time>
      </trkpt>
      <trkpt lat="28.53041" lon="-10.05575">
        <ele>512.5</ele>
        <time>2012-05-10T14:27:38Z</time>
      </trkpt>
      <trkpt lat="28.5303" lon="-10.05598">
        <ele>511</ele>
        <time>2012-05-10T14:27:43Z</time>
      </trkpt>
      <trkpt lat="28.5302" lon="-10.05617">
        <ele>509.8</ele>
        <time>2012-05-10T14:27:48Z</time>
      </trkpt>
      <trkpt lat="28.53009" lon="-10.05634">
        <ele>508.3</ele>
        <time>2012-05-10T14:27:53Z</time>
      </trkpt>
      <trkpt lat="28.52997" lon="-10.05653">
        <ele>508.3</ele>
        <time>2012-05-10T14:27:58Z</time>
      </trkpt>
      <trkpt lat="28.52991" lon="-10.05675">
        <ele>509.6</ele>
        <time>2012-05-10T14:28:03Z</time>
      </trkpt>
      <trkpt lat="28.52984" lon="-10.05707">
        <ele>510.9</ele>
        <time>2012-05-10T14:28:08Z</time>
      </trkpt>
      <trkpt lat="28.5298" lon="-10.05728">
        <ele>511.7</ele>
        <time>2012-05-10T14:28:13Z</time>
      </trkpt>
      <trkpt lat="28.52977" lon="-10.05759">
        <ele>512.2</ele>
        <time>2012-05-10T14:28:18Z</time>
      </trkpt>
      <trkpt lat="28.52977" lon="-10.05785">
        <ele>512.5</ele>
        <time>2012-05-10T14:28:23Z</time>
      </trkpt>
      <trkpt lat="28.52978" lon="-10.05832">
        <ele>512.9</ele>
        <time>2012-05-10T14:28:28Z</time>
      </trkpt>
      <trkpt lat="28.52977" lon="-10.05854">
        <ele>513.5</ele>
        <time>2012-05-10T14:28:33Z</time>
      </trkpt>
      <trkpt lat="28.52977" lon="-10.05876">
        <ele>514.1</ele>
        <time>2012-05-10T14:28:38Z</time>
      </trkpt>
      <trkpt lat="28.52977" lon="-10.05897">
        <ele>514</ele>
        <time>2012-05-10T14:28:43Z</time>
      </trkpt>
      <trkpt lat="28.52976" lon="-10.05924">
        <ele>514.1</ele>
        <time>2012-05-10T14:28:48Z</time>
      </trkpt>
      <trkpt lat="28.52977" lon="-10.05949">
        <ele>514.4</ele>
        <time>2012-05-10T14:28:53Z</time>
      </trkpt>
      <trkpt lat="28.52978" lon="-10.05971">
        <ele>514.7</ele>
        <time>2012-05-10T14:28:58Z</time>
      </trkpt>
      <trkpt lat="28.52978" lon="-10.05995">
        <ele>514.9</ele>
        <time>2012-05-10T14:29:03Z</time>
      </trkpt>
      <trkpt lat="28.52979" lon="-10.06016">
        <ele>515</ele>
        <time>2012-05-10T14:29:08Z</time>
      </trkpt>
      <trkpt lat="28.52983" lon="-10.06039">
        <ele>514.4</ele>
        <time>2012-05-10T14:29:13Z</time>
      </trkpt>
      <trkpt lat="28.52982" lon="-10.06063">
        <ele>515.6</ele>
        <time>2012-05-10T14:29:18Z</time>
      </trkpt>
      <trkpt lat="28.52973" lon="-10.06078">
        <ele>515.9</ele>
        <time>2012-05-10T14:29:23Z</time>
      </trkpt>
      <trkpt lat="28.52951" lon="-10.06093">
        <ele>515.9</ele>
        <time>2012-05-10T14:29:28Z</time>
      </trkpt>
      <trkpt lat="28.52942" lon="-10.06112">
        <ele>515.1</ele>
        <time>2012-05-10T14:29:33Z</time>
      </trkpt>
      <trkpt lat="28.52942" lon="-10.06134">
        <ele>514.5</ele>
        <time>2012-05-10T14:29:38Z</time>
      </trkpt>
      <trkpt lat="28.52941" lon="-10.06155">
        <ele>513.6</ele>
        <time>2012-05-10T14:29:43Z</time>
      </trkpt>
      <trkpt lat="28.52943" lon="-10.06175">
        <ele>513.6</ele>
        <time>2012-05-10T14:29:48Z</time>
      </trkpt>
      <trkpt lat="28.52945" lon="-10.06196">
        <ele>513.7</ele>
        <time>2012-05-10T14:29:53Z</time>
      </trkpt>
      <trkpt lat="28.52955" lon="-10.06219">
        <ele>513.7</ele>
        <time>2012-05-10T14:29:58Z</time>
      </trkpt>
      <trkpt lat="28.52954" lon="-10.06241">
        <ele>513.2</ele>
        <time>2012-05-10T14:30:03Z</time>
      </trkpt>
      <trkpt lat="28.52958" lon="-10.06265">
        <ele>514.2</ele>
        <time>2012-05-10T14:30:08Z</time>
      </trkpt>
      <trkpt lat="28.52953" lon="-10.06292">
        <ele>515.3</ele>
        <time>2012-05-10T14:30:13Z</time>
      </trkpt>
      <trkpt lat="28.52951" lon="-10.06312">
        <ele>516.7</ele>
        <time>2012-05-10T14:30:18Z</time>
      </trkpt>
      <trkpt lat="28.52945" lon="-10.06337">
        <ele>517.2</ele>
        <time>2012-05-10T14:30:23Z</time>
      </trkpt>
      <trkpt lat="28.52934" lon="-10.06355">
        <ele>517.8</ele>
        <time>2012-05-10T14:30:28Z</time>
      </trkpt>
      <trkpt lat="28.52911" lon="-10.06388">
        <ele>521.6</ele>
        <time>2012-05-10T14:30:33Z</time>
      </trkpt>
      <trkpt lat="28.52902" lon="-10.06408">
        <ele>524.4</ele>
        <time>2012-05-10T14:30:38Z</time>
      </trkpt>
      <trkpt lat="28.52892" lon="-10.06427">
        <ele>527.1</ele>
        <time>2012-05-10T14:30:43Z</time>
      </trkpt>
      <trkpt lat="28.52887" lon="-10.0645">
        <ele>525.6</ele>
        <time>2012-05-10T14:30:48Z</time>
      </trkpt>
      <trkpt lat="28.52878" lon="-10.06468">
        <ele>523.8</ele>
        <time>2012-05-10T14:30:53Z</time>
      </trkpt>
      <trkpt lat="28.52859" lon="-10.06504">
        <ele>519.7</ele>
        <time>2012-05-10T14:30:58Z</time>
      </trkpt>
      <trkpt lat="28.52838" lon="-10.06553">
        <ele>517.2</ele>
        <time>2012-05-10T14:31:03Z</time>
      </trkpt>
      <trkpt lat="28.52806" lon="-10.06614">
        <ele>515.4</ele>
        <time>2012-05-10T14:31:08Z</time>
      </trkpt>
      <trkpt lat="28.52794" lon="-10.0664">
        <ele>514.5</ele>
        <time>2012-05-10T14:31:13Z</time>
      </trkpt>
      <trkpt lat="28.52784" lon="-10.06665">
        <ele>513.6</ele>
        <time>2012-05-10T14:31:18Z</time>
      </trkpt>
      <trkpt lat="28.52776" lon="-10.06689">
        <ele>512.2</ele>
        <time>2012-05-10T14:31:23Z</time>
      </trkpt>
      <trkpt lat="28.52765" lon="-10.06713">
        <ele>510.6</ele>
        <time>2012-05-10T14:31:28Z</time>
      </trkpt>
      <trkpt lat="28.52754" lon="-10.06737">
        <ele>509.9</ele>
        <time>2012-05-10T14:31:33Z</time>
      </trkpt>
      <trkpt lat="28.52746" lon="-10.06763">
        <ele>512</ele>
        <time>2012-05-10T14:31:38Z</time>
      </trkpt>
      <trkpt lat="28.52744" lon="-10.06791">
        <ele>513.4</ele>
        <time>2012-05-10T14:31:43Z</time>
      </trkpt>
      <trkpt lat="28.52742" lon="-10.06826">
        <ele>514</ele>
        <time>2012-05-10T14:31:48Z</time>
      </trkpt>
      <trkpt lat="28.5273" lon="-10.06896">
        <ele>513.6</ele>
        <time>2012-05-10T14:31:53Z</time>
      </trkpt>
      <trkpt lat="28.52718" lon="-10.06965">
        <ele>514.7</ele>
        <time>2012-05-10T14:31:58Z</time>
      </trkpt>
      <trkpt lat="28.52718" lon="-10.06987">
        <ele>515.6</ele>
        <time>2012-05-10T14:32:03Z</time>
      </trkpt>
      <trkpt lat="28.52718" lon="-10.07015">
        <ele>516.9</ele>
        <time>2012-05-10T14:32:08Z</time>
      </trkpt>
      <trkpt lat="28.52713" lon="-10.07042">
        <ele>517.5</ele>
        <time>2012-05-10T14:32:13Z</time>
      </trkpt>
      <trkpt lat="28.52712" lon="-10.0707">
        <ele>518.3</ele>
        <time>2012-05-10T14:32:18Z</time>
      </trkpt>
      <trkpt lat="28.52704" lon="-10.07117">
        <ele>519.3</ele>
        <time>2012-05-10T14:32:23Z</time>
      </trkpt>
      <trkpt lat="28.52708" lon="-10.07141">
        <ele>521.1</ele>
        <time>2012-05-10T14:32:28Z</time>
      </trkpt>
      <trkpt lat="28.52723" lon="-10.07156">
        <ele>521.8</ele>
        <time>2012-05-10T14:32:33Z</time>
      </trkpt>
      <trkpt lat="28.52767" lon="-10.07187">
        <ele>518.6</ele>
        <time>2012-05-10T14:32:38Z</time>
      </trkpt>
      <trkpt lat="28.52787" lon="-10.07197">
        <ele>518.1</ele>
        <time>2012-05-10T14:32:43Z</time>
      </trkpt>
      <trkpt lat="28.52805" lon="-10.07209">
        <ele>518.2</ele>
        <time>2012-05-10T14:32:48Z</time>
      </trkpt>
      <trkpt lat="28.52818" lon="-10.07229">
        <ele>518.6</ele>
        <time>2012-05-10T14:32:53Z</time>
      </trkpt>
      <trkpt lat="28.52826" lon="-10.07253">
        <ele>519.6</ele>
        <time>2012-05-10T14:32:58Z</time>
      </trkpt>
      <trkpt lat="28.52834" lon="-10.0728">
        <ele>520.6</ele>
        <time>2012-05-10T14:33:03Z</time>
      </trkpt>
      <trkpt lat="28.5287" lon="-10.07388">
        <ele>524.5</ele>
        <time>2012-05-10T14:33:08Z</time>
      </trkpt>
      <trkpt lat="28.52878" lon="-10.07421">
        <ele>525.5</ele>
        <time>2012-05-10T14:33:13Z</time>
      </trkpt>
      <trkpt lat="28.52877" lon="-10.0745">
        <ele>526.6</ele>
        <time>2012-05-10T14:33:18Z</time>
      </trkpt>
      <trkpt lat="28.52866" lon="-10.07476">
        <ele>525.6</ele>
        <time>2012-05-10T14:33:23Z</time>
      </trkpt>
      <trkpt lat="28.52856" lon="-10.07496">
        <ele>524.2</ele>
        <time>2012-05-10T14:33:28Z</time>
      </trkpt>
      <trkpt lat="28.52846" lon="-10.07516">
        <ele>524.3</ele>
        <time>2012-05-10T14:33:33Z</time>
      </trkpt>
      <trkpt lat="28.52838" lon="-10.07537">
        <ele>524.6</ele>
        <time>2012-05-10T14:33:38Z</time>
      </trkpt>
      <trkpt lat="28.52832" lon="-10.07558">
        <ele>525</ele>
        <time>2012-05-10T14:33:43Z</time>
      </trkpt>
      <trkpt lat="28.52826" lon="-10.07579">
        <ele>525.4</ele>
        <time>2012-05-10T14:33:48Z</time>
      </trkpt>
      <trkpt lat="28.52816" lon="-10.076">
        <ele>525.5</ele>
        <time>2012-05-10T14:33:53Z</time>
      </trkpt>
      <trkpt lat="28.52807" lon="-10.07622">
        <ele>526.6</ele>
        <time>2012-05-10T14:33:58Z</time>
      </trkpt>
      <trkpt lat="28.52795" lon="-10.07655">
        <ele>527.9</ele>
        <time>2012-05-10T14:34:03Z</time>
      </trkpt>
      <trkpt lat="28.52787" lon="-10.07676">
        <ele>528.8</ele>
        <time>2012-05-10T14:34:08Z</time>
      </trkpt>
      <trkpt lat="28.52779" lon="-10.07697">
        <ele>529.6</ele>
        <time>2012-05-10T14:34:13Z</time>
      </trkpt>
      <trkpt lat="28.52779" lon="-10.07727">
        <ele>529.8</ele>
        <time>2012-05-10T14:34:18Z</time>
      </trkpt>
      <trkpt lat="28.52784" lon="-10.07747">
        <ele>529.8</ele>
        <time>2012-05-10T14:34:23Z</time>
      </trkpt>
      <trkpt lat="28.52787" lon="-10.07768">
        <ele>530</ele>
        <time>2012-05-10T14:34:28Z</time>
      </trkpt>
      <trkpt lat="28.5279" lon="-10.07799">
        <ele>530.3</ele>
        <time>2012-05-10T14:34:33Z</time>
      </trkpt>
      <trkpt lat="28.52786" lon="-10.07827">
        <ele>529.6</ele>
        <time>2012-05-10T14:34:38Z</time>
      </trkpt>
      <trkpt lat="28.52775" lon="-10.07853">
        <ele>528.1</ele>
        <time>2012-05-10T14:34:43Z</time>
      </trkpt>
      <trkpt lat="28.52769" lon="-10.07878">
        <ele>528.3</ele>
        <time>2012-05-10T14:34:48Z</time>
      </trkpt>
      <trkpt lat="28.52763" lon="-10.07904">
        <ele>528.3</ele>
        <time>2012-05-10T14:34:53Z</time>
      </trkpt>
      <trkpt lat="28.52759" lon="-10.07931">
        <ele>529.2</ele>
        <time>2012-05-10T14:34:58Z</time>
      </trkpt>
      <trkpt lat="28.52758" lon="-10.07958">
        <ele>529.2</ele>
        <time>2012-05-10T14:35:03Z</time>
      </trkpt>
      <trkpt lat="28.52755" lon="-10.07989">
        <ele>529.4</ele>
        <time>2012-05-10T14:35:08Z</time>
      </trkpt>
      <trkpt lat="28.52753" lon="-10.0801">
        <ele>529.5</ele>
        <time>2012-05-10T14:35:13Z</time>
      </trkpt>
      <trkpt lat="28.52736" lon="-10.08117">
        <ele>530.6</ele>
        <time>2012-05-10T14:35:18Z</time>
      </trkpt>
      <trkpt lat="28.52731" lon="-10.08138">
        <ele>530.9</ele>
        <time>2012-05-10T14:35:23Z</time>
      </trkpt>
      <trkpt lat="28.52722" lon="-10.08167">
        <ele>531.3</ele>
        <time>2012-05-10T14:35:28Z</time>
      </trkpt>
      <trkpt lat="28.52718" lon="-10.08196">
        <ele>531.1</ele>
        <time>2012-05-10T14:35:33Z</time>
      </trkpt>
      <trkpt lat="28.52715" lon="-10.08222">
        <ele>530.7</ele>
        <time>2012-05-10T14:35:38Z</time>
      </trkpt>
      <trkpt lat="28.52709" lon="-10.08245">
        <ele>530.1</ele>
        <time>2012-05-10T14:35:43Z</time>
      </trkpt>
      <trkpt lat="28.527" lon="-10.08268">
        <ele>530.7</ele>
        <time>2012-05-10T14:35:48Z</time>
      </trkpt>
      <trkpt lat="28.52693" lon="-10.08293">
        <ele>531.2</ele>
        <time>2012-05-10T14:35:53Z</time>
      </trkpt>
      <trkpt lat="28.52688" lon="-10.08321">
        <ele>532.3</ele>
        <time>2012-05-10T14:35:58Z</time>
      </trkpt>
      <trkpt lat="28.52686" lon="-10.08352">
        <ele>532.9</ele>
        <time>2012-05-10T14:36:03Z</time>
      </trkpt>
      <trkpt lat="28.52684" lon="-10.08386">
        <ele>533.1</ele>
        <time>2012-05-10T14:36:08Z</time>
      </trkpt>
      <trkpt lat="28.5268" lon="-10.08432">
        <ele>533.5</ele>
        <time>2012-05-10T14:36:13Z</time>
      </trkpt>
      <trkpt lat="28.52677" lon="-10.08454">
        <ele>533.8</ele>
        <time>2012-05-10T14:36:18Z</time>
      </trkpt>
      <trkpt lat="28.52674" lon="-10.08477">
        <ele>534.1</ele>
        <time>2012-05-10T14:36:23Z</time>
      </trkpt>
      <trkpt lat="28.52669" lon="-10.08534">
        <ele>534.3</ele>
        <time>2012-05-10T14:36:28Z</time>
      </trkpt>
      <trkpt lat="28.52668" lon="-10.08558">
        <ele>533.9</ele>
        <time>2012-05-10T14:36:33Z</time>
      </trkpt>
      <trkpt lat="28.52667" lon="-10.08582">
        <ele>534.2</ele>
        <time>2012-05-10T14:36:38Z</time>
      </trkpt>
      <trkpt lat="28.52663" lon="-10.08605">
        <ele>534.4</ele>
        <time>2012-05-10T14:36:43Z</time>
      </trkpt>
      <trkpt lat="28.52658" lon="-10.08627">
        <ele>534.1</ele>
        <time>2012-05-10T14:36:48Z</time>
      </trkpt>
      <trkpt lat="28.52654" lon="-10.08651">
        <ele>533.6</ele>
        <time>2012-05-10T14:36:53Z</time>
      </trkpt>
      <trkpt lat="28.52636" lon="-10.08784">
        <ele>536</ele>
        <time>2012-05-10T14:36:58Z</time>
      </trkpt>
      <trkpt lat="28.52628" lon="-10.0884">
        <ele>536.9</ele>
        <time>2012-05-10T14:37:03Z</time>
      </trkpt>
      <trkpt lat="28.5261" lon="-10.0903">
        <ele>538.4</ele>
        <time>2012-05-10T14:37:08Z</time>
      </trkpt>
      <trkpt lat="28.52599" lon="-10.09142">
        <ele>540.3</ele>
        <time>2012-05-10T14:37:13Z</time>
      </trkpt>
      <trkpt lat="28.52588" lon="-10.09262">
        <ele>542.5</ele>
        <time>2012-05-10T14:37:18Z</time>
      </trkpt>
      <trkpt lat="28.52587" lon="-10.09289">
        <ele>542.7</ele>
        <time>2012-05-10T14:37:23Z</time>
      </trkpt>
      <trkpt lat="28.52588" lon="-10.09314">
        <ele>542.5</ele>
        <time>2012-05-10T14:37:28Z</time>
      </trkpt>
      <trkpt lat="28.52588" lon="-10.09339">
        <ele>542.3</ele>
        <time>2012-05-10T14:37:33Z</time>
      </trkpt>
      <trkpt lat="28.52587" lon="-10.09373">
        <ele>541.9</ele>
        <time>2012-05-10T14:37:38Z</time>
      </trkpt>
      <trkpt lat="28.52583" lon="-10.09395">
        <ele>541.3</ele>
        <time>2012-05-10T14:37:43Z</time>
      </trkpt>
      <trkpt lat="28.52574" lon="-10.09429">
        <ele>542</ele>
        <time>2012-05-10T14:37:48Z</time>
      </trkpt>
      <trkpt lat="28.52566" lon="-10.09452">
        <ele>542.6</ele>
        <time>2012-05-10T14:37:53Z</time>
      </trkpt>
      <trkpt lat="28.52554" lon="-10.09477">
        <ele>543.4</ele>
        <time>2012-05-10T14:37:58Z</time>
      </trkpt>
      <trkpt lat="28.52544" lon="-10.09503">
        <ele>544.2</ele>
        <time>2012-05-10T14:38:03Z</time>
      </trkpt>
      <trkpt lat="28.52534" lon="-10.0953">
        <ele>543.8</ele>
        <time>2012-05-10T14:38:08Z</time>
      </trkpt>
      <trkpt lat="28.52518" lon="-10.09574">
        <ele>542.8</ele>
        <time>2012-05-10T14:38:13Z</time>
      </trkpt>
      <trkpt lat="28.52478" lon="-10.09675">
        <ele>543.3</ele>
        <time>2012-05-10T14:38:18Z</time>
      </trkpt>
      <trkpt lat="28.52448" lon="-10.09742">
        <ele>543.9</ele>
        <time>2012-05-10T14:38:23Z</time>
      </trkpt>
      <trkpt lat="28.52431" lon="-10.09781">
        <ele>543.3</ele>
        <time>2012-05-10T14:38:28Z</time>
      </trkpt>
      <trkpt lat="28.52382" lon="-10.09901">
        <ele>545.8</ele>
        <time>2012-05-10T14:38:33Z</time>
      </trkpt>
      <trkpt lat="28.52374" lon="-10.09929">
        <ele>546.6</ele>
        <time>2012-05-10T14:38:38Z</time>
      </trkpt>
      <trkpt lat="28.52367" lon="-10.09958">
        <ele>547.4</ele>
        <time>2012-05-10T14:38:43Z</time>
      </trkpt>
      <trkpt lat="28.52348" lon="-10.10032">
        <ele>548.4</ele>
        <time>2012-05-10T14:38:48Z</time>
      </trkpt>
      <trkpt lat="28.52339" lon="-10.10061">
        <ele>548.8</ele>
        <time>2012-05-10T14:38:53Z</time>
      </trkpt>
      <trkpt lat="28.52322" lon="-10.10119">
        <ele>548.9</ele>
        <time>2012-05-10T14:38:58Z</time>
      </trkpt>
      <trkpt lat="28.52279" lon="-10.10273">
        <ele>548.6</ele>
        <time>2012-05-10T14:39:03Z</time>
      </trkpt>
      <trkpt lat="28.52258" lon="-10.10352">
        <ele>549.2</ele>
        <time>2012-05-10T14:39:08Z</time>
      </trkpt>
      <trkpt lat="28.52251" lon="-10.10378">
        <ele>549.6</ele>
        <time>2012-05-10T14:39:13Z</time>
      </trkpt>
      <trkpt lat="28.52245" lon="-10.10404">
        <ele>549.9</ele>
        <time>2012-05-10T14:39:18Z</time>
      </trkpt>
      <trkpt lat="28.52237" lon="-10.10446">
        <ele>549.9</ele>
        <time>2012-05-10T14:39:23Z</time>
      </trkpt>
      <trkpt lat="28.52226" lon="-10.10501">
        <ele>550</ele>
        <time>2012-05-10T14:39:28Z</time>
      </trkpt>
      <trkpt lat="28.52207" lon="-10.10582">
        <ele>550.4</ele>
        <time>2012-05-10T14:39:33Z</time>
      </trkpt>
      <trkpt lat="28.52197" lon="-10.10609">
        <ele>551</ele>
        <time>2012-05-10T14:39:38Z</time>
      </trkpt>
      <trkpt lat="28.52183" lon="-10.10649">
        <ele>551.6</ele>
        <time>2012-05-10T14:39:43Z</time>
      </trkpt>
      <trkpt lat="28.5217" lon="-10.10689">
        <ele>552.3</ele>
        <time>2012-05-10T14:39:48Z</time>
      </trkpt>
      <trkpt lat="28.52145" lon="-10.10752">
        <ele>553.3</ele>
        <time>2012-05-10T14:39:53Z</time>
      </trkpt>
      <trkpt lat="28.52138" lon="-10.10777">
        <ele>553.2</ele>
        <time>2012-05-10T14:39:58Z</time>
      </trkpt>
      <trkpt lat="28.52129" lon="-10.10803">
        <ele>553.9</ele>
        <time>2012-05-10T14:40:03Z</time>
      </trkpt>
      <trkpt lat="28.52104" lon="-10.10868">
        <ele>555.5</ele>
        <time>2012-05-10T14:40:08Z</time>
      </trkpt>
      <trkpt lat="28.52075" lon="-10.1096">
        <ele>556.1</ele>
        <time>2012-05-10T14:40:13Z</time>
      </trkpt>
      <trkpt lat="28.52066" lon="-10.10988">
        <ele>556.5</ele>
        <time>2012-05-10T14:40:18Z</time>
      </trkpt>
      <trkpt lat="28.52056" lon="-10.11015">
        <ele>557.2</ele>
        <time>2012-05-10T14:40:23Z</time>
      </trkpt>
      <trkpt lat="28.52046" lon="-10.11043">
        <ele>558.7</ele>
        <time>2012-05-10T14:40:28Z</time>
      </trkpt>
      <trkpt lat="28.52021" lon="-10.1111">
        <ele>561.2</ele>
        <time>2012-05-10T14:40:33Z</time>
      </trkpt>
      <trkpt lat="28.51998" lon="-10.11161">
        <ele>563.9</ele>
        <time>2012-05-10T14:40:38Z</time>
      </trkpt>
      <trkpt lat="28.51974" lon="-10.1121">
        <ele>565.1</ele>
        <time>2012-05-10T14:40:43Z</time>
      </trkpt>
      <trkpt lat="28.51908" lon="-10.11369">
        <ele>565.4</ele>
        <time>2012-05-10T14:40:48Z</time>
      </trkpt>
      <trkpt lat="28.51812" lon="-10.11638">
        <ele>561</ele>
        <time>2012-05-10T14:40:53Z</time>
      </trkpt>
      <trkpt lat="28.51766" lon="-10.11767">
        <ele>558</ele>
        <time>2012-05-10T14:40:58Z</time>
      </trkpt>
      <trkpt lat="28.51754" lon="-10.11796">
        <ele>557.6</ele>
        <time>2012-05-10T14:41:03Z</time>
      </trkpt>
      <trkpt lat="28.5174" lon="-10.11824">
        <ele>557.2</ele>
        <time>2012-05-10T14:41:08Z</time>
      </trkpt>
      <trkpt lat="28.51689" lon="-10.11922">
        <ele>556.5</ele>
        <time>2012-05-10T14:41:13Z</time>
      </trkpt>
      <trkpt lat="28.51672" lon="-10.11947">
        <ele>556.6</ele>
        <time>2012-05-10T14:41:18Z</time>
      </trkpt>
      <trkpt lat="28.51658" lon="-10.11971">
        <ele>556.4</ele>
        <time>2012-05-10T14:41:23Z</time>
      </trkpt>
      <trkpt lat="28.51646" lon="-10.11996">
        <ele>556.2</ele>
        <time>2012-05-10T14:41:28Z</time>
      </trkpt>
      <trkpt lat="28.51636" lon="-10.1202">
        <ele>555.3</ele>
        <time>2012-05-10T14:41:33Z</time>
      </trkpt>
      <trkpt lat="28.51621" lon="-10.12056">
        <ele>555.1</ele>
        <time>2012-05-10T14:41:38Z</time>
      </trkpt>
      <trkpt lat="28.51598" lon="-10.12102">
        <ele>554.2</ele>
        <time>2012-05-10T14:41:43Z</time>
      </trkpt>
      <trkpt lat="28.51585" lon="-10.12121">
        <ele>553.9</ele>
        <time>2012-05-10T14:41:48Z</time>
      </trkpt>
      <trkpt lat="28.5157" lon="-10.1214">
        <ele>553.2</ele>
        <time>2012-05-10T14:41:53Z</time>
      </trkpt>
      <trkpt lat="28.51555" lon="-10.12155">
        <ele>552.3</ele>
        <time>2012-05-10T14:41:58Z</time>
      </trkpt>
      <trkpt lat="28.51538" lon="-10.12167">
        <ele>551.7</ele>
        <time>2012-05-10T14:42:03Z</time>
      </trkpt>
      <trkpt lat="28.51521" lon="-10.1218">
        <ele>551.1</ele>
        <time>2012-05-10T14:42:08Z</time>
      </trkpt>
      <trkpt lat="28.51505" lon="-10.12196">
        <ele>550.8</ele>
        <time>2012-05-10T14:42:13Z</time>
      </trkpt>
      <trkpt lat="28.51491" lon="-10.12212">
        <ele>550.3</ele>
        <time>2012-05-10T14:42:18Z</time>
      </trkpt>
      <trkpt lat="28.51465" lon="-10.12242">
        <ele>548.9</ele>
        <time>2012-05-10T14:42:23Z</time>
      </trkpt>
      <trkpt lat="28.51452" lon="-10.12256">
        <ele>549.5</ele>
        <time>2012-05-10T14:42:28Z</time>
      </trkpt>
      <trkpt lat="28.5144" lon="-10.12274">
        <ele>549.9</ele>
        <time>2012-05-10T14:42:33Z</time>
      </trkpt>
      <trkpt lat="28.51412" lon="-10.12325">
        <ele>549</ele>
        <time>2012-05-10T14:42:38Z</time>
      </trkpt>
      <trkpt lat="28.51385" lon="-10.12377">
        <ele>547.9</ele>
        <time>2012-05-10T14:42:43Z</time>
      </trkpt>
      <trkpt lat="28.51365" lon="-10.12421">
        <ele>546.5</ele>
        <time>2012-05-10T14:42:48Z</time>
      </trkpt>
      <trkpt lat="28.5135" lon="-10.12455">
        <ele>545.3</ele>
        <time>2012-05-10T14:42:53Z</time>
      </trkpt>
      <trkpt lat="28.51337" lon="-10.12477">
        <ele>544.9</ele>
        <time>2012-05-10T14:42:58Z</time>
      </trkpt>
      <trkpt lat="28.51291" lon="-10.12545">
        <ele>543.7</ele>
        <time>2012-05-10T14:43:03Z</time>
      </trkpt>
      <trkpt lat="28.51278" lon="-10.12563">
        <ele>544.6</ele>
        <time>2012-05-10T14:43:08Z</time>
      </trkpt>
      <trkpt lat="28.51262" lon="-10.1258">
        <ele>544.7</ele>
        <time>2012-05-10T14:43:13Z</time>
      </trkpt>
      <trkpt lat="28.51246" lon="-10.12597">
        <ele>543.9</ele>
        <time>2012-05-10T14:43:18Z</time>
      </trkpt>
      <trkpt lat="28.51161" lon="-10.12698">
        <ele>541.1</ele>
        <time>2012-05-10T14:43:23Z</time>
      </trkpt>
      <trkpt lat="28.51147" lon="-10.12718">
        <ele>541</ele>
        <time>2012-05-10T14:43:28Z</time>
      </trkpt>
      <trkpt lat="28.51135" lon="-10.1274">
        <ele>540.2</ele>
        <time>2012-05-10T14:43:33Z</time>
      </trkpt>
      <trkpt lat="28.51098" lon="-10.12801">
        <ele>540.1</ele>
        <time>2012-05-10T14:43:38Z</time>
      </trkpt>
      <trkpt lat="28.51083" lon="-10.12816">
        <ele>540</ele>
        <time>2012-05-10T14:43:43Z</time>
      </trkpt>
      <trkpt lat="28.51069" lon="-10.12831">
        <ele>539.8</ele>
        <time>2012-05-10T14:43:48Z</time>
      </trkpt>
      <trkpt lat="28.51057" lon="-10.12848">
        <ele>539.4</ele>
        <time>2012-05-10T14:43:53Z</time>
      </trkpt>
      <trkpt lat="28.51045" lon="-10.12863">
        <ele>539</ele>
        <time>2012-05-10T14:43:58Z</time>
      </trkpt>
      <trkpt lat="28.51024" lon="-10.12881">
        <ele>537.2</ele>
        <time>2012-05-10T14:44:03Z</time>
      </trkpt>
      <trkpt lat="28.51001" lon="-10.12894">
        <ele>535.9</ele>
        <time>2012-05-10T14:44:08Z</time>
      </trkpt>
      <trkpt lat="28.5097" lon="-10.1291">
        <ele>534.2</ele>
        <time>2012-05-10T14:44:13Z</time>
      </trkpt>
      <trkpt lat="28.50944" lon="-10.12916">
        <ele>533.2</ele>
        <time>2012-05-10T14:44:18Z</time>
      </trkpt>
      <trkpt lat="28.50923" lon="-10.12934">
        <ele>533.8</ele>
        <time>2012-05-10T14:44:23Z</time>
      </trkpt>
      <trkpt lat="28.50913" lon="-10.12952">
        <ele>534.1</ele>
        <time>2012-05-10T14:44:28Z</time>
      </trkpt>
      <trkpt lat="28.50898" lon="-10.12983">
        <ele>533.9</ele>
        <time>2012-05-10T14:44:33Z</time>
      </trkpt>
      <trkpt lat="28.50886" lon="-10.13006">
        <ele>534</ele>
        <time>2012-05-10T14:44:38Z</time>
      </trkpt>
      <trkpt lat="28.50825" lon="-10.13112">
        <ele>532.5</ele>
        <time>2012-05-10T14:44:43Z</time>
      </trkpt>
      <trkpt lat="28.50723" lon="-10.13274">
        <ele>532.5</ele>
        <time>2012-05-10T14:44:48Z</time>
      </trkpt>
      <trkpt lat="28.50708" lon="-10.13294">
        <ele>532.1</ele>
        <time>2012-05-10T14:44:53Z</time>
      </trkpt>
      <trkpt lat="28.50694" lon="-10.13314">
        <ele>531.9</ele>
        <time>2012-05-10T14:44:58Z</time>
      </trkpt>
      <trkpt lat="28.50667" lon="-10.13354">
        <ele>532.1</ele>
        <time>2012-05-10T14:45:03Z</time>
      </trkpt>
      <trkpt lat="28.50651" lon="-10.1337">
        <ele>532</ele>
        <time>2012-05-10T14:45:08Z</time>
      </trkpt>
      <trkpt lat="28.50639" lon="-10.13387">
        <ele>530.9</ele>
        <time>2012-05-10T14:45:13Z</time>
      </trkpt>
      <trkpt lat="28.50631" lon="-10.13407">
        <ele>531.4</ele>
        <time>2012-05-10T14:45:18Z</time>
      </trkpt>
      <trkpt lat="28.50621" lon="-10.13429">
        <ele>530.5</ele>
        <time>2012-05-10T14:45:23Z</time>
      </trkpt>
      <trkpt lat="28.50609" lon="-10.13451">
        <ele>529.8</ele>
        <time>2012-05-10T14:45:28Z</time>
      </trkpt>
      <trkpt lat="28.50595" lon="-10.13474">
        <ele>529.4</ele>
        <time>2012-05-10T14:45:33Z</time>
      </trkpt>
      <trkpt lat="28.50572" lon="-10.13509">
        <ele>528.7</ele>
        <time>2012-05-10T14:45:38Z</time>
      </trkpt>
      <trkpt lat="28.50557" lon="-10.13532">
        <ele>528.3</ele>
        <time>2012-05-10T14:45:43Z</time>
      </trkpt>
      <trkpt lat="28.50541" lon="-10.13551">
        <ele>527.9</ele>
        <time>2012-05-10T14:45:48Z</time>
      </trkpt>
      <trkpt lat="28.50526" lon="-10.13572">
        <ele>527.9</ele>
        <time>2012-05-10T14:45:53Z</time>
      </trkpt>
      <trkpt lat="28.50511" lon="-10.13593">
        <ele>527.6</ele>
        <time>2012-05-10T14:45:58Z</time>
      </trkpt>
      <trkpt lat="28.50486" lon="-10.13624">
        <ele>527.3</ele>
        <time>2012-05-10T14:46:03Z</time>
      </trkpt>
      <trkpt lat="28.50472" lon="-10.13647">
        <ele>527.2</ele>
        <time>2012-05-10T14:46:08Z</time>
      </trkpt>
      <trkpt lat="28.50457" lon="-10.1367">
        <ele>526.8</ele>
        <time>2012-05-10T14:46:13Z</time>
      </trkpt>
      <trkpt lat="28.50378" lon="-10.13787">
        <ele>525.7</ele>
        <time>2012-05-10T14:46:18Z</time>
      </trkpt>
      <trkpt lat="28.50362" lon="-10.13805">
        <ele>525.6</ele>
        <time>2012-05-10T14:46:23Z</time>
      </trkpt>
      <trkpt lat="28.50345" lon="-10.13822">
        <ele>525</ele>
        <time>2012-05-10T14:46:28Z</time>
      </trkpt>
      <trkpt lat="28.50326" lon="-10.13838">
        <ele>524</ele>
        <time>2012-05-10T14:46:33Z</time>
      </trkpt>
      <trkpt lat="28.50307" lon="-10.13853">
        <ele>523.1</ele>
        <time>2012-05-10T14:46:38Z</time>
      </trkpt>
      <trkpt lat="28.50287" lon="-10.13867">
        <ele>523</ele>
        <time>2012-05-10T14:46:43Z</time>
      </trkpt>
      <trkpt lat="28.50266" lon="-10.13879">
        <ele>522.9</ele>
        <time>2012-05-10T14:46:48Z</time>
      </trkpt>
      <trkpt lat="28.50155" lon="-10.13942">
        <ele>519.4</ele>
        <time>2012-05-10T14:46:53Z</time>
      </trkpt>
      <trkpt lat="28.50136" lon="-10.13958">
        <ele>519.2</ele>
        <time>2012-05-10T14:46:58Z</time>
      </trkpt>
      <trkpt lat="28.50021" lon="-10.14052">
        <ele>515.9</ele>
        <time>2012-05-10T14:47:03Z</time>
      </trkpt>
      <trkpt lat="28.49975" lon="-10.14085">
        <ele>515.2</ele>
        <time>2012-05-10T14:47:08Z</time>
      </trkpt>
      <trkpt lat="28.49951" lon="-10.14102">
        <ele>515.8</ele>
        <time>2012-05-10T14:47:13Z</time>
      </trkpt>
      <trkpt lat="28.49918" lon="-10.14125">
        <ele>516.2</ele>
        <time>2012-05-10T14:47:18Z</time>
      </trkpt>
      <trkpt lat="28.49898" lon="-10.14137">
        <ele>515.5</ele>
        <time>2012-05-10T14:47:23Z</time>
      </trkpt>
      <trkpt lat="28.4988" lon="-10.14152">
        <ele>515.3</ele>
        <time>2012-05-10T14:47:28Z</time>
      </trkpt>
      <trkpt lat="28.49863" lon="-10.14171">
        <ele>516</ele>
        <time>2012-05-10T14:47:33Z</time>
      </trkpt>
      <trkpt lat="28.49846" lon="-10.14189">
        <ele>515.6</ele>
        <time>2012-05-10T14:47:38Z</time>
      </trkpt>
      <trkpt lat="28.49829" lon="-10.14208">
        <ele>515.1</ele>
        <time>2012-05-10T14:47:43Z</time>
      </trkpt>
      <trkpt lat="28.49815" lon="-10.14229">
        <ele>515</ele>
        <time>2012-05-10T14:47:48Z</time>
      </trkpt>
      <trkpt lat="28.49804" lon="-10.14254">
        <ele>515.2</ele>
        <time>2012-05-10T14:47:53Z</time>
      </trkpt>
      <trkpt lat="28.49794" lon="-10.1428">
        <ele>514.8</ele>
        <time>2012-05-10T14:47:58Z</time>
      </trkpt>
      <trkpt lat="28.49774" lon="-10.14331">
        <ele>514.3</ele>
        <time>2012-05-10T14:48:03Z</time>
      </trkpt>
      <trkpt lat="28.49757" lon="-10.14382">
        <ele>514.4</ele>
        <time>2012-05-10T14:48:08Z</time>
      </trkpt>
      <trkpt lat="28.49744" lon="-10.14421">
        <ele>514.5</ele>
        <time>2012-05-10T14:48:13Z</time>
      </trkpt>
      <trkpt lat="28.49734" lon="-10.14447">
        <ele>514.8</ele>
        <time>2012-05-10T14:48:18Z</time>
      </trkpt>
      <trkpt lat="28.49712" lon="-10.14497">
        <ele>515.6</ele>
        <time>2012-05-10T14:48:23Z</time>
      </trkpt>
      <trkpt lat="28.497" lon="-10.14521">
        <ele>515.5</ele>
        <time>2012-05-10T14:48:28Z</time>
      </trkpt>
      <trkpt lat="28.49687" lon="-10.14544">
        <ele>515</ele>
        <time>2012-05-10T14:48:33Z</time>
      </trkpt>
      <trkpt lat="28.49674" lon="-10.14568">
        <ele>514.5</ele>
        <time>2012-05-10T14:48:38Z</time>
      </trkpt>
      <trkpt lat="28.49643" lon="-10.1463">
        <ele>512.7</ele>
        <time>2012-05-10T14:48:43Z</time>
      </trkpt>
      <trkpt lat="28.49632" lon="-10.14656">
        <ele>512</ele>
        <time>2012-05-10T14:48:48Z</time>
      </trkpt>
      <trkpt lat="28.49623" lon="-10.14681">
        <ele>511.4</ele>
        <time>2012-05-10T14:48:53Z</time>
      </trkpt>
      <trkpt lat="28.496" lon="-10.14744">
        <ele>510.2</ele>
        <time>2012-05-10T14:48:58Z</time>
      </trkpt>
      <trkpt lat="28.4959" lon="-10.14768">
        <ele>510.4</ele>
        <time>2012-05-10T14:49:03Z</time>
      </trkpt>
      <trkpt lat="28.4951" lon="-10.14945">
        <ele>508.7</ele>
        <time>2012-05-10T14:49:08Z</time>
      </trkpt>
      <trkpt lat="28.4949" lon="-10.14983">
        <ele>508.2</ele>
        <time>2012-05-10T14:49:13Z</time>
      </trkpt>
      <trkpt lat="28.49432" lon="-10.15084">
        <ele>508.3</ele>
        <time>2012-05-10T14:49:18Z</time>
      </trkpt>
      <trkpt lat="28.49409" lon="-10.15121">
        <ele>508.4</ele>
        <time>2012-05-10T14:49:23Z</time>
      </trkpt>
      <trkpt lat="28.49376" lon="-10.15172">
        <ele>507.9</ele>
        <time>2012-05-10T14:49:28Z</time>
      </trkpt>
      <trkpt lat="28.49338" lon="-10.15238">
        <ele>506.7</ele>
        <time>2012-05-10T14:49:33Z</time>
      </trkpt>
      <trkpt lat="28.49296" lon="-10.1532">
        <ele>505.9</ele>
        <time>2012-05-10T14:49:38Z</time>
      </trkpt>
      <trkpt lat="28.49283" lon="-10.15348">
        <ele>505.6</ele>
        <time>2012-05-10T14:49:43Z</time>
      </trkpt>
      <trkpt lat="28.49257" lon="-10.15403">
        <ele>504.8</ele>
        <time>2012-05-10T14:49:48Z</time>
      </trkpt>
      <trkpt lat="28.49242" lon="-10.1543">
        <ele>504.3</ele>
        <time>2012-05-10T14:49:53Z</time>
      </trkpt>
      <trkpt lat="28.49213" lon="-10.15479">
        <ele>503.7</ele>
        <time>2012-05-10T14:49:58Z</time>
      </trkpt>
      <trkpt lat="28.49198" lon="-10.15503">
        <ele>503.2</ele>
        <time>2012-05-10T14:50:03Z</time>
      </trkpt>
      <trkpt lat="28.49166" lon="-10.15552">
        <ele>502.6</ele>
        <time>2012-05-10T14:50:08Z</time>
      </trkpt>
      <trkpt lat="28.49145" lon="-10.15589">
        <ele>502.7</ele>
        <time>2012-05-10T14:50:13Z</time>
      </trkpt>
      <trkpt lat="28.49111" lon="-10.1565">
        <ele>503.7</ele>
        <time>2012-05-10T14:50:18Z</time>
      </trkpt>
      <trkpt lat="28.49049" lon="-10.15749">
        <ele>504.4</ele>
        <time>2012-05-10T14:50:23Z</time>
      </trkpt>
      <trkpt lat="28.49029" lon="-10.15777">
        <ele>504.3</ele>
        <time>2012-05-10T14:50:28Z</time>
      </trkpt>
      <trkpt lat="28.4899" lon="-10.15832">
        <ele>502.7</ele>
        <time>2012-05-10T14:50:33Z</time>
      </trkpt>
      <trkpt lat="28.48965" lon="-10.15874">
        <ele>500.8</ele>
        <time>2012-05-10T14:50:38Z</time>
      </trkpt>
      <trkpt lat="28.48953" lon="-10.15897">
        <ele>499.4</ele>
        <time>2012-05-10T14:50:43Z</time>
      </trkpt>
      <trkpt lat="28.48935" lon="-10.1593">
        <ele>498.8</ele>
        <time>2012-05-10T14:50:48Z</time>
      </trkpt>
      <trkpt lat="28.48841" lon="-10.16083">
        <ele>496.3</ele>
        <time>2012-05-10T14:50:53Z</time>
      </trkpt>
      <trkpt lat="28.48827" lon="-10.16107">
        <ele>496.2</ele>
        <time>2012-05-10T14:50:58Z</time>
      </trkpt>
      <trkpt lat="28.48805" lon="-10.16142">
        <ele>496.1</ele>
        <time>2012-05-10T14:51:03Z</time>
      </trkpt>
      <trkpt lat="28.4877" lon="-10.16197">
        <ele>494.4</ele>
        <time>2012-05-10T14:51:08Z</time>
      </trkpt>
      <trkpt lat="28.48742" lon="-10.16242">
        <ele>493.7</ele>
        <time>2012-05-10T14:51:13Z</time>
      </trkpt>
      <trkpt lat="28.48728" lon="-10.16264">
        <ele>493.2</ele>
        <time>2012-05-10T14:51:18Z</time>
      </trkpt>
      <trkpt lat="28.48708" lon="-10.16298">
        <ele>493.8</ele>
        <time>2012-05-10T14:51:23Z</time>
      </trkpt>
      <trkpt lat="28.48614" lon="-10.16444">
        <ele>491.6</ele>
        <time>2012-05-10T14:51:28Z</time>
      </trkpt>
      <trkpt lat="28.486" lon="-10.16464">
        <ele>491.2</ele>
        <time>2012-05-10T14:51:33Z</time>
      </trkpt>
      <trkpt lat="28.48568" lon="-10.16517">
        <ele>490.3</ele>
        <time>2012-05-10T14:51:38Z</time>
      </trkpt>
      <trkpt lat="28.48555" lon="-10.16538">
        <ele>490.2</ele>
        <time>2012-05-10T14:51:43Z</time>
      </trkpt>
      <trkpt lat="28.48536" lon="-10.16569">
        <ele>490.1</ele>
        <time>2012-05-10T14:51:48Z</time>
      </trkpt>
      <trkpt lat="28.48522" lon="-10.16589">
        <ele>489.9</ele>
        <time>2012-05-10T14:51:53Z</time>
      </trkpt>
      <trkpt lat="28.4851" lon="-10.1661">
        <ele>490.3</ele>
        <time>2012-05-10T14:51:58Z</time>
      </trkpt>
      <trkpt lat="28.48497" lon="-10.1663">
        <ele>490</ele>
        <time>2012-05-10T14:52:03Z</time>
      </trkpt>
      <trkpt lat="28.48481" lon="-10.16648">
        <ele>489.3</ele>
        <time>2012-05-10T14:52:08Z</time>
      </trkpt>
      <trkpt lat="28.48467" lon="-10.16668">
        <ele>489.3</ele>
        <time>2012-05-10T14:52:13Z</time>
      </trkpt>
      <trkpt lat="28.48452" lon="-10.16688">
        <ele>489.5</ele>
        <time>2012-05-10T14:52:18Z</time>
      </trkpt>
      <trkpt lat="28.48436" lon="-10.16707">
        <ele>489</ele>
        <time>2012-05-10T14:52:23Z</time>
      </trkpt>
      <trkpt lat="28.48413" lon="-10.16735">
        <ele>488.6</ele>
        <time>2012-05-10T14:52:28Z</time>
      </trkpt>
      <trkpt lat="28.48339" lon="-10.16833">
        <ele>488.5</ele>
        <time>2012-05-10T14:52:33Z</time>
      </trkpt>
      <trkpt lat="28.48327" lon="-10.16855">
        <ele>488.5</ele>
        <time>2012-05-10T14:52:38Z</time>
      </trkpt>
      <trkpt lat="28.48317" lon="-10.16877">
        <ele>488.2</ele>
        <time>2012-05-10T14:52:43Z</time>
      </trkpt>
      <trkpt lat="28.48297" lon="-10.16919">
        <ele>487</ele>
        <time>2012-05-10T14:52:48Z</time>
      </trkpt>
      <trkpt lat="28.48282" lon="-10.16951">
        <ele>485.7</ele>
        <time>2012-05-10T14:52:53Z</time>
      </trkpt>
      <trkpt lat="28.48276" lon="-10.16974">
        <ele>484.3</ele>
        <time>2012-05-10T14:52:58Z</time>
      </trkpt>
      <trkpt lat="28.48271" lon="-10.16995">
        <ele>483.3</ele>
        <time>2012-05-10T14:53:03Z</time>
      </trkpt>
      <trkpt lat="28.48264" lon="-10.17029">
        <ele>482.6</ele>
        <time>2012-05-10T14:53:08Z</time>
      </trkpt>
      <trkpt lat="28.48257" lon="-10.1706">
        <ele>482.1</ele>
        <time>2012-05-10T14:53:13Z</time>
      </trkpt>
      <trkpt lat="28.48249" lon="-10.1708">
        <ele>480.4</ele>
        <time>2012-05-10T14:53:18Z</time>
      </trkpt>
      <trkpt lat="28.48236" lon="-10.1713">
        <ele>480.1</ele>
        <time>2012-05-10T14:53:23Z</time>
      </trkpt>
      <trkpt lat="28.48229" lon="-10.17152">
        <ele>479.9</ele>
        <time>2012-05-10T14:53:28Z</time>
      </trkpt>
      <trkpt lat="28.48221" lon="-10.17173">
        <ele>479.7</ele>
        <time>2012-05-10T14:53:33Z</time>
      </trkpt>
      <trkpt lat="28.48213" lon="-10.17195">
        <ele>479.8</ele>
        <time>2012-05-10T14:53:38Z</time>
      </trkpt>
      <trkpt lat="28.48194" lon="-10.17255">
        <ele>479.4</ele>
        <time>2012-05-10T14:53:43Z</time>
      </trkpt>
      <trkpt lat="28.48185" lon="-10.1728">
        <ele>479.3</ele>
        <time>2012-05-10T14:53:48Z</time>
      </trkpt>
      <trkpt lat="28.48159" lon="-10.17345">
        <ele>478.8</ele>
        <time>2012-05-10T14:53:53Z</time>
      </trkpt>
      <trkpt lat="28.48149" lon="-10.17371">
        <ele>478.5</ele>
        <time>2012-05-10T14:53:58Z</time>
      </trkpt>
      <trkpt lat="28.48121" lon="-10.17438">
        <ele>477.7</ele>
        <time>2012-05-10T14:54:03Z</time>
      </trkpt>
      <trkpt lat="28.48071" lon="-10.17548">
        <ele>475.9</ele>
        <time>2012-05-10T14:54:08Z</time>
      </trkpt>
      <trkpt lat="28.4802" lon="-10.1766">
        <ele>474.8</ele>
        <time>2012-05-10T14:54:13Z</time>
      </trkpt>
      <trkpt lat="28.47948" lon="-10.17826">
        <ele>473.6</ele>
        <time>2012-05-10T14:54:18Z</time>
      </trkpt>
      <trkpt lat="28.47933" lon="-10.17869">
        <ele>473</ele>
        <time>2012-05-10T14:54:23Z</time>
      </trkpt>
      <trkpt lat="28.47925" lon="-10.17898">
        <ele>472.4</ele>
        <time>2012-05-10T14:54:28Z</time>
      </trkpt>
      <trkpt lat="28.47909" lon="-10.17954">
        <ele>471.7</ele>
        <time>2012-05-10T14:54:33Z</time>
      </trkpt>
      <trkpt lat="28.47882" lon="-10.18037">
        <ele>472.6</ele>
        <time>2012-05-10T14:54:38Z</time>
      </trkpt>
      <trkpt lat="28.47861" lon="-10.18091">
        <ele>474.1</ele>
        <time>2012-05-10T14:54:43Z</time>
      </trkpt>
      <trkpt lat="28.47819" lon="-10.18188">
        <ele>474.9</ele>
        <time>2012-05-10T14:54:48Z</time>
      </trkpt>
      <trkpt lat="28.47805" lon="-10.18215">
        <ele>474.7</ele>
        <time>2012-05-10T14:54:53Z</time>
      </trkpt>
      <trkpt lat="28.47778" lon="-10.18267">
        <ele>474.1</ele>
        <time>2012-05-10T14:54:58Z</time>
      </trkpt>
      <trkpt lat="28.47758" lon="-10.1831">
        <ele>473.2</ele>
        <time>2012-05-10T14:55:03Z</time>
      </trkpt>
      <trkpt lat="28.47745" lon="-10.18335">
        <ele>471.4</ele>
        <time>2012-05-10T14:55:08Z</time>
      </trkpt>
      <trkpt lat="28.47732" lon="-10.18363">
        <ele>470.5</ele>
        <time>2012-05-10T14:55:13Z</time>
      </trkpt>
      <trkpt lat="28.47724" lon="-10.18385">
        <ele>470.3</ele>
        <time>2012-05-10T14:55:18Z</time>
      </trkpt>
      <trkpt lat="28.47718" lon="-10.18412">
        <ele>469.8</ele>
        <time>2012-05-10T14:55:23Z</time>
      </trkpt>
      <trkpt lat="28.47711" lon="-10.1844">
        <ele>468.6</ele>
        <time>2012-05-10T14:55:28Z</time>
      </trkpt>
      <trkpt lat="28.47694" lon="-10.18504">
        <ele>467.5</ele>
        <time>2012-05-10T14:55:33Z</time>
      </trkpt>
      <trkpt lat="28.47678" lon="-10.18575">
        <ele>465.9</ele>
        <time>2012-05-10T14:55:38Z</time>
      </trkpt>
      <trkpt lat="28.47663" lon="-10.18638">
        <ele>464.6</ele>
        <time>2012-05-10T14:55:43Z</time>
      </trkpt>
      <trkpt lat="28.47657" lon="-10.18664">
        <ele>464.3</ele>
        <time>2012-05-10T14:55:48Z</time>
      </trkpt>
      <trkpt lat="28.4765" lon="-10.1869">
        <ele>464</ele>
        <time>2012-05-10T14:55:53Z</time>
      </trkpt>
      <trkpt lat="28.47643" lon="-10.18716">
        <ele>463.7</ele>
        <time>2012-05-10T14:55:58Z</time>
      </trkpt>
      <trkpt lat="28.47615" lon="-10.18833">
        <ele>463.9</ele>
        <time>2012-05-10T14:56:03Z</time>
      </trkpt>
      <trkpt lat="28.4761" lon="-10.18857">
        <ele>463.5</ele>
        <time>2012-05-10T14:56:08Z</time>
      </trkpt>
      <trkpt lat="28.47572" lon="-10.1901">
        <ele>462</ele>
        <time>2012-05-10T14:56:13Z</time>
      </trkpt>
      <trkpt lat="28.47562" lon="-10.19064">
        <ele>459.8</ele>
        <time>2012-05-10T14:56:18Z</time>
      </trkpt>
      <trkpt lat="28.47558" lon="-10.19093">
        <ele>460.3</ele>
        <time>2012-05-10T14:56:23Z</time>
      </trkpt>
      <trkpt lat="28.47554" lon="-10.19122">
        <ele>460.7</ele>
        <time>2012-05-10T14:56:28Z</time>
      </trkpt>
      <trkpt lat="28.47547" lon="-10.19149">
        <ele>460.9</ele>
        <time>2012-05-10T14:56:33Z</time>
      </trkpt>
      <trkpt lat="28.47537" lon="-10.19175">
        <ele>460.8</ele>
        <time>2012-05-10T14:56:38Z</time>
      </trkpt>
      <trkpt lat="28.4753" lon="-10.19202">
        <ele>460.3</ele>
        <time>2012-05-10T14:56:43Z</time>
      </trkpt>
      <trkpt lat="28.47511" lon="-10.19282">
        <ele>459.6</ele>
        <time>2012-05-10T14:56:48Z</time>
      </trkpt>
      <trkpt lat="28.47502" lon="-10.19321">
        <ele>459.7</ele>
        <time>2012-05-10T14:56:53Z</time>
      </trkpt>
      <trkpt lat="28.47468" lon="-10.19459">
        <ele>459</ele>
        <time>2012-05-10T14:56:58Z</time>
      </trkpt>
      <trkpt lat="28.47462" lon="-10.1948">
        <ele>459.9</ele>
        <time>2012-05-10T14:57:03Z</time>
      </trkpt>
      <trkpt lat="28.47459" lon="-10.195">
        <ele>459.9</ele>
        <time>2012-05-10T14:57:08Z</time>
      </trkpt>
      <trkpt lat="28.47458" lon="-10.19527">
        <ele>459.9</ele>
        <time>2012-05-10T14:57:13Z</time>
      </trkpt>
      <trkpt lat="28.47461" lon="-10.19594">
        <ele>460.1</ele>
        <time>2012-05-10T14:57:18Z</time>
      </trkpt>
      <trkpt lat="28.47464" lon="-10.19631">
        <ele>459.6</ele>
        <time>2012-05-10T14:57:23Z</time>
      </trkpt>
      <trkpt lat="28.47475" lon="-10.19783">
        <ele>455.9</ele>
        <time>2012-05-10T14:57:28Z</time>
      </trkpt>
      <trkpt lat="28.47479" lon="-10.19829">
        <ele>454.7</ele>
        <time>2012-05-10T14:57:33Z</time>
      </trkpt>
      <trkpt lat="28.47481" lon="-10.19852">
        <ele>454.4</ele>
        <time>2012-05-10T14:57:38Z</time>
      </trkpt>
      <trkpt lat="28.47485" lon="-10.19922">
        <ele>453.1</ele>
        <time>2012-05-10T14:57:43Z</time>
      </trkpt>
      <trkpt lat="28.47483" lon="-10.19945">
        <ele>452.7</ele>
        <time>2012-05-10T14:57:48Z</time>
      </trkpt>
      <trkpt lat="28.47479" lon="-10.19968">
        <ele>452.4</ele>
        <time>2012-05-10T14:57:53Z</time>
      </trkpt>
      <trkpt lat="28.47473" lon="-10.19991">
        <ele>452.2</ele>
        <time>2012-05-10T14:57:58Z</time>
      </trkpt>
      <trkpt lat="28.47467" lon="-10.20013">
        <ele>452.1</ele>
        <time>2012-05-10T14:58:03Z</time>
      </trkpt>
      <trkpt lat="28.47458" lon="-10.20046">
        <ele>452.5</ele>
        <time>2012-05-10T14:58:08Z</time>
      </trkpt>
      <trkpt lat="28.47454" lon="-10.2007">
        <ele>453.2</ele>
        <time>2012-05-10T14:58:13Z</time>
      </trkpt>
      <trkpt lat="28.47446" lon="-10.20118">
        <ele>453.1</ele>
        <time>2012-05-10T14:58:18Z</time>
      </trkpt>
      <trkpt lat="28.47444" lon="-10.20141">
        <ele>452.8</ele>
        <time>2012-05-10T14:58:23Z</time>
      </trkpt>
      <trkpt lat="28.47441" lon="-10.20165">
        <ele>452.2</ele>
        <time>2012-05-10T14:58:28Z</time>
      </trkpt>
      <trkpt lat="28.47437" lon="-10.20188">
        <ele>451.4</ele>
        <time>2012-05-10T14:58:33Z</time>
      </trkpt>
      <trkpt lat="28.47429" lon="-10.20224">
        <ele>450</ele>
        <time>2012-05-10T14:58:38Z</time>
      </trkpt>
      <trkpt lat="28.47423" lon="-10.20248">
        <ele>449.1</ele>
        <time>2012-05-10T14:58:43Z</time>
      </trkpt>
      <trkpt lat="28.47415" lon="-10.20272">
        <ele>448.2</ele>
        <time>2012-05-10T14:58:48Z</time>
      </trkpt>
      <trkpt lat="28.47404" lon="-10.20308">
        <ele>446.8</ele>
        <time>2012-05-10T14:58:53Z</time>
      </trkpt>
      <trkpt lat="28.47398" lon="-10.20332">
        <ele>445.9</ele>
        <time>2012-05-10T14:58:58Z</time>
      </trkpt>
      <trkpt lat="28.47388" lon="-10.20379">
        <ele>444.5</ele>
        <time>2012-05-10T14:59:03Z</time>
      </trkpt>
      <trkpt lat="28.47379" lon="-10.20425">
        <ele>442.7</ele>
        <time>2012-05-10T14:59:08Z</time>
      </trkpt>
      <trkpt lat="28.47372" lon="-10.20448">
        <ele>442.5</ele>
        <time>2012-05-10T14:59:13Z</time>
      </trkpt>
      <trkpt lat="28.47364" lon="-10.2047">
        <ele>442.1</ele>
        <time>2012-05-10T14:59:18Z</time>
      </trkpt>
      <trkpt lat="28.47351" lon="-10.20511">
        <ele>441.8</ele>
        <time>2012-05-10T14:59:23Z</time>
      </trkpt>
      <trkpt lat="28.4735" lon="-10.20533">
        <ele>442.3</ele>
        <time>2012-05-10T14:59:28Z</time>
      </trkpt>
      <trkpt lat="28.47352" lon="-10.20554">
        <ele>443.5</ele>
        <time>2012-05-10T14:59:33Z</time>
      </trkpt>
      <trkpt lat="28.47353" lon="-10.20577">
        <ele>444.6</ele>
        <time>2012-05-10T14:59:38Z</time>
      </trkpt>
      <trkpt lat="28.47352" lon="-10.206">
        <ele>445.4</ele>
        <time>2012-05-10T14:59:43Z</time>
      </trkpt>
      <trkpt lat="28.47349" lon="-10.20643">
        <ele>445.5</ele>
        <time>2012-05-10T14:59:48Z</time>
      </trkpt>
      <trkpt lat="28.47343" lon="-10.2067">
        <ele>445.9</ele>
        <time>2012-05-10T14:59:53Z</time>
      </trkpt>
      <trkpt lat="28.47337" lon="-10.20694">
        <ele>446</ele>
        <time>2012-05-10T14:59:58Z</time>
      </trkpt>
      <trkpt lat="28.47331" lon="-10.20713">
        <ele>446.7</ele>
        <time>2012-05-10T15:00:03Z</time>
      </trkpt>
      <trkpt lat="28.47321" lon="-10.20737">
        <ele>447.2</ele>
        <time>2012-05-10T15:00:08Z</time>
      </trkpt>
      <trkpt lat="28.47315" lon="-10.20757">
        <ele>447.4</ele>
        <time>2012-05-10T15:00:13Z</time>
      </trkpt>
      <trkpt lat="28.47305" lon="-10.20784">
        <ele>447.6</ele>
        <time>2012-05-10T15:00:18Z</time>
      </trkpt>
      <trkpt lat="28.4727" lon="-10.20878">
        <ele>447.6</ele>
        <time>2012-05-10T15:00:23Z</time>
      </trkpt>
      <trkpt lat="28.47243" lon="-10.20948">
        <ele>446.8</ele>
        <time>2012-05-10T15:00:28Z</time>
      </trkpt>
      <trkpt lat="28.47233" lon="-10.20987">
        <ele>445.2</ele>
        <time>2012-05-10T15:00:33Z</time>
      </trkpt>
      <trkpt lat="28.47222" lon="-10.21015">
        <ele>445.8</ele>
        <time>2012-05-10T15:00:38Z</time>
      </trkpt>
      <trkpt lat="28.47191" lon="-10.2109">
        <ele>445.2</ele>
        <time>2012-05-10T15:00:43Z</time>
      </trkpt>
      <trkpt lat="28.47182" lon="-10.21118">
        <ele>444.8</ele>
        <time>2012-05-10T15:00:48Z</time>
      </trkpt>
      <trkpt lat="28.47159" lon="-10.21174">
        <ele>444.8</ele>
        <time>2012-05-10T15:00:53Z</time>
      </trkpt>
      <trkpt lat="28.47154" lon="-10.21203">
        <ele>445</ele>
        <time>2012-05-10T15:00:58Z</time>
      </trkpt>
      <trkpt lat="28.47158" lon="-10.21223">
        <ele>444.8</ele>
        <time>2012-05-10T15:01:03Z</time>
      </trkpt>
      <trkpt lat="28.47164" lon="-10.21244">
        <ele>444.3</ele>
        <time>2012-05-10T15:01:08Z</time>
      </trkpt>
      <trkpt lat="28.4718" lon="-10.21295">
        <ele>443.2</ele>
        <time>2012-05-10T15:01:13Z</time>
      </trkpt>
      <trkpt lat="28.47186" lon="-10.21315">
        <ele>442.5</ele>
        <time>2012-05-10T15:01:18Z</time>
      </trkpt>
      <trkpt lat="28.47198" lon="-10.21355">
        <ele>440.5</ele>
        <time>2012-05-10T15:01:23Z</time>
      </trkpt>
      <trkpt lat="28.47205" lon="-10.21375">
        <ele>439.4</ele>
        <time>2012-05-10T15:01:28Z</time>
      </trkpt>
      <trkpt lat="28.47211" lon="-10.21403">
        <ele>437.5</ele>
        <time>2012-05-10T15:01:33Z</time>
      </trkpt>
      <trkpt lat="28.47215" lon="-10.21432">
        <ele>435.9</ele>
        <time>2012-05-10T15:01:38Z</time>
      </trkpt>
      <trkpt lat="28.47216" lon="-10.21462">
        <ele>436.5</ele>
        <time>2012-05-10T15:01:43Z</time>
      </trkpt>
      <trkpt lat="28.47214" lon="-10.21483">
        <ele>436.7</ele>
        <time>2012-05-10T15:01:48Z</time>
      </trkpt>
      <trkpt lat="28.47212" lon="-10.21503">
        <ele>436.5</ele>
        <time>2012-05-10T15:01:53Z</time>
      </trkpt>
      <trkpt lat="28.47212" lon="-10.21533">
        <ele>436.4</ele>
        <time>2012-05-10T15:01:58Z</time>
      </trkpt>
      <trkpt lat="28.4721" lon="-10.21561">
        <ele>435.9</ele>
        <time>2012-05-10T15:02:03Z</time>
      </trkpt>
      <trkpt lat="28.47209" lon="-10.21591">
        <ele>435.4</ele>
        <time>2012-05-10T15:02:08Z</time>
      </trkpt>
      <trkpt lat="28.47214" lon="-10.21621">
        <ele>434.7</ele>
        <time>2012-05-10T15:02:13Z</time>
      </trkpt>
      <trkpt lat="28.47219" lon="-10.2165">
        <ele>434.7</ele>
        <time>2012-05-10T15:02:18Z</time>
      </trkpt>
      <trkpt lat="28.47217" lon="-10.21681">
        <ele>434</ele>
        <time>2012-05-10T15:02:23Z</time>
      </trkpt>
      <trkpt lat="28.47214" lon="-10.21703">
        <ele>433.3</ele>
        <time>2012-05-10T15:02:28Z</time>
      </trkpt>
      <trkpt lat="28.47211" lon="-10.21725">
        <ele>432.5</ele>
        <time>2012-05-10T15:02:33Z</time>
      </trkpt>
      <trkpt lat="28.47208" lon="-10.2176">
        <ele>432.6</ele>
        <time>2012-05-10T15:02:38Z</time>
      </trkpt>
      <trkpt lat="28.47194" lon="-10.21938">
        <ele>432.8</ele>
        <time>2012-05-10T15:02:43Z</time>
      </trkpt>
      <trkpt lat="28.47192" lon="-10.21962">
        <ele>432.7</ele>
        <time>2012-05-10T15:02:48Z</time>
      </trkpt>
      <trkpt lat="28.47189" lon="-10.21985">
        <ele>432.3</ele>
        <time>2012-05-10T15:02:53Z</time>
      </trkpt>
      <trkpt lat="28.47185" lon="-10.22017">
        <ele>430.4</ele>
        <time>2012-05-10T15:02:58Z</time>
      </trkpt>
      <trkpt lat="28.47184" lon="-10.2204">
        <ele>430.1</ele>
        <time>2012-05-10T15:03:03Z</time>
      </trkpt>
      <trkpt lat="28.47181" lon="-10.22062">
        <ele>430.3</ele>
        <time>2012-05-10T15:03:08Z</time>
      </trkpt>
      <trkpt lat="28.47178" lon="-10.22093">
        <ele>428.5</ele>
        <time>2012-05-10T15:03:13Z</time>
      </trkpt>
      <trkpt lat="28.47176" lon="-10.22154">
        <ele>428.7</ele>
        <time>2012-05-10T15:03:18Z</time>
      </trkpt>
      <trkpt lat="28.47176" lon="-10.22175">
        <ele>428.1</ele>
        <time>2012-05-10T15:03:23Z</time>
      </trkpt>
      <trkpt lat="28.47179" lon="-10.22196">
        <ele>427.1</ele>
        <time>2012-05-10T15:03:28Z</time>
      </trkpt>
      <trkpt lat="28.47181" lon="-10.22218">
        <ele>427.4</ele>
        <time>2012-05-10T15:03:33Z</time>
      </trkpt>
      <trkpt lat="28.47182" lon="-10.22241">
        <ele>427.4</ele>
        <time>2012-05-10T15:03:38Z</time>
      </trkpt>
      <trkpt lat="28.47184" lon="-10.22349">
        <ele>426</ele>
        <time>2012-05-10T15:03:43Z</time>
      </trkpt>
      <trkpt lat="28.47186" lon="-10.2237">
        <ele>425.7</ele>
        <time>2012-05-10T15:03:48Z</time>
      </trkpt>
      <trkpt lat="28.47192" lon="-10.22399">
        <ele>425.7</ele>
        <time>2012-05-10T15:03:53Z</time>
      </trkpt>
      <trkpt lat="28.47191" lon="-10.2242">
        <ele>426.5</ele>
        <time>2012-05-10T15:03:58Z</time>
      </trkpt>
      <trkpt lat="28.47187" lon="-10.22463">
        <ele>427.8</ele>
        <time>2012-05-10T15:04:03Z</time>
      </trkpt>
      <trkpt lat="28.47181" lon="-10.22484">
        <ele>429.5</ele>
        <time>2012-05-10T15:04:08Z</time>
      </trkpt>
      <trkpt lat="28.47174" lon="-10.22512">
        <ele>431.8</ele>
        <time>2012-05-10T15:04:13Z</time>
      </trkpt>
      <trkpt lat="28.47162" lon="-10.22535">
        <ele>432.5</ele>
        <time>2012-05-10T15:04:18Z</time>
      </trkpt>
      <trkpt lat="28.47144" lon="-10.2255">
        <ele>432.9</ele>
        <time>2012-05-10T15:04:23Z</time>
      </trkpt>
      <trkpt lat="28.47117" lon="-10.22564">
        <ele>432.4</ele>
        <time>2012-05-10T15:04:28Z</time>
      </trkpt>
      <trkpt lat="28.47102" lon="-10.22584">
        <ele>431.9</ele>
        <time>2012-05-10T15:04:33Z</time>
      </trkpt>
      <trkpt lat="28.47084" lon="-10.226">
        <ele>431.5</ele>
        <time>2012-05-10T15:04:38Z</time>
      </trkpt>
      <trkpt lat="28.47064" lon="-10.22604">
        <ele>432.2</ele>
        <time>2012-05-10T15:04:43Z</time>
      </trkpt>
      <trkpt lat="28.47047" lon="-10.22615">
        <ele>432.7</ele>
        <time>2012-05-10T15:04:48Z</time>
      </trkpt>
      <trkpt lat="28.47029" lon="-10.22627">
        <ele>433.4</ele>
        <time>2012-05-10T15:04:53Z</time>
      </trkpt>
      <trkpt lat="28.47017" lon="-10.22648">
        <ele>434</ele>
        <time>2012-05-10T15:04:58Z</time>
      </trkpt>
      <trkpt lat="28.46999" lon="-10.22662">
        <ele>435</ele>
        <time>2012-05-10T15:05:03Z</time>
      </trkpt>
      <trkpt lat="28.46979" lon="-10.22662">
        <ele>435.7</ele>
        <time>2012-05-10T15:05:08Z</time>
      </trkpt>
      <trkpt lat="28.46957" lon="-10.22665">
        <ele>436.5</ele>
        <time>2012-05-10T15:05:13Z</time>
      </trkpt>
      <trkpt lat="28.46942" lon="-10.22676">
        <ele>437.2</ele>
        <time>2012-05-10T15:05:18Z</time>
      </trkpt>
      <trkpt lat="28.46936" lon="-10.22697">
        <ele>437.6</ele>
        <time>2012-05-10T15:05:23Z</time>
      </trkpt>
      <trkpt lat="28.46927" lon="-10.22718">
        <ele>437.9</ele>
        <time>2012-05-10T15:05:28Z</time>
      </trkpt>
      <trkpt lat="28.46916" lon="-10.22741">
        <ele>438.5</ele>
        <time>2012-05-10T15:05:33Z</time>
      </trkpt>
      <trkpt lat="28.46905" lon="-10.22764">
        <ele>438.9</ele>
        <time>2012-05-10T15:05:38Z</time>
      </trkpt>
      <trkpt lat="28.46893" lon="-10.22785">
        <ele>439.7</ele>
        <time>2012-05-10T15:05:43Z</time>
      </trkpt>
      <trkpt lat="28.46888" lon="-10.22806">
        <ele>439.7</ele>
        <time>2012-05-10T15:05:48Z</time>
      </trkpt>
      <trkpt lat="28.46875" lon="-10.22829">
        <ele>439.3</ele>
        <time>2012-05-10T15:05:53Z</time>
      </trkpt>
      <trkpt lat="28.46865" lon="-10.22847">
        <ele>439.7</ele>
        <time>2012-05-10T15:05:58Z</time>
      </trkpt>
      <trkpt lat="28.46852" lon="-10.22872">
        <ele>439.6</ele>
        <time>2012-05-10T15:06:03Z</time>
      </trkpt>
      <trkpt lat="28.46845" lon="-10.22893">
        <ele>439.6</ele>
        <time>2012-05-10T15:06:08Z</time>
      </trkpt>
      <trkpt lat="28.46836" lon="-10.22913">
        <ele>439.6</ele>
        <time>2012-05-10T15:06:13Z</time>
      </trkpt>
      <trkpt lat="28.46825" lon="-10.22933">
        <ele>440.2</ele>
        <time>2012-05-10T15:06:18Z</time>
      </trkpt>
      <trkpt lat="28.46811" lon="-10.22952">
        <ele>440.4</ele>
        <time>2012-05-10T15:06:23Z</time>
      </trkpt>
      <trkpt lat="28.46796" lon="-10.22972">
        <ele>440.5</ele>
        <time>2012-05-10T15:06:28Z</time>
      </trkpt>
      <trkpt lat="28.46778" lon="-10.2299">
        <ele>440.7</ele>
        <time>2012-05-10T15:06:33Z</time>
      </trkpt>
      <trkpt lat="28.46761" lon="-10.23006">
        <ele>440.8</ele>
        <time>2012-05-10T15:06:38Z</time>
      </trkpt>
      <trkpt lat="28.46745" lon="-10.23022">
        <ele>440.4</ele>
        <time>2012-05-10T15:06:43Z</time>
      </trkpt>
      <trkpt lat="28.46727" lon="-10.23038">
        <ele>441.4</ele>
        <time>2012-05-10T15:06:48Z</time>
      </trkpt>
      <trkpt lat="28.46715" lon="-10.23053">
        <ele>441.9</ele>
        <time>2012-05-10T15:06:53Z</time>
      </trkpt>
      <trkpt lat="28.46695" lon="-10.23077">
        <ele>442.1</ele>
        <time>2012-05-10T15:06:58Z</time>
      </trkpt>
      <trkpt lat="28.46676" lon="-10.23098">
        <ele>442.4</ele>
        <time>2012-05-10T15:07:03Z</time>
      </trkpt>
      <trkpt lat="28.46661" lon="-10.23122">
        <ele>442.1</ele>
        <time>2012-05-10T15:07:08Z</time>
      </trkpt>
      <trkpt lat="28.46645" lon="-10.23153">
        <ele>442.2</ele>
        <time>2012-05-10T15:07:13Z</time>
      </trkpt>
      <trkpt lat="28.46624" lon="-10.23167">
        <ele>442.3</ele>
        <time>2012-05-10T15:07:18Z</time>
      </trkpt>
      <trkpt lat="28.4659" lon="-10.23183">
        <ele>442.5</ele>
        <time>2012-05-10T15:07:23Z</time>
      </trkpt>
      <trkpt lat="28.46573" lon="-10.23192">
        <ele>442.6</ele>
        <time>2012-05-10T15:07:28Z</time>
      </trkpt>
      <trkpt lat="28.46556" lon="-10.23202">
        <ele>442.9</ele>
        <time>2012-05-10T15:07:33Z</time>
      </trkpt>
      <trkpt lat="28.4653" lon="-10.23218">
        <ele>443.2</ele>
        <time>2012-05-10T15:07:38Z</time>
      </trkpt>
      <trkpt lat="28.46504" lon="-10.23232">
        <ele>442.4</ele>
        <time>2012-05-10T15:07:43Z</time>
      </trkpt>
      <trkpt lat="28.46479" lon="-10.23245">
        <ele>441.8</ele>
        <time>2012-05-10T15:07:48Z</time>
      </trkpt>
      <trkpt lat="28.46458" lon="-10.23262">
        <ele>441.9</ele>
        <time>2012-05-10T15:07:53Z</time>
      </trkpt>
      <trkpt lat="28.4644" lon="-10.23286">
        <ele>441.6</ele>
        <time>2012-05-10T15:07:58Z</time>
      </trkpt>
      <trkpt lat="28.46431" lon="-10.23305">
        <ele>441.5</ele>
        <time>2012-05-10T15:08:03Z</time>
      </trkpt>
      <trkpt lat="28.46424" lon="-10.23325">
        <ele>441.1</ele>
        <time>2012-05-10T15:08:08Z</time>
      </trkpt>
      <trkpt lat="28.46418" lon="-10.23346">
        <ele>440.6</ele>
        <time>2012-05-10T15:08:13Z</time>
      </trkpt>
      <trkpt lat="28.46415" lon="-10.23376">
        <ele>439.9</ele>
        <time>2012-05-10T15:08:18Z</time>
      </trkpt>
      <trkpt lat="28.46412" lon="-10.23404">
        <ele>439.2</ele>
        <time>2012-05-10T15:08:23Z</time>
      </trkpt>
      <trkpt lat="28.4641" lon="-10.23427">
        <ele>438.2</ele>
        <time>2012-05-10T15:08:28Z</time>
      </trkpt>
      <trkpt lat="28.4641" lon="-10.23451">
        <ele>436.5</ele>
        <time>2012-05-10T15:08:33Z</time>
      </trkpt>
      <trkpt lat="28.46398" lon="-10.23471">
        <ele>437.3</ele>
        <time>2012-05-10T15:08:38Z</time>
      </trkpt>
      <trkpt lat="28.46386" lon="-10.23488">
        <ele>438.6</ele>
        <time>2012-05-10T15:08:43Z</time>
      </trkpt>
      <trkpt lat="28.46368" lon="-10.23498">
        <ele>439.6</ele>
        <time>2012-05-10T15:08:48Z</time>
      </trkpt>
      <trkpt lat="28.46355" lon="-10.23516">
        <ele>440.6</ele>
        <time>2012-05-10T15:08:53Z</time>
      </trkpt>
      <trkpt lat="28.46357" lon="-10.23537">
        <ele>440.7</ele>
        <time>2012-05-10T15:08:58Z</time>
      </trkpt>
      <trkpt lat="28.46375" lon="-10.23548">
        <ele>440.2</ele>
        <time>2012-05-10T15:09:03Z</time>
      </trkpt>
      <trkpt lat="28.46397" lon="-10.23564">
        <ele>439.1</ele>
        <time>2012-05-10T15:09:08Z</time>
      </trkpt>
      <trkpt lat="28.46413" lon="-10.23575">
        <ele>438.2</ele>
        <time>2012-05-10T15:09:13Z</time>
      </trkpt>
      <trkpt lat="28.46427" lon="-10.23589">
        <ele>437.4</ele>
        <time>2012-05-10T15:09:18Z</time>
      </trkpt>
      <trkpt lat="28.46447" lon="-10.23602">
        <ele>436.5</ele>
        <time>2012-05-10T15:09:23Z</time>
      </trkpt>
      <trkpt lat="28.46466" lon="-10.23612">
        <ele>434.9</ele>
        <time>2012-05-10T15:09:28Z</time>
      </trkpt>
      <trkpt lat="28.4648" lon="-10.23628">
        <ele>433.7</ele>
        <time>2012-05-10T15:09:33Z</time>
      </trkpt>
      <trkpt lat="28.46482" lon="-10.23648">
        <ele>433.2</ele>
        <time>2012-05-10T15:09:38Z</time>
      </trkpt>
      <trkpt lat="28.46484" lon="-10.23669">
        <ele>432.4</ele>
        <time>2012-05-10T15:09:43Z</time>
      </trkpt>
      <trkpt lat="28.46498" lon="-10.23683">
        <ele>432.7</ele>
        <time>2012-05-10T15:09:48Z</time>
      </trkpt>
      <trkpt lat="28.46502" lon="-10.23704">
        <ele>432.5</ele>
        <time>2012-05-10T15:09:53Z</time>
      </trkpt>
      <trkpt lat="28.46513" lon="-10.23722">
        <ele>430.9</ele>
        <time>2012-05-10T15:09:58Z</time>
      </trkpt>
      <trkpt lat="28.46528" lon="-10.2374">
        <ele>430.8</ele>
        <time>2012-05-10T15:10:03Z</time>
      </trkpt>
      <trkpt lat="28.46543" lon="-10.23757">
        <ele>431</ele>
        <time>2012-05-10T15:10:08Z</time>
      </trkpt>
      <trkpt lat="28.46553" lon="-10.23776">
        <ele>430.9</ele>
        <time>2012-05-10T15:10:13Z</time>
      </trkpt>
      <trkpt lat="28.46562" lon="-10.23799">
        <ele>430.4</ele>
        <time>2012-05-10T15:10:18Z</time>
      </trkpt>
      <trkpt lat="28.4658" lon="-10.23813">
        <ele>430.5</ele>
        <time>2012-05-10T15:10:23Z</time>
      </trkpt>
      <trkpt lat="28.46599" lon="-10.23826">
        <ele>430.2</ele>
        <time>2012-05-10T15:10:28Z</time>
      </trkpt>
      <trkpt lat="28.46612" lon="-10.23844">
        <ele>429.6</ele>
        <time>2012-05-10T15:10:33Z</time>
      </trkpt>
      <trkpt lat="28.46621" lon="-10.23863">
        <ele>428.6</ele>
        <time>2012-05-10T15:10:38Z</time>
      </trkpt>
      <trkpt lat="28.46621" lon="-10.23883">
        <ele>429.4</ele>
        <time>2012-05-10T15:10:43Z</time>
      </trkpt>
      <trkpt lat="28.46611" lon="-10.23905">
        <ele>431.2</ele>
        <time>2012-05-10T15:10:48Z</time>
      </trkpt>
      <trkpt lat="28.46604" lon="-10.23926">
        <ele>433</ele>
        <time>2012-05-10T15:10:53Z</time>
      </trkpt>
      <trkpt lat="28.4661" lon="-10.23948">
        <ele>433</ele>
        <time>2012-05-10T15:10:58Z</time>
      </trkpt>
      <trkpt lat="28.46605" lon="-10.23969">
        <ele>433.9</ele>
        <time>2012-05-10T15:11:03Z</time>
      </trkpt>
      <trkpt lat="28.46605" lon="-10.23989">
        <ele>433.9</ele>
        <time>2012-05-10T15:11:08Z</time>
      </trkpt>
      <trkpt lat="28.46601" lon="-10.24016">
        <ele>433.8</ele>
        <time>2012-05-10T15:11:13Z</time>
      </trkpt>
      <trkpt lat="28.46597" lon="-10.24038">
        <ele>434.8</ele>
        <time>2012-05-10T15:11:18Z</time>
      </trkpt>
      <trkpt lat="28.46603" lon="-10.24064">
        <ele>434.3</ele>
        <time>2012-05-10T15:11:23Z</time>
      </trkpt>
      <trkpt lat="28.46614" lon="-10.24089">
        <ele>433.7</ele>
        <time>2012-05-10T15:11:28Z</time>
      </trkpt>
      <trkpt lat="28.46626" lon="-10.24116">
        <ele>433.7</ele>
        <time>2012-05-10T15:11:33Z</time>
      </trkpt>
      <trkpt lat="28.46638" lon="-10.24142">
        <ele>434</ele>
        <time>2012-05-10T15:11:38Z</time>
      </trkpt>
      <trkpt lat="28.46651" lon="-10.24168">
        <ele>433.7</ele>
        <time>2012-05-10T15:11:43Z</time>
      </trkpt>
      <trkpt lat="28.46667" lon="-10.24192">
        <ele>433.1</ele>
        <time>2012-05-10T15:11:48Z</time>
      </trkpt>
      <trkpt lat="28.46683" lon="-10.24215">
        <ele>432.4</ele>
        <time>2012-05-10T15:11:53Z</time>
      </trkpt>
      <trkpt lat="28.46698" lon="-10.24237">
        <ele>431.3</ele>
        <time>2012-05-10T15:11:58Z</time>
      </trkpt>
      <trkpt lat="28.46713" lon="-10.24261">
        <ele>430.5</ele>
        <time>2012-05-10T15:12:03Z</time>
      </trkpt>
      <trkpt lat="28.46728" lon="-10.24286">
        <ele>430.5</ele>
        <time>2012-05-10T15:12:08Z</time>
      </trkpt>
      <trkpt lat="28.46741" lon="-10.2431">
        <ele>430.5</ele>
        <time>2012-05-10T15:12:13Z</time>
      </trkpt>
      <trkpt lat="28.4676" lon="-10.24337">
        <ele>430.6</ele>
        <time>2012-05-10T15:12:18Z</time>
      </trkpt>
      <trkpt lat="28.46778" lon="-10.24352">
        <ele>431.6</ele>
        <time>2012-05-10T15:12:23Z</time>
      </trkpt>
      <trkpt lat="28.4679" lon="-10.24373">
        <ele>431.9</ele>
        <time>2012-05-10T15:12:28Z</time>
      </trkpt>
      <trkpt lat="28.46797" lon="-10.24394">
        <ele>432.3</ele>
        <time>2012-05-10T15:12:33Z</time>
      </trkpt>
      <trkpt lat="28.46808" lon="-10.24415">
        <ele>432</ele>
        <time>2012-05-10T15:12:38Z</time>
      </trkpt>
      <trkpt lat="28.46826" lon="-10.24425">
        <ele>431.9</ele>
        <time>2012-05-10T15:12:43Z</time>
      </trkpt>
      <trkpt lat="28.46843" lon="-10.24439">
        <ele>431.9</ele>
        <time>2012-05-10T15:12:48Z</time>
      </trkpt>
      <trkpt lat="28.46863" lon="-10.24447">
        <ele>432.7</ele>
        <time>2012-05-10T15:12:53Z</time>
      </trkpt>
      <trkpt lat="28.46884" lon="-10.24458">
        <ele>434.4</ele>
        <time>2012-05-10T15:12:58Z</time>
      </trkpt>
      <trkpt lat="28.46902" lon="-10.24463">
        <ele>436.1</ele>
        <time>2012-05-10T15:13:03Z</time>
      </trkpt>
      <trkpt lat="28.4692" lon="-10.24469">
        <ele>437.1</ele>
        <time>2012-05-10T15:13:08Z</time>
      </trkpt>
      <trkpt lat="28.46935" lon="-10.24481">
        <ele>436.9</ele>
        <time>2012-05-10T15:13:13Z</time>
      </trkpt>
      <trkpt lat="28.46947" lon="-10.245">
        <ele>436.5</ele>
        <time>2012-05-10T15:13:18Z</time>
      </trkpt>
      <trkpt lat="28.46963" lon="-10.24513">
        <ele>436.7</ele>
        <time>2012-05-10T15:13:23Z</time>
      </trkpt>
      <trkpt lat="28.4698" lon="-10.24522">
        <ele>437.1</ele>
        <time>2012-05-10T15:13:28Z</time>
      </trkpt>
      <trkpt lat="28.4699" lon="-10.24543">
        <ele>436.3</ele>
        <time>2012-05-10T15:13:33Z</time>
      </trkpt>
      <trkpt lat="28.46995" lon="-10.24567">
        <ele>435</ele>
        <time>2012-05-10T15:13:38Z</time>
      </trkpt>
      <trkpt lat="28.46999" lon="-10.2459">
        <ele>434</ele>
        <time>2012-05-10T15:13:43Z</time>
      </trkpt>
      <trkpt lat="28.47" lon="-10.24614">
        <ele>432.8</ele>
        <time>2012-05-10T15:13:48Z</time>
      </trkpt>
      <trkpt lat="28.46992" lon="-10.24637">
        <ele>432</ele>
        <time>2012-05-10T15:13:53Z</time>
      </trkpt>
      <trkpt lat="28.46983" lon="-10.24659">
        <ele>431.4</ele>
        <time>2012-05-10T15:13:58Z</time>
      </trkpt>
      <trkpt lat="28.46977" lon="-10.24686">
        <ele>430.3</ele>
        <time>2012-05-10T15:14:03Z</time>
      </trkpt>
      <trkpt lat="28.46977" lon="-10.24714">
        <ele>428.9</ele>
        <time>2012-05-10T15:14:08Z</time>
      </trkpt>
      <trkpt lat="28.46981" lon="-10.24753">
        <ele>427.1</ele>
        <time>2012-05-10T15:14:13Z</time>
      </trkpt>
      <trkpt lat="28.46982" lon="-10.248">
        <ele>426.4</ele>
        <time>2012-05-10T15:14:18Z</time>
      </trkpt>
      <trkpt lat="28.46975" lon="-10.24825">
        <ele>425.7</ele>
        <time>2012-05-10T15:14:23Z</time>
      </trkpt>
      <trkpt lat="28.46961" lon="-10.24846">
        <ele>425.4</ele>
        <time>2012-05-10T15:14:28Z</time>
      </trkpt>
      <trkpt lat="28.46956" lon="-10.24872">
        <ele>424.9</ele>
        <time>2012-05-10T15:14:33Z</time>
      </trkpt>
      <trkpt lat="28.46951" lon="-10.24898">
        <ele>424.1</ele>
        <time>2012-05-10T15:14:38Z</time>
      </trkpt>
      <trkpt lat="28.46943" lon="-10.24923">
        <ele>423.3</ele>
        <time>2012-05-10T15:14:43Z</time>
      </trkpt>
      <trkpt lat="28.46945" lon="-10.24949">
        <ele>422.8</ele>
        <time>2012-05-10T15:14:48Z</time>
      </trkpt>
      <trkpt lat="28.46943" lon="-10.24976">
        <ele>422.3</ele>
        <time>2012-05-10T15:14:53Z</time>
      </trkpt>
      <trkpt lat="28.46933" lon="-10.25">
        <ele>421.6</ele>
        <time>2012-05-10T15:14:58Z</time>
      </trkpt>
      <trkpt lat="28.46916" lon="-10.25019">
        <ele>421.3</ele>
        <time>2012-05-10T15:15:03Z</time>
      </trkpt>
      <trkpt lat="28.46887" lon="-10.25051">
        <ele>421.8</ele>
        <time>2012-05-10T15:15:08Z</time>
      </trkpt>
      <trkpt lat="28.46878" lon="-10.25076">
        <ele>422.6</ele>
        <time>2012-05-10T15:15:13Z</time>
      </trkpt>
      <trkpt lat="28.46873" lon="-10.25105">
        <ele>422.7</ele>
        <time>2012-05-10T15:15:18Z</time>
      </trkpt>
      <trkpt lat="28.4687" lon="-10.25125">
        <ele>422.4</ele>
        <time>2012-05-10T15:15:23Z</time>
      </trkpt>
      <trkpt lat="28.46863" lon="-10.25186">
        <ele>420.6</ele>
        <time>2012-05-10T15:15:28Z</time>
      </trkpt>
      <trkpt lat="28.4686" lon="-10.25213">
        <ele>419.7</ele>
        <time>2012-05-10T15:15:33Z</time>
      </trkpt>
      <trkpt lat="28.46863" lon="-10.25235">
        <ele>418.9</ele>
        <time>2012-05-10T15:15:38Z</time>
      </trkpt>
      <trkpt lat="28.46879" lon="-10.25253">
        <ele>418.3</ele>
        <time>2012-05-10T15:15:43Z</time>
      </trkpt>
      <trkpt lat="28.46891" lon="-10.25273">
        <ele>418.5</ele>
        <time>2012-05-10T15:15:48Z</time>
      </trkpt>
      <trkpt lat="28.46913" lon="-10.25281">
        <ele>418.7</ele>
        <time>2012-05-10T15:15:53Z</time>
      </trkpt>
      <trkpt lat="28.46929" lon="-10.25299">
        <ele>419.1</ele>
        <time>2012-05-10T15:15:58Z</time>
      </trkpt>
      <trkpt lat="28.46946" lon="-10.25307">
        <ele>419.5</ele>
        <time>2012-05-10T15:16:03Z</time>
      </trkpt>
      <trkpt lat="28.46968" lon="-10.25304">
        <ele>418.9</ele>
        <time>2012-05-10T15:16:08Z</time>
      </trkpt>
      <trkpt lat="28.46987" lon="-10.25292">
        <ele>418.8</ele>
        <time>2012-05-10T15:16:13Z</time>
      </trkpt>
      <trkpt lat="28.47005" lon="-10.25285">
        <ele>418.5</ele>
        <time>2012-05-10T15:16:18Z</time>
      </trkpt>
      <trkpt lat="28.47023" lon="-10.25291">
        <ele>417.2</ele>
        <time>2012-05-10T15:16:23Z</time>
      </trkpt>
      <trkpt lat="28.47043" lon="-10.25296">
        <ele>416.2</ele>
        <time>2012-05-10T15:16:28Z</time>
      </trkpt>
      <trkpt lat="28.47062" lon="-10.25288">
        <ele>415.8</ele>
        <time>2012-05-10T15:16:33Z</time>
      </trkpt>
      <trkpt lat="28.47083" lon="-10.25264">
        <ele>414.5</ele>
        <time>2012-05-10T15:16:38Z</time>
      </trkpt>
      <trkpt lat="28.47101" lon="-10.25251">
        <ele>413.1</ele>
        <time>2012-05-10T15:16:43Z</time>
      </trkpt>
      <trkpt lat="28.47116" lon="-10.25234">
        <ele>411.8</ele>
        <time>2012-05-10T15:16:48Z</time>
      </trkpt>
      <trkpt lat="28.47132" lon="-10.25218">
        <ele>410.1</ele>
        <time>2012-05-10T15:16:53Z</time>
      </trkpt>
      <trkpt lat="28.4715" lon="-10.25206">
        <ele>408.2</ele>
        <time>2012-05-10T15:16:58Z</time>
      </trkpt>
      <trkpt lat="28.47172" lon="-10.25204">
        <ele>406.9</ele>
        <time>2012-05-10T15:17:03Z</time>
      </trkpt>
      <trkpt lat="28.47191" lon="-10.2521">
        <ele>405.9</ele>
        <time>2012-05-10T15:17:08Z</time>
      </trkpt>
      <trkpt lat="28.47207" lon="-10.25221">
        <ele>404.4</ele>
        <time>2012-05-10T15:17:13Z</time>
      </trkpt>
      <trkpt lat="28.47225" lon="-10.25222">
        <ele>405</ele>
        <time>2012-05-10T15:17:18Z</time>
      </trkpt>
      <trkpt lat="28.47243" lon="-10.25213">
        <ele>405</ele>
        <time>2012-05-10T15:17:23Z</time>
      </trkpt>
      <trkpt lat="28.47251" lon="-10.25207">
        <ele>405</ele>
        <time>2012-05-10T15:17:28Z</time>
      </trkpt>
      <trkpt lat="28.47238" lon="-10.25221">
        <ele>406</ele>
        <time>2012-05-10T15:17:33Z</time>
      </trkpt>
      <trkpt lat="28.47222" lon="-10.25234">
        <ele>407.6</ele>
        <time>2012-05-10T15:17:38Z</time>
      </trkpt>
      <trkpt lat="28.47219" lon="-10.25222">
        <ele>407.9</ele>
        <time>2012-05-10T15:17:43Z</time>
      </trkpt>
      <trkpt lat="28.4724" lon="-10.25216">
        <ele>407.5</ele>
        <time>2012-05-10T15:17:48Z</time>
      </trkpt>
      <trkpt lat="28.47253" lon="-10.25201">
        <ele>406.8</ele>
        <time>2012-05-10T15:17:53Z</time>
      </trkpt>
      <trkpt lat="28.47268" lon="-10.25183">
        <ele>406.4</ele>
        <time>2012-05-10T15:17:58Z</time>
      </trkpt>
      <trkpt lat="28.47284" lon="-10.25167">
        <ele>406.1</ele>
        <time>2012-05-10T15:18:03Z</time>
      </trkpt>
      <trkpt lat="28.47292" lon="-10.25149">
        <ele>405.6</ele>
        <time>2012-05-10T15:18:08Z</time>
      </trkpt>
      <trkpt lat="28.47297" lon="-10.25126">
        <ele>405.5</ele>
        <time>2012-05-10T15:18:13Z</time>
      </trkpt>
      <trkpt lat="28.47312" lon="-10.25115">
        <ele>405.9</ele>
        <time>2012-05-10T15:18:18Z</time>
      </trkpt>
      <trkpt lat="28.47331" lon="-10.25104">
        <ele>405.9</ele>
        <time>2012-05-10T15:18:23Z</time>
      </trkpt>
      <trkpt lat="28.47351" lon="-10.25092">
        <ele>405.9</ele>
        <time>2012-05-10T15:18:28Z</time>
      </trkpt>
      <trkpt lat="28.4737" lon="-10.25081">
        <ele>404.8</ele>
        <time>2012-05-10T15:18:33Z</time>
      </trkpt>
      <trkpt lat="28.47392" lon="-10.25079">
        <ele>404</ele>
        <time>2012-05-10T15:18:38Z</time>
      </trkpt>
      <trkpt lat="28.47416" lon="-10.25082">
        <ele>403.1</ele>
        <time>2012-05-10T15:18:43Z</time>
      </trkpt>
      <trkpt lat="28.47443" lon="-10.25082">
        <ele>402</ele>
        <time>2012-05-10T15:18:48Z</time>
      </trkpt>
      <trkpt lat="28.47464" lon="-10.25086">
        <ele>400.7</ele>
        <time>2012-05-10T15:18:53Z</time>
      </trkpt>
      <trkpt lat="28.47484" lon="-10.25096">
        <ele>399.6</ele>
        <time>2012-05-10T15:18:58Z</time>
      </trkpt>
      <trkpt lat="28.47497" lon="-10.25113">
        <ele>398.6</ele>
        <time>2012-05-10T15:19:03Z</time>
      </trkpt>
      <trkpt lat="28.4751" lon="-10.25133">
        <ele>399</ele>
        <time>2012-05-10T15:19:08Z</time>
      </trkpt>
      <trkpt lat="28.47525" lon="-10.25171">
        <ele>400.3</ele>
        <time>2012-05-10T15:19:13Z</time>
      </trkpt>
      <trkpt lat="28.47537" lon="-10.25191">
        <ele>401.2</ele>
        <time>2012-05-10T15:19:18Z</time>
      </trkpt>
      <trkpt lat="28.47551" lon="-10.25207">
        <ele>402.2</ele>
        <time>2012-05-10T15:19:23Z</time>
      </trkpt>
      <trkpt lat="28.4757" lon="-10.25209">
        <ele>403.6</ele>
        <time>2012-05-10T15:19:28Z</time>
      </trkpt>
      <trkpt lat="28.47588" lon="-10.25211">
        <ele>403.9</ele>
        <time>2012-05-10T15:19:33Z</time>
      </trkpt>
      <trkpt lat="28.47604" lon="-10.2522">
        <ele>403.5</ele>
        <time>2012-05-10T15:19:38Z</time>
      </trkpt>
      <trkpt lat="28.47618" lon="-10.25233">
        <ele>402.4</ele>
        <time>2012-05-10T15:19:43Z</time>
      </trkpt>
      <trkpt lat="28.4763" lon="-10.25249">
        <ele>400.8</ele>
        <time>2012-05-10T15:19:48Z</time>
      </trkpt>
      <trkpt lat="28.47644" lon="-10.25271">
        <ele>399.6</ele>
        <time>2012-05-10T15:19:53Z</time>
      </trkpt>
      <trkpt lat="28.47659" lon="-10.25289">
        <ele>400.1</ele>
        <time>2012-05-10T15:19:58Z</time>
      </trkpt>
      <trkpt lat="28.47673" lon="-10.25306">
        <ele>401</ele>
        <time>2012-05-10T15:20:03Z</time>
      </trkpt>
      <trkpt lat="28.47686" lon="-10.25322">
        <ele>401.8</ele>
        <time>2012-05-10T15:20:08Z</time>
      </trkpt>
      <trkpt lat="28.47689" lon="-10.25332">
        <ele>406.3</ele>
        <time>2012-05-10T15:20:13Z</time>
      </trkpt>
      <trkpt lat="28.47689" lon="-10.25333">
        <ele>407.4</ele>
        <time>2012-05-10T15:20:18Z</time>
      </trkpt>
      <trkpt lat="28.47689" lon="-10.25333">
        <ele>407.6</ele>
        <time>2012-05-10T15:20:23Z</time>
      </trkpt>
      <trkpt lat="28.47688" lon="-10.25334">
        <ele>409.5</ele>
        <time>2012-05-10T15:20:28Z</time>
      </trkpt>
      <trkpt lat="28.47688" lon="-10.25335">
        <ele>408.6</ele>
        <time>2012-05-10T15:20:33Z</time>
      </trkpt>
      <trkpt lat="28.4769" lon="-10.25334">
        <ele>406.4</ele>
        <time>2012-05-10T15:20:38Z</time>
      </trkpt>
      <trkpt lat="28.47689" lon="-10.25333">
        <ele>409.6</ele>
        <time>2012-05-10T15:20:43Z</time>
      </trkpt>
      <trkpt lat="28.4769" lon="-10.25334">
        <ele>405.9</ele>
        <time>2012-05-10T15:20:48Z</time>
      </trkpt>
      <trkpt lat="28.47691" lon="-10.25333">
        <ele>402.1</ele>
        <time>2012-05-10T15:20:53Z</time>
      </trkpt>
      <trkpt lat="28.4769" lon="-10.25333">
        <ele>403.6</ele>
        <time>2012-05-10T15:20:58Z</time>
      </trkpt>
      <trkpt lat="28.4769" lon="-10.25333">
        <ele>403.9</ele>
        <time>2012-05-10T15:21:03Z</time>
      </trkpt>
      <trkpt lat="28.4769" lon="-10.25333">
        <ele>406.6</ele>
        <time>2012-05-10T15:21:08Z</time>
      </trkpt>
      <trkpt lat="28.4769" lon="-10.25335">
        <ele>409.8</ele>
        <time>2012-05-10T15:21:13Z</time>
      </trkpt>
      <trkpt lat="28.4769" lon="-10.25335">
        <ele>407</ele>
        <time>2012-05-10T15:21:18Z</time>
      </trkpt>
      <trkpt lat="28.4769" lon="-10.25335">
        <ele>401.9</ele>
        <time>2012-05-10T15:21:23Z</time>
      </trkpt>
      <trkpt lat="28.47689" lon="-10.25336">
        <ele>407.6</ele>
        <time>2012-05-10T15:21:28Z</time>
      </trkpt>
      <trkpt lat="28.47691" lon="-10.25335">
        <ele>402.9</ele>
        <time>2012-05-10T15:21:33Z</time>
      </trkpt>
      <trkpt lat="28.47691" lon="-10.25335">
        <ele>403.2</ele>
        <time>2012-05-10T15:21:38Z</time>
      </trkpt>
      <trkpt lat="28.47691" lon="-10.25335">
        <ele>403</ele>
        <time>2012-05-10T15:21:43Z</time>
      </trkpt>
      <trkpt lat="28.47691" lon="-10.25337">
        <ele>404.4</ele>
        <time>2012-05-10T15:21:48Z</time>
      </trkpt>
      <trkpt lat="28.47692" lon="-10.25336">
        <ele>401.3</ele>
        <time>2012-05-10T15:21:53Z</time>
      </trkpt>
      <trkpt lat="28.4769" lon="-10.25334">
        <ele>406.6</ele>
        <time>2012-05-10T15:21:58Z</time>
      </trkpt>
      <trkpt lat="28.47689" lon="-10.25335">
        <ele>408</ele>
        <time>2012-05-10T15:22:03Z</time>
      </trkpt>
      <trkpt lat="28.4769" lon="-10.25334">
        <ele>402.6</ele>
        <time>2012-05-10T15:22:08Z</time>
      </trkpt>
      <trkpt lat="28.47689" lon="-10.25334">
        <ele>402.6</ele>
        <time>2012-05-10T15:22:13Z</time>
      </trkpt>
      <trkpt lat="28.4769" lon="-10.25333">
        <ele>400.7</ele>
        <time>2012-05-10T15:22:18Z</time>
      </trkpt>
      <trkpt lat="28.4769" lon="-10.25332">
        <ele>399.6</ele>
        <time>2012-05-10T15:22:23Z</time>
      </trkpt>
      <trkpt lat="28.4769" lon="-10.25333">
        <ele>400.3</ele>
        <time>2012-05-10T15:22:28Z</time>
      </trkpt>
      <trkpt lat="28.47691" lon="-10.25335">
        <ele>397.1</ele>
        <time>2012-05-10T15:22:33Z</time>
      </trkpt>
      <trkpt lat="28.47691" lon="-10.25334">
        <ele>398.6</ele>
        <time>2012-05-10T15:22:38Z</time>
      </trkpt>
      <trkpt lat="28.47689" lon="-10.25335">
        <ele>400.6</ele>
        <time>2012-05-10T15:22:43Z</time>
      </trkpt>
      <trkpt lat="28.4769" lon="-10.25334">
        <ele>398.2</ele>
        <time>2012-05-10T15:22:48Z</time>
      </trkpt>
      <trkpt lat="28.477" lon="-10.25352">
        <ele>397.4</ele>
        <time>2012-05-10T15:22:53Z</time>
      </trkpt>
      <trkpt lat="28.47715" lon="-10.25365">
        <ele>398.3</ele>
        <time>2012-05-10T15:22:58Z</time>
      </trkpt>
      <trkpt lat="28.47734" lon="-10.25373">
        <ele>401.5</ele>
        <time>2012-05-10T15:23:03Z</time>
      </trkpt>
      <trkpt lat="28.47746" lon="-10.25388">
        <ele>403</ele>
        <time>2012-05-10T15:23:08Z</time>
      </trkpt>
      <trkpt lat="28.47753" lon="-10.25408">
        <ele>405.2</ele>
        <time>2012-05-10T15:23:13Z</time>
      </trkpt>
      <trkpt lat="28.47773" lon="-10.25417">
        <ele>405.8</ele>
        <time>2012-05-10T15:23:18Z</time>
      </trkpt>
      <trkpt lat="28.47791" lon="-10.25422">
        <ele>406.9</ele>
        <time>2012-05-10T15:23:23Z</time>
      </trkpt>
      <trkpt lat="28.4781" lon="-10.25431">
        <ele>407.9</ele>
        <time>2012-05-10T15:23:28Z</time>
      </trkpt>
      <trkpt lat="28.4783" lon="-10.25439">
        <ele>409.4</ele>
        <time>2012-05-10T15:23:33Z</time>
      </trkpt>
      <trkpt lat="28.47852" lon="-10.25448">
        <ele>410.8</ele>
        <time>2012-05-10T15:23:38Z</time>
      </trkpt>
      <trkpt lat="28.47866" lon="-10.25466">
        <ele>412.9</ele>
        <time>2012-05-10T15:23:43Z</time>
      </trkpt>
      <trkpt lat="28.47857" lon="-10.25491">
        <ele>414.9</ele>
        <time>2012-05-10T15:23:48Z</time>
      </trkpt>
      <trkpt lat="28.47843" lon="-10.25518">
        <ele>417</ele>
        <time>2012-05-10T15:23:53Z</time>
      </trkpt>
      <trkpt lat="28.47848" lon="-10.25538">
        <ele>418.6</ele>
        <time>2012-05-10T15:23:58Z</time>
      </trkpt>
      <trkpt lat="28.47866" lon="-10.25546">
        <ele>418.6</ele>
        <time>2012-05-10T15:24:03Z</time>
      </trkpt>
      <trkpt lat="28.47886" lon="-10.25548">
        <ele>417.5</ele>
        <time>2012-05-10T15:24:08Z</time>
      </trkpt>
      <trkpt lat="28.479" lon="-10.25567">
        <ele>417.1</ele>
        <time>2012-05-10T15:24:13Z</time>
      </trkpt>
      <trkpt lat="28.4791" lon="-10.25592">
        <ele>415.7</ele>
        <time>2012-05-10T15:24:18Z</time>
      </trkpt>
      <trkpt lat="28.47919" lon="-10.25616">
        <ele>413.7</ele>
        <time>2012-05-10T15:24:23Z</time>
      </trkpt>
      <trkpt lat="28.47916" lon="-10.25641">
        <ele>413.3</ele>
        <time>2012-05-10T15:24:28Z</time>
      </trkpt>
      <trkpt lat="28.47897" lon="-10.25654">
        <ele>412.5</ele>
        <time>2012-05-10T15:24:33Z</time>
      </trkpt>
      <trkpt lat="28.47877" lon="-10.2566">
        <ele>411.2</ele>
        <time>2012-05-10T15:24:38Z</time>
      </trkpt>
      <trkpt lat="28.47862" lon="-10.25673">
        <ele>409.9</ele>
        <time>2012-05-10T15:24:43Z</time>
      </trkpt>
      <trkpt lat="28.47858" lon="-10.25695">
        <ele>409.1</ele>
        <time>2012-05-10T15:24:48Z</time>
      </trkpt>
      <trkpt lat="28.47861" lon="-10.2572">
        <ele>407.5</ele>
        <time>2012-05-10T15:24:53Z</time>
      </trkpt>
      <trkpt lat="28.47867" lon="-10.25745">
        <ele>406</ele>
        <time>2012-05-10T15:24:58Z</time>
      </trkpt>
      <trkpt lat="28.47878" lon="-10.25768">
        <ele>404.3</ele>
        <time>2012-05-10T15:25:03Z</time>
      </trkpt>
      <trkpt lat="28.47893" lon="-10.25785">
        <ele>403.1</ele>
        <time>2012-05-10T15:25:08Z</time>
      </trkpt>
      <trkpt lat="28.47913" lon="-10.25798">
        <ele>401.5</ele>
        <time>2012-05-10T15:25:13Z</time>
      </trkpt>
      <trkpt lat="28.47935" lon="-10.25805">
        <ele>400.1</ele>
        <time>2012-05-10T15:25:18Z</time>
      </trkpt>
      <trkpt lat="28.47964" lon="-10.25814">
        <ele>398.7</ele>
        <time>2012-05-10T15:25:23Z</time>
      </trkpt>
      <trkpt lat="28.4798" lon="-10.25827">
        <ele>397.7</ele>
        <time>2012-05-10T15:25:28Z</time>
      </trkpt>
      <trkpt lat="28.4799" lon="-10.25848">
        <ele>396.4</ele>
        <time>2012-05-10T15:25:33Z</time>
      </trkpt>
      <trkpt lat="28.47992" lon="-10.25874">
        <ele>394.5</ele>
        <time>2012-05-10T15:25:38Z</time>
      </trkpt>
      <trkpt lat="28.4799" lon="-10.25904">
        <ele>392.7</ele>
        <time>2012-05-10T15:25:43Z</time>
      </trkpt>
      <trkpt lat="28.47985" lon="-10.25924">
        <ele>391.3</ele>
        <time>2012-05-10T15:25:48Z</time>
      </trkpt>
      <trkpt lat="28.47979" lon="-10.25944">
        <ele>390.5</ele>
        <time>2012-05-10T15:25:53Z</time>
      </trkpt>
      <trkpt lat="28.4797" lon="-10.25964">
        <ele>390.1</ele>
        <time>2012-05-10T15:25:58Z</time>
      </trkpt>
      <trkpt lat="28.47955" lon="-10.25999">
        <ele>389.4</ele>
        <time>2012-05-10T15:26:03Z</time>
      </trkpt>
      <trkpt lat="28.47957" lon="-10.26026">
        <ele>388.3</ele>
        <time>2012-05-10T15:26:08Z</time>
      </trkpt>
      <trkpt lat="28.47971" lon="-10.26047">
        <ele>387.4</ele>
        <time>2012-05-10T15:26:13Z</time>
      </trkpt>
      <trkpt lat="28.47982" lon="-10.26072">
        <ele>387</ele>
        <time>2012-05-10T15:26:18Z</time>
      </trkpt>
      <trkpt lat="28.47987" lon="-10.26092">
        <ele>386.6</ele>
        <time>2012-05-10T15:26:23Z</time>
      </trkpt>
      <trkpt lat="28.47986" lon="-10.26113">
        <ele>387.5</ele>
        <time>2012-05-10T15:26:28Z</time>
      </trkpt>
      <trkpt lat="28.47984" lon="-10.26145">
        <ele>387.8</ele>
        <time>2012-05-10T15:26:33Z</time>
      </trkpt>
      <trkpt lat="28.47993" lon="-10.26173">
        <ele>387.4</ele>
        <time>2012-05-10T15:26:38Z</time>
      </trkpt>
      <trkpt lat="28.48008" lon="-10.26197">
        <ele>386.4</ele>
        <time>2012-05-10T15:26:43Z</time>
      </trkpt>
      <trkpt lat="28.48023" lon="-10.26222">
        <ele>385.2</ele>
        <time>2012-05-10T15:26:48Z</time>
      </trkpt>
      <trkpt lat="28.48035" lon="-10.26248">
        <ele>383.9</ele>
        <time>2012-05-10T15:26:53Z</time>
      </trkpt>
      <trkpt lat="28.48044" lon="-10.26277">
        <ele>382.7</ele>
        <time>2012-05-10T15:26:58Z</time>
      </trkpt>
      <trkpt lat="28.48046" lon="-10.26297">
        <ele>381.8</ele>
        <time>2012-05-10T15:27:03Z</time>
      </trkpt>
      <trkpt lat="28.48046" lon="-10.26319">
        <ele>381.3</ele>
        <time>2012-05-10T15:27:08Z</time>
      </trkpt>
      <trkpt lat="28.48042" lon="-10.26342">
        <ele>380.5</ele>
        <time>2012-05-10T15:27:13Z</time>
      </trkpt>
      <trkpt lat="28.48036" lon="-10.26365">
        <ele>379.8</ele>
        <time>2012-05-10T15:27:18Z</time>
      </trkpt>
      <trkpt lat="28.48028" lon="-10.26389">
        <ele>379.3</ele>
        <time>2012-05-10T15:27:23Z</time>
      </trkpt>
      <trkpt lat="28.48015" lon="-10.26424">
        <ele>378.2</ele>
        <time>2012-05-10T15:27:28Z</time>
      </trkpt>
      <trkpt lat="28.48003" lon="-10.26458">
        <ele>377.3</ele>
        <time>2012-05-10T15:27:33Z</time>
      </trkpt>
      <trkpt lat="28.47997" lon="-10.2648">
        <ele>377</ele>
        <time>2012-05-10T15:27:38Z</time>
      </trkpt>
      <trkpt lat="28.47992" lon="-10.26504">
        <ele>376.5</ele>
        <time>2012-05-10T15:27:43Z</time>
      </trkpt>
      <trkpt lat="28.47989" lon="-10.26527">
        <ele>375.7</ele>
        <time>2012-05-10T15:27:48Z</time>
      </trkpt>
      <trkpt lat="28.47977" lon="-10.26608">
        <ele>371.9</ele>
        <time>2012-05-10T15:27:53Z</time>
      </trkpt>
      <trkpt lat="28.47976" lon="-10.2663">
        <ele>371.2</ele>
        <time>2012-05-10T15:27:58Z</time>
      </trkpt>
      <trkpt lat="28.47978" lon="-10.26652">
        <ele>370.5</ele>
        <time>2012-05-10T15:28:03Z</time>
      </trkpt>
      <trkpt lat="28.47983" lon="-10.26681">
        <ele>369.7</ele>
        <time>2012-05-10T15:28:08Z</time>
      </trkpt>
      <trkpt lat="28.47992" lon="-10.26718">
        <ele>369.4</ele>
        <time>2012-05-10T15:28:13Z</time>
      </trkpt>
      <trkpt lat="28.47994" lon="-10.26748">
        <ele>369.3</ele>
        <time>2012-05-10T15:28:18Z</time>
      </trkpt>
      <trkpt lat="28.47994" lon="-10.2677">
        <ele>368.9</ele>
        <time>2012-05-10T15:28:23Z</time>
      </trkpt>
      <trkpt lat="28.47992" lon="-10.26793">
        <ele>368.7</ele>
        <time>2012-05-10T15:28:28Z</time>
      </trkpt>
      <trkpt lat="28.47988" lon="-10.26818">
        <ele>368.5</ele>
        <time>2012-05-10T15:28:33Z</time>
      </trkpt>
      <trkpt lat="28.47981" lon="-10.26842">
        <ele>368.2</ele>
        <time>2012-05-10T15:28:38Z</time>
      </trkpt>
      <trkpt lat="28.47972" lon="-10.26866">
        <ele>368.4</ele>
        <time>2012-05-10T15:28:43Z</time>
      </trkpt>
      <trkpt lat="28.4796" lon="-10.26888">
        <ele>368.3</ele>
        <time>2012-05-10T15:28:48Z</time>
      </trkpt>
      <trkpt lat="28.47937" lon="-10.26928">
        <ele>368.4</ele>
        <time>2012-05-10T15:28:53Z</time>
      </trkpt>
      <trkpt lat="28.47929" lon="-10.26949">
        <ele>368.9</ele>
        <time>2012-05-10T15:28:58Z</time>
      </trkpt>
      <trkpt lat="28.47926" lon="-10.26971">
        <ele>369.1</ele>
        <time>2012-05-10T15:29:03Z</time>
      </trkpt>
      <trkpt lat="28.47928" lon="-10.26994">
        <ele>369.7</ele>
        <time>2012-05-10T15:29:08Z</time>
      </trkpt>
      <trkpt lat="28.47933" lon="-10.27016">
        <ele>370.8</ele>
        <time>2012-05-10T15:29:13Z</time>
      </trkpt>
      <trkpt lat="28.4794" lon="-10.27038">
        <ele>372.2</ele>
        <time>2012-05-10T15:29:18Z</time>
      </trkpt>
      <trkpt lat="28.47959" lon="-10.27097">
        <ele>375.7</ele>
        <time>2012-05-10T15:29:23Z</time>
      </trkpt>
      <trkpt lat="28.47984" lon="-10.27162">
        <ele>378.9</ele>
        <time>2012-05-10T15:29:28Z</time>
      </trkpt>
      <trkpt lat="28.47993" lon="-10.27183">
        <ele>379.5</ele>
        <time>2012-05-10T15:29:33Z</time>
      </trkpt>
      <trkpt lat="28.48001" lon="-10.27204">
        <ele>379.5</ele>
        <time>2012-05-10T15:29:38Z</time>
      </trkpt>
      <trkpt lat="28.48008" lon="-10.27226">
        <ele>379.2</ele>
        <time>2012-05-10T15:29:43Z</time>
      </trkpt>
      <trkpt lat="28.48014" lon="-10.27251">
        <ele>379.2</ele>
        <time>2012-05-10T15:29:48Z</time>
      </trkpt>
      <trkpt lat="28.48018" lon="-10.27276">
        <ele>379.4</ele>
        <time>2012-05-10T15:29:53Z</time>
      </trkpt>
      <trkpt lat="28.48024" lon="-10.27311">
        <ele>379.4</ele>
        <time>2012-05-10T15:29:58Z</time>
      </trkpt>
      <trkpt lat="28.48029" lon="-10.27333">
        <ele>378.6</ele>
        <time>2012-05-10T15:30:03Z</time>
      </trkpt>
      <trkpt lat="28.48039" lon="-10.27353">
        <ele>377.4</ele>
        <time>2012-05-10T15:30:08Z</time>
      </trkpt>
      <trkpt lat="28.4805" lon="-10.27371">
        <ele>376.3</ele>
        <time>2012-05-10T15:30:13Z</time>
      </trkpt>
      <trkpt lat="28.48059" lon="-10.2739">
        <ele>374.5</ele>
        <time>2012-05-10T15:30:18Z</time>
      </trkpt>
      <trkpt lat="28.4806" lon="-10.27413">
        <ele>373.5</ele>
        <time>2012-05-10T15:30:23Z</time>
      </trkpt>
      <trkpt lat="28.4806" lon="-10.27438">
        <ele>372.1</ele>
        <time>2012-05-10T15:30:28Z</time>
      </trkpt>
      <trkpt lat="28.4806" lon="-10.27462">
        <ele>370.9</ele>
        <time>2012-05-10T15:30:33Z</time>
      </trkpt>
      <trkpt lat="28.48059" lon="-10.27486">
        <ele>369.8</ele>
        <time>2012-05-10T15:30:38Z</time>
      </trkpt>
      <trkpt lat="28.48053" lon="-10.2751">
        <ele>368.6</ele>
        <time>2012-05-10T15:30:43Z</time>
      </trkpt>
      <trkpt lat="28.48043" lon="-10.27533">
        <ele>367.6</ele>
        <time>2012-05-10T15:30:48Z</time>
      </trkpt>
      <trkpt lat="28.48033" lon="-10.27555">
        <ele>366.8</ele>
        <time>2012-05-10T15:30:53Z</time>
      </trkpt>
      <trkpt lat="28.4801" lon="-10.27601">
        <ele>365.8</ele>
        <time>2012-05-10T15:30:58Z</time>
      </trkpt>
      <trkpt lat="28.47982" lon="-10.27657">
        <ele>362.3</ele>
        <time>2012-05-10T15:31:03Z</time>
      </trkpt>
      <trkpt lat="28.47974" lon="-10.27681">
        <ele>361.1</ele>
        <time>2012-05-10T15:31:08Z</time>
      </trkpt>
      <trkpt lat="28.47968" lon="-10.27706">
        <ele>359.6</ele>
        <time>2012-05-10T15:31:13Z</time>
      </trkpt>
      <trkpt lat="28.47964" lon="-10.27732">
        <ele>357.8</ele>
        <time>2012-05-10T15:31:18Z</time>
      </trkpt>
      <trkpt lat="28.47956" lon="-10.27768">
        <ele>355.2</ele>
        <time>2012-05-10T15:31:23Z</time>
      </trkpt>
      <trkpt lat="28.47948" lon="-10.27787">
        <ele>353.9</ele>
        <time>2012-05-10T15:31:28Z</time>
      </trkpt>
      <trkpt lat="28.47928" lon="-10.27802">
        <ele>352.4</ele>
        <time>2012-05-10T15:31:33Z</time>
      </trkpt>
      <trkpt lat="28.47902" lon="-10.278">
        <ele>349.9</ele>
        <time>2012-05-10T15:31:38Z</time>
      </trkpt>
      <trkpt lat="28.47879" lon="-10.2781">
        <ele>348</ele>
        <time>2012-05-10T15:31:43Z</time>
      </trkpt>
      <trkpt lat="28.47868" lon="-10.27837">
        <ele>346.8</ele>
        <time>2012-05-10T15:31:48Z</time>
      </trkpt>
      <trkpt lat="28.47863" lon="-10.27858">
        <ele>345.6</ele>
        <time>2012-05-10T15:31:53Z</time>
      </trkpt>
      <trkpt lat="28.47859" lon="-10.2788">
        <ele>344.4</ele>
        <time>2012-05-10T15:31:58Z</time>
      </trkpt>
      <trkpt lat="28.47854" lon="-10.27913">
        <ele>343.2</ele>
        <time>2012-05-10T15:32:03Z</time>
      </trkpt>
      <trkpt lat="28.47852" lon="-10.27934">
        <ele>342.6</ele>
        <time>2012-05-10T15:32:08Z</time>
      </trkpt>
      <trkpt lat="28.47855" lon="-10.27954">
        <ele>341.7</ele>
        <time>2012-05-10T15:32:13Z</time>
      </trkpt>
      <trkpt lat="28.47863" lon="-10.27973">
        <ele>341</ele>
        <time>2012-05-10T15:32:18Z</time>
      </trkpt>
      <trkpt lat="28.47874" lon="-10.28">
        <ele>339.8</ele>
        <time>2012-05-10T15:32:23Z</time>
      </trkpt>
      <trkpt lat="28.4788" lon="-10.28029">
        <ele>338.9</ele>
        <time>2012-05-10T15:32:28Z</time>
      </trkpt>
      <trkpt lat="28.47876" lon="-10.28059">
        <ele>338.2</ele>
        <time>2012-05-10T15:32:33Z</time>
      </trkpt>
      <trkpt lat="28.47868" lon="-10.28078">
        <ele>337.9</ele>
        <time>2012-05-10T15:32:38Z</time>
      </trkpt>
      <trkpt lat="28.47855" lon="-10.28094">
        <ele>337.5</ele>
        <time>2012-05-10T15:32:43Z</time>
      </trkpt>
      <trkpt lat="28.47825" lon="-10.2813">
        <ele>333.8</ele>
        <time>2012-05-10T15:32:48Z</time>
      </trkpt>
      <trkpt lat="28.47811" lon="-10.28151">
        <ele>332.2</ele>
        <time>2012-05-10T15:32:53Z</time>
      </trkpt>
      <trkpt lat="28.47778" lon="-10.28209">
        <ele>329</ele>
        <time>2012-05-10T15:32:58Z</time>
      </trkpt>
      <trkpt lat="28.47767" lon="-10.28233">
        <ele>328.4</ele>
        <time>2012-05-10T15:33:03Z</time>
      </trkpt>
      <trkpt lat="28.47747" lon="-10.2828">
        <ele>328.5</ele>
        <time>2012-05-10T15:33:08Z</time>
      </trkpt>
      <trkpt lat="28.47734" lon="-10.28315">
        <ele>329.3</ele>
        <time>2012-05-10T15:33:13Z</time>
      </trkpt>
      <trkpt lat="28.47724" lon="-10.28336">
        <ele>329</ele>
        <time>2012-05-10T15:33:18Z</time>
      </trkpt>
      <trkpt lat="28.47713" lon="-10.28356">
        <ele>328.9</ele>
        <time>2012-05-10T15:33:23Z</time>
      </trkpt>
      <trkpt lat="28.47705" lon="-10.28377">
        <ele>327.6</ele>
        <time>2012-05-10T15:33:28Z</time>
      </trkpt>
      <trkpt lat="28.47695" lon="-10.28397">
        <ele>326.6</ele>
        <time>2012-05-10T15:33:33Z</time>
      </trkpt>
      <trkpt lat="28.47682" lon="-10.28415">
        <ele>326.3</ele>
        <time>2012-05-10T15:33:38Z</time>
      </trkpt>
      <trkpt lat="28.47658" lon="-10.28447">
        <ele>326.1</ele>
        <time>2012-05-10T15:33:43Z</time>
      </trkpt>
      <trkpt lat="28.47639" lon="-10.28482">
        <ele>324.9</ele>
        <time>2012-05-10T15:33:48Z</time>
      </trkpt>
      <trkpt lat="28.4763" lon="-10.2851">
        <ele>323.8</ele>
        <time>2012-05-10T15:33:53Z</time>
      </trkpt>
      <trkpt lat="28.47621" lon="-10.28529">
        <ele>322.4</ele>
        <time>2012-05-10T15:33:58Z</time>
      </trkpt>
      <trkpt lat="28.4761" lon="-10.28546">
        <ele>319.6</ele>
        <time>2012-05-10T15:34:03Z</time>
      </trkpt>
      <trkpt lat="28.47597" lon="-10.28562">
        <ele>317.7</ele>
        <time>2012-05-10T15:34:08Z</time>
      </trkpt>
      <trkpt lat="28.47578" lon="-10.28587">
        <ele>315.3</ele>
        <time>2012-05-10T15:34:13Z</time>
      </trkpt>
      <trkpt lat="28.47567" lon="-10.28607">
        <ele>313.8</ele>
        <time>2012-05-10T15:34:18Z</time>
      </trkpt>
      <trkpt lat="28.4756" lon="-10.28629">
        <ele>313</ele>
        <time>2012-05-10T15:34:23Z</time>
      </trkpt>
      <trkpt lat="28.47555" lon="-10.28653">
        <ele>311.8</ele>
        <time>2012-05-10T15:34:28Z</time>
      </trkpt>
      <trkpt lat="28.47551" lon="-10.28675">
        <ele>311.5</ele>
        <time>2012-05-10T15:34:33Z</time>
      </trkpt>
      <trkpt lat="28.47545" lon="-10.28696">
        <ele>311.4</ele>
        <time>2012-05-10T15:34:38Z</time>
      </trkpt>
      <trkpt lat="28.47535" lon="-10.28723">
        <ele>311.3</ele>
        <time>2012-05-10T15:34:43Z</time>
      </trkpt>
      <trkpt lat="28.47524" lon="-10.28747">
        <ele>311.1</ele>
        <time>2012-05-10T15:34:48Z</time>
      </trkpt>
      <trkpt lat="28.47494" lon="-10.2881">
        <ele>309.3</ele>
        <time>2012-05-10T15:34:53Z</time>
      </trkpt>
      <trkpt lat="28.47482" lon="-10.28841">
        <ele>308.3</ele>
        <time>2012-05-10T15:34:58Z</time>
      </trkpt>
      <trkpt lat="28.47475" lon="-10.28862">
        <ele>307.3</ele>
        <time>2012-05-10T15:35:03Z</time>
      </trkpt>
      <trkpt lat="28.4747" lon="-10.28883">
        <ele>306.5</ele>
        <time>2012-05-10T15:35:08Z</time>
      </trkpt>
      <trkpt lat="28.47461" lon="-10.28915">
        <ele>305.3</ele>
        <time>2012-05-10T15:35:13Z</time>
      </trkpt>
      <trkpt lat="28.47444" lon="-10.28967">
        <ele>303.9</ele>
        <time>2012-05-10T15:35:18Z</time>
      </trkpt>
      <trkpt lat="28.47435" lon="-10.28986">
        <ele>304.4</ele>
        <time>2012-05-10T15:35:23Z</time>
      </trkpt>
      <trkpt lat="28.47418" lon="-10.2902">
        <ele>305</ele>
        <time>2012-05-10T15:35:28Z</time>
      </trkpt>
      <trkpt lat="28.47401" lon="-10.2904">
        <ele>303.4</ele>
        <time>2012-05-10T15:35:33Z</time>
      </trkpt>
      <trkpt lat="28.47384" lon="-10.29059">
        <ele>301.2</ele>
        <time>2012-05-10T15:35:38Z</time>
      </trkpt>
      <trkpt lat="28.47372" lon="-10.29082">
        <ele>299.8</ele>
        <time>2012-05-10T15:35:43Z</time>
      </trkpt>
      <trkpt lat="28.47362" lon="-10.2911">
        <ele>300.6</ele>
        <time>2012-05-10T15:35:48Z</time>
      </trkpt>
      <trkpt lat="28.47344" lon="-10.29138">
        <ele>300.8</ele>
        <time>2012-05-10T15:35:53Z</time>
      </trkpt>
      <trkpt lat="28.47328" lon="-10.29173">
        <ele>301</ele>
        <time>2012-05-10T15:35:58Z</time>
      </trkpt>
      <trkpt lat="28.47318" lon="-10.29191">
        <ele>301</ele>
        <time>2012-05-10T15:36:03Z</time>
      </trkpt>
      <trkpt lat="28.4731" lon="-10.2921">
        <ele>300.8</ele>
        <time>2012-05-10T15:36:08Z</time>
      </trkpt>
      <trkpt lat="28.47302" lon="-10.29231">
        <ele>300.7</ele>
        <time>2012-05-10T15:36:13Z</time>
      </trkpt>
      <trkpt lat="28.47296" lon="-10.29252">
        <ele>300.7</ele>
        <time>2012-05-10T15:36:18Z</time>
      </trkpt>
      <trkpt lat="28.47284" lon="-10.29296">
        <ele>300.3</ele>
        <time>2012-05-10T15:36:23Z</time>
      </trkpt>
      <trkpt lat="28.4726" lon="-10.29389">
        <ele>298.7</ele>
        <time>2012-05-10T15:36:28Z</time>
      </trkpt>
      <trkpt lat="28.47244" lon="-10.29445">
        <ele>298.4</ele>
        <time>2012-05-10T15:36:33Z</time>
      </trkpt>
      <trkpt lat="28.47239" lon="-10.29468">
        <ele>298.2</ele>
        <time>2012-05-10T15:36:38Z</time>
      </trkpt>
      <trkpt lat="28.47236" lon="-10.2949">
        <ele>297.7</ele>
        <time>2012-05-10T15:36:43Z</time>
      </trkpt>
      <trkpt lat="28.47226" lon="-10.29558">
        <ele>295.8</ele>
        <time>2012-05-10T15:36:48Z</time>
      </trkpt>
      <trkpt lat="28.47225" lon="-10.29581">
        <ele>295.8</ele>
        <time>2012-05-10T15:36:53Z</time>
      </trkpt>
      <trkpt lat="28.47224" lon="-10.29615">
        <ele>295.9</ele>
        <time>2012-05-10T15:36:58Z</time>
      </trkpt>
      <trkpt lat="28.4722" lon="-10.29637">
        <ele>295.8</ele>
        <time>2012-05-10T15:37:03Z</time>
      </trkpt>
      <trkpt lat="28.47215" lon="-10.29659">
        <ele>295.4</ele>
        <time>2012-05-10T15:37:08Z</time>
      </trkpt>
      <trkpt lat="28.47203" lon="-10.29705">
        <ele>294.5</ele>
        <time>2012-05-10T15:37:13Z</time>
      </trkpt>
      <trkpt lat="28.47184" lon="-10.29777">
        <ele>294.1</ele>
        <time>2012-05-10T15:37:18Z</time>
      </trkpt>
      <trkpt lat="28.47173" lon="-10.29826">
        <ele>293.5</ele>
        <time>2012-05-10T15:37:23Z</time>
      </trkpt>
      <trkpt lat="28.47155" lon="-10.29884">
        <ele>293.2</ele>
        <time>2012-05-10T15:37:28Z</time>
      </trkpt>
      <trkpt lat="28.47148" lon="-10.29907">
        <ele>292.9</ele>
        <time>2012-05-10T15:37:33Z</time>
      </trkpt>
      <trkpt lat="28.4713" lon="-10.29985">
        <ele>291.7</ele>
        <time>2012-05-10T15:37:38Z</time>
      </trkpt>
      <trkpt lat="28.47127" lon="-10.30007">
        <ele>291.2</ele>
        <time>2012-05-10T15:37:43Z</time>
      </trkpt>
      <trkpt lat="28.47123" lon="-10.30027">
        <ele>290.9</ele>
        <time>2012-05-10T15:37:48Z</time>
      </trkpt>
      <trkpt lat="28.47116" lon="-10.30055">
        <ele>290.8</ele>
        <time>2012-05-10T15:37:53Z</time>
      </trkpt>
      <trkpt lat="28.47111" lon="-10.30078">
        <ele>290.8</ele>
        <time>2012-05-10T15:37:58Z</time>
      </trkpt>
      <trkpt lat="28.47101" lon="-10.3014">
        <ele>289.4</ele>
        <time>2012-05-10T15:38:03Z</time>
      </trkpt>
      <trkpt lat="28.47097" lon="-10.30165">
        <ele>289.2</ele>
        <time>2012-05-10T15:38:08Z</time>
      </trkpt>
      <trkpt lat="28.47091" lon="-10.30191">
        <ele>288.7</ele>
        <time>2012-05-10T15:38:13Z</time>
      </trkpt>
      <trkpt lat="28.47083" lon="-10.30226">
        <ele>288.3</ele>
        <time>2012-05-10T15:38:18Z</time>
      </trkpt>
      <trkpt lat="28.4708" lon="-10.30253">
        <ele>287.8</ele>
        <time>2012-05-10T15:38:23Z</time>
      </trkpt>
      <trkpt lat="28.47075" lon="-10.30281">
        <ele>287.6</ele>
        <time>2012-05-10T15:38:28Z</time>
      </trkpt>
      <trkpt lat="28.47063" lon="-10.30327">
        <ele>287.6</ele>
        <time>2012-05-10T15:38:33Z</time>
      </trkpt>
      <trkpt lat="28.47054" lon="-10.30355">
        <ele>287.6</ele>
        <time>2012-05-10T15:38:38Z</time>
      </trkpt>
      <trkpt lat="28.47047" lon="-10.30385">
        <ele>287</ele>
        <time>2012-05-10T15:38:43Z</time>
      </trkpt>
      <trkpt lat="28.47042" lon="-10.30406">
        <ele>286.6</ele>
        <time>2012-05-10T15:38:48Z</time>
      </trkpt>
      <trkpt lat="28.47034" lon="-10.30433">
        <ele>286.2</ele>
        <time>2012-05-10T15:38:53Z</time>
      </trkpt>
      <trkpt lat="28.47027" lon="-10.3046">
        <ele>284.7</ele>
        <time>2012-05-10T15:38:58Z</time>
      </trkpt>
      <trkpt lat="28.47015" lon="-10.30484">
        <ele>284.2</ele>
        <time>2012-05-10T15:39:03Z</time>
      </trkpt>
      <trkpt lat="28.47006" lon="-10.30506">
        <ele>283.7</ele>
        <time>2012-05-10T15:39:08Z</time>
      </trkpt>
      <trkpt lat="28.47006" lon="-10.30529">
        <ele>283.6</ele>
        <time>2012-05-10T15:39:13Z</time>
      </trkpt>
      <trkpt lat="28.47007" lon="-10.30554">
        <ele>282.6</ele>
        <time>2012-05-10T15:39:18Z</time>
      </trkpt>
      <trkpt lat="28.47004" lon="-10.3058">
        <ele>282.2</ele>
        <time>2012-05-10T15:39:23Z</time>
      </trkpt>
      <trkpt lat="28.47001" lon="-10.30608">
        <ele>282.2</ele>
        <time>2012-05-10T15:39:28Z</time>
      </trkpt>
      <trkpt lat="28.47002" lon="-10.30637">
        <ele>282.9</ele>
        <time>2012-05-10T15:39:33Z</time>
      </trkpt>
      <trkpt lat="28.47004" lon="-10.30678">
        <ele>282.3</ele>
        <time>2012-05-10T15:39:38Z</time>
      </trkpt>
      <trkpt lat="28.47003" lon="-10.30708">
        <ele>282.3</ele>
        <time>2012-05-10T15:39:43Z</time>
      </trkpt>
      <trkpt lat="28.47002" lon="-10.30737">
        <ele>282.1</ele>
        <time>2012-05-10T15:39:48Z</time>
      </trkpt>
      <trkpt lat="28.47003" lon="-10.30766">
        <ele>282.3</ele>
        <time>2012-05-10T15:39:53Z</time>
      </trkpt>
      <trkpt lat="28.47012" lon="-10.30868">
        <ele>281.4</ele>
        <time>2012-05-10T15:39:58Z</time>
      </trkpt>
      <trkpt lat="28.47018" lon="-10.30897">
        <ele>282.5</ele>
        <time>2012-05-10T15:40:03Z</time>
      </trkpt>
      <trkpt lat="28.47024" lon="-10.30924">
        <ele>282.6</ele>
        <time>2012-05-10T15:40:08Z</time>
      </trkpt>
      <trkpt lat="28.47027" lon="-10.30951">
        <ele>282.9</ele>
        <time>2012-05-10T15:40:13Z</time>
      </trkpt>
      <trkpt lat="28.47032" lon="-10.30977">
        <ele>283.2</ele>
        <time>2012-05-10T15:40:18Z</time>
      </trkpt>
      <trkpt lat="28.47031" lon="-10.31005">
        <ele>283.7</ele>
        <time>2012-05-10T15:40:23Z</time>
      </trkpt>
      <trkpt lat="28.47024" lon="-10.31029">
        <ele>283.8</ele>
        <time>2012-05-10T15:40:28Z</time>
      </trkpt>
      <trkpt lat="28.47017" lon="-10.31051">
        <ele>283.6</ele>
        <time>2012-05-10T15:40:33Z</time>
      </trkpt>
      <trkpt lat="28.47002" lon="-10.31109">
        <ele>283.6</ele>
        <time>2012-05-10T15:40:38Z</time>
      </trkpt>
      <trkpt lat="28.46986" lon="-10.31164">
        <ele>283.5</ele>
        <time>2012-05-10T15:40:43Z</time>
      </trkpt>
      <trkpt lat="28.46979" lon="-10.31185">
        <ele>283.4</ele>
        <time>2012-05-10T15:40:48Z</time>
      </trkpt>
      <trkpt lat="28.46972" lon="-10.31212">
        <ele>283.6</ele>
        <time>2012-05-10T15:40:53Z</time>
      </trkpt>
      <trkpt lat="28.46968" lon="-10.31234">
        <ele>283.6</ele>
        <time>2012-05-10T15:40:58Z</time>
      </trkpt>
      <trkpt lat="28.46967" lon="-10.31258">
        <ele>283.6</ele>
        <time>2012-05-10T15:41:03Z</time>
      </trkpt>
      <trkpt lat="28.4697" lon="-10.31281">
        <ele>283.3</ele>
        <time>2012-05-10T15:41:08Z</time>
      </trkpt>
      <trkpt lat="28.46973" lon="-10.31304">
        <ele>283.6</ele>
        <time>2012-05-10T15:41:13Z</time>
      </trkpt>
      <trkpt lat="28.46975" lon="-10.31326">
        <ele>283.4</ele>
        <time>2012-05-10T15:41:18Z</time>
      </trkpt>
      <trkpt lat="28.46977" lon="-10.31348">
        <ele>283.6</ele>
        <time>2012-05-10T15:41:23Z</time>
      </trkpt>
      <trkpt lat="28.46981" lon="-10.31377">
        <ele>283.8</ele>
        <time>2012-05-10T15:41:28Z</time>
      </trkpt>
      <trkpt lat="28.46986" lon="-10.31398">
        <ele>283.3</ele>
        <time>2012-05-10T15:41:33Z</time>
      </trkpt>
      <trkpt lat="28.46992" lon="-10.31419">
        <ele>282.8</ele>
        <time>2012-05-10T15:41:38Z</time>
      </trkpt>
      <trkpt lat="28.47001" lon="-10.31437">
        <ele>282.4</ele>
        <time>2012-05-10T15:41:43Z</time>
      </trkpt>
      <trkpt lat="28.47013" lon="-10.31456">
        <ele>282.3</ele>
        <time>2012-05-10T15:41:48Z</time>
      </trkpt>
      <trkpt lat="28.47026" lon="-10.31473">
        <ele>282</ele>
        <time>2012-05-10T15:41:53Z</time>
      </trkpt>
      <trkpt lat="28.4704" lon="-10.31492">
        <ele>281.5</ele>
        <time>2012-05-10T15:41:58Z</time>
      </trkpt>
      <trkpt lat="28.47052" lon="-10.31509">
        <ele>282.2</ele>
        <time>2012-05-10T15:42:03Z</time>
      </trkpt>
      <trkpt lat="28.471" lon="-10.31573">
        <ele>281.7</ele>
        <time>2012-05-10T15:42:08Z</time>
      </trkpt>
      <trkpt lat="28.47116" lon="-10.31593">
        <ele>281.7</ele>
        <time>2012-05-10T15:42:13Z</time>
      </trkpt>
      <trkpt lat="28.47128" lon="-10.31611">
        <ele>280</ele>
        <time>2012-05-10T15:42:18Z</time>
      </trkpt>
      <trkpt lat="28.4715" lon="-10.31605">
        <ele>278.1</ele>
        <time>2012-05-10T15:42:23Z</time>
      </trkpt>
      <trkpt lat="28.47178" lon="-10.31588">
        <ele>275.7</ele>
        <time>2012-05-10T15:42:28Z</time>
      </trkpt>
      <trkpt lat="28.47199" lon="-10.31583">
        <ele>274.4</ele>
        <time>2012-05-10T15:42:33Z</time>
      </trkpt>
      <trkpt lat="28.47219" lon="-10.31579">
        <ele>274.8</ele>
        <time>2012-05-10T15:42:38Z</time>
      </trkpt>
      <trkpt lat="28.47241" lon="-10.31573">
        <ele>275.5</ele>
        <time>2012-05-10T15:42:43Z</time>
      </trkpt>
      <trkpt lat="28.47273" lon="-10.31565">
        <ele>277</ele>
        <time>2012-05-10T15:42:48Z</time>
      </trkpt>
      <trkpt lat="28.4729" lon="-10.31558">
        <ele>279.8</ele>
        <time>2012-05-10T15:42:53Z</time>
      </trkpt>
      <trkpt lat="28.47311" lon="-10.31545">
        <ele>281.7</ele>
        <time>2012-05-10T15:42:58Z</time>
      </trkpt>
      <trkpt lat="28.47354" lon="-10.31506">
        <ele>282.8</ele>
        <time>2012-05-10T15:43:03Z</time>
      </trkpt>
      <trkpt lat="28.47375" lon="-10.31487">
        <ele>283.1</ele>
        <time>2012-05-10T15:43:08Z</time>
      </trkpt>
      <trkpt lat="28.47393" lon="-10.31477">
        <ele>282.5</ele>
        <time>2012-05-10T15:43:13Z</time>
      </trkpt>
      <trkpt lat="28.47411" lon="-10.3147">
        <ele>283</ele>
        <time>2012-05-10T15:43:18Z</time>
      </trkpt>
      <trkpt lat="28.47432" lon="-10.31467">
        <ele>283.4</ele>
        <time>2012-05-10T15:43:23Z</time>
      </trkpt>
      <trkpt lat="28.47454" lon="-10.31467">
        <ele>284.3</ele>
        <time>2012-05-10T15:43:28Z</time>
      </trkpt>
      <trkpt lat="28.47475" lon="-10.31468">
        <ele>285.4</ele>
        <time>2012-05-10T15:43:33Z</time>
      </trkpt>
      <trkpt lat="28.47496" lon="-10.31468">
        <ele>285.9</ele>
        <time>2012-05-10T15:43:38Z</time>
      </trkpt>
      <trkpt lat="28.47517" lon="-10.31469">
        <ele>287.1</ele>
        <time>2012-05-10T15:43:43Z</time>
      </trkpt>
      <trkpt lat="28.47538" lon="-10.31474">
        <ele>287.1</ele>
        <time>2012-05-10T15:43:48Z</time>
      </trkpt>
      <trkpt lat="28.47559" lon="-10.31482">
        <ele>287.2</ele>
        <time>2012-05-10T15:43:53Z</time>
      </trkpt>
      <trkpt lat="28.47578" lon="-10.3149">
        <ele>287.4</ele>
        <time>2012-05-10T15:43:58Z</time>
      </trkpt>
      <trkpt lat="28.47602" lon="-10.31495">
        <ele>288.2</ele>
        <time>2012-05-10T15:44:03Z</time>
      </trkpt>
      <trkpt lat="28.47627" lon="-10.31492">
        <ele>288.6</ele>
        <time>2012-05-10T15:44:08Z</time>
      </trkpt>
      <trkpt lat="28.47657" lon="-10.31486">
        <ele>289.5</ele>
        <time>2012-05-10T15:44:13Z</time>
      </trkpt>
      <trkpt lat="28.47675" lon="-10.31484">
        <ele>289.2</ele>
        <time>2012-05-10T15:44:18Z</time>
      </trkpt>
      <trkpt lat="28.47696" lon="-10.31482">
        <ele>287.2</ele>
        <time>2012-05-10T15:44:23Z</time>
      </trkpt>
      <trkpt lat="28.47714" lon="-10.31478">
        <ele>285.8</ele>
        <time>2012-05-10T15:44:28Z</time>
      </trkpt>
      <trkpt lat="28.47732" lon="-10.31478">
        <ele>283.4</ele>
        <time>2012-05-10T15:44:33Z</time>
      </trkpt>
      <trkpt lat="28.47752" lon="-10.31487">
        <ele>285</ele>
        <time>2012-05-10T15:44:38Z</time>
      </trkpt>
      <trkpt lat="28.47771" lon="-10.31496">
        <ele>284.4</ele>
        <time>2012-05-10T15:44:43Z</time>
      </trkpt>
      <trkpt lat="28.47792" lon="-10.31508">
        <ele>283.7</ele>
        <time>2012-05-10T15:44:48Z</time>
      </trkpt>
      <trkpt lat="28.47809" lon="-10.31506">
        <ele>281.5</ele>
        <time>2012-05-10T15:44:53Z</time>
      </trkpt>
      <trkpt lat="28.47826" lon="-10.31516">
        <ele>282.1</ele>
        <time>2012-05-10T15:44:58Z</time>
      </trkpt>
      <trkpt lat="28.47842" lon="-10.31528">
        <ele>283.7</ele>
        <time>2012-05-10T15:45:03Z</time>
      </trkpt>
      <trkpt lat="28.47861" lon="-10.31534">
        <ele>281.9</ele>
        <time>2012-05-10T15:45:08Z</time>
      </trkpt>
      <trkpt lat="28.4788" lon="-10.31542">
        <ele>281.3</ele>
        <time>2012-05-10T15:45:13Z</time>
      </trkpt>
      <trkpt lat="28.47902" lon="-10.31547">
        <ele>280.1</ele>
        <time>2012-05-10T15:45:18Z</time>
      </trkpt>
      <trkpt lat="28.47923" lon="-10.31551">
        <ele>279.5</ele>
        <time>2012-05-10T15:45:23Z</time>
      </trkpt>
      <trkpt lat="28.47943" lon="-10.31553">
        <ele>279.6</ele>
        <time>2012-05-10T15:45:28Z</time>
      </trkpt>
      <trkpt lat="28.47962" lon="-10.31556">
        <ele>280.3</ele>
        <time>2012-05-10T15:45:33Z</time>
      </trkpt>
      <trkpt lat="28.47984" lon="-10.31564">
        <ele>280.4</ele>
        <time>2012-05-10T15:45:38Z</time>
      </trkpt>
      <trkpt lat="28.48003" lon="-10.31556">
        <ele>281.2</ele>
        <time>2012-05-10T15:45:43Z</time>
      </trkpt>
      <trkpt lat="28.48025" lon="-10.31558">
        <ele>280.9</ele>
        <time>2012-05-10T15:45:48Z</time>
      </trkpt>
      <trkpt lat="28.48044" lon="-10.31558">
        <ele>281.8</ele>
        <time>2012-05-10T15:45:53Z</time>
      </trkpt>
      <trkpt lat="28.48064" lon="-10.31555">
        <ele>282.7</ele>
        <time>2012-05-10T15:45:58Z</time>
      </trkpt>
      <trkpt lat="28.48089" lon="-10.31551">
        <ele>283.8</ele>
        <time>2012-05-10T15:46:03Z</time>
      </trkpt>
      <trkpt lat="28.4811" lon="-10.31543">
        <ele>284.3</ele>
        <time>2012-05-10T15:46:08Z</time>
      </trkpt>
      <trkpt lat="28.48128" lon="-10.31534">
        <ele>286.4</ele>
        <time>2012-05-10T15:46:13Z</time>
      </trkpt>
      <trkpt lat="28.48151" lon="-10.31533">
        <ele>287.7</ele>
        <time>2012-05-10T15:46:18Z</time>
      </trkpt>
      <trkpt lat="28.4817" lon="-10.31531">
        <ele>288.7</ele>
        <time>2012-05-10T15:46:23Z</time>
      </trkpt>
      <trkpt lat="28.48189" lon="-10.3152">
        <ele>289.7</ele>
        <time>2012-05-10T15:46:28Z</time>
      </trkpt>
      <trkpt lat="28.48208" lon="-10.3151">
        <ele>291</ele>
        <time>2012-05-10T15:46:33Z</time>
      </trkpt>
      <trkpt lat="28.48227" lon="-10.315">
        <ele>292.1</ele>
        <time>2012-05-10T15:46:38Z</time>
      </trkpt>
      <trkpt lat="28.48245" lon="-10.31487">
        <ele>293.5</ele>
        <time>2012-05-10T15:46:43Z</time>
      </trkpt>
      <trkpt lat="28.48275" lon="-10.31466">
        <ele>293.6</ele>
        <time>2012-05-10T15:46:48Z</time>
      </trkpt>
      <trkpt lat="28.48296" lon="-10.31447">
        <ele>294.3</ele>
        <time>2012-05-10T15:46:53Z</time>
      </trkpt>
      <trkpt lat="28.4831" lon="-10.31434">
        <ele>294.7</ele>
        <time>2012-05-10T15:46:58Z</time>
      </trkpt>
      <trkpt lat="28.48321" lon="-10.31417">
        <ele>294.4</ele>
        <time>2012-05-10T15:47:03Z</time>
      </trkpt>
      <trkpt lat="28.48336" lon="-10.31393">
        <ele>292.9</ele>
        <time>2012-05-10T15:47:08Z</time>
      </trkpt>
      <trkpt lat="28.48339" lon="-10.31367">
        <ele>293.1</ele>
        <time>2012-05-10T15:47:13Z</time>
      </trkpt>
      <trkpt lat="28.48345" lon="-10.31342">
        <ele>293.2</ele>
        <time>2012-05-10T15:47:18Z</time>
      </trkpt>
      <trkpt lat="28.48347" lon="-10.31316">
        <ele>294.7</ele>
        <time>2012-05-10T15:47:23Z</time>
      </trkpt>
      <trkpt lat="28.48341" lon="-10.31296">
        <ele>295.1</ele>
        <time>2012-05-10T15:47:28Z</time>
      </trkpt>
      <trkpt lat="28.48333" lon="-10.31274">
        <ele>295.2</ele>
        <time>2012-05-10T15:47:33Z</time>
      </trkpt>
      <trkpt lat="28.48319" lon="-10.31224">
        <ele>295.3</ele>
        <time>2012-05-10T15:47:38Z</time>
      </trkpt>
      <trkpt lat="28.48316" lon="-10.31198">
        <ele>296.6</ele>
        <time>2012-05-10T15:47:43Z</time>
      </trkpt>
      <trkpt lat="28.4831" lon="-10.31178">
        <ele>296.7</ele>
        <time>2012-05-10T15:47:48Z</time>
      </trkpt>
      <trkpt lat="28.48297" lon="-10.31141">
        <ele>297.3</ele>
        <time>2012-05-10T15:47:53Z</time>
      </trkpt>
      <trkpt lat="28.48284" lon="-10.31122">
        <ele>297.3</ele>
        <time>2012-05-10T15:47:58Z</time>
      </trkpt>
      <trkpt lat="28.48271" lon="-10.31105">
        <ele>298.2</ele>
        <time>2012-05-10T15:48:03Z</time>
      </trkpt>
      <trkpt lat="28.48259" lon="-10.31087">
        <ele>297.9</ele>
        <time>2012-05-10T15:48:08Z</time>
      </trkpt>
      <trkpt lat="28.48256" lon="-10.31066">
        <ele>297.9</ele>
        <time>2012-05-10T15:48:13Z</time>
      </trkpt>
      <trkpt lat="28.48254" lon="-10.31045">
        <ele>298.4</ele>
        <time>2012-05-10T15:48:18Z</time>
      </trkpt>
      <trkpt lat="28.48255" lon="-10.3102">
        <ele>299.3</ele>
        <time>2012-05-10T15:48:23Z</time>
      </trkpt>
      <trkpt lat="28.48259" lon="-10.30997">
        <ele>299.8</ele>
        <time>2012-05-10T15:48:28Z</time>
      </trkpt>
      <trkpt lat="28.48272" lon="-10.3098">
        <ele>300.1</ele>
        <time>2012-05-10T15:48:33Z</time>
      </trkpt>
      <trkpt lat="28.48287" lon="-10.30956">
        <ele>300.1</ele>
        <time>2012-05-10T15:48:38Z</time>
      </trkpt>
      <trkpt lat="28.48302" lon="-10.30943">
        <ele>301.2</ele>
        <time>2012-05-10T15:48:43Z</time>
      </trkpt>
      <trkpt lat="28.48316" lon="-10.30929">
        <ele>301.9</ele>
        <time>2012-05-10T15:48:48Z</time>
      </trkpt>
      <trkpt lat="28.48336" lon="-10.30924">
        <ele>301.8</ele>
        <time>2012-05-10T15:48:53Z</time>
      </trkpt>
      <trkpt lat="28.48344" lon="-10.30933">
        <ele>304</ele>
        <time>2012-05-10T15:48:58Z</time>
      </trkpt>
      <trkpt lat="28.48344" lon="-10.30933">
        <ele>300.2</ele>
        <time>2012-05-10T15:49:03Z</time>
      </trkpt>
      <trkpt lat="28.48345" lon="-10.30935">
        <ele>300.7</ele>
        <time>2012-05-10T15:49:08Z</time>
      </trkpt>
      <trkpt lat="28.48345" lon="-10.30934">
        <ele>302.1</ele>
        <time>2012-05-10T15:49:13Z</time>
      </trkpt>
      <trkpt lat="28.48344" lon="-10.30934">
        <ele>299.9</ele>
        <time>2012-05-10T15:49:18Z</time>
      </trkpt>
      <trkpt lat="28.48343" lon="-10.30934">
        <ele>302.2</ele>
        <time>2012-05-10T15:49:23Z</time>
      </trkpt>
      <trkpt lat="28.48343" lon="-10.30935">
        <ele>305.8</ele>
        <time>2012-05-10T15:49:28Z</time>
      </trkpt>
      <trkpt lat="28.48344" lon="-10.30935">
        <ele>304.5</ele>
        <time>2012-05-10T15:49:33Z</time>
      </trkpt>
      <trkpt lat="28.48343" lon="-10.30935">
        <ele>307.6</ele>
        <time>2012-05-10T15:49:38Z</time>
      </trkpt>
      <trkpt lat="28.48342" lon="-10.30935">
        <ele>312.4</ele>
        <time>2012-05-10T15:49:43Z</time>
      </trkpt>
      <trkpt lat="28.48342" lon="-10.30935">
        <ele>310.8</ele>
        <time>2012-05-10T15:49:48Z</time>
      </trkpt>
      <trkpt lat="28.48342" lon="-10.30935">
        <ele>310.2</ele>
        <time>2012-05-10T15:49:53Z</time>
      </trkpt>
      <trkpt lat="28.48341" lon="-10.30936">
        <ele>314.7</ele>
        <time>2012-05-10T15:49:58Z</time>
      </trkpt>
      <trkpt lat="28.48341" lon="-10.30937">
        <ele>313.7</ele>
        <time>2012-05-10T15:50:03Z</time>
      </trkpt>
      <trkpt lat="28.48341" lon="-10.30936">
        <ele>307.8</ele>
        <time>2012-05-10T15:50:08Z</time>
      </trkpt>
      <trkpt lat="28.48343" lon="-10.30938">
        <ele>306.2</ele>
        <time>2012-05-10T15:50:13Z</time>
      </trkpt>
      <trkpt lat="28.48342" lon="-10.30936">
        <ele>309.1</ele>
        <time>2012-05-10T15:50:18Z</time>
      </trkpt>
      <trkpt lat="28.48341" lon="-10.30936">
        <ele>313.5</ele>
        <time>2012-05-10T15:50:23Z</time>
      </trkpt>
      <trkpt lat="28.48341" lon="-10.30936">
        <ele>313.8</ele>
        <time>2012-05-10T15:50:28Z</time>
      </trkpt>
      <trkpt lat="28.48323" lon="-10.3093">
        <ele>312.6</ele>
        <time>2012-05-10T15:50:33Z</time>
      </trkpt>
      <trkpt lat="28.48307" lon="-10.3094">
        <ele>310.6</ele>
        <time>2012-05-10T15:50:38Z</time>
      </trkpt>
      <trkpt lat="28.48293" lon="-10.30955">
        <ele>308.3</ele>
        <time>2012-05-10T15:50:43Z</time>
      </trkpt>
      <trkpt lat="28.48287" lon="-10.30942">
        <ele>304.8</ele>
        <time>2012-05-10T15:50:48Z</time>
      </trkpt>
      <trkpt lat="28.48298" lon="-10.30923">
        <ele>305.2</ele>
        <time>2012-05-10T15:50:53Z</time>
      </trkpt>
      <trkpt lat="28.48306" lon="-10.30903">
        <ele>305.4</ele>
        <time>2012-05-10T15:50:58Z</time>
      </trkpt>
      <trkpt lat="28.48313" lon="-10.30882">
        <ele>307.1</ele>
        <time>2012-05-10T15:51:03Z</time>
      </trkpt>
      <trkpt lat="28.48326" lon="-10.30866">
        <ele>307.2</ele>
        <time>2012-05-10T15:51:08Z</time>
      </trkpt>
      <trkpt lat="28.48342" lon="-10.30849">
        <ele>308.3</ele>
        <time>2012-05-10T15:51:13Z</time>
      </trkpt>
      <trkpt lat="28.48356" lon="-10.30834">
        <ele>307.7</ele>
        <time>2012-05-10T15:51:18Z</time>
      </trkpt>
      <trkpt lat="28.48369" lon="-10.30816">
        <ele>307.8</ele>
        <time>2012-05-10T15:51:23Z</time>
      </trkpt>
      <trkpt lat="28.48383" lon="-10.30802">
        <ele>306.3</ele>
        <time>2012-05-10T15:51:28Z</time>
      </trkpt>
      <trkpt lat="28.48402" lon="-10.30798">
        <ele>305.3</ele>
        <time>2012-05-10T15:51:33Z</time>
      </trkpt>
      <trkpt lat="28.48425" lon="-10.30797">
        <ele>305.6</ele>
        <time>2012-05-10T15:51:38Z</time>
      </trkpt>
      <trkpt lat="28.48445" lon="-10.30793">
        <ele>306</ele>
        <time>2012-05-10T15:51:43Z</time>
      </trkpt>
      <trkpt lat="28.48464" lon="-10.30787">
        <ele>306.2</ele>
        <time>2012-05-10T15:51:48Z</time>
      </trkpt>
      <trkpt lat="28.48482" lon="-10.30781">
        <ele>306.2</ele>
        <time>2012-05-10T15:51:53Z</time>
      </trkpt>
      <trkpt lat="28.48505" lon="-10.30778">
        <ele>305.2</ele>
        <time>2012-05-10T15:51:58Z</time>
      </trkpt>
      <trkpt lat="28.48524" lon="-10.3077">
        <ele>304.1</ele>
        <time>2012-05-10T15:52:03Z</time>
      </trkpt>
      <trkpt lat="28.48544" lon="-10.30762">
        <ele>301.7</ele>
        <time>2012-05-10T15:52:08Z</time>
      </trkpt>
      <trkpt lat="28.48565" lon="-10.30756">
        <ele>301.7</ele>
        <time>2012-05-10T15:52:13Z</time>
      </trkpt>
      <trkpt lat="28.48583" lon="-10.30746">
        <ele>302.3</ele>
        <time>2012-05-10T15:52:18Z</time>
      </trkpt>
      <trkpt lat="28.48595" lon="-10.3073">
        <ele>301.5</ele>
        <time>2012-05-10T15:52:23Z</time>
      </trkpt>
      <trkpt lat="28.48599" lon="-10.3071">
        <ele>301.8</ele>
        <time>2012-05-10T15:52:28Z</time>
      </trkpt>
      <trkpt lat="28.48595" lon="-10.3071">
        <ele>314.7</ele>
        <time>2012-05-10T15:52:33Z</time>
      </trkpt>
      <trkpt lat="28.48593" lon="-10.30714">
        <ele>317.6</ele>
        <time>2012-05-10T15:52:38Z</time>
      </trkpt>
      <trkpt lat="28.48589" lon="-10.30717">
        <ele>326.8</ele>
        <time>2012-05-10T15:52:43Z</time>
      </trkpt>
      <trkpt lat="28.48593" lon="-10.30715">
        <ele>326.3</ele>
        <time>2012-05-10T15:52:48Z</time>
      </trkpt>
      <trkpt lat="28.4859" lon="-10.30715">
        <ele>323.3</ele>
        <time>2012-05-10T15:52:53Z</time>
      </trkpt>
      <trkpt lat="28.4859" lon="-10.30716">
        <ele>324.4</ele>
        <time>2012-05-10T15:52:58Z</time>
      </trkpt>
      <trkpt lat="28.48587" lon="-10.30717">
        <ele>325.9</ele>
        <time>2012-05-10T15:53:03Z</time>
      </trkpt>
      <trkpt lat="28.48584" lon="-10.30715">
        <ele>319.8</ele>
        <time>2012-05-10T15:53:08Z</time>
      </trkpt>
      <trkpt lat="28.48587" lon="-10.30714">
        <ele>315</ele>
        <time>2012-05-10T15:53:13Z</time>
      </trkpt>
      <trkpt lat="28.48586" lon="-10.30716">
        <ele>326.4</ele>
        <time>2012-05-10T15:53:18Z</time>
      </trkpt>
      <trkpt lat="28.48584" lon="-10.30715">
        <ele>328.3</ele>
        <time>2012-05-10T15:53:23Z</time>
      </trkpt>
      <trkpt lat="28.48586" lon="-10.30712">
        <ele>323.9</ele>
        <time>2012-05-10T15:53:28Z</time>
      </trkpt>
      <trkpt lat="28.48586" lon="-10.30718">
        <ele>340</ele>
        <time>2012-05-10T15:53:33Z</time>
      </trkpt>
      <trkpt lat="28.48589" lon="-10.30717">
        <ele>342.6</ele>
        <time>2012-05-10T15:53:38Z</time>
      </trkpt>
      <trkpt lat="28.48589" lon="-10.30717">
        <ele>343.8</ele>
        <time>2012-05-10T15:53:43Z</time>
      </trkpt>
      <trkpt lat="28.4859" lon="-10.30715">
        <ele>343.4</ele>
        <time>2012-05-10T15:53:48Z</time>
      </trkpt>
      <trkpt lat="28.48593" lon="-10.30715">
        <ele>334.9</ele>
        <time>2012-05-10T15:53:53Z</time>
      </trkpt>
      <trkpt lat="28.48592" lon="-10.30713">
        <ele>326.2</ele>
        <time>2012-05-10T15:53:58Z</time>
      </trkpt>
      <trkpt lat="28.48588" lon="-10.30712">
        <ele>329.5</ele>
        <time>2012-05-10T15:54:03Z</time>
      </trkpt>
      <trkpt lat="28.48588" lon="-10.30711">
        <ele>331.8</ele>
        <time>2012-05-10T15:54:08Z</time>
      </trkpt>
      <trkpt lat="28.48582" lon="-10.30712">
        <ele>324.6</ele>
        <time>2012-05-10T15:54:13Z</time>
      </trkpt>
      <trkpt lat="28.48575" lon="-10.30715">
        <ele>323.4</ele>
        <time>2012-05-10T15:54:18Z</time>
      </trkpt>
      <trkpt lat="28.48578" lon="-10.30714">
        <ele>321.8</ele>
        <time>2012-05-10T15:54:23Z</time>
      </trkpt>
      <trkpt lat="28.48582" lon="-10.30712">
        <ele>316.5</ele>
        <time>2012-05-10T15:54:28Z</time>
      </trkpt>
      <trkpt lat="28.48586" lon="-10.30709">
        <ele>315.8</ele>
        <time>2012-05-10T15:54:33Z</time>
      </trkpt>
      <trkpt lat="28.48588" lon="-10.30709">
        <ele>311.7</ele>
        <time>2012-05-10T15:54:38Z</time>
      </trkpt>
      <trkpt lat="28.4859" lon="-10.30709">
        <ele>312.1</ele>
        <time>2012-05-10T15:54:43Z</time>
      </trkpt>
      <trkpt lat="28.48578" lon="-10.30712">
        <ele>311</ele>
        <time>2012-05-10T15:54:48Z</time>
      </trkpt>
      <trkpt lat="28.4858" lon="-10.30715">
        <ele>321.8</ele>
        <time>2012-05-10T15:54:53Z</time>
      </trkpt>
      <trkpt lat="28.48586" lon="-10.30712">
        <ele>315.6</ele>
        <time>2012-05-10T15:54:58Z</time>
      </trkpt>
      <trkpt lat="28.48588" lon="-10.3071">
        <ele>306.9</ele>
        <time>2012-05-10T15:55:03Z</time>
      </trkpt>
      <trkpt lat="28.48591" lon="-10.3071">
        <ele>305.1</ele>
        <time>2012-05-10T15:55:08Z</time>
      </trkpt>
      <trkpt lat="28.4859" lon="-10.30711">
        <ele>309.4</ele>
        <time>2012-05-10T15:55:13Z</time>
      </trkpt>
      <trkpt lat="28.48591" lon="-10.30711">
        <ele>308.7</ele>
        <time>2012-05-10T15:55:18Z</time>
      </trkpt>
      <trkpt lat="28.48588" lon="-10.30713">
        <ele>310.2</ele>
        <time>2012-05-10T15:55:23Z</time>
      </trkpt>
      <trkpt lat="28.48585" lon="-10.30714">
        <ele>310.8</ele>
        <time>2012-05-10T15:55:28Z</time>
      </trkpt>
      <trkpt lat="28.48587" lon="-10.30714">
        <ele>313</ele>
        <time>2012-05-10T15:55:33Z</time>
      </trkpt>
      <trkpt lat="28.48588" lon="-10.30713">
        <ele>310.7</ele>
        <time>2012-05-10T15:55:38Z</time>
      </trkpt>
      <trkpt lat="28.48589" lon="-10.30714">
        <ele>315.3</ele>
        <time>2012-05-10T15:55:43Z</time>
      </trkpt>
      <trkpt lat="28.48588" lon="-10.30716">
        <ele>319.7</ele>
        <time>2012-05-10T15:55:48Z</time>
      </trkpt>
      <trkpt lat="28.48587" lon="-10.30716">
        <ele>317.9</ele>
        <time>2012-05-10T15:55:53Z</time>
      </trkpt>
      <trkpt lat="28.48588" lon="-10.30714">
        <ele>318.4</ele>
        <time>2012-05-10T15:55:58Z</time>
      </trkpt>
      <trkpt lat="28.48587" lon="-10.30714">
        <ele>320.1</ele>
        <time>2012-05-10T15:56:03Z</time>
      </trkpt>
      <trkpt lat="28.48592" lon="-10.30711">
        <ele>317.1</ele>
        <time>2012-05-10T15:56:08Z</time>
      </trkpt>
      <trkpt lat="28.48591" lon="-10.30711">
        <ele>314.3</ele>
        <time>2012-05-10T15:56:13Z</time>
      </trkpt>
      <trkpt lat="28.48589" lon="-10.30712">
        <ele>313.3</ele>
        <time>2012-05-10T15:56:18Z</time>
      </trkpt>
      <trkpt lat="28.48587" lon="-10.30712">
        <ele>315.7</ele>
        <time>2012-05-10T15:56:23Z</time>
      </trkpt>
      <trkpt lat="28.4859" lon="-10.30711">
        <ele>317.3</ele>
        <time>2012-05-10T15:56:28Z</time>
      </trkpt>
      <trkpt lat="28.48589" lon="-10.3071">
        <ele>317.2</ele>
        <time>2012-05-10T15:56:33Z</time>
      </trkpt>
      <trkpt lat="28.48592" lon="-10.3071">
        <ele>319.4</ele>
        <time>2012-05-10T15:56:38Z</time>
      </trkpt>
      <trkpt lat="28.48593" lon="-10.30712">
        <ele>311.4</ele>
        <time>2012-05-10T15:56:43Z</time>
      </trkpt>
      <trkpt lat="28.48593" lon="-10.30711">
        <ele>298.3</ele>
        <time>2012-05-10T15:56:48Z</time>
      </trkpt>
      <trkpt lat="28.48593" lon="-10.30709">
        <ele>291.3</ele>
        <time>2012-05-10T15:56:53Z</time>
      </trkpt>
      <trkpt lat="28.48593" lon="-10.30708">
        <ele>289.5</ele>
        <time>2012-05-10T15:56:58Z</time>
      </trkpt>
      <trkpt lat="28.48594" lon="-10.30709">
        <ele>294.4</ele>
        <time>2012-05-10T15:57:03Z</time>
      </trkpt>
      <trkpt lat="28.48594" lon="-10.3071">
        <ele>297.9</ele>
        <time>2012-05-10T15:57:08Z</time>
      </trkpt>
      <trkpt lat="28.48592" lon="-10.30711">
        <ele>303.1</ele>
        <time>2012-05-10T15:57:13Z</time>
      </trkpt>
      <trkpt lat="28.48588" lon="-10.30711">
        <ele>303.8</ele>
        <time>2012-05-10T15:57:18Z</time>
      </trkpt>
      <trkpt lat="28.48586" lon="-10.30712">
        <ele>305</ele>
        <time>2012-05-10T15:57:23Z</time>
      </trkpt>
      <trkpt lat="28.48591" lon="-10.30711">
        <ele>306.7</ele>
        <time>2012-05-10T15:57:28Z</time>
      </trkpt>
      <trkpt lat="28.48594" lon="-10.30711">
        <ele>309.6</ele>
        <time>2012-05-10T15:57:33Z</time>
      </trkpt>
      <trkpt lat="28.4859" lon="-10.30712">
        <ele>306.9</ele>
        <time>2012-05-10T15:57:38Z</time>
      </trkpt>
      <trkpt lat="28.48592" lon="-10.30712">
        <ele>308.9</ele>
        <time>2012-05-10T15:57:43Z</time>
      </trkpt>
      <trkpt lat="28.48591" lon="-10.30712">
        <ele>310.3</ele>
        <time>2012-05-10T15:57:48Z</time>
      </trkpt>
      <trkpt lat="28.48591" lon="-10.30711">
        <ele>309</ele>
        <time>2012-05-10T15:57:53Z</time>
      </trkpt>
      <trkpt lat="28.48591" lon="-10.30712">
        <ele>307.9</ele>
        <time>2012-05-10T15:57:58Z</time>
      </trkpt>
      <trkpt lat="28.48589" lon="-10.30713">
        <ele>307.3</ele>
        <time>2012-05-10T15:58:03Z</time>
      </trkpt>
      <trkpt lat="28.48591" lon="-10.30712">
        <ele>308.1</ele>
        <time>2012-05-10T15:58:08Z</time>
      </trkpt>
      <trkpt lat="28.48592" lon="-10.30711">
        <ele>309.7</ele>
        <time>2012-05-10T15:58:13Z</time>
      </trkpt>
      <trkpt lat="28.4859" lon="-10.30711">
        <ele>308.9</ele>
        <time>2012-05-10T15:58:18Z</time>
      </trkpt>
      <trkpt lat="28.48589" lon="-10.30711">
        <ele>307.1</ele>
        <time>2012-05-10T15:58:23Z</time>
      </trkpt>
      <trkpt lat="28.48591" lon="-10.30712">
        <ele>308.6</ele>
        <time>2012-05-10T15:58:28Z</time>
      </trkpt>
      <trkpt lat="28.48592" lon="-10.30712">
        <ele>306.6</ele>
        <time>2012-05-10T15:58:33Z</time>
      </trkpt>
      <trkpt lat="28.48592" lon="-10.3071">
        <ele>306.4</ele>
        <time>2012-05-10T15:58:38Z</time>
      </trkpt>
      <trkpt lat="28.4859" lon="-10.30709">
        <ele>307.6</ele>
        <time>2012-05-10T15:58:43Z</time>
      </trkpt>
      <trkpt lat="28.48591" lon="-10.3071">
        <ele>306.6</ele>
        <time>2012-05-10T15:58:48Z</time>
      </trkpt>
      <trkpt lat="28.48591" lon="-10.30709">
        <ele>307.1</ele>
        <time>2012-05-10T15:58:53Z</time>
      </trkpt>
      <trkpt lat="28.48589" lon="-10.30708">
        <ele>304.3</ele>
        <time>2012-05-10T15:58:58Z</time>
      </trkpt>
      <trkpt lat="28.48583" lon="-10.30708">
        <ele>302.1</ele>
        <time>2012-05-10T15:59:03Z</time>
      </trkpt>
      <trkpt lat="28.48584" lon="-10.30708">
        <ele>302.1</ele>
        <time>2012-05-10T15:59:08Z</time>
      </trkpt>
      <trkpt lat="28.48586" lon="-10.30709">
        <ele>304.1</ele>
        <time>2012-05-10T15:59:13Z</time>
      </trkpt>
      <trkpt lat="28.48588" lon="-10.30708">
        <ele>303.6</ele>
        <time>2012-05-10T15:59:18Z</time>
      </trkpt>
      <trkpt lat="28.48587" lon="-10.30707">
        <ele>302.6</ele>
        <time>2012-05-10T15:59:23Z</time>
      </trkpt>
      <trkpt lat="28.48587" lon="-10.30708">
        <ele>302.2</ele>
        <time>2012-05-10T15:59:28Z</time>
      </trkpt>
      <trkpt lat="28.48591" lon="-10.30708">
        <ele>311.1</ele>
        <time>2012-05-10T15:59:33Z</time>
      </trkpt>
      <trkpt lat="28.48588" lon="-10.30712">
        <ele>308.4</ele>
        <time>2012-05-10T15:59:38Z</time>
      </trkpt>
      <trkpt lat="28.48591" lon="-10.30712">
        <ele>313.3</ele>
        <time>2012-05-10T15:59:43Z</time>
      </trkpt>
      <trkpt lat="28.48588" lon="-10.30713">
        <ele>313.8</ele>
        <time>2012-05-10T15:59:48Z</time>
      </trkpt>
      <trkpt lat="28.48586" lon="-10.30714">
        <ele>307</ele>
        <time>2012-05-10T15:59:53Z</time>
      </trkpt>
      <trkpt lat="28.48585" lon="-10.30714">
        <ele>306</ele>
        <time>2012-05-10T15:59:58Z</time>
      </trkpt>
      <trkpt lat="28.48585" lon="-10.30713">
        <ele>306.7</ele>
        <time>2012-05-10T16:00:03Z</time>
      </trkpt>
      <trkpt lat="28.48589" lon="-10.30712">
        <ele>307.5</ele>
        <time>2012-05-10T16:00:08Z</time>
      </trkpt>
      <trkpt lat="28.48591" lon="-10.30711">
        <ele>311</ele>
        <time>2012-05-10T16:00:13Z</time>
      </trkpt>
      <trkpt lat="28.48592" lon="-10.3071">
        <ele>309.1</ele>
        <time>2012-05-10T16:00:18Z</time>
      </trkpt>
      <trkpt lat="28.48593" lon="-10.3071">
        <ele>308.9</ele>
        <time>2012-05-10T16:00:23Z</time>
      </trkpt>
      <trkpt lat="28.48592" lon="-10.3071">
        <ele>314</ele>
        <time>2012-05-10T16:00:28Z</time>
      </trkpt>
      <trkpt lat="28.48591" lon="-10.3071">
        <ele>309.8</ele>
        <time>2012-05-10T16:00:33Z</time>
      </trkpt>
      <trkpt lat="28.48594" lon="-10.30713">
        <ele>304.8</ele>
        <time>2012-05-10T16:00:38Z</time>
      </trkpt>
      <trkpt lat="28.48591" lon="-10.30712">
        <ele>310</ele>
        <time>2012-05-10T16:00:43Z</time>
      </trkpt>
      <trkpt lat="28.48593" lon="-10.30715">
        <ele>309.8</ele>
        <time>2012-05-10T16:00:48Z</time>
      </trkpt>
      <trkpt lat="28.48595" lon="-10.30718">
        <ele>305.3</ele>
        <time>2012-05-10T16:00:53Z</time>
      </trkpt>
      <trkpt lat="28.48594" lon="-10.30716">
        <ele>307.1</ele>
        <time>2012-05-10T16:00:58Z</time>
      </trkpt>
      <trkpt lat="28.48594" lon="-10.30716">
        <ele>305.9</ele>
        <time>2012-05-10T16:01:03Z</time>
      </trkpt>
      <trkpt lat="28.48594" lon="-10.30716">
        <ele>301.9</ele>
        <time>2012-05-10T16:01:08Z</time>
      </trkpt>
      <trkpt lat="28.48595" lon="-10.30716">
        <ele>299.1</ele>
        <time>2012-05-10T16:01:13Z</time>
      </trkpt>
      <trkpt lat="28.48595" lon="-10.30715">
        <ele>300.9</ele>
        <time>2012-05-10T16:01:18Z</time>
      </trkpt>
      <trkpt lat="28.48593" lon="-10.30711">
        <ele>301.5</ele>
        <time>2012-05-10T16:01:23Z</time>
      </trkpt>
      <trkpt lat="28.48593" lon="-10.30711">
        <ele>299.1</ele>
        <time>2012-05-10T16:01:28Z</time>
      </trkpt>
      <trkpt lat="28.48591" lon="-10.30692">
        <ele>297.6</ele>
        <time>2012-05-10T16:01:33Z</time>
      </trkpt>
      <trkpt lat="28.48604" lon="-10.30675">
        <ele>301.3</ele>
        <time>2012-05-10T16:01:38Z</time>
      </trkpt>
      <trkpt lat="28.48614" lon="-10.30654">
        <ele>304.2</ele>
        <time>2012-05-10T16:01:43Z</time>
      </trkpt>
      <trkpt lat="28.48633" lon="-10.30591">
        <ele>307.5</ele>
        <time>2012-05-10T16:01:48Z</time>
      </trkpt>
      <trkpt lat="28.48647" lon="-10.30554">
        <ele>308</ele>
        <time>2012-05-10T16:01:53Z</time>
      </trkpt>
      <trkpt lat="28.48653" lon="-10.30531">
        <ele>308.6</ele>
        <time>2012-05-10T16:01:58Z</time>
      </trkpt>
      <trkpt lat="28.4866" lon="-10.30508">
        <ele>309.3</ele>
        <time>2012-05-10T16:02:03Z</time>
      </trkpt>
      <trkpt lat="28.48666" lon="-10.30484">
        <ele>310.3</ele>
        <time>2012-05-10T16:02:08Z</time>
      </trkpt>
      <trkpt lat="28.4867" lon="-10.30459">
        <ele>311</ele>
        <time>2012-05-10T16:02:13Z</time>
      </trkpt>
      <trkpt lat="28.48671" lon="-10.30439">
        <ele>311.5</ele>
        <time>2012-05-10T16:02:18Z</time>
      </trkpt>
      <trkpt lat="28.48667" lon="-10.30415">
        <ele>312.2</ele>
        <time>2012-05-10T16:02:23Z</time>
      </trkpt>
      <trkpt lat="28.48665" lon="-10.30391">
        <ele>310</ele>
        <time>2012-05-10T16:02:28Z</time>
      </trkpt>
      <trkpt lat="28.48665" lon="-10.3037">
        <ele>309.6</ele>
        <time>2012-05-10T16:02:33Z</time>
      </trkpt>
      <trkpt lat="28.48665" lon="-10.30349">
        <ele>310.2</ele>
        <time>2012-05-10T16:02:38Z</time>
      </trkpt>
      <trkpt lat="28.48662" lon="-10.30325">
        <ele>310</ele>
        <time>2012-05-10T16:02:43Z</time>
      </trkpt>
      <trkpt lat="28.48652" lon="-10.30294">
        <ele>310.1</ele>
        <time>2012-05-10T16:02:48Z</time>
      </trkpt>
      <trkpt lat="28.48646" lon="-10.30268">
        <ele>311.9</ele>
        <time>2012-05-10T16:02:53Z</time>
      </trkpt>
      <trkpt lat="28.48634" lon="-10.30246">
        <ele>314</ele>
        <time>2012-05-10T16:02:58Z</time>
      </trkpt>
      <trkpt lat="28.48628" lon="-10.30222">
        <ele>315.7</ele>
        <time>2012-05-10T16:03:03Z</time>
      </trkpt>
      <trkpt lat="28.48623" lon="-10.30202">
        <ele>316.3</ele>
        <time>2012-05-10T16:03:08Z</time>
      </trkpt>
      <trkpt lat="28.48614" lon="-10.30183">
        <ele>316.6</ele>
        <time>2012-05-10T16:03:13Z</time>
      </trkpt>
      <trkpt lat="28.48608" lon="-10.30163">
        <ele>317.3</ele>
        <time>2012-05-10T16:03:18Z</time>
      </trkpt>
      <trkpt lat="28.48602" lon="-10.30138">
        <ele>317.8</ele>
        <time>2012-05-10T16:03:23Z</time>
      </trkpt>
      <trkpt lat="28.48591" lon="-10.30096">
        <ele>318.8</ele>
        <time>2012-05-10T16:03:28Z</time>
      </trkpt>
      <trkpt lat="28.48584" lon="-10.30073">
        <ele>319</ele>
        <time>2012-05-10T16:03:33Z</time>
      </trkpt>
      <trkpt lat="28.48579" lon="-10.3005">
        <ele>319.8</ele>
        <time>2012-05-10T16:03:38Z</time>
      </trkpt>
      <trkpt lat="28.4858" lon="-10.30028">
        <ele>319.3</ele>
        <time>2012-05-10T16:03:43Z</time>
      </trkpt>
      <trkpt lat="28.48586" lon="-10.30005">
        <ele>319.8</ele>
        <time>2012-05-10T16:03:48Z</time>
      </trkpt>
      <trkpt lat="28.48595" lon="-10.29984">
        <ele>319.2</ele>
        <time>2012-05-10T16:03:53Z</time>
      </trkpt>
      <trkpt lat="28.48606" lon="-10.29965">
        <ele>319.6</ele>
        <time>2012-05-10T16:03:58Z</time>
      </trkpt>
      <trkpt lat="28.48614" lon="-10.29944">
        <ele>319.4</ele>
        <time>2012-05-10T16:04:03Z</time>
      </trkpt>
      <trkpt lat="28.4863" lon="-10.29931">
        <ele>320.3</ele>
        <time>2012-05-10T16:04:08Z</time>
      </trkpt>
      <trkpt lat="28.48648" lon="-10.29926">
        <ele>321.7</ele>
        <time>2012-05-10T16:04:13Z</time>
      </trkpt>
      <trkpt lat="28.4866" lon="-10.29909">
        <ele>320.5</ele>
        <time>2012-05-10T16:04:18Z</time>
      </trkpt>
      <trkpt lat="28.48663" lon="-10.29884">
        <ele>320</ele>
        <time>2012-05-10T16:04:23Z</time>
      </trkpt>
      <trkpt lat="28.48663" lon="-10.29861">
        <ele>319.6</ele>
        <time>2012-05-10T16:04:28Z</time>
      </trkpt>
      <trkpt lat="28.48672" lon="-10.29844">
        <ele>320</ele>
        <time>2012-05-10T16:04:33Z</time>
      </trkpt>
      <trkpt lat="28.48689" lon="-10.29834">
        <ele>321.3</ele>
        <time>2012-05-10T16:04:38Z</time>
      </trkpt>
      <trkpt lat="28.4871" lon="-10.29826">
        <ele>322.4</ele>
        <time>2012-05-10T16:04:43Z</time>
      </trkpt>
      <trkpt lat="28.48727" lon="-10.29816">
        <ele>323.3</ele>
        <time>2012-05-10T16:04:48Z</time>
      </trkpt>
      <trkpt lat="28.48743" lon="-10.29807">
        <ele>324.7</ele>
        <time>2012-05-10T16:04:53Z</time>
      </trkpt>
      <trkpt lat="28.48763" lon="-10.29804">
        <ele>326</ele>
        <time>2012-05-10T16:04:58Z</time>
      </trkpt>
      <trkpt lat="28.48783" lon="-10.29803">
        <ele>327.1</ele>
        <time>2012-05-10T16:05:03Z</time>
      </trkpt>
      <trkpt lat="28.48802" lon="-10.29807">
        <ele>327.5</ele>
        <time>2012-05-10T16:05:08Z</time>
      </trkpt>
      <trkpt lat="28.48822" lon="-10.29815">
        <ele>327</ele>
        <time>2012-05-10T16:05:13Z</time>
      </trkpt>
      <trkpt lat="28.48843" lon="-10.29821">
        <ele>325.6</ele>
        <time>2012-05-10T16:05:18Z</time>
      </trkpt>
      <trkpt lat="28.48862" lon="-10.29825">
        <ele>325.8</ele>
        <time>2012-05-10T16:05:23Z</time>
      </trkpt>
      <trkpt lat="28.48887" lon="-10.29829">
        <ele>326.2</ele>
        <time>2012-05-10T16:05:28Z</time>
      </trkpt>
      <trkpt lat="28.48906" lon="-10.29831">
        <ele>324.6</ele>
        <time>2012-05-10T16:05:33Z</time>
      </trkpt>
      <trkpt lat="28.48928" lon="-10.29832">
        <ele>323.8</ele>
        <time>2012-05-10T16:05:38Z</time>
      </trkpt>
      <trkpt lat="28.48949" lon="-10.29826">
        <ele>324.5</ele>
        <time>2012-05-10T16:05:43Z</time>
      </trkpt>
      <trkpt lat="28.48967" lon="-10.29814">
        <ele>325</ele>
        <time>2012-05-10T16:05:48Z</time>
      </trkpt>
      <trkpt lat="28.48983" lon="-10.29803">
        <ele>326</ele>
        <time>2012-05-10T16:05:53Z</time>
      </trkpt>
      <trkpt lat="28.49002" lon="-10.29791">
        <ele>325.1</ele>
        <time>2012-05-10T16:05:58Z</time>
      </trkpt>
      <trkpt lat="28.4902" lon="-10.2978">
        <ele>324.9</ele>
        <time>2012-05-10T16:06:03Z</time>
      </trkpt>
      <trkpt lat="28.49039" lon="-10.2977">
        <ele>325.4</ele>
        <time>2012-05-10T16:06:08Z</time>
      </trkpt>
      <trkpt lat="28.49069" lon="-10.29753">
        <ele>326</ele>
        <time>2012-05-10T16:06:13Z</time>
      </trkpt>
      <trkpt lat="28.49138" lon="-10.29713">
        <ele>329.5</ele>
        <time>2012-05-10T16:06:18Z</time>
      </trkpt>
      <trkpt lat="28.49156" lon="-10.29707">
        <ele>330.7</ele>
        <time>2012-05-10T16:06:23Z</time>
      </trkpt>
      <trkpt lat="28.49174" lon="-10.29707">
        <ele>332.3</ele>
        <time>2012-05-10T16:06:28Z</time>
      </trkpt>
      <trkpt lat="28.49192" lon="-10.29712">
        <ele>333.9</ele>
        <time>2012-05-10T16:06:33Z</time>
      </trkpt>
      <trkpt lat="28.49209" lon="-10.29721">
        <ele>334.7</ele>
        <time>2012-05-10T16:06:38Z</time>
      </trkpt>
      <trkpt lat="28.49235" lon="-10.29726">
        <ele>336.5</ele>
        <time>2012-05-10T16:06:43Z</time>
      </trkpt>
      <trkpt lat="28.49259" lon="-10.29718">
        <ele>339</ele>
        <time>2012-05-10T16:06:48Z</time>
      </trkpt>
      <trkpt lat="28.49282" lon="-10.29703">
        <ele>341.3</ele>
        <time>2012-05-10T16:06:53Z</time>
      </trkpt>
      <trkpt lat="28.49304" lon="-10.29696">
        <ele>342.7</ele>
        <time>2012-05-10T16:06:58Z</time>
      </trkpt>
      <trkpt lat="28.49311" lon="-10.29716">
        <ele>344</ele>
        <time>2012-05-10T16:07:03Z</time>
      </trkpt>
      <trkpt lat="28.49292" lon="-10.29732">
        <ele>345.9</ele>
        <time>2012-05-10T16:07:08Z</time>
      </trkpt>
      <trkpt lat="28.49279" lon="-10.29754">
        <ele>347.2</ele>
        <time>2012-05-10T16:07:13Z</time>
      </trkpt>
      <trkpt lat="28.49279" lon="-10.29782">
        <ele>348.7</ele>
        <time>2012-05-10T16:07:18Z</time>
      </trkpt>
      <trkpt lat="28.49289" lon="-10.2981">
        <ele>350.5</ele>
        <time>2012-05-10T16:07:23Z</time>
      </trkpt>
      <trkpt lat="28.49306" lon="-10.29839">
        <ele>352.2</ele>
        <time>2012-05-10T16:07:28Z</time>
      </trkpt>
      <trkpt lat="28.49333" lon="-10.29886">
        <ele>354.8</ele>
        <time>2012-05-10T16:07:33Z</time>
      </trkpt>
      <trkpt lat="28.49348" lon="-10.29907">
        <ele>356</ele>
        <time>2012-05-10T16:07:38Z</time>
      </trkpt>
      <trkpt lat="28.49365" lon="-10.29909">
        <ele>358</ele>
        <time>2012-05-10T16:07:43Z</time>
      </trkpt>
      <trkpt lat="28.49354" lon="-10.29888">
        <ele>359.6</ele>
        <time>2012-05-10T16:07:48Z</time>
      </trkpt>
      <trkpt lat="28.49342" lon="-10.29864">
        <ele>360.8</ele>
        <time>2012-05-10T16:07:53Z</time>
      </trkpt>
      <trkpt lat="28.49343" lon="-10.29834">
        <ele>361.5</ele>
        <time>2012-05-10T16:07:58Z</time>
      </trkpt>
      <trkpt lat="28.4935" lon="-10.29805">
        <ele>363.4</ele>
        <time>2012-05-10T16:08:03Z</time>
      </trkpt>
      <trkpt lat="28.49362" lon="-10.29787">
        <ele>364.8</ele>
        <time>2012-05-10T16:08:08Z</time>
      </trkpt>
      <trkpt lat="28.49371" lon="-10.298">
        <ele>367.7</ele>
        <time>2012-05-10T16:08:13Z</time>
      </trkpt>
      <trkpt lat="28.49365" lon="-10.29827">
        <ele>370.2</ele>
        <time>2012-05-10T16:08:18Z</time>
      </trkpt>
      <trkpt lat="28.49366" lon="-10.2985">
        <ele>371.8</ele>
        <time>2012-05-10T16:08:23Z</time>
      </trkpt>
      <trkpt lat="28.49376" lon="-10.29873">
        <ele>373.4</ele>
        <time>2012-05-10T16:08:28Z</time>
      </trkpt>
      <trkpt lat="28.49394" lon="-10.29895">
        <ele>375.6</ele>
        <time>2012-05-10T16:08:33Z</time>
      </trkpt>
      <trkpt lat="28.49407" lon="-10.29908">
        <ele>376.7</ele>
        <time>2012-05-10T16:08:38Z</time>
      </trkpt>
      <trkpt lat="28.49427" lon="-10.29926">
        <ele>378.2</ele>
        <time>2012-05-10T16:08:43Z</time>
      </trkpt>
      <trkpt lat="28.49443" lon="-10.29939">
        <ele>379.5</ele>
        <time>2012-05-10T16:08:48Z</time>
      </trkpt>
      <trkpt lat="28.49459" lon="-10.29932">
        <ele>381.5</ele>
        <time>2012-05-10T16:08:53Z</time>
      </trkpt>
      <trkpt lat="28.49445" lon="-10.29917">
        <ele>382.7</ele>
        <time>2012-05-10T16:08:58Z</time>
      </trkpt>
      <trkpt lat="28.49427" lon="-10.29899">
        <ele>384.5</ele>
        <time>2012-05-10T16:09:03Z</time>
      </trkpt>
      <trkpt lat="28.49412" lon="-10.29878">
        <ele>386.5</ele>
        <time>2012-05-10T16:09:08Z</time>
      </trkpt>
      <trkpt lat="28.49412" lon="-10.29858">
        <ele>388.3</ele>
        <time>2012-05-10T16:09:13Z</time>
      </trkpt>
      <trkpt lat="28.49433" lon="-10.2986">
        <ele>390.2</ele>
        <time>2012-05-10T16:09:18Z</time>
      </trkpt>
      <trkpt lat="28.49451" lon="-10.2988">
        <ele>392.3</ele>
        <time>2012-05-10T16:09:23Z</time>
      </trkpt>
      <trkpt lat="28.49477" lon="-10.29909">
        <ele>395.3</ele>
        <time>2012-05-10T16:09:28Z</time>
      </trkpt>
      <trkpt lat="28.49487" lon="-10.29928">
        <ele>396.5</ele>
        <time>2012-05-10T16:09:33Z</time>
      </trkpt>
      <trkpt lat="28.49495" lon="-10.29946">
        <ele>397.4</ele>
        <time>2012-05-10T16:09:38Z</time>
      </trkpt>
      <trkpt lat="28.49515" lon="-10.29968">
        <ele>399</ele>
        <time>2012-05-10T16:09:43Z</time>
      </trkpt>
      <trkpt lat="28.4953" lon="-10.29981">
        <ele>399.9</ele>
        <time>2012-05-10T16:09:48Z</time>
      </trkpt>
      <trkpt lat="28.49546" lon="-10.29994">
        <ele>401</ele>
        <time>2012-05-10T16:09:53Z</time>
      </trkpt>
      <trkpt lat="28.49563" lon="-10.30005">
        <ele>402.3</ele>
        <time>2012-05-10T16:09:58Z</time>
      </trkpt>
      <trkpt lat="28.49579" lon="-10.30015">
        <ele>403.2</ele>
        <time>2012-05-10T16:10:03Z</time>
      </trkpt>
      <trkpt lat="28.49603" lon="-10.30027">
        <ele>404.8</ele>
        <time>2012-05-10T16:10:08Z</time>
      </trkpt>
      <trkpt lat="28.49628" lon="-10.30035">
        <ele>407.3</ele>
        <time>2012-05-10T16:10:13Z</time>
      </trkpt>
      <trkpt lat="28.4965" lon="-10.30052">
        <ele>409.6</ele>
        <time>2012-05-10T16:10:18Z</time>
      </trkpt>
      <trkpt lat="28.49666" lon="-10.30072">
        <ele>411.1</ele>
        <time>2012-05-10T16:10:23Z</time>
      </trkpt>
      <trkpt lat="28.49687" lon="-10.30089">
        <ele>411.4</ele>
        <time>2012-05-10T16:10:28Z</time>
      </trkpt>
      <trkpt lat="28.49705" lon="-10.30098">
        <ele>411.8</ele>
        <time>2012-05-10T16:10:33Z</time>
      </trkpt>
      <trkpt lat="28.49723" lon="-10.3011">
        <ele>412.3</ele>
        <time>2012-05-10T16:10:38Z</time>
      </trkpt>
      <trkpt lat="28.49739" lon="-10.30124">
        <ele>412.8</ele>
        <time>2012-05-10T16:10:43Z</time>
      </trkpt>
      <trkpt lat="28.49754" lon="-10.30136">
        <ele>413.3</ele>
        <time>2012-05-10T16:10:48Z</time>
      </trkpt>
      <trkpt lat="28.49779" lon="-10.30142">
        <ele>414.5</ele>
        <time>2012-05-10T16:10:53Z</time>
      </trkpt>
      <trkpt lat="28.49802" lon="-10.30149">
        <ele>416.5</ele>
        <time>2012-05-10T16:10:58Z</time>
      </trkpt>
      <trkpt lat="28.49814" lon="-10.30173">
        <ele>418.6</ele>
        <time>2012-05-10T16:11:03Z</time>
      </trkpt>
      <trkpt lat="28.49832" lon="-10.30237">
        <ele>423.2</ele>
        <time>2012-05-10T16:11:08Z</time>
      </trkpt>
      <trkpt lat="28.49838" lon="-10.30259">
        <ele>424.5</ele>
        <time>2012-05-10T16:11:13Z</time>
      </trkpt>
      <trkpt lat="28.49841" lon="-10.3028">
        <ele>425.4</ele>
        <time>2012-05-10T16:11:18Z</time>
      </trkpt>
      <trkpt lat="28.49847" lon="-10.30312">
        <ele>427.4</ele>
        <time>2012-05-10T16:11:23Z</time>
      </trkpt>
      <trkpt lat="28.49861" lon="-10.30309">
        <ele>429.3</ele>
        <time>2012-05-10T16:11:28Z</time>
      </trkpt>
      <trkpt lat="28.49856" lon="-10.30281">
        <ele>430.9</ele>
        <time>2012-05-10T16:11:33Z</time>
      </trkpt>
      <trkpt lat="28.49854" lon="-10.30261">
        <ele>431.9</ele>
        <time>2012-05-10T16:11:38Z</time>
      </trkpt>
      <trkpt lat="28.49855" lon="-10.30232">
        <ele>433.4</ele>
        <time>2012-05-10T16:11:43Z</time>
      </trkpt>
      <trkpt lat="28.49865" lon="-10.30211">
        <ele>434.6</ele>
        <time>2012-05-10T16:11:48Z</time>
      </trkpt>
      <trkpt lat="28.49881" lon="-10.302">
        <ele>435.8</ele>
        <time>2012-05-10T16:11:53Z</time>
      </trkpt>
      <trkpt lat="28.49899" lon="-10.30207">
        <ele>438</ele>
        <time>2012-05-10T16:11:58Z</time>
      </trkpt>
      <trkpt lat="28.49915" lon="-10.30218">
        <ele>439.7</ele>
        <time>2012-05-10T16:12:03Z</time>
      </trkpt>
      <trkpt lat="28.49934" lon="-10.3023">
        <ele>441.8</ele>
        <time>2012-05-10T16:12:08Z</time>
      </trkpt>
      <trkpt lat="28.49949" lon="-10.30246">
        <ele>443.8</ele>
        <time>2012-05-10T16:12:13Z</time>
      </trkpt>
      <trkpt lat="28.49969" lon="-10.30254">
        <ele>446.1</ele>
        <time>2012-05-10T16:12:18Z</time>
      </trkpt>
      <trkpt lat="28.4999" lon="-10.30257">
        <ele>448.2</ele>
        <time>2012-05-10T16:12:23Z</time>
      </trkpt>
      <trkpt lat="28.50026" lon="-10.3026">
        <ele>451.2</ele>
        <time>2012-05-10T16:12:28Z</time>
      </trkpt>
      <trkpt lat="28.50045" lon="-10.30265">
        <ele>452.5</ele>
        <time>2012-05-10T16:12:33Z</time>
      </trkpt>
      <trkpt lat="28.50065" lon="-10.30273">
        <ele>454.2</ele>
        <time>2012-05-10T16:12:38Z</time>
      </trkpt>
      <trkpt lat="28.50085" lon="-10.30283">
        <ele>455.7</ele>
        <time>2012-05-10T16:12:43Z</time>
      </trkpt>
      <trkpt lat="28.50104" lon="-10.30294">
        <ele>456.6</ele>
        <time>2012-05-10T16:12:48Z</time>
      </trkpt>
      <trkpt lat="28.50122" lon="-10.30299">
        <ele>457.9</ele>
        <time>2012-05-10T16:12:53Z</time>
      </trkpt>
      <trkpt lat="28.50141" lon="-10.30303">
        <ele>459.1</ele>
        <time>2012-05-10T16:12:58Z</time>
      </trkpt>
      <trkpt lat="28.50162" lon="-10.30308">
        <ele>460.6</ele>
        <time>2012-05-10T16:13:03Z</time>
      </trkpt>
      <trkpt lat="28.50179" lon="-10.30316">
        <ele>462</ele>
        <time>2012-05-10T16:13:08Z</time>
      </trkpt>
      <trkpt lat="28.50194" lon="-10.30329">
        <ele>462.7</ele>
        <time>2012-05-10T16:13:13Z</time>
      </trkpt>
      <trkpt lat="28.50206" lon="-10.30349">
        <ele>463.4</ele>
        <time>2012-05-10T16:13:18Z</time>
      </trkpt>
      <trkpt lat="28.50216" lon="-10.30368">
        <ele>463</ele>
        <time>2012-05-10T16:13:23Z</time>
      </trkpt>
      <trkpt lat="28.50233" lon="-10.30367">
        <ele>463.9</ele>
        <time>2012-05-10T16:13:28Z</time>
      </trkpt>
      <trkpt lat="28.50253" lon="-10.30356">
        <ele>466.4</ele>
        <time>2012-05-10T16:13:33Z</time>
      </trkpt>
      <trkpt lat="28.50273" lon="-10.30346">
        <ele>468.6</ele>
        <time>2012-05-10T16:13:38Z</time>
      </trkpt>
      <trkpt lat="28.50291" lon="-10.30343">
        <ele>469.4</ele>
        <time>2012-05-10T16:13:43Z</time>
      </trkpt>
      <trkpt lat="28.50311" lon="-10.30349">
        <ele>471.8</ele>
        <time>2012-05-10T16:13:48Z</time>
      </trkpt>
      <trkpt lat="28.50322" lon="-10.30369">
        <ele>474.4</ele>
        <time>2012-05-10T16:13:53Z</time>
      </trkpt>
      <trkpt lat="28.50321" lon="-10.30389">
        <ele>475.9</ele>
        <time>2012-05-10T16:13:58Z</time>
      </trkpt>
      <trkpt lat="28.50321" lon="-10.30413">
        <ele>476.7</ele>
        <time>2012-05-10T16:14:03Z</time>
      </trkpt>
      <trkpt lat="28.50337" lon="-10.30424">
        <ele>478.6</ele>
        <time>2012-05-10T16:14:08Z</time>
      </trkpt>
      <trkpt lat="28.50363" lon="-10.30428">
        <ele>479.9</ele>
        <time>2012-05-10T16:14:13Z</time>
      </trkpt>
      <trkpt lat="28.50388" lon="-10.30431">
        <ele>481</ele>
        <time>2012-05-10T16:14:18Z</time>
      </trkpt>
      <trkpt lat="28.50405" lon="-10.30421">
        <ele>481.4</ele>
        <time>2012-05-10T16:14:23Z</time>
      </trkpt>
      <trkpt lat="28.50416" lon="-10.30401">
        <ele>482.9</ele>
        <time>2012-05-10T16:14:28Z</time>
      </trkpt>
      <trkpt lat="28.50427" lon="-10.30383">
        <ele>484.3</ele>
        <time>2012-05-10T16:14:33Z</time>
      </trkpt>
      <trkpt lat="28.5044" lon="-10.30369">
        <ele>485.9</ele>
        <time>2012-05-10T16:14:38Z</time>
      </trkpt>
      <trkpt lat="28.50459" lon="-10.30351">
        <ele>487.9</ele>
        <time>2012-05-10T16:14:43Z</time>
      </trkpt>
      <trkpt lat="28.50474" lon="-10.30334">
        <ele>488.8</ele>
        <time>2012-05-10T16:14:48Z</time>
      </trkpt>
      <trkpt lat="28.50495" lon="-10.30325">
        <ele>489</ele>
        <time>2012-05-10T16:14:53Z</time>
      </trkpt>
      <trkpt lat="28.50517" lon="-10.30329">
        <ele>489.7</ele>
        <time>2012-05-10T16:14:58Z</time>
      </trkpt>
      <trkpt lat="28.50528" lon="-10.30339">
        <ele>488.7</ele>
        <time>2012-05-10T16:15:03Z</time>
      </trkpt>
      <trkpt lat="28.50526" lon="-10.30338">
        <ele>485.2</ele>
        <time>2012-05-10T16:15:08Z</time>
      </trkpt>
      <trkpt lat="28.50526" lon="-10.30338">
        <ele>483.2</ele>
        <time>2012-05-10T16:15:13Z</time>
      </trkpt>
      <trkpt lat="28.50525" lon="-10.30337">
        <ele>480.9</ele>
        <time>2012-05-10T16:15:18Z</time>
      </trkpt>
      <trkpt lat="28.50525" lon="-10.30337">
        <ele>477.6</ele>
        <time>2012-05-10T16:15:23Z</time>
      </trkpt>
      <trkpt lat="28.50526" lon="-10.30336">
        <ele>477.3</ele>
        <time>2012-05-10T16:15:28Z</time>
      </trkpt>
      <trkpt lat="28.50527" lon="-10.30336">
        <ele>481.8</ele>
        <time>2012-05-10T16:15:33Z</time>
      </trkpt>
      <trkpt lat="28.50529" lon="-10.30337">
        <ele>485.1</ele>
        <time>2012-05-10T16:15:38Z</time>
      </trkpt>
      <trkpt lat="28.50528" lon="-10.30337">
        <ele>489.2</ele>
        <time>2012-05-10T16:15:43Z</time>
      </trkpt>
      <trkpt lat="28.50529" lon="-10.30337">
        <ele>491.6</ele>
        <time>2012-05-10T16:15:48Z</time>
      </trkpt>
      <trkpt lat="28.50529" lon="-10.30337">
        <ele>498</ele>
        <time>2012-05-10T16:15:53Z</time>
      </trkpt>
      <trkpt lat="28.50529" lon="-10.30336">
        <ele>497.5</ele>
        <time>2012-05-10T16:15:58Z</time>
      </trkpt>
      <trkpt lat="28.50528" lon="-10.30335">
        <ele>494</ele>
        <time>2012-05-10T16:16:03Z</time>
      </trkpt>
      <trkpt lat="28.50528" lon="-10.30336">
        <ele>491.3</ele>
        <time>2012-05-10T16:16:08Z</time>
      </trkpt>
      <trkpt lat="28.50525" lon="-10.30334">
        <ele>483.5</ele>
        <time>2012-05-10T16:16:13Z</time>
      </trkpt>
      <trkpt lat="28.50526" lon="-10.30334">
        <ele>480.2</ele>
        <time>2012-05-10T16:16:18Z</time>
      </trkpt>
      <trkpt lat="28.50526" lon="-10.30335">
        <ele>477.8</ele>
        <time>2012-05-10T16:16:23Z</time>
      </trkpt>
      <trkpt lat="28.50527" lon="-10.30335">
        <ele>480.4</ele>
        <time>2012-05-10T16:16:28Z</time>
      </trkpt>
      <trkpt lat="28.50537" lon="-10.30352">
        <ele>481.7</ele>
        <time>2012-05-10T16:16:33Z</time>
      </trkpt>
      <trkpt lat="28.50546" lon="-10.30371">
        <ele>481.5</ele>
        <time>2012-05-10T16:16:38Z</time>
      </trkpt>
      <trkpt lat="28.50558" lon="-10.3039">
        <ele>483</ele>
        <time>2012-05-10T16:16:43Z</time>
      </trkpt>
      <trkpt lat="28.50572" lon="-10.30412">
        <ele>484.8</ele>
        <time>2012-05-10T16:16:48Z</time>
      </trkpt>
      <trkpt lat="28.50589" lon="-10.30427">
        <ele>485.2</ele>
        <time>2012-05-10T16:16:53Z</time>
      </trkpt>
      <trkpt lat="28.50606" lon="-10.3044">
        <ele>485.1</ele>
        <time>2012-05-10T16:16:58Z</time>
      </trkpt>
      <trkpt lat="28.50632" lon="-10.30466">
        <ele>485.8</ele>
        <time>2012-05-10T16:17:03Z</time>
      </trkpt>
      <trkpt lat="28.50641" lon="-10.30488">
        <ele>485.4</ele>
        <time>2012-05-10T16:17:08Z</time>
      </trkpt>
      <trkpt lat="28.50645" lon="-10.30514">
        <ele>485.1</ele>
        <time>2012-05-10T16:17:13Z</time>
      </trkpt>
      <trkpt lat="28.50651" lon="-10.3054">
        <ele>484.4</ele>
        <time>2012-05-10T16:17:18Z</time>
      </trkpt>
      <trkpt lat="28.50658" lon="-10.3056">
        <ele>483.6</ele>
        <time>2012-05-10T16:17:23Z</time>
      </trkpt>
      <trkpt lat="28.50668" lon="-10.30579">
        <ele>483.6</ele>
        <time>2012-05-10T16:17:28Z</time>
      </trkpt>
      <trkpt lat="28.50673" lon="-10.30605">
        <ele>483.9</ele>
        <time>2012-05-10T16:17:33Z</time>
      </trkpt>
      <trkpt lat="28.50673" lon="-10.3063">
        <ele>484.2</ele>
        <time>2012-05-10T16:17:38Z</time>
      </trkpt>
      <trkpt lat="28.50682" lon="-10.30655">
        <ele>485.6</ele>
        <time>2012-05-10T16:17:43Z</time>
      </trkpt>
      <trkpt lat="28.50687" lon="-10.30676">
        <ele>486.9</ele>
        <time>2012-05-10T16:17:48Z</time>
      </trkpt>
      <trkpt lat="28.5068" lon="-10.30698">
        <ele>489.6</ele>
        <time>2012-05-10T16:17:53Z</time>
      </trkpt>
      <trkpt lat="28.50668" lon="-10.30715">
        <ele>491.6</ele>
        <time>2012-05-10T16:17:58Z</time>
      </trkpt>
      <trkpt lat="28.50669" lon="-10.30737">
        <ele>492.1</ele>
        <time>2012-05-10T16:18:03Z</time>
      </trkpt>
      <trkpt lat="28.50662" lon="-10.30757">
        <ele>491.7</ele>
        <time>2012-05-10T16:18:08Z</time>
      </trkpt>
      <trkpt lat="28.50644" lon="-10.30769">
        <ele>491.1</ele>
        <time>2012-05-10T16:18:13Z</time>
      </trkpt>
      <trkpt lat="28.50622" lon="-10.30779">
        <ele>490.5</ele>
        <time>2012-05-10T16:18:18Z</time>
      </trkpt>
      <trkpt lat="28.50606" lon="-10.3079">
        <ele>490.1</ele>
        <time>2012-05-10T16:18:23Z</time>
      </trkpt>
      <trkpt lat="28.50587" lon="-10.30804">
        <ele>490.4</ele>
        <time>2012-05-10T16:18:28Z</time>
      </trkpt>
      <trkpt lat="28.50563" lon="-10.30824">
        <ele>491.6</ele>
        <time>2012-05-10T16:18:33Z</time>
      </trkpt>
      <trkpt lat="28.50549" lon="-10.30841">
        <ele>492.5</ele>
        <time>2012-05-10T16:18:38Z</time>
      </trkpt>
      <trkpt lat="28.50539" lon="-10.3086">
        <ele>493.5</ele>
        <time>2012-05-10T16:18:43Z</time>
      </trkpt>
      <trkpt lat="28.50533" lon="-10.30885">
        <ele>494.5</ele>
        <time>2012-05-10T16:18:48Z</time>
      </trkpt>
      <trkpt lat="28.50527" lon="-10.30905">
        <ele>495.9</ele>
        <time>2012-05-10T16:18:53Z</time>
      </trkpt>
      <trkpt lat="28.50516" lon="-10.30926">
        <ele>498.2</ele>
        <time>2012-05-10T16:18:58Z</time>
      </trkpt>
      <trkpt lat="28.50503" lon="-10.30943">
        <ele>499</ele>
        <time>2012-05-10T16:19:03Z</time>
      </trkpt>
      <trkpt lat="28.50489" lon="-10.30962">
        <ele>499.3</ele>
        <time>2012-05-10T16:19:08Z</time>
      </trkpt>
      <trkpt lat="28.50476" lon="-10.30977">
        <ele>500.2</ele>
        <time>2012-05-10T16:19:13Z</time>
      </trkpt>
      <trkpt lat="28.5046" lon="-10.30994">
        <ele>501</ele>
        <time>2012-05-10T16:19:18Z</time>
      </trkpt>
      <trkpt lat="28.50445" lon="-10.31015">
        <ele>502.4</ele>
        <time>2012-05-10T16:19:23Z</time>
      </trkpt>
      <trkpt lat="28.50439" lon="-10.31038">
        <ele>503</ele>
        <time>2012-05-10T16:19:28Z</time>
      </trkpt>
      <trkpt lat="28.50435" lon="-10.31062">
        <ele>503.6</ele>
        <time>2012-05-10T16:19:33Z</time>
      </trkpt>
      <trkpt lat="28.50425" lon="-10.31082">
        <ele>504.3</ele>
        <time>2012-05-10T16:19:38Z</time>
      </trkpt>
      <trkpt lat="28.50411" lon="-10.311">
        <ele>506.3</ele>
        <time>2012-05-10T16:19:43Z</time>
      </trkpt>
      <trkpt lat="28.50399" lon="-10.31128">
        <ele>506.6</ele>
        <time>2012-05-10T16:19:48Z</time>
      </trkpt>
      <trkpt lat="28.50387" lon="-10.31151">
        <ele>507</ele>
        <time>2012-05-10T16:19:53Z</time>
      </trkpt>
      <trkpt lat="28.50381" lon="-10.31174">
        <ele>508.4</ele>
        <time>2012-05-10T16:19:58Z</time>
      </trkpt>
      <trkpt lat="28.50373" lon="-10.31197">
        <ele>509.8</ele>
        <time>2012-05-10T16:20:03Z</time>
      </trkpt>
      <trkpt lat="28.50365" lon="-10.31218">
        <ele>511</ele>
        <time>2012-05-10T16:20:08Z</time>
      </trkpt>
      <trkpt lat="28.50358" lon="-10.3124">
        <ele>511.8</ele>
        <time>2012-05-10T16:20:13Z</time>
      </trkpt>
      <trkpt lat="28.50351" lon="-10.31261">
        <ele>512</ele>
        <time>2012-05-10T16:20:18Z</time>
      </trkpt>
      <trkpt lat="28.50343" lon="-10.31285">
        <ele>512.6</ele>
        <time>2012-05-10T16:20:23Z</time>
      </trkpt>
      <trkpt lat="28.50329" lon="-10.31304">
        <ele>513.6</ele>
        <time>2012-05-10T16:20:28Z</time>
      </trkpt>
      <trkpt lat="28.50319" lon="-10.3132">
        <ele>515.2</ele>
        <time>2012-05-10T16:20:33Z</time>
      </trkpt>
      <trkpt lat="28.50312" lon="-10.31341">
        <ele>516.3</ele>
        <time>2012-05-10T16:20:38Z</time>
      </trkpt>
      <trkpt lat="28.50303" lon="-10.3136">
        <ele>517.4</ele>
        <time>2012-05-10T16:20:43Z</time>
      </trkpt>
      <trkpt lat="28.50295" lon="-10.3138">
        <ele>518.8</ele>
        <time>2012-05-10T16:20:48Z</time>
      </trkpt>
      <trkpt lat="28.50289" lon="-10.31401">
        <ele>519.2</ele>
        <time>2012-05-10T16:20:53Z</time>
      </trkpt>
      <trkpt lat="28.50282" lon="-10.31421">
        <ele>520.1</ele>
        <time>2012-05-10T16:20:58Z</time>
      </trkpt>
      <trkpt lat="28.50272" lon="-10.31441">
        <ele>521.3</ele>
        <time>2012-05-10T16:21:03Z</time>
      </trkpt>
      <trkpt lat="28.50263" lon="-10.31462">
        <ele>523</ele>
        <time>2012-05-10T16:21:08Z</time>
      </trkpt>
      <trkpt lat="28.50256" lon="-10.31481">
        <ele>524.1</ele>
        <time>2012-05-10T16:21:13Z</time>
      </trkpt>
      <trkpt lat="28.50251" lon="-10.31502">
        <ele>524.7</ele>
        <time>2012-05-10T16:21:18Z</time>
      </trkpt>
      <trkpt lat="28.50246" lon="-10.31523">
        <ele>525.9</ele>
        <time>2012-05-10T16:21:23Z</time>
      </trkpt>
      <trkpt lat="28.50238" lon="-10.31544">
        <ele>526.6</ele>
        <time>2012-05-10T16:21:28Z</time>
      </trkpt>
      <trkpt lat="28.50227" lon="-10.31571">
        <ele>528.5</ele>
        <time>2012-05-10T16:21:33Z</time>
      </trkpt>
      <trkpt lat="28.50222" lon="-10.31591">
        <ele>530.3</ele>
        <time>2012-05-10T16:21:38Z</time>
      </trkpt>
      <trkpt lat="28.50212" lon="-10.31608">
        <ele>531.8</ele>
        <time>2012-05-10T16:21:43Z</time>
      </trkpt>
      <trkpt lat="28.50194" lon="-10.31616">
        <ele>532.5</ele>
        <time>2012-05-10T16:21:48Z</time>
      </trkpt>
      <trkpt lat="28.50178" lon="-10.31629">
        <ele>532.9</ele>
        <time>2012-05-10T16:21:53Z</time>
      </trkpt>
      <trkpt lat="28.50161" lon="-10.31646">
        <ele>534.4</ele>
        <time>2012-05-10T16:21:58Z</time>
      </trkpt>
      <trkpt lat="28.5015" lon="-10.31666">
        <ele>536.3</ele>
        <time>2012-05-10T16:22:03Z</time>
      </trkpt>
      <trkpt lat="28.50142" lon="-10.31688">
        <ele>534.1</ele>
        <time>2012-05-10T16:22:08Z</time>
      </trkpt>
      <trkpt lat="28.50148" lon="-10.31714">
        <ele>530.6</ele>
        <time>2012-05-10T16:22:13Z</time>
      </trkpt>
      <trkpt lat="28.5016" lon="-10.31735">
        <ele>529</ele>
        <time>2012-05-10T16:22:18Z</time>
      </trkpt>
      <trkpt lat="28.50176" lon="-10.31749">
        <ele>527.3</ele>
        <time>2012-05-10T16:22:23Z</time>
      </trkpt>
      <trkpt lat="28.50196" lon="-10.31751">
        <ele>526.5</ele>
        <time>2012-05-10T16:22:28Z</time>
      </trkpt>
      <trkpt lat="28.50206" lon="-10.31752">
        <ele>526</ele>
        <time>2012-05-10T16:22:33Z</time>
      </trkpt>
      <trkpt lat="28.50229" lon="-10.31763">
        <ele>524.6</ele>
        <time>2012-05-10T16:22:38Z</time>
      </trkpt>
      <trkpt lat="28.50246" lon="-10.31774">
        <ele>522.3</ele>
        <time>2012-05-10T16:22:43Z</time>
      </trkpt>
      <trkpt lat="28.50261" lon="-10.31787">
        <ele>519.5</ele>
        <time>2012-05-10T16:22:48Z</time>
      </trkpt>
      <trkpt lat="28.50266" lon="-10.31807">
        <ele>518.6</ele>
        <time>2012-05-10T16:22:53Z</time>
      </trkpt>
      <trkpt lat="28.50274" lon="-10.31829">
        <ele>519.1</ele>
        <time>2012-05-10T16:22:58Z</time>
      </trkpt>
      <trkpt lat="28.50289" lon="-10.31849">
        <ele>518.9</ele>
        <time>2012-05-10T16:23:03Z</time>
      </trkpt>
      <trkpt lat="28.50302" lon="-10.3187">
        <ele>518.6</ele>
        <time>2012-05-10T16:23:08Z</time>
      </trkpt>
      <trkpt lat="28.50312" lon="-10.31888">
        <ele>518.4</ele>
        <time>2012-05-10T16:23:13Z</time>
      </trkpt>
      <trkpt lat="28.5032" lon="-10.31907">
        <ele>516.8</ele>
        <time>2012-05-10T16:23:18Z</time>
      </trkpt>
      <trkpt lat="28.5033" lon="-10.31929">
        <ele>514.3</ele>
        <time>2012-05-10T16:23:23Z</time>
      </trkpt>
      <trkpt lat="28.50342" lon="-10.31944">
        <ele>513.7</ele>
        <time>2012-05-10T16:23:28Z</time>
      </trkpt>
      <trkpt lat="28.50368" lon="-10.31968">
        <ele>512.9</ele>
        <time>2012-05-10T16:23:33Z</time>
      </trkpt>
      <trkpt lat="28.50381" lon="-10.31989">
        <ele>511.7</ele>
        <time>2012-05-10T16:23:38Z</time>
      </trkpt>
      <trkpt lat="28.50387" lon="-10.3201">
        <ele>510.6</ele>
        <time>2012-05-10T16:23:43Z</time>
      </trkpt>
      <trkpt lat="28.50386" lon="-10.32035">
        <ele>510.7</ele>
        <time>2012-05-10T16:23:48Z</time>
      </trkpt>
      <trkpt lat="28.50382" lon="-10.32061">
        <ele>511.1</ele>
        <time>2012-05-10T16:23:53Z</time>
      </trkpt>
      <trkpt lat="28.50379" lon="-10.32083">
        <ele>511.1</ele>
        <time>2012-05-10T16:23:58Z</time>
      </trkpt>
      <trkpt lat="28.50374" lon="-10.32106">
        <ele>511.7</ele>
        <time>2012-05-10T16:24:03Z</time>
      </trkpt>
      <trkpt lat="28.50366" lon="-10.32127">
        <ele>511.9</ele>
        <time>2012-05-10T16:24:08Z</time>
      </trkpt>
      <trkpt lat="28.50357" lon="-10.32145">
        <ele>512.1</ele>
        <time>2012-05-10T16:24:13Z</time>
      </trkpt>
      <trkpt lat="28.50344" lon="-10.32161">
        <ele>512.1</ele>
        <time>2012-05-10T16:24:18Z</time>
      </trkpt>
      <trkpt lat="28.50327" lon="-10.32174">
        <ele>511.5</ele>
        <time>2012-05-10T16:24:23Z</time>
      </trkpt>
      <trkpt lat="28.50318" lon="-10.32192">
        <ele>511.2</ele>
        <time>2012-05-10T16:24:28Z</time>
      </trkpt>
      <trkpt lat="28.50302" lon="-10.32203">
        <ele>510</ele>
        <time>2012-05-10T16:24:33Z</time>
      </trkpt>
      <trkpt lat="28.50286" lon="-10.32212">
        <ele>508.7</ele>
        <time>2012-05-10T16:24:38Z</time>
      </trkpt>
      <trkpt lat="28.50288" lon="-10.32234">
        <ele>509.5</ele>
        <time>2012-05-10T16:24:43Z</time>
      </trkpt>
      <trkpt lat="28.50296" lon="-10.32262">
        <ele>509.5</ele>
        <time>2012-05-10T16:24:48Z</time>
      </trkpt>
      <trkpt lat="28.50296" lon="-10.32284">
        <ele>508.7</ele>
        <time>2012-05-10T16:24:53Z</time>
      </trkpt>
      <trkpt lat="28.50287" lon="-10.32306">
        <ele>508.6</ele>
        <time>2012-05-10T16:24:58Z</time>
      </trkpt>
      <trkpt lat="28.50274" lon="-10.32327">
        <ele>509</ele>
        <time>2012-05-10T16:25:03Z</time>
      </trkpt>
      <trkpt lat="28.5026" lon="-10.32348">
        <ele>509.3</ele>
        <time>2012-05-10T16:25:08Z</time>
      </trkpt>
      <trkpt lat="28.50247" lon="-10.32371">
        <ele>509.3</ele>
        <time>2012-05-10T16:25:13Z</time>
      </trkpt>
      <trkpt lat="28.50227" lon="-10.32409">
        <ele>508.3</ele>
        <time>2012-05-10T16:25:18Z</time>
      </trkpt>
      <trkpt lat="28.50218" lon="-10.32432">
        <ele>507.7</ele>
        <time>2012-05-10T16:25:23Z</time>
      </trkpt>
      <trkpt lat="28.50214" lon="-10.32456">
        <ele>506.9</ele>
        <time>2012-05-10T16:25:28Z</time>
      </trkpt>
      <trkpt lat="28.50213" lon="-10.32481">
        <ele>505.6</ele>
        <time>2012-05-10T16:25:33Z</time>
      </trkpt>
      <trkpt lat="28.50203" lon="-10.32506">
        <ele>505.5</ele>
        <time>2012-05-10T16:25:38Z</time>
      </trkpt>
      <trkpt lat="28.50183" lon="-10.3254">
        <ele>505.1</ele>
        <time>2012-05-10T16:25:43Z</time>
      </trkpt>
      <trkpt lat="28.50081" lon="-10.32714">
        <ele>504.3</ele>
        <time>2012-05-10T16:25:48Z</time>
      </trkpt>
      <trkpt lat="28.50059" lon="-10.32751">
        <ele>504.5</ele>
        <time>2012-05-10T16:25:53Z</time>
      </trkpt>
      <trkpt lat="28.50046" lon="-10.32773">
        <ele>504.6</ele>
        <time>2012-05-10T16:25:58Z</time>
      </trkpt>
      <trkpt lat="28.50033" lon="-10.32797">
        <ele>503.8</ele>
        <time>2012-05-10T16:26:03Z</time>
      </trkpt>
      <trkpt lat="28.50021" lon="-10.32822">
        <ele>503.3</ele>
        <time>2012-05-10T16:26:08Z</time>
      </trkpt>
      <trkpt lat="28.50008" lon="-10.32847">
        <ele>503</ele>
        <time>2012-05-10T16:26:13Z</time>
      </trkpt>
      <trkpt lat="28.49997" lon="-10.32874">
        <ele>502.8</ele>
        <time>2012-05-10T16:26:18Z</time>
      </trkpt>
      <trkpt lat="28.49987" lon="-10.329">
        <ele>502.8</ele>
        <time>2012-05-10T16:26:23Z</time>
      </trkpt>
      <trkpt lat="28.49973" lon="-10.32935">
        <ele>501.6</ele>
        <time>2012-05-10T16:26:28Z</time>
      </trkpt>
      <trkpt lat="28.49953" lon="-10.32989">
        <ele>500.9</ele>
        <time>2012-05-10T16:26:33Z</time>
      </trkpt>
      <trkpt lat="28.49935" lon="-10.33048">
        <ele>499.2</ele>
        <time>2012-05-10T16:26:38Z</time>
      </trkpt>
      <trkpt lat="28.49917" lon="-10.33108">
        <ele>497.3</ele>
        <time>2012-05-10T16:26:43Z</time>
      </trkpt>
      <trkpt lat="28.49885" lon="-10.33229">
        <ele>495</ele>
        <time>2012-05-10T16:26:48Z</time>
      </trkpt>
      <trkpt lat="28.49879" lon="-10.33256">
        <ele>494.5</ele>
        <time>2012-05-10T16:26:53Z</time>
      </trkpt>
      <trkpt lat="28.49868" lon="-10.3328">
        <ele>495</ele>
        <time>2012-05-10T16:26:58Z</time>
      </trkpt>
      <trkpt lat="28.49864" lon="-10.33304">
        <ele>495.1</ele>
        <time>2012-05-10T16:27:03Z</time>
      </trkpt>
      <trkpt lat="28.49863" lon="-10.3333">
        <ele>495.2</ele>
        <time>2012-05-10T16:27:08Z</time>
      </trkpt>
      <trkpt lat="28.49858" lon="-10.33356">
        <ele>495.8</ele>
        <time>2012-05-10T16:27:13Z</time>
      </trkpt>
      <trkpt lat="28.49857" lon="-10.33381">
        <ele>495.5</ele>
        <time>2012-05-10T16:27:18Z</time>
      </trkpt>
      <trkpt lat="28.49854" lon="-10.33402">
        <ele>495.5</ele>
        <time>2012-05-10T16:27:23Z</time>
      </trkpt>
      <trkpt lat="28.49847" lon="-10.33436">
        <ele>496.2</ele>
        <time>2012-05-10T16:27:28Z</time>
      </trkpt>
      <trkpt lat="28.49841" lon="-10.33477">
        <ele>496.3</ele>
        <time>2012-05-10T16:27:33Z</time>
      </trkpt>
      <trkpt lat="28.49832" lon="-10.33538">
        <ele>496.5</ele>
        <time>2012-05-10T16:27:38Z</time>
      </trkpt>
      <trkpt lat="28.49804" lon="-10.33713">
        <ele>495.2</ele>
        <time>2012-05-10T16:27:43Z</time>
      </trkpt>
      <trkpt lat="28.49798" lon="-10.33756">
        <ele>493.5</ele>
        <time>2012-05-10T16:27:48Z</time>
      </trkpt>
      <trkpt lat="28.49792" lon="-10.33781">
        <ele>492.3</ele>
        <time>2012-05-10T16:27:53Z</time>
      </trkpt>
      <trkpt lat="28.49787" lon="-10.33808">
        <ele>491.4</ele>
        <time>2012-05-10T16:27:58Z</time>
      </trkpt>
      <trkpt lat="28.49783" lon="-10.33836">
        <ele>490.8</ele>
        <time>2012-05-10T16:28:03Z</time>
      </trkpt>
      <trkpt lat="28.49779" lon="-10.33864">
        <ele>489.5</ele>
        <time>2012-05-10T16:28:08Z</time>
      </trkpt>
      <trkpt lat="28.49777" lon="-10.33895">
        <ele>487.9</ele>
        <time>2012-05-10T16:28:13Z</time>
      </trkpt>
      <trkpt lat="28.49775" lon="-10.33917">
        <ele>487.7</ele>
        <time>2012-05-10T16:28:18Z</time>
      </trkpt>
      <trkpt lat="28.49772" lon="-10.33948">
        <ele>488.2</ele>
        <time>2012-05-10T16:28:23Z</time>
      </trkpt>
      <trkpt lat="28.49774" lon="-10.33969">
        <ele>487.8</ele>
        <time>2012-05-10T16:28:28Z</time>
      </trkpt>
      <trkpt lat="28.49778" lon="-10.34001">
        <ele>486.8</ele>
        <time>2012-05-10T16:28:33Z</time>
      </trkpt>
      <trkpt lat="28.49779" lon="-10.34022">
        <ele>486</ele>
        <time>2012-05-10T16:28:38Z</time>
      </trkpt>
      <trkpt lat="28.49781" lon="-10.34054">
        <ele>485.7</ele>
        <time>2012-05-10T16:28:43Z</time>
      </trkpt>
      <trkpt lat="28.49784" lon="-10.34083">
        <ele>485.1</ele>
        <time>2012-05-10T16:28:48Z</time>
      </trkpt>
      <trkpt lat="28.49779" lon="-10.3411">
        <ele>484.4</ele>
        <time>2012-05-10T16:28:53Z</time>
      </trkpt>
      <trkpt lat="28.49773" lon="-10.34134">
        <ele>483.6</ele>
        <time>2012-05-10T16:28:58Z</time>
      </trkpt>
      <trkpt lat="28.49776" lon="-10.34157">
        <ele>483</ele>
        <time>2012-05-10T16:29:03Z</time>
      </trkpt>
      <trkpt lat="28.49774" lon="-10.34182">
        <ele>482.8</ele>
        <time>2012-05-10T16:29:08Z</time>
      </trkpt>
      <trkpt lat="28.49763" lon="-10.34234">
        <ele>481.3</ele>
        <time>2012-05-10T16:29:13Z</time>
      </trkpt>
      <trkpt lat="28.49761" lon="-10.34259">
        <ele>481</ele>
        <time>2012-05-10T16:29:18Z</time>
      </trkpt>
      <trkpt lat="28.4976" lon="-10.34287">
        <ele>480.6</ele>
        <time>2012-05-10T16:29:23Z</time>
      </trkpt>
      <trkpt lat="28.49757" lon="-10.34473">
        <ele>478</ele>
        <time>2012-05-10T16:29:28Z</time>
      </trkpt>
      <trkpt lat="28.49757" lon="-10.34514">
        <ele>477.3</ele>
        <time>2012-05-10T16:29:33Z</time>
      </trkpt>
      <trkpt lat="28.49756" lon="-10.34556">
        <ele>476.9</ele>
        <time>2012-05-10T16:29:38Z</time>
      </trkpt>
      <trkpt lat="28.49757" lon="-10.3461">
        <ele>476.4</ele>
        <time>2012-05-10T16:29:43Z</time>
      </trkpt>
      <trkpt lat="28.4976" lon="-10.34646">
        <ele>475.9</ele>
        <time>2012-05-10T16:29:48Z</time>
      </trkpt>
      <trkpt lat="28.49766" lon="-10.34674">
        <ele>475</ele>
        <time>2012-05-10T16:29:53Z</time>
      </trkpt>
      <trkpt lat="28.49766" lon="-10.34704">
        <ele>475</ele>
        <time>2012-05-10T16:29:58Z</time>
      </trkpt>
      <trkpt lat="28.49767" lon="-10.34724">
        <ele>475.1</ele>
        <time>2012-05-10T16:30:03Z</time>
      </trkpt>
      <trkpt lat="28.49769" lon="-10.34858">
        <ele>474.1</ele>
        <time>2012-05-10T16:30:08Z</time>
      </trkpt>
      <trkpt lat="28.49769" lon="-10.34908">
        <ele>473.7</ele>
        <time>2012-05-10T16:30:13Z</time>
      </trkpt>
      <trkpt lat="28.49772" lon="-10.35046">
        <ele>473.4</ele>
        <time>2012-05-10T16:30:18Z</time>
      </trkpt>
      <trkpt lat="28.4977" lon="-10.35076">
        <ele>473.4</ele>
        <time>2012-05-10T16:30:23Z</time>
      </trkpt>
      <trkpt lat="28.49755" lon="-10.35275">
        <ele>473.3</ele>
        <time>2012-05-10T16:30:28Z</time>
      </trkpt>
      <trkpt lat="28.4975" lon="-10.35358">
        <ele>472.8</ele>
        <time>2012-05-10T16:30:33Z</time>
      </trkpt>
      <trkpt lat="28.49748" lon="-10.354">
        <ele>472.7</ele>
        <time>2012-05-10T16:30:38Z</time>
      </trkpt>
      <trkpt lat="28.49746" lon="-10.35421">
        <ele>472.2</ele>
        <time>2012-05-10T16:30:43Z</time>
      </trkpt>
      <trkpt lat="28.49722" lon="-10.35596">
        <ele>473</ele>
        <time>2012-05-10T16:30:48Z</time>
      </trkpt>
      <trkpt lat="28.49718" lon="-10.35618">
        <ele>473.3</ele>
        <time>2012-05-10T16:30:53Z</time>
      </trkpt>
      <trkpt lat="28.49707" lon="-10.35665">
        <ele>473.9</ele>
        <time>2012-05-10T16:30:58Z</time>
      </trkpt>
      <trkpt lat="28.49683" lon="-10.3577">
        <ele>473</ele>
        <time>2012-05-10T16:31:03Z</time>
      </trkpt>
      <trkpt lat="28.49676" lon="-10.35803">
        <ele>472.4</ele>
        <time>2012-05-10T16:31:08Z</time>
      </trkpt>
      <trkpt lat="28.49664" lon="-10.35845">
        <ele>472.2</ele>
        <time>2012-05-10T16:31:13Z</time>
      </trkpt>
      <trkpt lat="28.49657" lon="-10.35864">
        <ele>472.3</ele>
        <time>2012-05-10T16:31:18Z</time>
      </trkpt>
      <trkpt lat="28.49652" lon="-10.35894">
        <ele>472.1</ele>
        <time>2012-05-10T16:31:23Z</time>
      </trkpt>
      <trkpt lat="28.49651" lon="-10.35915">
        <ele>471.6</ele>
        <time>2012-05-10T16:31:28Z</time>
      </trkpt>
      <trkpt lat="28.49649" lon="-10.35945">
        <ele>471.7</ele>
        <time>2012-05-10T16:31:33Z</time>
      </trkpt>
      <trkpt lat="28.49644" lon="-10.35977">
        <ele>471.5</ele>
        <time>2012-05-10T16:31:38Z</time>
      </trkpt>
      <trkpt lat="28.49634" lon="-10.35995">
        <ele>471.5</ele>
        <time>2012-05-10T16:31:43Z</time>
      </trkpt>
      <trkpt lat="28.49626" lon="-10.36016">
        <ele>470.7</ele>
        <time>2012-05-10T16:31:48Z</time>
      </trkpt>
      <trkpt lat="28.49612" lon="-10.36061">
        <ele>470</ele>
        <time>2012-05-10T16:31:53Z</time>
      </trkpt>
      <trkpt lat="28.49605" lon="-10.36081">
        <ele>469.8</ele>
        <time>2012-05-10T16:31:58Z</time>
      </trkpt>
      <trkpt lat="28.49593" lon="-10.36109">
        <ele>469.8</ele>
        <time>2012-05-10T16:32:03Z</time>
      </trkpt>
      <trkpt lat="28.49585" lon="-10.36138">
        <ele>469.9</ele>
        <time>2012-05-10T16:32:08Z</time>
      </trkpt>
      <trkpt lat="28.49581" lon="-10.36166">
        <ele>469.9</ele>
        <time>2012-05-10T16:32:13Z</time>
      </trkpt>
      <trkpt lat="28.49577" lon="-10.36196">
        <ele>469.9</ele>
        <time>2012-05-10T16:32:18Z</time>
      </trkpt>
      <trkpt lat="28.49571" lon="-10.36217">
        <ele>469.8</ele>
        <time>2012-05-10T16:32:23Z</time>
      </trkpt>
      <trkpt lat="28.49566" lon="-10.36238">
        <ele>469.6</ele>
        <time>2012-05-10T16:32:28Z</time>
      </trkpt>
      <trkpt lat="28.49562" lon="-10.3626">
        <ele>469.4</ele>
        <time>2012-05-10T16:32:33Z</time>
      </trkpt>
      <trkpt lat="28.49556" lon="-10.3631">
        <ele>469.1</ele>
        <time>2012-05-10T16:32:38Z</time>
      </trkpt>
      <trkpt lat="28.49549" lon="-10.36338">
        <ele>468.7</ele>
        <time>2012-05-10T16:32:43Z</time>
      </trkpt>
      <trkpt lat="28.49538" lon="-10.36388">
        <ele>467.5</ele>
        <time>2012-05-10T16:32:48Z</time>
      </trkpt>
      <trkpt lat="28.49525" lon="-10.36455">
        <ele>467.2</ele>
        <time>2012-05-10T16:32:53Z</time>
      </trkpt>
      <trkpt lat="28.49519" lon="-10.36484">
        <ele>466.8</ele>
        <time>2012-05-10T16:32:58Z</time>
      </trkpt>
      <trkpt lat="28.49499" lon="-10.36596">
        <ele>465.5</ele>
        <time>2012-05-10T16:33:03Z</time>
      </trkpt>
      <trkpt lat="28.49494" lon="-10.36622">
        <ele>465.3</ele>
        <time>2012-05-10T16:33:08Z</time>
      </trkpt>
      <trkpt lat="28.49485" lon="-10.36672">
        <ele>465.5</ele>
        <time>2012-05-10T16:33:13Z</time>
      </trkpt>
      <trkpt lat="28.49475" lon="-10.36692">
        <ele>464.1</ele>
        <time>2012-05-10T16:33:18Z</time>
      </trkpt>
      <trkpt lat="28.4946" lon="-10.36709">
        <ele>463.4</ele>
        <time>2012-05-10T16:33:23Z</time>
      </trkpt>
      <trkpt lat="28.49436" lon="-10.36733">
        <ele>460.9</ele>
        <time>2012-05-10T16:33:28Z</time>
      </trkpt>
      <trkpt lat="28.4942" lon="-10.3674">
        <ele>460.9</ele>
        <time>2012-05-10T16:33:33Z</time>
      </trkpt>
      <trkpt lat="28.49418" lon="-10.36759">
        <ele>460.2</ele>
        <time>2012-05-10T16:33:38Z</time>
      </trkpt>
      <trkpt lat="28.49422" lon="-10.3678">
        <ele>460.2</ele>
        <time>2012-05-10T16:33:43Z</time>
      </trkpt>
      <trkpt lat="28.49425" lon="-10.36804">
        <ele>459.9</ele>
        <time>2012-05-10T16:33:48Z</time>
      </trkpt>
      <trkpt lat="28.49429" lon="-10.36861">
        <ele>458.6</ele>
        <time>2012-05-10T16:33:53Z</time>
      </trkpt>
      <trkpt lat="28.49427" lon="-10.36886">
        <ele>459.3</ele>
        <time>2012-05-10T16:33:58Z</time>
      </trkpt>
      <trkpt lat="28.49422" lon="-10.36912">
        <ele>460.1</ele>
        <time>2012-05-10T16:34:03Z</time>
      </trkpt>
      <trkpt lat="28.49405" lon="-10.36995">
        <ele>463</ele>
        <time>2012-05-10T16:34:08Z</time>
      </trkpt>
      <trkpt lat="28.49402" lon="-10.37018">
        <ele>463.6</ele>
        <time>2012-05-10T16:34:13Z</time>
      </trkpt>
      <trkpt lat="28.49399" lon="-10.37041">
        <ele>463.3</ele>
        <time>2012-05-10T16:34:18Z</time>
      </trkpt>
      <trkpt lat="28.49398" lon="-10.37064">
        <ele>463.4</ele>
        <time>2012-05-10T16:34:23Z</time>
      </trkpt>
      <trkpt lat="28.49412" lon="-10.37078">
        <ele>461.8</ele>
        <time>2012-05-10T16:34:28Z</time>
      </trkpt>
      <trkpt lat="28.49426" lon="-10.37091">
        <ele>459.6</ele>
        <time>2012-05-10T16:34:33Z</time>
      </trkpt>
      <trkpt lat="28.49433" lon="-10.37115">
        <ele>458.2</ele>
        <time>2012-05-10T16:34:38Z</time>
      </trkpt>
      <trkpt lat="28.49436" lon="-10.37136">
        <ele>457.8</ele>
        <time>2012-05-10T16:34:43Z</time>
      </trkpt>
      <trkpt lat="28.49437" lon="-10.37162">
        <ele>457.8</ele>
        <time>2012-05-10T16:34:48Z</time>
      </trkpt>
      <trkpt lat="28.49436" lon="-10.37186">
        <ele>458.1</ele>
        <time>2012-05-10T16:34:53Z</time>
      </trkpt>
      <trkpt lat="28.4943" lon="-10.37281">
        <ele>458.6</ele>
        <time>2012-05-10T16:34:58Z</time>
      </trkpt>
      <trkpt lat="28.49428" lon="-10.37309">
        <ele>459.2</ele>
        <time>2012-05-10T16:35:03Z</time>
      </trkpt>
      <trkpt lat="28.49427" lon="-10.37332">
        <ele>458.8</ele>
        <time>2012-05-10T16:35:08Z</time>
      </trkpt>
      <trkpt lat="28.49423" lon="-10.37401">
        <ele>457.9</ele>
        <time>2012-05-10T16:35:13Z</time>
      </trkpt>
      <trkpt lat="28.49421" lon="-10.37425">
        <ele>458</ele>
        <time>2012-05-10T16:35:18Z</time>
      </trkpt>
      <trkpt lat="28.4942" lon="-10.37447">
        <ele>457.9</ele>
        <time>2012-05-10T16:35:23Z</time>
      </trkpt>
      <trkpt lat="28.49417" lon="-10.37499">
        <ele>457.6</ele>
        <time>2012-05-10T16:35:28Z</time>
      </trkpt>
      <trkpt lat="28.49415" lon="-10.37526">
        <ele>457.6</ele>
        <time>2012-05-10T16:35:33Z</time>
      </trkpt>
      <trkpt lat="28.49413" lon="-10.37555">
        <ele>457.6</ele>
        <time>2012-05-10T16:35:38Z</time>
      </trkpt>
      <trkpt lat="28.49409" lon="-10.37584">
        <ele>457.6</ele>
        <time>2012-05-10T16:35:43Z</time>
      </trkpt>
      <trkpt lat="28.49406" lon="-10.37619">
        <ele>457.4</ele>
        <time>2012-05-10T16:35:48Z</time>
      </trkpt>
      <trkpt lat="28.49404" lon="-10.37658">
        <ele>456.6</ele>
        <time>2012-05-10T16:35:53Z</time>
      </trkpt>
      <trkpt lat="28.49402" lon="-10.3768">
        <ele>456.3</ele>
        <time>2012-05-10T16:35:58Z</time>
      </trkpt>
      <trkpt lat="28.49392" lon="-10.377">
        <ele>457.2</ele>
        <time>2012-05-10T16:36:03Z</time>
      </trkpt>
      <trkpt lat="28.49389" lon="-10.37722">
        <ele>458.1</ele>
        <time>2012-05-10T16:36:08Z</time>
      </trkpt>
      <trkpt lat="28.49396" lon="-10.37744">
        <ele>456.2</ele>
        <time>2012-05-10T16:36:13Z</time>
      </trkpt>
      <trkpt lat="28.494" lon="-10.37791">
        <ele>455.3</ele>
        <time>2012-05-10T16:36:18Z</time>
      </trkpt>
      <trkpt lat="28.49401" lon="-10.37816">
        <ele>454.8</ele>
        <time>2012-05-10T16:36:23Z</time>
      </trkpt>
      <trkpt lat="28.49404" lon="-10.38023">
        <ele>453.4</ele>
        <time>2012-05-10T16:36:28Z</time>
      </trkpt>
      <trkpt lat="28.49405" lon="-10.38045">
        <ele>453.2</ele>
        <time>2012-05-10T16:36:33Z</time>
      </trkpt>
      <trkpt lat="28.49413" lon="-10.38064">
        <ele>452.8</ele>
        <time>2012-05-10T16:36:38Z</time>
      </trkpt>
      <trkpt lat="28.49427" lon="-10.38089">
        <ele>451.8</ele>
        <time>2012-05-10T16:36:43Z</time>
      </trkpt>
      <trkpt lat="28.49437" lon="-10.38108">
        <ele>450.9</ele>
        <time>2012-05-10T16:36:48Z</time>
      </trkpt>
      <trkpt lat="28.49444" lon="-10.38127">
        <ele>450</ele>
        <time>2012-05-10T16:36:53Z</time>
      </trkpt>
      <trkpt lat="28.49458" lon="-10.38163">
        <ele>448.8</ele>
        <time>2012-05-10T16:36:58Z</time>
      </trkpt>
      <trkpt lat="28.49471" lon="-10.38199">
        <ele>448.1</ele>
        <time>2012-05-10T16:37:03Z</time>
      </trkpt>
      <trkpt lat="28.49477" lon="-10.38228">
        <ele>447.9</ele>
        <time>2012-05-10T16:37:08Z</time>
      </trkpt>
      <trkpt lat="28.49479" lon="-10.38249">
        <ele>447.7</ele>
        <time>2012-05-10T16:37:13Z</time>
      </trkpt>
      <trkpt lat="28.49481" lon="-10.38283">
        <ele>447.3</ele>
        <time>2012-05-10T16:37:18Z</time>
      </trkpt>
      <trkpt lat="28.49483" lon="-10.38343">
        <ele>447.1</ele>
        <time>2012-05-10T16:37:23Z</time>
      </trkpt>
      <trkpt lat="28.49486" lon="-10.38368">
        <ele>447.1</ele>
        <time>2012-05-10T16:37:28Z</time>
      </trkpt>
      <trkpt lat="28.4949" lon="-10.38392">
        <ele>446.9</ele>
        <time>2012-05-10T16:37:33Z</time>
      </trkpt>
      <trkpt lat="28.49495" lon="-10.38415">
        <ele>446.8</ele>
        <time>2012-05-10T16:37:38Z</time>
      </trkpt>
      <trkpt lat="28.49503" lon="-10.38449">
        <ele>446.4</ele>
        <time>2012-05-10T16:37:43Z</time>
      </trkpt>
      <trkpt lat="28.49506" lon="-10.38474">
        <ele>446.2</ele>
        <time>2012-05-10T16:37:48Z</time>
      </trkpt>
      <trkpt lat="28.4951" lon="-10.38498">
        <ele>446</ele>
        <time>2012-05-10T16:37:53Z</time>
      </trkpt>
      <trkpt lat="28.49516" lon="-10.38521">
        <ele>445.5</ele>
        <time>2012-05-10T16:37:58Z</time>
      </trkpt>
      <trkpt lat="28.49526" lon="-10.38556">
        <ele>445.1</ele>
        <time>2012-05-10T16:38:03Z</time>
      </trkpt>
      <trkpt lat="28.49536" lon="-10.3859">
        <ele>445.2</ele>
        <time>2012-05-10T16:38:08Z</time>
      </trkpt>
      <trkpt lat="28.4954" lon="-10.38613">
        <ele>445.1</ele>
        <time>2012-05-10T16:38:13Z</time>
      </trkpt>
      <trkpt lat="28.49541" lon="-10.38636">
        <ele>445.4</ele>
        <time>2012-05-10T16:38:18Z</time>
      </trkpt>
      <trkpt lat="28.49543" lon="-10.38659">
        <ele>445.3</ele>
        <time>2012-05-10T16:38:23Z</time>
      </trkpt>
      <trkpt lat="28.49545" lon="-10.38681">
        <ele>445</ele>
        <time>2012-05-10T16:38:28Z</time>
      </trkpt>
      <trkpt lat="28.4955" lon="-10.38725">
        <ele>444.5</ele>
        <time>2012-05-10T16:38:33Z</time>
      </trkpt>
      <trkpt lat="28.49553" lon="-10.38746">
        <ele>444.2</ele>
        <time>2012-05-10T16:38:38Z</time>
      </trkpt>
      <trkpt lat="28.49557" lon="-10.38767">
        <ele>443.8</ele>
        <time>2012-05-10T16:38:43Z</time>
      </trkpt>
      <trkpt lat="28.4957" lon="-10.38842">
        <ele>443</ele>
        <time>2012-05-10T16:38:48Z</time>
      </trkpt>
      <trkpt lat="28.49572" lon="-10.38863">
        <ele>442.8</ele>
        <time>2012-05-10T16:38:53Z</time>
      </trkpt>
      <trkpt lat="28.49571" lon="-10.38884">
        <ele>442.7</ele>
        <time>2012-05-10T16:38:58Z</time>
      </trkpt>
      <trkpt lat="28.49566" lon="-10.38905">
        <ele>442.9</ele>
        <time>2012-05-10T16:39:03Z</time>
      </trkpt>
      <trkpt lat="28.49558" lon="-10.38925">
        <ele>443.2</ele>
        <time>2012-05-10T16:39:08Z</time>
      </trkpt>
      <trkpt lat="28.4955" lon="-10.38944">
        <ele>443.2</ele>
        <time>2012-05-10T16:39:13Z</time>
      </trkpt>
      <trkpt lat="28.4954" lon="-10.38961">
        <ele>443.2</ele>
        <time>2012-05-10T16:39:18Z</time>
      </trkpt>
      <trkpt lat="28.49521" lon="-10.38981">
        <ele>443.5</ele>
        <time>2012-05-10T16:39:23Z</time>
      </trkpt>
      <trkpt lat="28.49507" lon="-10.38999">
        <ele>443.1</ele>
        <time>2012-05-10T16:39:28Z</time>
      </trkpt>
      <trkpt lat="28.49492" lon="-10.3902">
        <ele>443.2</ele>
        <time>2012-05-10T16:39:33Z</time>
      </trkpt>
      <trkpt lat="28.49468" lon="-10.39056">
        <ele>443.9</ele>
        <time>2012-05-10T16:39:38Z</time>
      </trkpt>
      <trkpt lat="28.49448" lon="-10.3909">
        <ele>444.9</ele>
        <time>2012-05-10T16:39:43Z</time>
      </trkpt>
      <trkpt lat="28.4944" lon="-10.39117">
        <ele>445.2</ele>
        <time>2012-05-10T16:39:48Z</time>
      </trkpt>
      <trkpt lat="28.49398" lon="-10.3926">
        <ele>446.1</ele>
        <time>2012-05-10T16:39:53Z</time>
      </trkpt>
      <trkpt lat="28.494" lon="-10.39284">
        <ele>445.5</ele>
        <time>2012-05-10T16:39:58Z</time>
      </trkpt>
      <trkpt lat="28.49399" lon="-10.39305">
        <ele>444.7</ele>
        <time>2012-05-10T16:40:03Z</time>
      </trkpt>
      <trkpt lat="28.49385" lon="-10.39318">
        <ele>445.1</ele>
        <time>2012-05-10T16:40:08Z</time>
      </trkpt>
      <trkpt lat="28.49373" lon="-10.39342">
        <ele>444.7</ele>
        <time>2012-05-10T16:40:13Z</time>
      </trkpt>
      <trkpt lat="28.49366" lon="-10.39373">
        <ele>444.6</ele>
        <time>2012-05-10T16:40:18Z</time>
      </trkpt>
      <trkpt lat="28.49362" lon="-10.394">
        <ele>444.2</ele>
        <time>2012-05-10T16:40:23Z</time>
      </trkpt>
      <trkpt lat="28.49334" lon="-10.39627">
        <ele>443.5</ele>
        <time>2012-05-10T16:40:28Z</time>
      </trkpt>
      <trkpt lat="28.49327" lon="-10.39671">
        <ele>443.8</ele>
        <time>2012-05-10T16:40:33Z</time>
      </trkpt>
      <trkpt lat="28.49322" lon="-10.39691">
        <ele>443.8</ele>
        <time>2012-05-10T16:40:38Z</time>
      </trkpt>
      <trkpt lat="28.49311" lon="-10.3972">
        <ele>443.7</ele>
        <time>2012-05-10T16:40:43Z</time>
      </trkpt>
      <trkpt lat="28.493" lon="-10.39737">
        <ele>443.6</ele>
        <time>2012-05-10T16:40:48Z</time>
      </trkpt>
      <trkpt lat="28.49285" lon="-10.39761">
        <ele>443.5</ele>
        <time>2012-05-10T16:40:53Z</time>
      </trkpt>
      <trkpt lat="28.49279" lon="-10.39787">
        <ele>443.3</ele>
        <time>2012-05-10T16:40:58Z</time>
      </trkpt>
      <trkpt lat="28.4928" lon="-10.39814">
        <ele>443.3</ele>
        <time>2012-05-10T16:41:03Z</time>
      </trkpt>
      <trkpt lat="28.49287" lon="-10.39841">
        <ele>442.8</ele>
        <time>2012-05-10T16:41:08Z</time>
      </trkpt>
      <trkpt lat="28.49286" lon="-10.39869">
        <ele>443.1</ele>
        <time>2012-05-10T16:41:13Z</time>
      </trkpt>
      <trkpt lat="28.49275" lon="-10.39896">
        <ele>443.6</ele>
        <time>2012-05-10T16:41:18Z</time>
      </trkpt>
      <trkpt lat="28.49258" lon="-10.39933">
        <ele>444.3</ele>
        <time>2012-05-10T16:41:23Z</time>
      </trkpt>
      <trkpt lat="28.49251" lon="-10.39952">
        <ele>444.8</ele>
        <time>2012-05-10T16:41:28Z</time>
      </trkpt>
      <trkpt lat="28.49248" lon="-10.39973">
        <ele>445.1</ele>
        <time>2012-05-10T16:41:33Z</time>
      </trkpt>
      <trkpt lat="28.49248" lon="-10.39995">
        <ele>445.3</ele>
        <time>2012-05-10T16:41:38Z</time>
      </trkpt>
      <trkpt lat="28.4925" lon="-10.40018">
        <ele>445.8</ele>
        <time>2012-05-10T16:41:43Z</time>
      </trkpt>
      <trkpt lat="28.49255" lon="-10.40073">
        <ele>446.7</ele>
        <time>2012-05-10T16:41:48Z</time>
      </trkpt>
      <trkpt lat="28.4926" lon="-10.40102">
        <ele>447.1</ele>
        <time>2012-05-10T16:41:53Z</time>
      </trkpt>
      <trkpt lat="28.49267" lon="-10.40127">
        <ele>447.7</ele>
        <time>2012-05-10T16:41:58Z</time>
      </trkpt>
      <trkpt lat="28.4927" lon="-10.40152">
        <ele>447.6</ele>
        <time>2012-05-10T16:42:03Z</time>
      </trkpt>
      <trkpt lat="28.49267" lon="-10.4021">
        <ele>448.7</ele>
        <time>2012-05-10T16:42:08Z</time>
      </trkpt>
      <trkpt lat="28.49265" lon="-10.40231">
        <ele>449.3</ele>
        <time>2012-05-10T16:42:13Z</time>
      </trkpt>
      <trkpt lat="28.49261" lon="-10.40261">
        <ele>450</ele>
        <time>2012-05-10T16:42:18Z</time>
      </trkpt>
      <trkpt lat="28.4926" lon="-10.40291">
        <ele>450.4</ele>
        <time>2012-05-10T16:42:23Z</time>
      </trkpt>
      <trkpt lat="28.49255" lon="-10.4034">
        <ele>449.7</ele>
        <time>2012-05-10T16:42:28Z</time>
      </trkpt>
      <trkpt lat="28.4925" lon="-10.40364">
        <ele>449.9</ele>
        <time>2012-05-10T16:42:33Z</time>
      </trkpt>
      <trkpt lat="28.49248" lon="-10.4039">
        <ele>450.1</ele>
        <time>2012-05-10T16:42:38Z</time>
      </trkpt>
      <trkpt lat="28.49248" lon="-10.40438">
        <ele>450.5</ele>
        <time>2012-05-10T16:42:43Z</time>
      </trkpt>
      <trkpt lat="28.49246" lon="-10.40466">
        <ele>450.6</ele>
        <time>2012-05-10T16:42:48Z</time>
      </trkpt>
      <trkpt lat="28.49242" lon="-10.40492">
        <ele>450.5</ele>
        <time>2012-05-10T16:42:53Z</time>
      </trkpt>
      <trkpt lat="28.49227" lon="-10.4057">
        <ele>449.4</ele>
        <time>2012-05-10T16:42:58Z</time>
      </trkpt>
      <trkpt lat="28.49204" lon="-10.40676">
        <ele>446.7</ele>
        <time>2012-05-10T16:43:03Z</time>
      </trkpt>
      <trkpt lat="28.492" lon="-10.40697">
        <ele>446</ele>
        <time>2012-05-10T16:43:08Z</time>
      </trkpt>
      <trkpt lat="28.49195" lon="-10.40717">
        <ele>445.4</ele>
        <time>2012-05-10T16:43:13Z</time>
      </trkpt>
      <trkpt lat="28.49186" lon="-10.40738">
        <ele>445.3</ele>
        <time>2012-05-10T16:43:18Z</time>
      </trkpt>
      <trkpt lat="28.49175" lon="-10.40761">
        <ele>445.6</ele>
        <time>2012-05-10T16:43:23Z</time>
      </trkpt>
      <trkpt lat="28.49171" lon="-10.4079">
        <ele>446.2</ele>
        <time>2012-05-10T16:43:28Z</time>
      </trkpt>
      <trkpt lat="28.49172" lon="-10.40811">
        <ele>446.6</ele>
        <time>2012-05-10T16:43:33Z</time>
      </trkpt>
      <trkpt lat="28.49171" lon="-10.4084">
        <ele>446.7</ele>
        <time>2012-05-10T16:43:38Z</time>
      </trkpt>
      <trkpt lat="28.49162" lon="-10.40865">
        <ele>446.7</ele>
        <time>2012-05-10T16:43:43Z</time>
      </trkpt>
      <trkpt lat="28.49157" lon="-10.40893">
        <ele>446.3</ele>
        <time>2012-05-10T16:43:48Z</time>
      </trkpt>
      <trkpt lat="28.49155" lon="-10.40935">
        <ele>446.1</ele>
        <time>2012-05-10T16:43:53Z</time>
      </trkpt>
      <trkpt lat="28.4914" lon="-10.41033">
        <ele>445.6</ele>
        <time>2012-05-10T16:43:58Z</time>
      </trkpt>
      <trkpt lat="28.49139" lon="-10.41055">
        <ele>445.8</ele>
        <time>2012-05-10T16:44:03Z</time>
      </trkpt>
      <trkpt lat="28.4914" lon="-10.41078">
        <ele>445.7</ele>
        <time>2012-05-10T16:44:08Z</time>
      </trkpt>
      <trkpt lat="28.49141" lon="-10.41101">
        <ele>445.7</ele>
        <time>2012-05-10T16:44:13Z</time>
      </trkpt>
      <trkpt lat="28.49144" lon="-10.41124">
        <ele>445.5</ele>
        <time>2012-05-10T16:44:18Z</time>
      </trkpt>
      <trkpt lat="28.49151" lon="-10.41194">
        <ele>445.6</ele>
        <time>2012-05-10T16:44:23Z</time>
      </trkpt>
      <trkpt lat="28.49164" lon="-10.41318">
        <ele>446</ele>
        <time>2012-05-10T16:44:28Z</time>
      </trkpt>
      <trkpt lat="28.49163" lon="-10.41345">
        <ele>446.4</ele>
        <time>2012-05-10T16:44:33Z</time>
      </trkpt>
      <trkpt lat="28.49162" lon="-10.41373">
        <ele>447.2</ele>
        <time>2012-05-10T16:44:38Z</time>
      </trkpt>
      <trkpt lat="28.49166" lon="-10.41402">
        <ele>447.6</ele>
        <time>2012-05-10T16:44:43Z</time>
      </trkpt>
      <trkpt lat="28.49172" lon="-10.41452">
        <ele>448.9</ele>
        <time>2012-05-10T16:44:48Z</time>
      </trkpt>
      <trkpt lat="28.49176" lon="-10.41482">
        <ele>449.6</ele>
        <time>2012-05-10T16:44:53Z</time>
      </trkpt>
      <trkpt lat="28.49178" lon="-10.41513">
        <ele>450</ele>
        <time>2012-05-10T16:44:58Z</time>
      </trkpt>
      <trkpt lat="28.49186" lon="-10.41565">
        <ele>450.4</ele>
        <time>2012-05-10T16:45:03Z</time>
      </trkpt>
      <trkpt lat="28.4919" lon="-10.41586">
        <ele>450.4</ele>
        <time>2012-05-10T16:45:08Z</time>
      </trkpt>
      <trkpt lat="28.49204" lon="-10.41652">
        <ele>450.5</ele>
        <time>2012-05-10T16:45:13Z</time>
      </trkpt>
      <trkpt lat="28.49217" lon="-10.41707">
        <ele>449.6</ele>
        <time>2012-05-10T16:45:18Z</time>
      </trkpt>
      <trkpt lat="28.49229" lon="-10.41756">
        <ele>448.2</ele>
        <time>2012-05-10T16:45:23Z</time>
      </trkpt>
      <trkpt lat="28.49246" lon="-10.41803">
        <ele>447.2</ele>
        <time>2012-05-10T16:45:28Z</time>
      </trkpt>
      <trkpt lat="28.49254" lon="-10.4183">
        <ele>446.3</ele>
        <time>2012-05-10T16:45:33Z</time>
      </trkpt>
      <trkpt lat="28.49259" lon="-10.41856">
        <ele>445.6</ele>
        <time>2012-05-10T16:45:38Z</time>
      </trkpt>
      <trkpt lat="28.4926" lon="-10.41884">
        <ele>446.4</ele>
        <time>2012-05-10T16:45:43Z</time>
      </trkpt>
      <trkpt lat="28.49266" lon="-10.41913">
        <ele>446.8</ele>
        <time>2012-05-10T16:45:48Z</time>
      </trkpt>
      <trkpt lat="28.49273" lon="-10.41942">
        <ele>446.8</ele>
        <time>2012-05-10T16:45:53Z</time>
      </trkpt>
      <trkpt lat="28.4928" lon="-10.41972">
        <ele>447</ele>
        <time>2012-05-10T16:45:58Z</time>
      </trkpt>
      <trkpt lat="28.49288" lon="-10.41991">
        <ele>446.9</ele>
        <time>2012-05-10T16:46:03Z</time>
      </trkpt>
      <trkpt lat="28.49294" lon="-10.42012">
        <ele>446.9</ele>
        <time>2012-05-10T16:46:08Z</time>
      </trkpt>
      <trkpt lat="28.49297" lon="-10.42033">
        <ele>447.1</ele>
        <time>2012-05-10T16:46:13Z</time>
      </trkpt>
      <trkpt lat="28.49304" lon="-10.42062">
        <ele>447.3</ele>
        <time>2012-05-10T16:46:18Z</time>
      </trkpt>
      <trkpt lat="28.4931" lon="-10.42087">
        <ele>447</ele>
        <time>2012-05-10T16:46:23Z</time>
      </trkpt>
      <trkpt lat="28.49322" lon="-10.42106">
        <ele>446.2</ele>
        <time>2012-05-10T16:46:28Z</time>
      </trkpt>
      <trkpt lat="28.49335" lon="-10.42123">
        <ele>444.6</ele>
        <time>2012-05-10T16:46:33Z</time>
      </trkpt>
      <trkpt lat="28.49349" lon="-10.42143">
        <ele>443.1</ele>
        <time>2012-05-10T16:46:38Z</time>
      </trkpt>
      <trkpt lat="28.49371" lon="-10.42175">
        <ele>440.5</ele>
        <time>2012-05-10T16:46:43Z</time>
      </trkpt>
      <trkpt lat="28.49378" lon="-10.42196">
        <ele>439.5</ele>
        <time>2012-05-10T16:46:48Z</time>
      </trkpt>
      <trkpt lat="28.49388" lon="-10.42216">
        <ele>438.3</ele>
        <time>2012-05-10T16:46:53Z</time>
      </trkpt>
      <trkpt lat="28.494" lon="-10.42233">
        <ele>436.5</ele>
        <time>2012-05-10T16:46:58Z</time>
      </trkpt>
      <trkpt lat="28.49417" lon="-10.42244">
        <ele>435.3</ele>
        <time>2012-05-10T16:47:03Z</time>
      </trkpt>
      <trkpt lat="28.49434" lon="-10.42255">
        <ele>435.1</ele>
        <time>2012-05-10T16:47:08Z</time>
      </trkpt>
      <trkpt lat="28.49452" lon="-10.42261">
        <ele>434.7</ele>
        <time>2012-05-10T16:47:13Z</time>
      </trkpt>
      <trkpt lat="28.4947" lon="-10.42269">
        <ele>435.1</ele>
        <time>2012-05-10T16:47:18Z</time>
      </trkpt>
      <trkpt lat="28.49488" lon="-10.42272">
        <ele>435.6</ele>
        <time>2012-05-10T16:47:23Z</time>
      </trkpt>
      <trkpt lat="28.49512" lon="-10.42272">
        <ele>435.2</ele>
        <time>2012-05-10T16:47:28Z</time>
      </trkpt>
      <trkpt lat="28.49534" lon="-10.42282">
        <ele>435.1</ele>
        <time>2012-05-10T16:47:33Z</time>
      </trkpt>
      <trkpt lat="28.4955" lon="-10.423">
        <ele>434.2</ele>
        <time>2012-05-10T16:47:38Z</time>
      </trkpt>
      <trkpt lat="28.49553" lon="-10.42326">
        <ele>432.3</ele>
        <time>2012-05-10T16:47:43Z</time>
      </trkpt>
      <trkpt lat="28.4955" lon="-10.42346">
        <ele>430.5</ele>
        <time>2012-05-10T16:47:48Z</time>
      </trkpt>
      <trkpt lat="28.49539" lon="-10.42367">
        <ele>427.8</ele>
        <time>2012-05-10T16:47:53Z</time>
      </trkpt>
      <trkpt lat="28.49524" lon="-10.42396">
        <ele>426.5</ele>
        <time>2012-05-10T16:47:58Z</time>
      </trkpt>
      <trkpt lat="28.49515" lon="-10.42416">
        <ele>426.2</ele>
        <time>2012-05-10T16:48:03Z</time>
      </trkpt>
      <trkpt lat="28.49523" lon="-10.42442">
        <ele>421.5</ele>
        <time>2012-05-10T16:48:08Z</time>
      </trkpt>
      <trkpt lat="28.49536" lon="-10.42458">
        <ele>418.9</ele>
        <time>2012-05-10T16:48:13Z</time>
      </trkpt>
      <trkpt lat="28.49557" lon="-10.42462">
        <ele>417.8</ele>
        <time>2012-05-10T16:48:18Z</time>
      </trkpt>
      <trkpt lat="28.49578" lon="-10.42462">
        <ele>416.8</ele>
        <time>2012-05-10T16:48:23Z</time>
      </trkpt>
      <trkpt lat="28.49605" lon="-10.42461">
        <ele>415.5</ele>
        <time>2012-05-10T16:48:28Z</time>
      </trkpt>
      <trkpt lat="28.49624" lon="-10.42458">
        <ele>414.8</ele>
        <time>2012-05-10T16:48:33Z</time>
      </trkpt>
      <trkpt lat="28.49643" lon="-10.42456">
        <ele>414</ele>
        <time>2012-05-10T16:48:38Z</time>
      </trkpt>
      <trkpt lat="28.49662" lon="-10.42454">
        <ele>413.2</ele>
        <time>2012-05-10T16:48:43Z</time>
      </trkpt>
      <trkpt lat="28.4968" lon="-10.42451">
        <ele>412.7</ele>
        <time>2012-05-10T16:48:48Z</time>
      </trkpt>
      <trkpt lat="28.49699" lon="-10.42446">
        <ele>412.8</ele>
        <time>2012-05-10T16:48:53Z</time>
      </trkpt>
      <trkpt lat="28.49741" lon="-10.42434">
        <ele>412.7</ele>
        <time>2012-05-10T16:48:58Z</time>
      </trkpt>
      <trkpt lat="28.49763" lon="-10.42427">
        <ele>413.1</ele>
        <time>2012-05-10T16:49:03Z</time>
      </trkpt>
      <trkpt lat="28.4978" lon="-10.42419">
        <ele>412.8</ele>
        <time>2012-05-10T16:49:08Z</time>
      </trkpt>
      <trkpt lat="28.49797" lon="-10.42409">
        <ele>412.3</ele>
        <time>2012-05-10T16:49:13Z</time>
      </trkpt>
      <trkpt lat="28.49816" lon="-10.42399">
        <ele>411.6</ele>
        <time>2012-05-10T16:49:18Z</time>
      </trkpt>
      <trkpt lat="28.49836" lon="-10.42394">
        <ele>410.5</ele>
        <time>2012-05-10T16:49:23Z</time>
      </trkpt>
      <trkpt lat="28.49856" lon="-10.42397">
        <ele>410.2</ele>
        <time>2012-05-10T16:49:28Z</time>
      </trkpt>
      <trkpt lat="28.49875" lon="-10.42407">
        <ele>409.5</ele>
        <time>2012-05-10T16:49:33Z</time>
      </trkpt>
      <trkpt lat="28.49893" lon="-10.42422">
        <ele>408.6</ele>
        <time>2012-05-10T16:49:38Z</time>
      </trkpt>
      <trkpt lat="28.49909" lon="-10.42442">
        <ele>407.6</ele>
        <time>2012-05-10T16:49:43Z</time>
      </trkpt>
      <trkpt lat="28.49921" lon="-10.42464">
        <ele>407.6</ele>
        <time>2012-05-10T16:49:48Z</time>
      </trkpt>
      <trkpt lat="28.49933" lon="-10.42485">
        <ele>407.5</ele>
        <time>2012-05-10T16:49:53Z</time>
      </trkpt>
      <trkpt lat="28.49949" lon="-10.42512">
        <ele>406.6</ele>
        <time>2012-05-10T16:49:58Z</time>
      </trkpt>
      <trkpt lat="28.49962" lon="-10.4253">
        <ele>405.6</ele>
        <time>2012-05-10T16:50:03Z</time>
      </trkpt>
      <trkpt lat="28.4997" lon="-10.42551">
        <ele>404.8</ele>
        <time>2012-05-10T16:50:08Z</time>
      </trkpt>
      <trkpt lat="28.49974" lon="-10.42574">
        <ele>404.8</ele>
        <time>2012-05-10T16:50:13Z</time>
      </trkpt>
      <trkpt lat="28.49973" lon="-10.42599">
        <ele>405.4</ele>
        <time>2012-05-10T16:50:18Z</time>
      </trkpt>
      <trkpt lat="28.49973" lon="-10.42624">
        <ele>405.9</ele>
        <time>2012-05-10T16:50:23Z</time>
      </trkpt>
      <trkpt lat="28.49968" lon="-10.4265">
        <ele>406.3</ele>
        <time>2012-05-10T16:50:28Z</time>
      </trkpt>
      <trkpt lat="28.49958" lon="-10.42677">
        <ele>406.3</ele>
        <time>2012-05-10T16:50:33Z</time>
      </trkpt>
      <trkpt lat="28.49944" lon="-10.42711">
        <ele>405.8</ele>
        <time>2012-05-10T16:50:38Z</time>
      </trkpt>
      <trkpt lat="28.49934" lon="-10.42737">
        <ele>405.4</ele>
        <time>2012-05-10T16:50:43Z</time>
      </trkpt>
      <trkpt lat="28.49922" lon="-10.42762">
        <ele>405.1</ele>
        <time>2012-05-10T16:50:48Z</time>
      </trkpt>
      <trkpt lat="28.49906" lon="-10.42797">
        <ele>404.6</ele>
        <time>2012-05-10T16:50:53Z</time>
      </trkpt>
      <trkpt lat="28.49882" lon="-10.4285">
        <ele>403.9</ele>
        <time>2012-05-10T16:50:58Z</time>
      </trkpt>
      <trkpt lat="28.49871" lon="-10.42878">
        <ele>403.7</ele>
        <time>2012-05-10T16:51:03Z</time>
      </trkpt>
      <trkpt lat="28.49863" lon="-10.42907">
        <ele>403.6</ele>
        <time>2012-05-10T16:51:08Z</time>
      </trkpt>
      <trkpt lat="28.49848" lon="-10.42956">
        <ele>403.8</ele>
        <time>2012-05-10T16:51:13Z</time>
      </trkpt>
      <trkpt lat="28.49838" lon="-10.42985">
        <ele>403.9</ele>
        <time>2012-05-10T16:51:18Z</time>
      </trkpt>
      <trkpt lat="28.49824" lon="-10.43029">
        <ele>404.4</ele>
        <time>2012-05-10T16:51:23Z</time>
      </trkpt>
      <trkpt lat="28.49816" lon="-10.43051">
        <ele>405.1</ele>
        <time>2012-05-10T16:51:28Z</time>
      </trkpt>
      <trkpt lat="28.49806" lon="-10.43069">
        <ele>403.6</ele>
        <time>2012-05-10T16:51:33Z</time>
      </trkpt>
      <trkpt lat="28.49796" lon="-10.43093">
        <ele>402.8</ele>
        <time>2012-05-10T16:51:38Z</time>
      </trkpt>
      <trkpt lat="28.49798" lon="-10.43113">
        <ele>402.5</ele>
        <time>2012-05-10T16:51:43Z</time>
      </trkpt>
      <trkpt lat="28.49807" lon="-10.43134">
        <ele>401.7</ele>
        <time>2012-05-10T16:51:48Z</time>
      </trkpt>
      <trkpt lat="28.49812" lon="-10.43155">
        <ele>401</ele>
        <time>2012-05-10T16:51:53Z</time>
      </trkpt>
      <trkpt lat="28.49819" lon="-10.4318">
        <ele>399.7</ele>
        <time>2012-05-10T16:51:58Z</time>
      </trkpt>
      <trkpt lat="28.49828" lon="-10.43208">
        <ele>399.1</ele>
        <time>2012-05-10T16:52:03Z</time>
      </trkpt>
      <trkpt lat="28.49832" lon="-10.43233">
        <ele>398.5</ele>
        <time>2012-05-10T16:52:08Z</time>
      </trkpt>
      <trkpt lat="28.49836" lon="-10.43258">
        <ele>398.4</ele>
        <time>2012-05-10T16:52:13Z</time>
      </trkpt>
      <trkpt lat="28.49844" lon="-10.43279">
        <ele>398.4</ele>
        <time>2012-05-10T16:52:18Z</time>
      </trkpt>
      <trkpt lat="28.4986" lon="-10.43307">
        <ele>396.9</ele>
        <time>2012-05-10T16:52:23Z</time>
      </trkpt>
      <trkpt lat="28.49876" lon="-10.43325">
        <ele>395.2</ele>
        <time>2012-05-10T16:52:28Z</time>
      </trkpt>
      <trkpt lat="28.49891" lon="-10.43341">
        <ele>393.9</ele>
        <time>2012-05-10T16:52:33Z</time>
      </trkpt>
      <trkpt lat="28.49907" lon="-10.43356">
        <ele>393.1</ele>
        <time>2012-05-10T16:52:38Z</time>
      </trkpt>
      <trkpt lat="28.49925" lon="-10.43372">
        <ele>392.1</ele>
        <time>2012-05-10T16:52:43Z</time>
      </trkpt>
      <trkpt lat="28.49937" lon="-10.43387">
        <ele>391.5</ele>
        <time>2012-05-10T16:52:48Z</time>
      </trkpt>
      <trkpt lat="28.49951" lon="-10.43402">
        <ele>391.5</ele>
        <time>2012-05-10T16:52:53Z</time>
      </trkpt>
      <trkpt lat="28.49978" lon="-10.43426">
        <ele>390.8</ele>
        <time>2012-05-10T16:52:58Z</time>
      </trkpt>
      <trkpt lat="28.49996" lon="-10.43438">
        <ele>390.3</ele>
        <time>2012-05-10T16:53:03Z</time>
      </trkpt>
      <trkpt lat="28.50014" lon="-10.43447">
        <ele>389.6</ele>
        <time>2012-05-10T16:53:08Z</time>
      </trkpt>
      <trkpt lat="28.50031" lon="-10.43461">
        <ele>388.9</ele>
        <time>2012-05-10T16:53:13Z</time>
      </trkpt>
      <trkpt lat="28.50045" lon="-10.43479">
        <ele>388.1</ele>
        <time>2012-05-10T16:53:18Z</time>
      </trkpt>
      <trkpt lat="28.5006" lon="-10.43496">
        <ele>387.3</ele>
        <time>2012-05-10T16:53:23Z</time>
      </trkpt>
      <trkpt lat="28.50081" lon="-10.43519">
        <ele>386.1</ele>
        <time>2012-05-10T16:53:28Z</time>
      </trkpt>
      <trkpt lat="28.5011" lon="-10.4355">
        <ele>385.1</ele>
        <time>2012-05-10T16:53:33Z</time>
      </trkpt>
      <trkpt lat="28.50124" lon="-10.43562">
        <ele>384.6</ele>
        <time>2012-05-10T16:53:38Z</time>
      </trkpt>
      <trkpt lat="28.50138" lon="-10.43577">
        <ele>384.4</ele>
        <time>2012-05-10T16:53:43Z</time>
      </trkpt>
      <trkpt lat="28.50156" lon="-10.43591">
        <ele>383.6</ele>
        <time>2012-05-10T16:53:48Z</time>
      </trkpt>
      <trkpt lat="28.50179" lon="-10.43589">
        <ele>383.8</ele>
        <time>2012-05-10T16:53:53Z</time>
      </trkpt>
      <trkpt lat="28.50197" lon="-10.43584">
        <ele>384.6</ele>
        <time>2012-05-10T16:53:58Z</time>
      </trkpt>
      <trkpt lat="28.50217" lon="-10.43587">
        <ele>384.4</ele>
        <time>2012-05-10T16:54:03Z</time>
      </trkpt>
      <trkpt lat="28.50239" lon="-10.43595">
        <ele>384.1</ele>
        <time>2012-05-10T16:54:08Z</time>
      </trkpt>
      <trkpt lat="28.5027" lon="-10.43606">
        <ele>384.1</ele>
        <time>2012-05-10T16:54:13Z</time>
      </trkpt>
      <trkpt lat="28.50294" lon="-10.43613">
        <ele>384.2</ele>
        <time>2012-05-10T16:54:18Z</time>
      </trkpt>
      <trkpt lat="28.5034" lon="-10.43625">
        <ele>384.6</ele>
        <time>2012-05-10T16:54:23Z</time>
      </trkpt>
      <trkpt lat="28.50361" lon="-10.43635">
        <ele>384.2</ele>
        <time>2012-05-10T16:54:28Z</time>
      </trkpt>
      <trkpt lat="28.5038" lon="-10.43647">
        <ele>383.5</ele>
        <time>2012-05-10T16:54:33Z</time>
      </trkpt>
      <trkpt lat="28.50399" lon="-10.43657">
        <ele>383.2</ele>
        <time>2012-05-10T16:54:38Z</time>
      </trkpt>
      <trkpt lat="28.50429" lon="-10.43673">
        <ele>382.6</ele>
        <time>2012-05-10T16:54:43Z</time>
      </trkpt>
      <trkpt lat="28.50449" lon="-10.43676">
        <ele>382.3</ele>
        <time>2012-05-10T16:54:48Z</time>
      </trkpt>
      <trkpt lat="28.50469" lon="-10.43678">
        <ele>382</ele>
        <time>2012-05-10T16:54:53Z</time>
      </trkpt>
      <trkpt lat="28.50497" lon="-10.43682">
        <ele>381.6</ele>
        <time>2012-05-10T16:54:58Z</time>
      </trkpt>
      <trkpt lat="28.50518" lon="-10.43684">
        <ele>381.3</ele>
        <time>2012-05-10T16:55:03Z</time>
      </trkpt>
      <trkpt lat="28.50538" lon="-10.4369">
        <ele>380.3</ele>
        <time>2012-05-10T16:55:08Z</time>
      </trkpt>
      <trkpt lat="28.50556" lon="-10.437">
        <ele>379.7</ele>
        <time>2012-05-10T16:55:13Z</time>
      </trkpt>
      <trkpt lat="28.50572" lon="-10.43711">
        <ele>379.2</ele>
        <time>2012-05-10T16:55:18Z</time>
      </trkpt>
      <trkpt lat="28.50585" lon="-10.43729">
        <ele>378.6</ele>
        <time>2012-05-10T16:55:23Z</time>
      </trkpt>
      <trkpt lat="28.50599" lon="-10.4375">
        <ele>378.5</ele>
        <time>2012-05-10T16:55:28Z</time>
      </trkpt>
      <trkpt lat="28.5061" lon="-10.43774">
        <ele>377.9</ele>
        <time>2012-05-10T16:55:33Z</time>
      </trkpt>
      <trkpt lat="28.50641" lon="-10.43836">
        <ele>377.7</ele>
        <time>2012-05-10T16:55:38Z</time>
      </trkpt>
      <trkpt lat="28.50647" lon="-10.43857">
        <ele>377.3</ele>
        <time>2012-05-10T16:55:43Z</time>
      </trkpt>
      <trkpt lat="28.50656" lon="-10.43883">
        <ele>375.5</ele>
        <time>2012-05-10T16:55:48Z</time>
      </trkpt>
      <trkpt lat="28.50667" lon="-10.43907">
        <ele>376.7</ele>
        <time>2012-05-10T16:55:53Z</time>
      </trkpt>
      <trkpt lat="28.50676" lon="-10.43935">
        <ele>377.5</ele>
        <time>2012-05-10T16:55:58Z</time>
      </trkpt>
      <trkpt lat="28.50691" lon="-10.43985">
        <ele>377.5</ele>
        <time>2012-05-10T16:56:03Z</time>
      </trkpt>
      <trkpt lat="28.50716" lon="-10.44057">
        <ele>377.6</ele>
        <time>2012-05-10T16:56:08Z</time>
      </trkpt>
      <trkpt lat="28.50722" lon="-10.44077">
        <ele>377.4</ele>
        <time>2012-05-10T16:56:13Z</time>
      </trkpt>
      <trkpt lat="28.50726" lon="-10.44107">
        <ele>377.4</ele>
        <time>2012-05-10T16:56:18Z</time>
      </trkpt>
      <trkpt lat="28.50724" lon="-10.44137">
        <ele>378.1</ele>
        <time>2012-05-10T16:56:23Z</time>
      </trkpt>
      <trkpt lat="28.50718" lon="-10.44157">
        <ele>378.6</ele>
        <time>2012-05-10T16:56:28Z</time>
      </trkpt>
      <trkpt lat="28.50707" lon="-10.44182">
        <ele>379.2</ele>
        <time>2012-05-10T16:56:33Z</time>
      </trkpt>
      <trkpt lat="28.50699" lon="-10.44206">
        <ele>379.5</ele>
        <time>2012-05-10T16:56:38Z</time>
      </trkpt>
      <trkpt lat="28.5069" lon="-10.44233">
        <ele>380.2</ele>
        <time>2012-05-10T16:56:43Z</time>
      </trkpt>
      <trkpt lat="28.50675" lon="-10.44255">
        <ele>380.6</ele>
        <time>2012-05-10T16:56:48Z</time>
      </trkpt>
      <trkpt lat="28.50661" lon="-10.44271">
        <ele>380.9</ele>
        <time>2012-05-10T16:56:53Z</time>
      </trkpt>
      <trkpt lat="28.50656" lon="-10.4429">
        <ele>380.8</ele>
        <time>2012-05-10T16:56:58Z</time>
      </trkpt>
      <trkpt lat="28.50657" lon="-10.44322">
        <ele>381.2</ele>
        <time>2012-05-10T16:57:03Z</time>
      </trkpt>
      <trkpt lat="28.50653" lon="-10.44346">
        <ele>381.3</ele>
        <time>2012-05-10T16:57:08Z</time>
      </trkpt>
      <trkpt lat="28.50644" lon="-10.4437">
        <ele>381.9</ele>
        <time>2012-05-10T16:57:13Z</time>
      </trkpt>
      <trkpt lat="28.50637" lon="-10.44395">
        <ele>382.7</ele>
        <time>2012-05-10T16:57:18Z</time>
      </trkpt>
      <trkpt lat="28.50629" lon="-10.4442">
        <ele>383.6</ele>
        <time>2012-05-10T16:57:23Z</time>
      </trkpt>
      <trkpt lat="28.506" lon="-10.44508">
        <ele>386.3</ele>
        <time>2012-05-10T16:57:28Z</time>
      </trkpt>
      <trkpt lat="28.50588" lon="-10.4455">
        <ele>387</ele>
        <time>2012-05-10T16:57:33Z</time>
      </trkpt>
      <trkpt lat="28.50585" lon="-10.44572">
        <ele>387.1</ele>
        <time>2012-05-10T16:57:38Z</time>
      </trkpt>
      <trkpt lat="28.50573" lon="-10.44594">
        <ele>386.7</ele>
        <time>2012-05-10T16:57:43Z</time>
      </trkpt>
      <trkpt lat="28.5056" lon="-10.44614">
        <ele>384.8</ele>
        <time>2012-05-10T16:57:48Z</time>
      </trkpt>
      <trkpt lat="28.50549" lon="-10.4464">
        <ele>381.4</ele>
        <time>2012-05-10T16:57:53Z</time>
      </trkpt>
      <trkpt lat="28.50543" lon="-10.44664">
        <ele>378.2</ele>
        <time>2012-05-10T16:57:58Z</time>
      </trkpt>
      <trkpt lat="28.50541" lon="-10.44688">
        <ele>375.5</ele>
        <time>2012-05-10T16:58:03Z</time>
      </trkpt>
      <trkpt lat="28.50531" lon="-10.44711">
        <ele>373.7</ele>
        <time>2012-05-10T16:58:08Z</time>
      </trkpt>
      <trkpt lat="28.50523" lon="-10.44735">
        <ele>372.7</ele>
        <time>2012-05-10T16:58:13Z</time>
      </trkpt>
      <trkpt lat="28.50523" lon="-10.44759">
        <ele>372.4</ele>
        <time>2012-05-10T16:58:18Z</time>
      </trkpt>
      <trkpt lat="28.50528" lon="-10.44783">
        <ele>372.3</ele>
        <time>2012-05-10T16:58:23Z</time>
      </trkpt>
      <trkpt lat="28.50538" lon="-10.44807">
        <ele>372.2</ele>
        <time>2012-05-10T16:58:28Z</time>
      </trkpt>
      <trkpt lat="28.50556" lon="-10.44856">
        <ele>373.2</ele>
        <time>2012-05-10T16:58:33Z</time>
      </trkpt>
      <trkpt lat="28.50565" lon="-10.44881">
        <ele>372.9</ele>
        <time>2012-05-10T16:58:38Z</time>
      </trkpt>
      <trkpt lat="28.50574" lon="-10.44906">
        <ele>373.2</ele>
        <time>2012-05-10T16:58:43Z</time>
      </trkpt>
      <trkpt lat="28.50581" lon="-10.4493">
        <ele>373.6</ele>
        <time>2012-05-10T16:58:48Z</time>
      </trkpt>
      <trkpt lat="28.50588" lon="-10.44951">
        <ele>371.9</ele>
        <time>2012-05-10T16:58:53Z</time>
      </trkpt>
      <trkpt lat="28.50596" lon="-10.44972">
        <ele>371.1</ele>
        <time>2012-05-10T16:58:58Z</time>
      </trkpt>
      <trkpt lat="28.50599" lon="-10.44994">
        <ele>371.3</ele>
        <time>2012-05-10T16:59:03Z</time>
      </trkpt>
      <trkpt lat="28.50609" lon="-10.45013">
        <ele>370.8</ele>
        <time>2012-05-10T16:59:08Z</time>
      </trkpt>
      <trkpt lat="28.5062" lon="-10.45029">
        <ele>369.8</ele>
        <time>2012-05-10T16:59:13Z</time>
      </trkpt>
      <trkpt lat="28.50636" lon="-10.45044">
        <ele>369</ele>
        <time>2012-05-10T16:59:18Z</time>
      </trkpt>
      <trkpt lat="28.5065" lon="-10.45062">
        <ele>367.9</ele>
        <time>2012-05-10T16:59:23Z</time>
      </trkpt>
      <trkpt lat="28.50666" lon="-10.45078">
        <ele>366.8</ele>
        <time>2012-05-10T16:59:28Z</time>
      </trkpt>
      <trkpt lat="28.5068" lon="-10.45096">
        <ele>365.8</ele>
        <time>2012-05-10T16:59:33Z</time>
      </trkpt>
      <trkpt lat="28.50697" lon="-10.45111">
        <ele>364.8</ele>
        <time>2012-05-10T16:59:38Z</time>
      </trkpt>
      <trkpt lat="28.50711" lon="-10.4513">
        <ele>363.8</ele>
        <time>2012-05-10T16:59:43Z</time>
      </trkpt>
      <trkpt lat="28.50717" lon="-10.45151">
        <ele>363.3</ele>
        <time>2012-05-10T16:59:48Z</time>
      </trkpt>
      <trkpt lat="28.50712" lon="-10.45171">
        <ele>363.1</ele>
        <time>2012-05-10T16:59:53Z</time>
      </trkpt>
      <trkpt lat="28.50708" lon="-10.45198">
        <ele>363.3</ele>
        <time>2012-05-10T16:59:58Z</time>
      </trkpt>
      <trkpt lat="28.50698" lon="-10.45219">
        <ele>363.1</ele>
        <time>2012-05-10T17:00:03Z</time>
      </trkpt>
      <trkpt lat="28.50695" lon="-10.45239">
        <ele>362.1</ele>
        <time>2012-05-10T17:00:08Z</time>
      </trkpt>
      <trkpt lat="28.50699" lon="-10.45261">
        <ele>360.8</ele>
        <time>2012-05-10T17:00:13Z</time>
      </trkpt>
      <trkpt lat="28.50704" lon="-10.45286">
        <ele>360.7</ele>
        <time>2012-05-10T17:00:18Z</time>
      </trkpt>
      <trkpt lat="28.50708" lon="-10.45311">
        <ele>360.2</ele>
        <time>2012-05-10T17:00:23Z</time>
      </trkpt>
      <trkpt lat="28.50717" lon="-10.45331">
        <ele>360.1</ele>
        <time>2012-05-10T17:00:28Z</time>
      </trkpt>
      <trkpt lat="28.50734" lon="-10.45339">
        <ele>360</ele>
        <time>2012-05-10T17:00:33Z</time>
      </trkpt>
      <trkpt lat="28.50747" lon="-10.45356">
        <ele>360.1</ele>
        <time>2012-05-10T17:00:38Z</time>
      </trkpt>
      <trkpt lat="28.50733" lon="-10.45373">
        <ele>360.3</ele>
        <time>2012-05-10T17:00:43Z</time>
      </trkpt>
      <trkpt lat="28.50716" lon="-10.45381">
        <ele>359.5</ele>
        <time>2012-05-10T17:00:48Z</time>
      </trkpt>
      <trkpt lat="28.50708" lon="-10.45401">
        <ele>358.9</ele>
        <time>2012-05-10T17:00:53Z</time>
      </trkpt>
      <trkpt lat="28.50707" lon="-10.45426">
        <ele>359.9</ele>
        <time>2012-05-10T17:00:58Z</time>
      </trkpt>
      <trkpt lat="28.50703" lon="-10.45447">
        <ele>360.4</ele>
        <time>2012-05-10T17:01:03Z</time>
      </trkpt>
      <trkpt lat="28.50697" lon="-10.4547">
        <ele>360.7</ele>
        <time>2012-05-10T17:01:08Z</time>
      </trkpt>
      <trkpt lat="28.5069" lon="-10.45493">
        <ele>360.7</ele>
        <time>2012-05-10T17:01:13Z</time>
      </trkpt>
      <trkpt lat="28.50683" lon="-10.45517">
        <ele>360.7</ele>
        <time>2012-05-10T17:01:18Z</time>
      </trkpt>
      <trkpt lat="28.50664" lon="-10.45585">
        <ele>361.1</ele>
        <time>2012-05-10T17:01:23Z</time>
      </trkpt>
      <trkpt lat="28.50656" lon="-10.4561">
        <ele>361.4</ele>
        <time>2012-05-10T17:01:28Z</time>
      </trkpt>
      <trkpt lat="28.50644" lon="-10.45641">
        <ele>360.6</ele>
        <time>2012-05-10T17:01:33Z</time>
      </trkpt>
      <trkpt lat="28.50638" lon="-10.45666">
        <ele>360.1</ele>
        <time>2012-05-10T17:01:38Z</time>
      </trkpt>
      <trkpt lat="28.5063" lon="-10.4569">
        <ele>359.9</ele>
        <time>2012-05-10T17:01:43Z</time>
      </trkpt>
      <trkpt lat="28.50622" lon="-10.45714">
        <ele>358.9</ele>
        <time>2012-05-10T17:01:48Z</time>
      </trkpt>
      <trkpt lat="28.50613" lon="-10.45738">
        <ele>358.6</ele>
        <time>2012-05-10T17:01:53Z</time>
      </trkpt>
      <trkpt lat="28.50589" lon="-10.45791">
        <ele>357.3</ele>
        <time>2012-05-10T17:01:58Z</time>
      </trkpt>
      <trkpt lat="28.50575" lon="-10.45827">
        <ele>357.1</ele>
        <time>2012-05-10T17:02:03Z</time>
      </trkpt>
      <trkpt lat="28.50564" lon="-10.45853">
        <ele>356.7</ele>
        <time>2012-05-10T17:02:08Z</time>
      </trkpt>
      <trkpt lat="28.50548" lon="-10.45895">
        <ele>356.3</ele>
        <time>2012-05-10T17:02:13Z</time>
      </trkpt>
      <trkpt lat="28.50533" lon="-10.45919">
        <ele>356.4</ele>
        <time>2012-05-10T17:02:18Z</time>
      </trkpt>
      <trkpt lat="28.50458" lon="-10.46033">
        <ele>356</ele>
        <time>2012-05-10T17:02:23Z</time>
      </trkpt>
      <trkpt lat="28.50444" lon="-10.46056">
        <ele>355.8</ele>
        <time>2012-05-10T17:02:28Z</time>
      </trkpt>
      <trkpt lat="28.50433" lon="-10.4608">
        <ele>355.3</ele>
        <time>2012-05-10T17:02:33Z</time>
      </trkpt>
      <trkpt lat="28.50417" lon="-10.46113">
        <ele>354.3</ele>
        <time>2012-05-10T17:02:38Z</time>
      </trkpt>
      <trkpt lat="28.5036" lon="-10.46229">
        <ele>353.3</ele>
        <time>2012-05-10T17:02:43Z</time>
      </trkpt>
      <trkpt lat="28.50352" lon="-10.46249">
        <ele>353.9</ele>
        <time>2012-05-10T17:02:48Z</time>
      </trkpt>
      <trkpt lat="28.50345" lon="-10.46271">
        <ele>353.9</ele>
        <time>2012-05-10T17:02:53Z</time>
      </trkpt>
      <trkpt lat="28.50331" lon="-10.46312">
        <ele>354</ele>
        <time>2012-05-10T17:02:58Z</time>
      </trkpt>
      <trkpt lat="28.50312" lon="-10.4637">
        <ele>354.9</ele>
        <time>2012-05-10T17:03:03Z</time>
      </trkpt>
      <trkpt lat="28.50305" lon="-10.46396">
        <ele>355.6</ele>
        <time>2012-05-10T17:03:08Z</time>
      </trkpt>
      <trkpt lat="28.50291" lon="-10.4643">
        <ele>356.1</ele>
        <time>2012-05-10T17:03:13Z</time>
      </trkpt>
      <trkpt lat="28.50273" lon="-10.4646">
        <ele>354.2</ele>
        <time>2012-05-10T17:03:18Z</time>
      </trkpt>
      <trkpt lat="28.50256" lon="-10.46479">
        <ele>352.4</ele>
        <time>2012-05-10T17:03:23Z</time>
      </trkpt>
      <trkpt lat="28.50247" lon="-10.46498">
        <ele>350.6</ele>
        <time>2012-05-10T17:03:28Z</time>
      </trkpt>
      <trkpt lat="28.50242" lon="-10.4652">
        <ele>349.5</ele>
        <time>2012-05-10T17:03:33Z</time>
      </trkpt>
      <trkpt lat="28.50235" lon="-10.46551">
        <ele>347.2</ele>
        <time>2012-05-10T17:03:38Z</time>
      </trkpt>
      <trkpt lat="28.50229" lon="-10.46575">
        <ele>345.9</ele>
        <time>2012-05-10T17:03:43Z</time>
      </trkpt>
      <trkpt lat="28.50217" lon="-10.46622">
        <ele>344.3</ele>
        <time>2012-05-10T17:03:48Z</time>
      </trkpt>
      <trkpt lat="28.50208" lon="-10.46647">
        <ele>342.6</ele>
        <time>2012-05-10T17:03:53Z</time>
      </trkpt>
      <trkpt lat="28.50195" lon="-10.46681">
        <ele>341.1</ele>
        <time>2012-05-10T17:03:58Z</time>
      </trkpt>
      <trkpt lat="28.50181" lon="-10.46708">
        <ele>340.8</ele>
        <time>2012-05-10T17:04:03Z</time>
      </trkpt>
      <trkpt lat="28.50171" lon="-10.46725">
        <ele>341</ele>
        <time>2012-05-10T17:04:08Z</time>
      </trkpt>
      <trkpt lat="28.50154" lon="-10.46748">
        <ele>340.8</ele>
        <time>2012-05-10T17:04:13Z</time>
      </trkpt>
      <trkpt lat="28.5012" lon="-10.46792">
        <ele>341.3</ele>
        <time>2012-05-10T17:04:18Z</time>
      </trkpt>
      <trkpt lat="28.50103" lon="-10.46812">
        <ele>340.9</ele>
        <time>2012-05-10T17:04:23Z</time>
      </trkpt>
      <trkpt lat="28.50087" lon="-10.46834">
        <ele>340.7</ele>
        <time>2012-05-10T17:04:28Z</time>
      </trkpt>
      <trkpt lat="28.50076" lon="-10.46857">
        <ele>340.2</ele>
        <time>2012-05-10T17:04:33Z</time>
      </trkpt>
      <trkpt lat="28.50062" lon="-10.46887">
        <ele>339.9</ele>
        <time>2012-05-10T17:04:38Z</time>
      </trkpt>
      <trkpt lat="28.5006" lon="-10.46913">
        <ele>339.8</ele>
        <time>2012-05-10T17:04:43Z</time>
      </trkpt>
      <trkpt lat="28.5005" lon="-10.46936">
        <ele>339.6</ele>
        <time>2012-05-10T17:04:48Z</time>
      </trkpt>
      <trkpt lat="28.50039" lon="-10.46958">
        <ele>339.2</ele>
        <time>2012-05-10T17:04:53Z</time>
      </trkpt>
      <trkpt lat="28.50034" lon="-10.4698">
        <ele>338.7</ele>
        <time>2012-05-10T17:04:58Z</time>
      </trkpt>
      <trkpt lat="28.50032" lon="-10.47002">
        <ele>337.5</ele>
        <time>2012-05-10T17:05:03Z</time>
      </trkpt>
      <trkpt lat="28.50026" lon="-10.47027">
        <ele>336.6</ele>
        <time>2012-05-10T17:05:08Z</time>
      </trkpt>
      <trkpt lat="28.50012" lon="-10.47045">
        <ele>338.1</ele>
        <time>2012-05-10T17:05:13Z</time>
      </trkpt>
      <trkpt lat="28.50002" lon="-10.47063">
        <ele>338.7</ele>
        <time>2012-05-10T17:05:18Z</time>
      </trkpt>
      <trkpt lat="28.49997" lon="-10.47084">
        <ele>338</ele>
        <time>2012-05-10T17:05:23Z</time>
      </trkpt>
      <trkpt lat="28.49995" lon="-10.47106">
        <ele>337.3</ele>
        <time>2012-05-10T17:05:28Z</time>
      </trkpt>
      <trkpt lat="28.49989" lon="-10.47128">
        <ele>337.4</ele>
        <time>2012-05-10T17:05:33Z</time>
      </trkpt>
      <trkpt lat="28.49973" lon="-10.47144">
        <ele>336.7</ele>
        <time>2012-05-10T17:05:38Z</time>
      </trkpt>
      <trkpt lat="28.49957" lon="-10.47161">
        <ele>336.2</ele>
        <time>2012-05-10T17:05:43Z</time>
      </trkpt>
      <trkpt lat="28.49947" lon="-10.47183">
        <ele>334.9</ele>
        <time>2012-05-10T17:05:48Z</time>
      </trkpt>
      <trkpt lat="28.49938" lon="-10.47209">
        <ele>333.2</ele>
        <time>2012-05-10T17:05:53Z</time>
      </trkpt>
      <trkpt lat="28.49925" lon="-10.47233">
        <ele>333.2</ele>
        <time>2012-05-10T17:05:58Z</time>
      </trkpt>
      <trkpt lat="28.49914" lon="-10.47259">
        <ele>332.9</ele>
        <time>2012-05-10T17:06:03Z</time>
      </trkpt>
      <trkpt lat="28.49903" lon="-10.47283">
        <ele>332.7</ele>
        <time>2012-05-10T17:06:08Z</time>
      </trkpt>
      <trkpt lat="28.49878" lon="-10.47337">
        <ele>331.3</ele>
        <time>2012-05-10T17:06:13Z</time>
      </trkpt>
      <trkpt lat="28.49871" lon="-10.47361">
        <ele>330.6</ele>
        <time>2012-05-10T17:06:18Z</time>
      </trkpt>
      <trkpt lat="28.49865" lon="-10.47388">
        <ele>330.1</ele>
        <time>2012-05-10T17:06:23Z</time>
      </trkpt>
      <trkpt lat="28.49862" lon="-10.47416">
        <ele>330.8</ele>
        <time>2012-05-10T17:06:28Z</time>
      </trkpt>
      <trkpt lat="28.49867" lon="-10.47441">
        <ele>330.6</ele>
        <time>2012-05-10T17:06:33Z</time>
      </trkpt>
      <trkpt lat="28.49869" lon="-10.47462">
        <ele>330.6</ele>
        <time>2012-05-10T17:06:38Z</time>
      </trkpt>
      <trkpt lat="28.49854" lon="-10.47481">
        <ele>329.8</ele>
        <time>2012-05-10T17:06:43Z</time>
      </trkpt>
      <trkpt lat="28.49847" lon="-10.47503">
        <ele>328.1</ele>
        <time>2012-05-10T17:06:48Z</time>
      </trkpt>
      <trkpt lat="28.49843" lon="-10.47529">
        <ele>326.6</ele>
        <time>2012-05-10T17:06:53Z</time>
      </trkpt>
      <trkpt lat="28.49845" lon="-10.4755">
        <ele>326.8</ele>
        <time>2012-05-10T17:06:58Z</time>
      </trkpt>
      <trkpt lat="28.49849" lon="-10.47594">
        <ele>327.3</ele>
        <time>2012-05-10T17:07:03Z</time>
      </trkpt>
      <trkpt lat="28.49848" lon="-10.47615">
        <ele>327.5</ele>
        <time>2012-05-10T17:07:08Z</time>
      </trkpt>
      <trkpt lat="28.49844" lon="-10.47635">
        <ele>327.5</ele>
        <time>2012-05-10T17:07:13Z</time>
      </trkpt>
      <trkpt lat="28.49837" lon="-10.47657">
        <ele>327.2</ele>
        <time>2012-05-10T17:07:18Z</time>
      </trkpt>
      <trkpt lat="28.49828" lon="-10.47678">
        <ele>327</ele>
        <time>2012-05-10T17:07:23Z</time>
      </trkpt>
      <trkpt lat="28.49816" lon="-10.477">
        <ele>326.7</ele>
        <time>2012-05-10T17:07:28Z</time>
      </trkpt>
      <trkpt lat="28.4981" lon="-10.47722">
        <ele>326.5</ele>
        <time>2012-05-10T17:07:33Z</time>
      </trkpt>
      <trkpt lat="28.49805" lon="-10.47745">
        <ele>326.4</ele>
        <time>2012-05-10T17:07:38Z</time>
      </trkpt>
      <trkpt lat="28.49794" lon="-10.47769">
        <ele>325.7</ele>
        <time>2012-05-10T17:07:43Z</time>
      </trkpt>
      <trkpt lat="28.49788" lon="-10.47792">
        <ele>325.1</ele>
        <time>2012-05-10T17:07:48Z</time>
      </trkpt>
      <trkpt lat="28.4978" lon="-10.4782">
        <ele>324.2</ele>
        <time>2012-05-10T17:07:53Z</time>
      </trkpt>
      <trkpt lat="28.49771" lon="-10.4784">
        <ele>323.7</ele>
        <time>2012-05-10T17:07:58Z</time>
      </trkpt>
      <trkpt lat="28.49757" lon="-10.47855">
        <ele>323.7</ele>
        <time>2012-05-10T17:08:03Z</time>
      </trkpt>
      <trkpt lat="28.49743" lon="-10.47871">
        <ele>323.9</ele>
        <time>2012-05-10T17:08:08Z</time>
      </trkpt>
      <trkpt lat="28.49733" lon="-10.47894">
        <ele>324.3</ele>
        <time>2012-05-10T17:08:13Z</time>
      </trkpt>
      <trkpt lat="28.49721" lon="-10.47922">
        <ele>324.6</ele>
        <time>2012-05-10T17:08:18Z</time>
      </trkpt>
      <trkpt lat="28.49708" lon="-10.47943">
        <ele>325</ele>
        <time>2012-05-10T17:08:23Z</time>
      </trkpt>
      <trkpt lat="28.49698" lon="-10.47965">
        <ele>324.2</ele>
        <time>2012-05-10T17:08:28Z</time>
      </trkpt>
      <trkpt lat="28.49702" lon="-10.47985">
        <ele>323.7</ele>
        <time>2012-05-10T17:08:33Z</time>
      </trkpt>
      <trkpt lat="28.49711" lon="-10.48004">
        <ele>323.4</ele>
        <time>2012-05-10T17:08:38Z</time>
      </trkpt>
      <trkpt lat="28.49719" lon="-10.48027">
        <ele>322.2</ele>
        <time>2012-05-10T17:08:43Z</time>
      </trkpt>
      <trkpt lat="28.49728" lon="-10.48051">
        <ele>321.2</ele>
        <time>2012-05-10T17:08:48Z</time>
      </trkpt>
      <trkpt lat="28.49735" lon="-10.48071">
        <ele>321</ele>
        <time>2012-05-10T17:08:53Z</time>
      </trkpt>
      <trkpt lat="28.49745" lon="-10.4809">
        <ele>321.1</ele>
        <time>2012-05-10T17:08:58Z</time>
      </trkpt>
      <trkpt lat="28.49761" lon="-10.48112">
        <ele>321.9</ele>
        <time>2012-05-10T17:09:03Z</time>
      </trkpt>
      <trkpt lat="28.4977" lon="-10.48135">
        <ele>323.3</ele>
        <time>2012-05-10T17:09:08Z</time>
      </trkpt>
      <trkpt lat="28.49779" lon="-10.4816">
        <ele>323</ele>
        <time>2012-05-10T17:09:13Z</time>
      </trkpt>
      <trkpt lat="28.49786" lon="-10.48183">
        <ele>322.4</ele>
        <time>2012-05-10T17:09:18Z</time>
      </trkpt>
      <trkpt lat="28.49793" lon="-10.48205">
        <ele>321.9</ele>
        <time>2012-05-10T17:09:23Z</time>
      </trkpt>
      <trkpt lat="28.49803" lon="-10.48224">
        <ele>321.7</ele>
        <time>2012-05-10T17:09:28Z</time>
      </trkpt>
      <trkpt lat="28.49817" lon="-10.48245">
        <ele>321.9</ele>
        <time>2012-05-10T17:09:33Z</time>
      </trkpt>
      <trkpt lat="28.49824" lon="-10.4827">
        <ele>321.6</ele>
        <time>2012-05-10T17:09:38Z</time>
      </trkpt>
      <trkpt lat="28.49832" lon="-10.48291">
        <ele>322.1</ele>
        <time>2012-05-10T17:09:43Z</time>
      </trkpt>
      <trkpt lat="28.49835" lon="-10.48316">
        <ele>321.8</ele>
        <time>2012-05-10T17:09:48Z</time>
      </trkpt>
      <trkpt lat="28.49839" lon="-10.48342">
        <ele>321.6</ele>
        <time>2012-05-10T17:09:53Z</time>
      </trkpt>
      <trkpt lat="28.49845" lon="-10.48366">
        <ele>321.3</ele>
        <time>2012-05-10T17:09:58Z</time>
      </trkpt>
      <trkpt lat="28.49853" lon="-10.48386">
        <ele>322.2</ele>
        <time>2012-05-10T17:10:03Z</time>
      </trkpt>
      <trkpt lat="28.49853" lon="-10.48406">
        <ele>322.4</ele>
        <time>2012-05-10T17:10:08Z</time>
      </trkpt>
      <trkpt lat="28.49841" lon="-10.48423">
        <ele>322.7</ele>
        <time>2012-05-10T17:10:13Z</time>
      </trkpt>
      <trkpt lat="28.4984" lon="-10.48448">
        <ele>321.9</ele>
        <time>2012-05-10T17:10:18Z</time>
      </trkpt>
      <trkpt lat="28.49841" lon="-10.48472">
        <ele>320.8</ele>
        <time>2012-05-10T17:10:23Z</time>
      </trkpt>
      <trkpt lat="28.49847" lon="-10.48493">
        <ele>319.8</ele>
        <time>2012-05-10T17:10:28Z</time>
      </trkpt>
      <trkpt lat="28.49852" lon="-10.48518">
        <ele>320.3</ele>
        <time>2012-05-10T17:10:33Z</time>
      </trkpt>
      <trkpt lat="28.49852" lon="-10.48541">
        <ele>319.9</ele>
        <time>2012-05-10T17:10:38Z</time>
      </trkpt>
      <trkpt lat="28.49857" lon="-10.48566">
        <ele>319.1</ele>
        <time>2012-05-10T17:10:43Z</time>
      </trkpt>
      <trkpt lat="28.49866" lon="-10.48591">
        <ele>318.4</ele>
        <time>2012-05-10T17:10:48Z</time>
      </trkpt>
      <trkpt lat="28.49875" lon="-10.48614">
        <ele>317.9</ele>
        <time>2012-05-10T17:10:53Z</time>
      </trkpt>
      <trkpt lat="28.49878" lon="-10.48638">
        <ele>317.4</ele>
        <time>2012-05-10T17:10:58Z</time>
      </trkpt>
      <trkpt lat="28.49872" lon="-10.48665">
        <ele>317</ele>
        <time>2012-05-10T17:11:03Z</time>
      </trkpt>
      <trkpt lat="28.49868" lon="-10.48693">
        <ele>316.5</ele>
        <time>2012-05-10T17:11:08Z</time>
      </trkpt>
      <trkpt lat="28.49867" lon="-10.48718">
        <ele>316</ele>
        <time>2012-05-10T17:11:13Z</time>
      </trkpt>
      <trkpt lat="28.4986" lon="-10.4874">
        <ele>315.9</ele>
        <time>2012-05-10T17:11:18Z</time>
      </trkpt>
      <trkpt lat="28.49848" lon="-10.48759">
        <ele>315.3</ele>
        <time>2012-05-10T17:11:23Z</time>
      </trkpt>
      <trkpt lat="28.49839" lon="-10.48779">
        <ele>315</ele>
        <time>2012-05-10T17:11:28Z</time>
      </trkpt>
      <trkpt lat="28.49837" lon="-10.48806">
        <ele>314.9</ele>
        <time>2012-05-10T17:11:33Z</time>
      </trkpt>
      <trkpt lat="28.49834" lon="-10.48833">
        <ele>314.9</ele>
        <time>2012-05-10T17:11:38Z</time>
      </trkpt>
      <trkpt lat="28.49832" lon="-10.48862">
        <ele>314.7</ele>
        <time>2012-05-10T17:11:43Z</time>
      </trkpt>
      <trkpt lat="28.49832" lon="-10.48899">
        <ele>314.3</ele>
        <time>2012-05-10T17:11:48Z</time>
      </trkpt>
      <trkpt lat="28.49828" lon="-10.48926">
        <ele>314.1</ele>
        <time>2012-05-10T17:11:53Z</time>
      </trkpt>
      <trkpt lat="28.49804" lon="-10.49081">
        <ele>312.8</ele>
        <time>2012-05-10T17:11:58Z</time>
      </trkpt>
      <trkpt lat="28.498" lon="-10.49108">
        <ele>312.6</ele>
        <time>2012-05-10T17:12:03Z</time>
      </trkpt>
      <trkpt lat="28.49794" lon="-10.49151">
        <ele>311.9</ele>
        <time>2012-05-10T17:12:08Z</time>
      </trkpt>
      <trkpt lat="28.49787" lon="-10.49203">
        <ele>311.2</ele>
        <time>2012-05-10T17:12:13Z</time>
      </trkpt>
      <trkpt lat="28.4978" lon="-10.49227">
        <ele>310.7</ele>
        <time>2012-05-10T17:12:18Z</time>
      </trkpt>
      <trkpt lat="28.49774" lon="-10.49249">
        <ele>310.1</ele>
        <time>2012-05-10T17:12:23Z</time>
      </trkpt>
      <trkpt lat="28.49765" lon="-10.49271">
        <ele>309.5</ele>
        <time>2012-05-10T17:12:28Z</time>
      </trkpt>
      <trkpt lat="28.49758" lon="-10.49293">
        <ele>308.2</ele>
        <time>2012-05-10T17:12:33Z</time>
      </trkpt>
      <trkpt lat="28.49743" lon="-10.49307">
        <ele>308</ele>
        <time>2012-05-10T17:12:38Z</time>
      </trkpt>
      <trkpt lat="28.49729" lon="-10.49319">
        <ele>308.1</ele>
        <time>2012-05-10T17:12:43Z</time>
      </trkpt>
      <trkpt lat="28.49731" lon="-10.49345">
        <ele>308.2</ele>
        <time>2012-05-10T17:12:48Z</time>
      </trkpt>
      <trkpt lat="28.49734" lon="-10.49365">
        <ele>308.3</ele>
        <time>2012-05-10T17:12:53Z</time>
      </trkpt>
      <trkpt lat="28.49737" lon="-10.4939">
        <ele>307.9</ele>
        <time>2012-05-10T17:12:58Z</time>
      </trkpt>
      <trkpt lat="28.49739" lon="-10.4942">
        <ele>307.5</ele>
        <time>2012-05-10T17:13:03Z</time>
      </trkpt>
      <trkpt lat="28.49748" lon="-10.49444">
        <ele>307.2</ele>
        <time>2012-05-10T17:13:08Z</time>
      </trkpt>
      <trkpt lat="28.49752" lon="-10.49468">
        <ele>306.7</ele>
        <time>2012-05-10T17:13:13Z</time>
      </trkpt>
      <trkpt lat="28.49753" lon="-10.49493">
        <ele>306.5</ele>
        <time>2012-05-10T17:13:18Z</time>
      </trkpt>
      <trkpt lat="28.49759" lon="-10.49518">
        <ele>306.3</ele>
        <time>2012-05-10T17:13:23Z</time>
      </trkpt>
      <trkpt lat="28.49767" lon="-10.49544">
        <ele>305.9</ele>
        <time>2012-05-10T17:13:28Z</time>
      </trkpt>
      <trkpt lat="28.49769" lon="-10.49565">
        <ele>305.8</ele>
        <time>2012-05-10T17:13:33Z</time>
      </trkpt>
      <trkpt lat="28.49766" lon="-10.49591">
        <ele>305.6</ele>
        <time>2012-05-10T17:13:38Z</time>
      </trkpt>
      <trkpt lat="28.49763" lon="-10.49618">
        <ele>304.8</ele>
        <time>2012-05-10T17:13:43Z</time>
      </trkpt>
      <trkpt lat="28.49772" lon="-10.49639">
        <ele>304.9</ele>
        <time>2012-05-10T17:13:48Z</time>
      </trkpt>
      <trkpt lat="28.49786" lon="-10.49656">
        <ele>304.6</ele>
        <time>2012-05-10T17:13:53Z</time>
      </trkpt>
      <trkpt lat="28.49798" lon="-10.49674">
        <ele>304.5</ele>
        <time>2012-05-10T17:13:58Z</time>
      </trkpt>
      <trkpt lat="28.49794" lon="-10.49694">
        <ele>304.1</ele>
        <time>2012-05-10T17:14:03Z</time>
      </trkpt>
      <trkpt lat="28.49784" lon="-10.49714">
        <ele>303.2</ele>
        <time>2012-05-10T17:14:08Z</time>
      </trkpt>
      <trkpt lat="28.49787" lon="-10.49739">
        <ele>304.6</ele>
        <time>2012-05-10T17:14:13Z</time>
      </trkpt>
      <trkpt lat="28.49789" lon="-10.4976">
        <ele>305</ele>
        <time>2012-05-10T17:14:18Z</time>
      </trkpt>
      <trkpt lat="28.49792" lon="-10.49801">
        <ele>305.2</ele>
        <time>2012-05-10T17:14:23Z</time>
      </trkpt>
      <trkpt lat="28.49794" lon="-10.49835">
        <ele>305.4</ele>
        <time>2012-05-10T17:14:28Z</time>
      </trkpt>
      <trkpt lat="28.49795" lon="-10.49861">
        <ele>305.7</ele>
        <time>2012-05-10T17:14:33Z</time>
      </trkpt>
      <trkpt lat="28.49803" lon="-10.49939">
        <ele>306.7</ele>
        <time>2012-05-10T17:14:38Z</time>
      </trkpt>
      <trkpt lat="28.49809" lon="-10.49962">
        <ele>307.2</ele>
        <time>2012-05-10T17:14:43Z</time>
      </trkpt>
      <trkpt lat="28.49812" lon="-10.49987">
        <ele>307.3</ele>
        <time>2012-05-10T17:14:48Z</time>
      </trkpt>
      <trkpt lat="28.49811" lon="-10.50011">
        <ele>307.3</ele>
        <time>2012-05-10T17:14:53Z</time>
      </trkpt>
      <trkpt lat="28.49812" lon="-10.50036">
        <ele>307.2</ele>
        <time>2012-05-10T17:14:58Z</time>
      </trkpt>
      <trkpt lat="28.49815" lon="-10.50063">
        <ele>307.3</ele>
        <time>2012-05-10T17:15:03Z</time>
      </trkpt>
      <trkpt lat="28.49818" lon="-10.50102">
        <ele>307.9</ele>
        <time>2012-05-10T17:15:08Z</time>
      </trkpt>
      <trkpt lat="28.49822" lon="-10.5013">
        <ele>308.2</ele>
        <time>2012-05-10T17:15:13Z</time>
      </trkpt>
      <trkpt lat="28.49825" lon="-10.50158">
        <ele>309.1</ele>
        <time>2012-05-10T17:15:18Z</time>
      </trkpt>
      <trkpt lat="28.49836" lon="-10.50264">
        <ele>309.1</ele>
        <time>2012-05-10T17:15:23Z</time>
      </trkpt>
      <trkpt lat="28.49838" lon="-10.50291">
        <ele>308.4</ele>
        <time>2012-05-10T17:15:28Z</time>
      </trkpt>
      <trkpt lat="28.49845" lon="-10.50317">
        <ele>308.4</ele>
        <time>2012-05-10T17:15:33Z</time>
      </trkpt>
      <trkpt lat="28.4985" lon="-10.50345">
        <ele>308</ele>
        <time>2012-05-10T17:15:38Z</time>
      </trkpt>
      <trkpt lat="28.49851" lon="-10.50366">
        <ele>307.7</ele>
        <time>2012-05-10T17:15:43Z</time>
      </trkpt>
      <trkpt lat="28.4985" lon="-10.50387">
        <ele>307.2</ele>
        <time>2012-05-10T17:15:48Z</time>
      </trkpt>
      <trkpt lat="28.49848" lon="-10.50426">
        <ele>306.4</ele>
        <time>2012-05-10T17:15:53Z</time>
      </trkpt>
      <trkpt lat="28.49843" lon="-10.50453">
        <ele>305.9</ele>
        <time>2012-05-10T17:15:58Z</time>
      </trkpt>
      <trkpt lat="28.4984" lon="-10.50473">
        <ele>305.2</ele>
        <time>2012-05-10T17:16:03Z</time>
      </trkpt>
      <trkpt lat="28.49827" lon="-10.5059">
        <ele>302.5</ele>
        <time>2012-05-10T17:16:08Z</time>
      </trkpt>
      <trkpt lat="28.49824" lon="-10.50616">
        <ele>302</ele>
        <time>2012-05-10T17:16:13Z</time>
      </trkpt>
      <trkpt lat="28.4982" lon="-10.50653">
        <ele>301.5</ele>
        <time>2012-05-10T17:16:18Z</time>
      </trkpt>
      <trkpt lat="28.49816" lon="-10.50681">
        <ele>300.7</ele>
        <time>2012-05-10T17:16:23Z</time>
      </trkpt>
      <trkpt lat="28.49808" lon="-10.5071">
        <ele>300</ele>
        <time>2012-05-10T17:16:28Z</time>
      </trkpt>
      <trkpt lat="28.49798" lon="-10.50751">
        <ele>299.6</ele>
        <time>2012-05-10T17:16:33Z</time>
      </trkpt>
      <trkpt lat="28.49793" lon="-10.5078">
        <ele>300</ele>
        <time>2012-05-10T17:16:38Z</time>
      </trkpt>
      <trkpt lat="28.49771" lon="-10.50864">
        <ele>299</ele>
        <time>2012-05-10T17:16:43Z</time>
      </trkpt>
      <trkpt lat="28.49754" lon="-10.50951">
        <ele>295</ele>
        <time>2012-05-10T17:16:48Z</time>
      </trkpt>
      <trkpt lat="28.49755" lon="-10.50979">
        <ele>294.7</ele>
        <time>2012-05-10T17:16:53Z</time>
      </trkpt>
      <trkpt lat="28.49752" lon="-10.51007">
        <ele>294</ele>
        <time>2012-05-10T17:16:58Z</time>
      </trkpt>
      <trkpt lat="28.49754" lon="-10.51035">
        <ele>294.1</ele>
        <time>2012-05-10T17:17:03Z</time>
      </trkpt>
      <trkpt lat="28.49757" lon="-10.51064">
        <ele>294.3</ele>
        <time>2012-05-10T17:17:08Z</time>
      </trkpt>
      <trkpt lat="28.49754" lon="-10.51094">
        <ele>294.6</ele>
        <time>2012-05-10T17:17:13Z</time>
      </trkpt>
      <trkpt lat="28.49754" lon="-10.51122">
        <ele>294.6</ele>
        <time>2012-05-10T17:17:18Z</time>
      </trkpt>
      <trkpt lat="28.49757" lon="-10.51187">
        <ele>294.6</ele>
        <time>2012-05-10T17:17:23Z</time>
      </trkpt>
      <trkpt lat="28.49755" lon="-10.51214">
        <ele>294.7</ele>
        <time>2012-05-10T17:17:28Z</time>
      </trkpt>
      <trkpt lat="28.49753" lon="-10.51238">
        <ele>294.9</ele>
        <time>2012-05-10T17:17:33Z</time>
      </trkpt>
      <trkpt lat="28.49756" lon="-10.51259">
        <ele>294.6</ele>
        <time>2012-05-10T17:17:38Z</time>
      </trkpt>
      <trkpt lat="28.49756" lon="-10.51284">
        <ele>293.7</ele>
        <time>2012-05-10T17:17:43Z</time>
      </trkpt>
      <trkpt lat="28.49755" lon="-10.51309">
        <ele>292.2</ele>
        <time>2012-05-10T17:17:48Z</time>
      </trkpt>
      <trkpt lat="28.49763" lon="-10.51329">
        <ele>291.3</ele>
        <time>2012-05-10T17:17:53Z</time>
      </trkpt>
      <trkpt lat="28.4977" lon="-10.51355">
        <ele>290.4</ele>
        <time>2012-05-10T17:17:58Z</time>
      </trkpt>
      <trkpt lat="28.49782" lon="-10.51405">
        <ele>289.2</ele>
        <time>2012-05-10T17:18:03Z</time>
      </trkpt>
      <trkpt lat="28.49787" lon="-10.5143">
        <ele>287.8</ele>
        <time>2012-05-10T17:18:08Z</time>
      </trkpt>
      <trkpt lat="28.49791" lon="-10.51462">
        <ele>286.5</ele>
        <time>2012-05-10T17:18:13Z</time>
      </trkpt>
      <trkpt lat="28.4979" lon="-10.51484">
        <ele>286.2</ele>
        <time>2012-05-10T17:18:18Z</time>
      </trkpt>
      <trkpt lat="28.49791" lon="-10.51506">
        <ele>284.6</ele>
        <time>2012-05-10T17:18:23Z</time>
      </trkpt>
      <trkpt lat="28.49789" lon="-10.51533">
        <ele>282.5</ele>
        <time>2012-05-10T17:18:28Z</time>
      </trkpt>
      <trkpt lat="28.49782" lon="-10.5156">
        <ele>280.9</ele>
        <time>2012-05-10T17:18:33Z</time>
      </trkpt>
      <trkpt lat="28.49776" lon="-10.51587">
        <ele>279.4</ele>
        <time>2012-05-10T17:18:38Z</time>
      </trkpt>
      <trkpt lat="28.49775" lon="-10.51615">
        <ele>277.5</ele>
        <time>2012-05-10T17:18:43Z</time>
      </trkpt>
      <trkpt lat="28.49776" lon="-10.51644">
        <ele>275.8</ele>
        <time>2012-05-10T17:18:48Z</time>
      </trkpt>
      <trkpt lat="28.49786" lon="-10.51672">
        <ele>274.5</ele>
        <time>2012-05-10T17:18:53Z</time>
      </trkpt>
      <trkpt lat="28.49795" lon="-10.51701">
        <ele>273.7</ele>
        <time>2012-05-10T17:18:58Z</time>
      </trkpt>
      <trkpt lat="28.49811" lon="-10.51766">
        <ele>272.9</ele>
        <time>2012-05-10T17:19:03Z</time>
      </trkpt>
      <trkpt lat="28.49823" lon="-10.51794">
        <ele>272.4</ele>
        <time>2012-05-10T17:19:08Z</time>
      </trkpt>
      <trkpt lat="28.49829" lon="-10.51813">
        <ele>271.7</ele>
        <time>2012-05-10T17:19:13Z</time>
      </trkpt>
      <trkpt lat="28.49834" lon="-10.51842">
        <ele>271.2</ele>
        <time>2012-05-10T17:19:18Z</time>
      </trkpt>
      <trkpt lat="28.49843" lon="-10.5187">
        <ele>270.9</ele>
        <time>2012-05-10T17:19:23Z</time>
      </trkpt>
      <trkpt lat="28.49853" lon="-10.51895">
        <ele>271.1</ele>
        <time>2012-05-10T17:19:28Z</time>
      </trkpt>
      <trkpt lat="28.49862" lon="-10.51919">
        <ele>271.3</ele>
        <time>2012-05-10T17:19:33Z</time>
      </trkpt>
      <trkpt lat="28.49868" lon="-10.51946">
        <ele>271.1</ele>
        <time>2012-05-10T17:19:38Z</time>
      </trkpt>
      <trkpt lat="28.49875" lon="-10.51974">
        <ele>270.7</ele>
        <time>2012-05-10T17:19:43Z</time>
      </trkpt>
      <trkpt lat="28.49886" lon="-10.52013">
        <ele>271.1</ele>
        <time>2012-05-10T17:19:48Z</time>
      </trkpt>
      <trkpt lat="28.49894" lon="-10.5204">
        <ele>270.3</ele>
        <time>2012-05-10T17:19:53Z</time>
      </trkpt>
      <trkpt lat="28.49904" lon="-10.52069">
        <ele>270.3</ele>
        <time>2012-05-10T17:19:58Z</time>
      </trkpt>
      <trkpt lat="28.4992" lon="-10.52084">
        <ele>269.6</ele>
        <time>2012-05-10T17:20:03Z</time>
      </trkpt>
      <trkpt lat="28.4994" lon="-10.52084">
        <ele>269.1</ele>
        <time>2012-05-10T17:20:08Z</time>
      </trkpt>
      <trkpt lat="28.4996" lon="-10.52086">
        <ele>268.3</ele>
        <time>2012-05-10T17:20:13Z</time>
      </trkpt>
      <trkpt lat="28.49979" lon="-10.52085">
        <ele>267.6</ele>
        <time>2012-05-10T17:20:18Z</time>
      </trkpt>
      <trkpt lat="28.49998" lon="-10.52086">
        <ele>267</ele>
        <time>2012-05-10T17:20:23Z</time>
      </trkpt>
      <trkpt lat="28.50011" lon="-10.52101">
        <ele>267.5</ele>
        <time>2012-05-10T17:20:28Z</time>
      </trkpt>
      <trkpt lat="28.50031" lon="-10.52112">
        <ele>268.4</ele>
        <time>2012-05-10T17:20:33Z</time>
      </trkpt>
      <trkpt lat="28.50049" lon="-10.52124">
        <ele>271.2</ele>
        <time>2012-05-10T17:20:38Z</time>
      </trkpt>
      <trkpt lat="28.50062" lon="-10.52139">
        <ele>272.2</ele>
        <time>2012-05-10T17:20:43Z</time>
      </trkpt>
      <trkpt lat="28.50064" lon="-10.52162">
        <ele>272.7</ele>
        <time>2012-05-10T17:20:48Z</time>
      </trkpt>
      <trkpt lat="28.50053" lon="-10.52184">
        <ele>272.8</ele>
        <time>2012-05-10T17:20:53Z</time>
      </trkpt>
      <trkpt lat="28.50042" lon="-10.52205">
        <ele>272.7</ele>
        <time>2012-05-10T17:20:58Z</time>
      </trkpt>
      <trkpt lat="28.50027" lon="-10.52219">
        <ele>272.3</ele>
        <time>2012-05-10T17:21:03Z</time>
      </trkpt>
      <trkpt lat="28.50012" lon="-10.52233">
        <ele>271.9</ele>
        <time>2012-05-10T17:21:08Z</time>
      </trkpt>
      <trkpt lat="28.49999" lon="-10.52249">
        <ele>271.4</ele>
        <time>2012-05-10T17:21:13Z</time>
      </trkpt>
      <trkpt lat="28.49987" lon="-10.52266">
        <ele>270.9</ele>
        <time>2012-05-10T17:21:18Z</time>
      </trkpt>
      <trkpt lat="28.49981" lon="-10.52286">
        <ele>270.3</ele>
        <time>2012-05-10T17:21:23Z</time>
      </trkpt>
      <trkpt lat="28.4998" lon="-10.52308">
        <ele>270</ele>
        <time>2012-05-10T17:21:28Z</time>
      </trkpt>
      <trkpt lat="28.49985" lon="-10.52332">
        <ele>270.3</ele>
        <time>2012-05-10T17:21:33Z</time>
      </trkpt>
      <trkpt lat="28.50011" lon="-10.52465">
        <ele>268.5</ele>
        <time>2012-05-10T17:21:38Z</time>
      </trkpt>
      <trkpt lat="28.50018" lon="-10.52487">
        <ele>268.4</ele>
        <time>2012-05-10T17:21:43Z</time>
      </trkpt>
      <trkpt lat="28.50033" lon="-10.5253">
        <ele>268</ele>
        <time>2012-05-10T17:21:48Z</time>
      </trkpt>
      <trkpt lat="28.50037" lon="-10.52552">
        <ele>268.5</ele>
        <time>2012-05-10T17:21:53Z</time>
      </trkpt>
      <trkpt lat="28.50043" lon="-10.52573">
        <ele>268.5</ele>
        <time>2012-05-10T17:21:58Z</time>
      </trkpt>
      <trkpt lat="28.50048" lon="-10.52599">
        <ele>268.5</ele>
        <time>2012-05-10T17:22:03Z</time>
      </trkpt>
      <trkpt lat="28.50054" lon="-10.52624">
        <ele>268.1</ele>
        <time>2012-05-10T17:22:08Z</time>
      </trkpt>
      <trkpt lat="28.50061" lon="-10.52648">
        <ele>267.7</ele>
        <time>2012-05-10T17:22:13Z</time>
      </trkpt>
      <trkpt lat="28.5007" lon="-10.5267">
        <ele>267.5</ele>
        <time>2012-05-10T17:22:18Z</time>
      </trkpt>
      <trkpt lat="28.50077" lon="-10.52693">
        <ele>267.4</ele>
        <time>2012-05-10T17:22:23Z</time>
      </trkpt>
      <trkpt lat="28.50079" lon="-10.52718">
        <ele>266.6</ele>
        <time>2012-05-10T17:22:28Z</time>
      </trkpt>
      <trkpt lat="28.50081" lon="-10.5276">
        <ele>264.8</ele>
        <time>2012-05-10T17:22:33Z</time>
      </trkpt>
      <trkpt lat="28.50085" lon="-10.52783">
        <ele>264</ele>
        <time>2012-05-10T17:22:38Z</time>
      </trkpt>
      <trkpt lat="28.50077" lon="-10.52807">
        <ele>263.5</ele>
        <time>2012-05-10T17:22:43Z</time>
      </trkpt>
      <trkpt lat="28.50013" lon="-10.52958">
        <ele>258.9</ele>
        <time>2012-05-10T17:22:48Z</time>
      </trkpt>
      <trkpt lat="28.50003" lon="-10.52979">
        <ele>258</ele>
        <time>2012-05-10T17:22:53Z</time>
      </trkpt>
      <trkpt lat="28.49992" lon="-10.52999">
        <ele>257.6</ele>
        <time>2012-05-10T17:22:58Z</time>
      </trkpt>
      <trkpt lat="28.49984" lon="-10.53024">
        <ele>257.5</ele>
        <time>2012-05-10T17:23:03Z</time>
      </trkpt>
      <trkpt lat="28.49975" lon="-10.53044">
        <ele>258.2</ele>
        <time>2012-05-10T17:23:08Z</time>
      </trkpt>
      <trkpt lat="28.49965" lon="-10.53061">
        <ele>258.4</ele>
        <time>2012-05-10T17:23:13Z</time>
      </trkpt>
      <trkpt lat="28.49945" lon="-10.53068">
        <ele>258.5</ele>
        <time>2012-05-10T17:23:18Z</time>
      </trkpt>
      <trkpt lat="28.49924" lon="-10.53064">
        <ele>257.9</ele>
        <time>2012-05-10T17:23:23Z</time>
      </trkpt>
      <trkpt lat="28.49906" lon="-10.5306">
        <ele>257.5</ele>
        <time>2012-05-10T17:23:28Z</time>
      </trkpt>
      <trkpt lat="28.4989" lon="-10.53049">
        <ele>257.6</ele>
        <time>2012-05-10T17:23:33Z</time>
      </trkpt>
      <trkpt lat="28.49873" lon="-10.53042">
        <ele>258.2</ele>
        <time>2012-05-10T17:23:38Z</time>
      </trkpt>
      <trkpt lat="28.49853" lon="-10.53039">
        <ele>258.1</ele>
        <time>2012-05-10T17:23:43Z</time>
      </trkpt>
      <trkpt lat="28.49833" lon="-10.53028">
        <ele>257.8</ele>
        <time>2012-05-10T17:23:48Z</time>
      </trkpt>
      <trkpt lat="28.49811" lon="-10.53029">
        <ele>257.6</ele>
        <time>2012-05-10T17:23:53Z</time>
      </trkpt>
      <trkpt lat="28.49791" lon="-10.5304">
        <ele>258.1</ele>
        <time>2012-05-10T17:23:58Z</time>
      </trkpt>
      <trkpt lat="28.49778" lon="-10.53057">
        <ele>258.3</ele>
        <time>2012-05-10T17:24:03Z</time>
      </trkpt>
      <trkpt lat="28.49776" lon="-10.53079">
        <ele>257.9</ele>
        <time>2012-05-10T17:24:08Z</time>
      </trkpt>
      <trkpt lat="28.49775" lon="-10.53103">
        <ele>257.8</ele>
        <time>2012-05-10T17:24:13Z</time>
      </trkpt>
      <trkpt lat="28.49775" lon="-10.53124">
        <ele>256.8</ele>
        <time>2012-05-10T17:24:18Z</time>
      </trkpt>
      <trkpt lat="28.49777" lon="-10.53146">
        <ele>253.7</ele>
        <time>2012-05-10T17:24:23Z</time>
      </trkpt>
      <trkpt lat="28.49784" lon="-10.53166">
        <ele>253.5</ele>
        <time>2012-05-10T17:24:28Z</time>
      </trkpt>
      <trkpt lat="28.49796" lon="-10.53186">
        <ele>253.2</ele>
        <time>2012-05-10T17:24:33Z</time>
      </trkpt>
      <trkpt lat="28.49804" lon="-10.53206">
        <ele>253</ele>
        <time>2012-05-10T17:24:38Z</time>
      </trkpt>
      <trkpt lat="28.49813" lon="-10.53226">
        <ele>252</ele>
        <time>2012-05-10T17:24:43Z</time>
      </trkpt>
      <trkpt lat="28.49825" lon="-10.53242">
        <ele>252</ele>
        <time>2012-05-10T17:24:48Z</time>
      </trkpt>
      <trkpt lat="28.49844" lon="-10.53247">
        <ele>252.1</ele>
        <time>2012-05-10T17:24:53Z</time>
      </trkpt>
      <trkpt lat="28.49862" lon="-10.53248">
        <ele>252</ele>
        <time>2012-05-10T17:24:58Z</time>
      </trkpt>
      <trkpt lat="28.49879" lon="-10.53247">
        <ele>251.5</ele>
        <time>2012-05-10T17:25:03Z</time>
      </trkpt>
      <trkpt lat="28.49893" lon="-10.53244">
        <ele>252.8</ele>
        <time>2012-05-10T17:25:08Z</time>
      </trkpt>
      <trkpt lat="28.49912" lon="-10.53251">
        <ele>252.6</ele>
        <time>2012-05-10T17:25:13Z</time>
      </trkpt>
      <trkpt lat="28.49938" lon="-10.53265">
        <ele>253</ele>
        <time>2012-05-10T17:25:18Z</time>
      </trkpt>
      <trkpt lat="28.49952" lon="-10.53278">
        <ele>252.3</ele>
        <time>2012-05-10T17:25:23Z</time>
      </trkpt>
      <trkpt lat="28.49964" lon="-10.53294">
        <ele>251.8</ele>
        <time>2012-05-10T17:25:28Z</time>
      </trkpt>
      <trkpt lat="28.4998" lon="-10.53307">
        <ele>252.3</ele>
        <time>2012-05-10T17:25:33Z</time>
      </trkpt>
      <trkpt lat="28.50001" lon="-10.53318">
        <ele>252.8</ele>
        <time>2012-05-10T17:25:38Z</time>
      </trkpt>
    </trkseg>
  </trk>
</gpx>